<?xml version="1.0" encoding="UTF-8"?>
<gpx xmlns="http://www.topografix.com/GPX/1/1" xmlns:xsi="http://www.w3.org/2001/XMLSchema-instance" version="1.1" creator="Trace de Trail" xsi:schemaLocation="http://www.topografix.com/GPX/1/1 http://www.topografix.com/GPX/1/1/gpx.xsd">
  <metadata>
    <name>Epic Trail Baraque de Fraiture 2026 - Epic 100K</name>
    <desc>Parcours créé sur Trace de Trail</desc>
    <link href="https://tracedetrail.fr/fr/trace/302891">
      <text>Cartographie du parcours</text>
    </link>
    <time>2026-09-02T14:57:08+00:00</time>
  </metadata>
  <wpt lat="50.25432" lon="5.73452">
    <ele>626</ele>
    <type>depart</type>
  </wpt>
  <wpt lat="50.27919" lon="5.54643">
    <ele>277</ele>
    <name>Ravitaillement/Bevoorrading - Taeru</name>
    <type></type>
  </wpt>
  <wpt lat="50.242" lon="5.59798">
    <ele>497</ele>
    <name>Ravitaillement/Bevoorrading - Parc Chlorophylle</name>
    <type></type>
  </wpt>
  <wpt lat="50.22599" lon="5.61624">
    <ele>561</ele>
    <type></type>
  </wpt>
  <wpt lat="50.25551" lon="5.68336">
    <ele>532</ele>
    <type></type>
  </wpt>
  <wpt lat="50.29179" lon="5.71967">
    <ele>413</ele>
    <type></type>
  </wpt>
  <wpt lat="50.28248" lon="5.77793">
    <ele>445</ele>
    <type></type>
  </wpt>
  <wpt lat="50.25566" lon="5.68296">
    <ele>531</ele>
    <type></type>
  </wpt>
  <wpt lat="50.25432" lon="5.73452">
    <ele>626</ele>
    <type>arrivee</type>
  </wpt>
  <trk>
    <name>Epic Trail Baraque de Fraiture 2026 - Epic 100K sur TraceDeTrail.fr</name>
    <src>Trace de Trail</src>
    <trkseg>
      <trkpt lat="50.25432" lon="5.73452">
        <ele>626</ele>
        <time>2026-09-02T14:57:08+00:00</time>
      </trkpt>
      <trkpt lat="50.25425" lon="5.73402">
        <ele>632</ele>
        <time>2026-09-02T14:57:11+00:00</time>
      </trkpt>
      <trkpt lat="50.25418" lon="5.73351">
        <ele>634</ele>
        <time>2026-09-02T14:57:14+00:00</time>
      </trkpt>
      <trkpt lat="50.2541" lon="5.73301">
        <ele>635</ele>
        <time>2026-09-02T14:57:17+00:00</time>
      </trkpt>
      <trkpt lat="50.25401" lon="5.73237">
        <ele>636</ele>
        <time>2026-09-02T14:57:20+00:00</time>
      </trkpt>
      <trkpt lat="50.25395" lon="5.73198">
        <ele>638</ele>
        <time>2026-09-02T14:57:23+00:00</time>
      </trkpt>
      <trkpt lat="50.25416" lon="5.73183">
        <ele>638</ele>
        <time>2026-09-02T14:57:26+00:00</time>
      </trkpt>
      <trkpt lat="50.25443" lon="5.73164">
        <ele>642</ele>
        <time>2026-09-02T14:57:29+00:00</time>
      </trkpt>
      <trkpt lat="50.2544" lon="5.73102">
        <ele>647</ele>
        <time>2026-09-02T14:57:32+00:00</time>
      </trkpt>
      <trkpt lat="50.25438" lon="5.73048">
        <ele>647</ele>
        <time>2026-09-02T14:57:35+00:00</time>
      </trkpt>
      <trkpt lat="50.25428" lon="5.73016">
        <ele>647</ele>
        <time>2026-09-02T14:57:38+00:00</time>
      </trkpt>
      <trkpt lat="50.25417" lon="5.73003">
        <ele>646</ele>
        <time>2026-09-02T14:57:41+00:00</time>
      </trkpt>
      <trkpt lat="50.25436" lon="5.72963">
        <ele>646</ele>
        <time>2026-09-02T14:57:44+00:00</time>
      </trkpt>
      <trkpt lat="50.25455" lon="5.72922">
        <ele>646</ele>
        <time>2026-09-02T14:57:47+00:00</time>
      </trkpt>
      <trkpt lat="50.25474" lon="5.72882">
        <ele>646</ele>
        <time>2026-09-02T14:57:50+00:00</time>
      </trkpt>
      <trkpt lat="50.25493" lon="5.72842">
        <ele>644</ele>
        <time>2026-09-02T14:57:53+00:00</time>
      </trkpt>
      <trkpt lat="50.25516" lon="5.72794">
        <ele>642</ele>
        <time>2026-09-02T14:57:56+00:00</time>
      </trkpt>
      <trkpt lat="50.25531" lon="5.72756">
        <ele>642</ele>
        <time>2026-09-02T14:57:59+00:00</time>
      </trkpt>
      <trkpt lat="50.2556" lon="5.72685">
        <ele>641</ele>
        <time>2026-09-02T14:58:02+00:00</time>
      </trkpt>
      <trkpt lat="50.25566" lon="5.72684">
        <ele>639</ele>
        <time>2026-09-02T14:58:05+00:00</time>
      </trkpt>
      <trkpt lat="50.25574" lon="5.72684">
        <ele>639</ele>
        <time>2026-09-02T14:58:08+00:00</time>
      </trkpt>
      <trkpt lat="50.25595" lon="5.72691">
        <ele>641</ele>
        <time>2026-09-02T14:58:11+00:00</time>
      </trkpt>
      <trkpt lat="50.25629" lon="5.72702">
        <ele>640</ele>
        <time>2026-09-02T14:58:14+00:00</time>
      </trkpt>
      <trkpt lat="50.25664" lon="5.7271">
        <ele>639</ele>
        <time>2026-09-02T14:58:17+00:00</time>
      </trkpt>
      <trkpt lat="50.25699" lon="5.72719">
        <ele>639</ele>
        <time>2026-09-02T14:58:20+00:00</time>
      </trkpt>
      <trkpt lat="50.25733" lon="5.72727">
        <ele>637</ele>
        <time>2026-09-02T14:58:23+00:00</time>
      </trkpt>
      <trkpt lat="50.25768" lon="5.72736">
        <ele>636</ele>
        <time>2026-09-02T14:58:26+00:00</time>
      </trkpt>
      <trkpt lat="50.25821" lon="5.72749">
        <ele>633</ele>
        <time>2026-09-02T14:58:29+00:00</time>
      </trkpt>
      <trkpt lat="50.25857" lon="5.72756">
        <ele>631</ele>
        <time>2026-09-02T14:58:32+00:00</time>
      </trkpt>
      <trkpt lat="50.25893" lon="5.72763">
        <ele>628</ele>
        <time>2026-09-02T14:58:35+00:00</time>
      </trkpt>
      <trkpt lat="50.25928" lon="5.7277">
        <ele>628</ele>
        <time>2026-09-02T14:58:38+00:00</time>
      </trkpt>
      <trkpt lat="50.25964" lon="5.72777">
        <ele>627</ele>
        <time>2026-09-02T14:58:41+00:00</time>
      </trkpt>
      <trkpt lat="50.26" lon="5.72784">
        <ele>622</ele>
        <time>2026-09-02T14:58:44+00:00</time>
      </trkpt>
      <trkpt lat="50.26041" lon="5.72792">
        <ele>624</ele>
        <time>2026-09-02T14:58:47+00:00</time>
      </trkpt>
      <trkpt lat="50.26072" lon="5.72801">
        <ele>626</ele>
        <time>2026-09-02T14:58:50+00:00</time>
      </trkpt>
      <trkpt lat="50.26103" lon="5.72811">
        <ele>626</ele>
        <time>2026-09-02T14:58:53+00:00</time>
      </trkpt>
      <trkpt lat="50.26155" lon="5.72827">
        <ele>626</ele>
        <time>2026-09-02T14:58:56+00:00</time>
      </trkpt>
      <trkpt lat="50.2618" lon="5.72848">
        <ele>622</ele>
        <time>2026-09-02T14:58:59+00:00</time>
      </trkpt>
      <trkpt lat="50.2623" lon="5.72891">
        <ele>620</ele>
        <time>2026-09-02T14:59:02+00:00</time>
      </trkpt>
      <trkpt lat="50.26256" lon="5.72915">
        <ele>621</ele>
        <time>2026-09-02T14:59:05+00:00</time>
      </trkpt>
      <trkpt lat="50.26283" lon="5.7294">
        <ele>620</ele>
        <time>2026-09-02T14:59:08+00:00</time>
      </trkpt>
      <trkpt lat="50.26323" lon="5.72977">
        <ele>619</ele>
        <time>2026-09-02T14:59:11+00:00</time>
      </trkpt>
      <trkpt lat="50.2635" lon="5.73009">
        <ele>615</ele>
        <time>2026-09-02T14:59:14+00:00</time>
      </trkpt>
      <trkpt lat="50.26377" lon="5.7304">
        <ele>614</ele>
        <time>2026-09-02T14:59:17+00:00</time>
      </trkpt>
      <trkpt lat="50.26404" lon="5.73072">
        <ele>614</ele>
        <time>2026-09-02T14:59:20+00:00</time>
      </trkpt>
      <trkpt lat="50.26446" lon="5.73122">
        <ele>613</ele>
        <time>2026-09-02T14:59:23+00:00</time>
      </trkpt>
      <trkpt lat="50.26473" lon="5.73152">
        <ele>613</ele>
        <time>2026-09-02T14:59:26+00:00</time>
      </trkpt>
      <trkpt lat="50.26497" lon="5.73193">
        <ele>614</ele>
        <time>2026-09-02T14:59:29+00:00</time>
      </trkpt>
      <trkpt lat="50.26522" lon="5.73233">
        <ele>614</ele>
        <time>2026-09-02T14:59:32+00:00</time>
      </trkpt>
      <trkpt lat="50.26546" lon="5.73274">
        <ele>614</ele>
        <time>2026-09-02T14:59:35+00:00</time>
      </trkpt>
      <trkpt lat="50.26571" lon="5.73315">
        <ele>613</ele>
        <time>2026-09-02T14:59:38+00:00</time>
      </trkpt>
      <trkpt lat="50.26617" lon="5.73392">
        <ele>612</ele>
        <time>2026-09-02T14:59:41+00:00</time>
      </trkpt>
      <trkpt lat="50.26627" lon="5.73382">
        <ele>610</ele>
        <time>2026-09-02T14:59:44+00:00</time>
      </trkpt>
      <trkpt lat="50.26639" lon="5.73366">
        <ele>611</ele>
        <time>2026-09-02T14:59:47+00:00</time>
      </trkpt>
      <trkpt lat="50.26652" lon="5.73349">
        <ele>611</ele>
        <time>2026-09-02T14:59:50+00:00</time>
      </trkpt>
      <trkpt lat="50.26673" lon="5.73321">
        <ele>611</ele>
        <time>2026-09-02T14:59:53+00:00</time>
      </trkpt>
      <trkpt lat="50.26713" lon="5.73271">
        <ele>611</ele>
        <time>2026-09-02T14:59:56+00:00</time>
      </trkpt>
      <trkpt lat="50.2673" lon="5.73245">
        <ele>611</ele>
        <time>2026-09-02T14:59:59+00:00</time>
      </trkpt>
      <trkpt lat="50.26714" lon="5.73197">
        <ele>610</ele>
        <time>2026-09-02T15:00:02+00:00</time>
      </trkpt>
      <trkpt lat="50.26697" lon="5.7315">
        <ele>609</ele>
        <time>2026-09-02T15:00:05+00:00</time>
      </trkpt>
      <trkpt lat="50.26681" lon="5.73102">
        <ele>609</ele>
        <time>2026-09-02T15:00:08+00:00</time>
      </trkpt>
      <trkpt lat="50.26665" lon="5.73055">
        <ele>610</ele>
        <time>2026-09-02T15:00:11+00:00</time>
      </trkpt>
      <trkpt lat="50.26648" lon="5.73006">
        <ele>610</ele>
        <time>2026-09-02T15:00:14+00:00</time>
      </trkpt>
      <trkpt lat="50.26632" lon="5.72955">
        <ele>609</ele>
        <time>2026-09-02T15:00:17+00:00</time>
      </trkpt>
      <trkpt lat="50.26615" lon="5.72904">
        <ele>609</ele>
        <time>2026-09-02T15:00:20+00:00</time>
      </trkpt>
      <trkpt lat="50.26599" lon="5.72852">
        <ele>610</ele>
        <time>2026-09-02T15:00:23+00:00</time>
      </trkpt>
      <trkpt lat="50.26582" lon="5.72801">
        <ele>614</ele>
        <time>2026-09-02T15:00:26+00:00</time>
      </trkpt>
      <trkpt lat="50.26566" lon="5.7275">
        <ele>620</ele>
        <time>2026-09-02T15:00:29+00:00</time>
      </trkpt>
      <trkpt lat="50.26538" lon="5.72664">
        <ele>614</ele>
        <time>2026-09-02T15:00:32+00:00</time>
      </trkpt>
      <trkpt lat="50.26533" lon="5.72624">
        <ele>614</ele>
        <time>2026-09-02T15:00:35+00:00</time>
      </trkpt>
      <trkpt lat="50.26495" lon="5.72619">
        <ele>614</ele>
        <time>2026-09-02T15:00:38+00:00</time>
      </trkpt>
      <trkpt lat="50.26456" lon="5.72613">
        <ele>615</ele>
        <time>2026-09-02T15:00:41+00:00</time>
      </trkpt>
      <trkpt lat="50.26418" lon="5.72608">
        <ele>619</ele>
        <time>2026-09-02T15:00:44+00:00</time>
      </trkpt>
      <trkpt lat="50.26379" lon="5.72603">
        <ele>619</ele>
        <time>2026-09-02T15:00:47+00:00</time>
      </trkpt>
      <trkpt lat="50.26341" lon="5.72598">
        <ele>619</ele>
        <time>2026-09-02T15:00:50+00:00</time>
      </trkpt>
      <trkpt lat="50.26303" lon="5.72592">
        <ele>618</ele>
        <time>2026-09-02T15:00:53+00:00</time>
      </trkpt>
      <trkpt lat="50.26264" lon="5.72587">
        <ele>620</ele>
        <time>2026-09-02T15:00:56+00:00</time>
      </trkpt>
      <trkpt lat="50.26226" lon="5.72582">
        <ele>623</ele>
        <time>2026-09-02T15:00:59+00:00</time>
      </trkpt>
      <trkpt lat="50.26169" lon="5.72574">
        <ele>620</ele>
        <time>2026-09-02T15:01:02+00:00</time>
      </trkpt>
      <trkpt lat="50.26171" lon="5.72535">
        <ele>621</ele>
        <time>2026-09-02T15:01:05+00:00</time>
      </trkpt>
      <trkpt lat="50.26175" lon="5.72483">
        <ele>622</ele>
        <time>2026-09-02T15:01:08+00:00</time>
      </trkpt>
      <trkpt lat="50.26173" lon="5.72472">
        <ele>623</ele>
        <time>2026-09-02T15:01:11+00:00</time>
      </trkpt>
      <trkpt lat="50.26168" lon="5.72465">
        <ele>623</ele>
        <time>2026-09-02T15:01:14+00:00</time>
      </trkpt>
      <trkpt lat="50.26154" lon="5.72457">
        <ele>622</ele>
        <time>2026-09-02T15:01:17+00:00</time>
      </trkpt>
      <trkpt lat="50.2614" lon="5.72449">
        <ele>622</ele>
        <time>2026-09-02T15:01:20+00:00</time>
      </trkpt>
      <trkpt lat="50.26113" lon="5.72447">
        <ele>622</ele>
        <time>2026-09-02T15:01:23+00:00</time>
      </trkpt>
      <trkpt lat="50.26104" lon="5.72444">
        <ele>623</ele>
        <time>2026-09-02T15:01:26+00:00</time>
      </trkpt>
      <trkpt lat="50.26097" lon="5.72437">
        <ele>621</ele>
        <time>2026-09-02T15:01:29+00:00</time>
      </trkpt>
      <trkpt lat="50.26093" lon="5.72424">
        <ele>621</ele>
        <time>2026-09-02T15:01:32+00:00</time>
      </trkpt>
      <trkpt lat="50.26092" lon="5.72402">
        <ele>620</ele>
        <time>2026-09-02T15:01:35+00:00</time>
      </trkpt>
      <trkpt lat="50.26093" lon="5.72367">
        <ele>620</ele>
        <time>2026-09-02T15:01:38+00:00</time>
      </trkpt>
      <trkpt lat="50.26095" lon="5.72328">
        <ele>619</ele>
        <time>2026-09-02T15:01:41+00:00</time>
      </trkpt>
      <trkpt lat="50.26093" lon="5.72284">
        <ele>619</ele>
        <time>2026-09-02T15:01:44+00:00</time>
      </trkpt>
      <trkpt lat="50.26089" lon="5.72197">
        <ele>617</ele>
        <time>2026-09-02T15:01:47+00:00</time>
      </trkpt>
      <trkpt lat="50.2609" lon="5.72133">
        <ele>617</ele>
        <time>2026-09-02T15:01:50+00:00</time>
      </trkpt>
      <trkpt lat="50.26091" lon="5.7207">
        <ele>619</ele>
        <time>2026-09-02T15:01:53+00:00</time>
      </trkpt>
      <trkpt lat="50.26092" lon="5.72006">
        <ele>622</ele>
        <time>2026-09-02T15:01:56+00:00</time>
      </trkpt>
      <trkpt lat="50.26093" lon="5.71942">
        <ele>626</ele>
        <time>2026-09-02T15:01:59+00:00</time>
      </trkpt>
      <trkpt lat="50.26094" lon="5.71879">
        <ele>626</ele>
        <time>2026-09-02T15:02:02+00:00</time>
      </trkpt>
      <trkpt lat="50.26095" lon="5.71815">
        <ele>624</ele>
        <time>2026-09-02T15:02:05+00:00</time>
      </trkpt>
      <trkpt lat="50.26097" lon="5.71751">
        <ele>623</ele>
        <time>2026-09-02T15:02:08+00:00</time>
      </trkpt>
      <trkpt lat="50.26098" lon="5.71688">
        <ele>621</ele>
        <time>2026-09-02T15:02:11+00:00</time>
      </trkpt>
      <trkpt lat="50.26099" lon="5.71624">
        <ele>620</ele>
        <time>2026-09-02T15:02:14+00:00</time>
      </trkpt>
      <trkpt lat="50.261" lon="5.7156">
        <ele>620</ele>
        <time>2026-09-02T15:02:17+00:00</time>
      </trkpt>
      <trkpt lat="50.26101" lon="5.71497">
        <ele>620</ele>
        <time>2026-09-02T15:02:20+00:00</time>
      </trkpt>
      <trkpt lat="50.26102" lon="5.71433">
        <ele>619</ele>
        <time>2026-09-02T15:02:23+00:00</time>
      </trkpt>
      <trkpt lat="50.26103" lon="5.71369">
        <ele>618</ele>
        <time>2026-09-02T15:02:26+00:00</time>
      </trkpt>
      <trkpt lat="50.26104" lon="5.71306">
        <ele>618</ele>
        <time>2026-09-02T15:02:29+00:00</time>
      </trkpt>
      <trkpt lat="50.26105" lon="5.71242">
        <ele>615</ele>
        <time>2026-09-02T15:02:32+00:00</time>
      </trkpt>
      <trkpt lat="50.26107" lon="5.71178">
        <ele>607</ele>
        <time>2026-09-02T15:02:35+00:00</time>
      </trkpt>
      <trkpt lat="50.26108" lon="5.71115">
        <ele>602</ele>
        <time>2026-09-02T15:02:38+00:00</time>
      </trkpt>
      <trkpt lat="50.26109" lon="5.71037">
        <ele>598</ele>
        <time>2026-09-02T15:02:41+00:00</time>
      </trkpt>
      <trkpt lat="50.26096" lon="5.71021">
        <ele>595</ele>
        <time>2026-09-02T15:02:44+00:00</time>
      </trkpt>
      <trkpt lat="50.26093" lon="5.71012">
        <ele>595</ele>
        <time>2026-09-02T15:02:47+00:00</time>
      </trkpt>
      <trkpt lat="50.26097" lon="5.70954">
        <ele>594</ele>
        <time>2026-09-02T15:02:50+00:00</time>
      </trkpt>
      <trkpt lat="50.2609" lon="5.70905">
        <ele>593</ele>
        <time>2026-09-02T15:02:53+00:00</time>
      </trkpt>
      <trkpt lat="50.26083" lon="5.70871">
        <ele>593</ele>
        <time>2026-09-02T15:02:56+00:00</time>
      </trkpt>
      <trkpt lat="50.26075" lon="5.70832">
        <ele>590</ele>
        <time>2026-09-02T15:02:59+00:00</time>
      </trkpt>
      <trkpt lat="50.26067" lon="5.70795">
        <ele>590</ele>
        <time>2026-09-02T15:03:02+00:00</time>
      </trkpt>
      <trkpt lat="50.26055" lon="5.70744">
        <ele>590</ele>
        <time>2026-09-02T15:03:05+00:00</time>
      </trkpt>
      <trkpt lat="50.26037" lon="5.70702">
        <ele>592</ele>
        <time>2026-09-02T15:03:08+00:00</time>
      </trkpt>
      <trkpt lat="50.26023" lon="5.7068">
        <ele>592</ele>
        <time>2026-09-02T15:03:11+00:00</time>
      </trkpt>
      <trkpt lat="50.26009" lon="5.7064">
        <ele>592</ele>
        <time>2026-09-02T15:03:14+00:00</time>
      </trkpt>
      <trkpt lat="50.25994" lon="5.70599">
        <ele>592</ele>
        <time>2026-09-02T15:03:17+00:00</time>
      </trkpt>
      <trkpt lat="50.25977" lon="5.70551">
        <ele>593</ele>
        <time>2026-09-02T15:03:20+00:00</time>
      </trkpt>
      <trkpt lat="50.25966" lon="5.7052">
        <ele>592</ele>
        <time>2026-09-02T15:03:23+00:00</time>
      </trkpt>
      <trkpt lat="50.25955" lon="5.70487">
        <ele>591</ele>
        <time>2026-09-02T15:03:26+00:00</time>
      </trkpt>
      <trkpt lat="50.2595" lon="5.70443">
        <ele>590</ele>
        <time>2026-09-02T15:03:29+00:00</time>
      </trkpt>
      <trkpt lat="50.25941" lon="5.70355">
        <ele>574</ele>
        <time>2026-09-02T15:03:32+00:00</time>
      </trkpt>
      <trkpt lat="50.25939" lon="5.70329">
        <ele>569</ele>
        <time>2026-09-02T15:03:35+00:00</time>
      </trkpt>
      <trkpt lat="50.25939" lon="5.70303">
        <ele>568</ele>
        <time>2026-09-02T15:03:38+00:00</time>
      </trkpt>
      <trkpt lat="50.25939" lon="5.70271">
        <ele>565</ele>
        <time>2026-09-02T15:03:41+00:00</time>
      </trkpt>
      <trkpt lat="50.2594" lon="5.70231">
        <ele>562</ele>
        <time>2026-09-02T15:03:44+00:00</time>
      </trkpt>
      <trkpt lat="50.25943" lon="5.70193">
        <ele>562</ele>
        <time>2026-09-02T15:03:47+00:00</time>
      </trkpt>
      <trkpt lat="50.25946" lon="5.70143">
        <ele>562</ele>
        <time>2026-09-02T15:03:50+00:00</time>
      </trkpt>
      <trkpt lat="50.25945" lon="5.70091">
        <ele>558</ele>
        <time>2026-09-02T15:03:53+00:00</time>
      </trkpt>
      <trkpt lat="50.25955" lon="5.70051">
        <ele>556</ele>
        <time>2026-09-02T15:03:56+00:00</time>
      </trkpt>
      <trkpt lat="50.25955" lon="5.70037">
        <ele>554</ele>
        <time>2026-09-02T15:03:59+00:00</time>
      </trkpt>
      <trkpt lat="50.25963" lon="5.69989">
        <ele>553</ele>
        <time>2026-09-02T15:04:02+00:00</time>
      </trkpt>
      <trkpt lat="50.25963" lon="5.69978">
        <ele>551</ele>
        <time>2026-09-02T15:04:05+00:00</time>
      </trkpt>
      <trkpt lat="50.2596" lon="5.69958">
        <ele>552</ele>
        <time>2026-09-02T15:04:08+00:00</time>
      </trkpt>
      <trkpt lat="50.25959" lon="5.69941">
        <ele>550</ele>
        <time>2026-09-02T15:04:11+00:00</time>
      </trkpt>
      <trkpt lat="50.25952" lon="5.69914">
        <ele>552</ele>
        <time>2026-09-02T15:04:14+00:00</time>
      </trkpt>
      <trkpt lat="50.25945" lon="5.69883">
        <ele>552</ele>
        <time>2026-09-02T15:04:17+00:00</time>
      </trkpt>
      <trkpt lat="50.25943" lon="5.69859">
        <ele>551</ele>
        <time>2026-09-02T15:04:20+00:00</time>
      </trkpt>
      <trkpt lat="50.25945" lon="5.69837">
        <ele>552</ele>
        <time>2026-09-02T15:04:23+00:00</time>
      </trkpt>
      <trkpt lat="50.25948" lon="5.69813">
        <ele>552</ele>
        <time>2026-09-02T15:04:26+00:00</time>
      </trkpt>
      <trkpt lat="50.25955" lon="5.69765">
        <ele>553</ele>
        <time>2026-09-02T15:04:29+00:00</time>
      </trkpt>
      <trkpt lat="50.25962" lon="5.69717">
        <ele>554</ele>
        <time>2026-09-02T15:04:32+00:00</time>
      </trkpt>
      <trkpt lat="50.25974" lon="5.69638">
        <ele>556</ele>
        <time>2026-09-02T15:04:35+00:00</time>
      </trkpt>
      <trkpt lat="50.2598" lon="5.69601">
        <ele>556</ele>
        <time>2026-09-02T15:04:38+00:00</time>
      </trkpt>
      <trkpt lat="50.25989" lon="5.69551">
        <ele>557</ele>
        <time>2026-09-02T15:04:41+00:00</time>
      </trkpt>
      <trkpt lat="50.26001" lon="5.69495">
        <ele>558</ele>
        <time>2026-09-02T15:04:44+00:00</time>
      </trkpt>
      <trkpt lat="50.26006" lon="5.69457">
        <ele>559</ele>
        <time>2026-09-02T15:04:47+00:00</time>
      </trkpt>
      <trkpt lat="50.26014" lon="5.69407">
        <ele>561</ele>
        <time>2026-09-02T15:04:50+00:00</time>
      </trkpt>
      <trkpt lat="50.2601" lon="5.69407">
        <ele>560</ele>
        <time>2026-09-02T15:04:53+00:00</time>
      </trkpt>
      <trkpt lat="50.25988" lon="5.69402">
        <ele>561</ele>
        <time>2026-09-02T15:04:56+00:00</time>
      </trkpt>
      <trkpt lat="50.25953" lon="5.69391">
        <ele>563</ele>
        <time>2026-09-02T15:04:59+00:00</time>
      </trkpt>
      <trkpt lat="50.25915" lon="5.69375">
        <ele>567</ele>
        <time>2026-09-02T15:05:02+00:00</time>
      </trkpt>
      <trkpt lat="50.2588" lon="5.69356">
        <ele>570</ele>
        <time>2026-09-02T15:05:05+00:00</time>
      </trkpt>
      <trkpt lat="50.25856" lon="5.69367">
        <ele>572</ele>
        <time>2026-09-02T15:05:08+00:00</time>
      </trkpt>
      <trkpt lat="50.25827" lon="5.69378">
        <ele>573</ele>
        <time>2026-09-02T15:05:11+00:00</time>
      </trkpt>
      <trkpt lat="50.25801" lon="5.694">
        <ele>574</ele>
        <time>2026-09-02T15:05:14+00:00</time>
      </trkpt>
      <trkpt lat="50.25774" lon="5.69421">
        <ele>574</ele>
        <time>2026-09-02T15:05:17+00:00</time>
      </trkpt>
      <trkpt lat="50.25741" lon="5.69449">
        <ele>574</ele>
        <time>2026-09-02T15:05:20+00:00</time>
      </trkpt>
      <trkpt lat="50.25707" lon="5.69416">
        <ele>574</ele>
        <time>2026-09-02T15:05:23+00:00</time>
      </trkpt>
      <trkpt lat="50.25679" lon="5.69396">
        <ele>574</ele>
        <time>2026-09-02T15:05:26+00:00</time>
      </trkpt>
      <trkpt lat="50.25657" lon="5.69371">
        <ele>574</ele>
        <time>2026-09-02T15:05:29+00:00</time>
      </trkpt>
      <trkpt lat="50.25655" lon="5.69386">
        <ele>574</ele>
        <time>2026-09-02T15:05:32+00:00</time>
      </trkpt>
      <trkpt lat="50.25643" lon="5.6944">
        <ele>575</ele>
        <time>2026-09-02T15:05:35+00:00</time>
      </trkpt>
      <trkpt lat="50.2563" lon="5.69493">
        <ele>576</ele>
        <time>2026-09-02T15:05:38+00:00</time>
      </trkpt>
      <trkpt lat="50.25618" lon="5.69547">
        <ele>578</ele>
        <time>2026-09-02T15:05:41+00:00</time>
      </trkpt>
      <trkpt lat="50.25605" lon="5.69601">
        <ele>579</ele>
        <time>2026-09-02T15:05:44+00:00</time>
      </trkpt>
      <trkpt lat="50.25593" lon="5.69655">
        <ele>581</ele>
        <time>2026-09-02T15:05:47+00:00</time>
      </trkpt>
      <trkpt lat="50.25581" lon="5.69709">
        <ele>582</ele>
        <time>2026-09-02T15:05:50+00:00</time>
      </trkpt>
      <trkpt lat="50.25568" lon="5.69762">
        <ele>583</ele>
        <time>2026-09-02T15:05:53+00:00</time>
      </trkpt>
      <trkpt lat="50.25555" lon="5.69821">
        <ele>586</ele>
        <time>2026-09-02T15:05:56+00:00</time>
      </trkpt>
      <trkpt lat="50.25547" lon="5.69862">
        <ele>587</ele>
        <time>2026-09-02T15:05:59+00:00</time>
      </trkpt>
      <trkpt lat="50.25541" lon="5.699">
        <ele>587</ele>
        <time>2026-09-02T15:06:02+00:00</time>
      </trkpt>
      <trkpt lat="50.25533" lon="5.69955">
        <ele>587</ele>
        <time>2026-09-02T15:06:05+00:00</time>
      </trkpt>
      <trkpt lat="50.25527" lon="5.70019">
        <ele>588</ele>
        <time>2026-09-02T15:06:08+00:00</time>
      </trkpt>
      <trkpt lat="50.25525" lon="5.70066">
        <ele>587</ele>
        <time>2026-09-02T15:06:11+00:00</time>
      </trkpt>
      <trkpt lat="50.25522" lon="5.70112">
        <ele>587</ele>
        <time>2026-09-02T15:06:14+00:00</time>
      </trkpt>
      <trkpt lat="50.25519" lon="5.70172">
        <ele>586</ele>
        <time>2026-09-02T15:06:17+00:00</time>
      </trkpt>
      <trkpt lat="50.25513" lon="5.70217">
        <ele>586</ele>
        <time>2026-09-02T15:06:20+00:00</time>
      </trkpt>
      <trkpt lat="50.25506" lon="5.70262">
        <ele>590</ele>
        <time>2026-09-02T15:06:23+00:00</time>
      </trkpt>
      <trkpt lat="50.25499" lon="5.70314">
        <ele>594</ele>
        <time>2026-09-02T15:06:26+00:00</time>
      </trkpt>
      <trkpt lat="50.25495" lon="5.70354">
        <ele>595</ele>
        <time>2026-09-02T15:06:29+00:00</time>
      </trkpt>
      <trkpt lat="50.25488" lon="5.70417">
        <ele>598</ele>
        <time>2026-09-02T15:06:32+00:00</time>
      </trkpt>
      <trkpt lat="50.25483" lon="5.7045">
        <ele>598</ele>
        <time>2026-09-02T15:06:35+00:00</time>
      </trkpt>
      <trkpt lat="50.25478" lon="5.70483">
        <ele>596</ele>
        <time>2026-09-02T15:06:38+00:00</time>
      </trkpt>
      <trkpt lat="50.25481" lon="5.70505">
        <ele>592</ele>
        <time>2026-09-02T15:06:41+00:00</time>
      </trkpt>
      <trkpt lat="50.25484" lon="5.70553">
        <ele>595</ele>
        <time>2026-09-02T15:06:44+00:00</time>
      </trkpt>
      <trkpt lat="50.25488" lon="5.70602">
        <ele>595</ele>
        <time>2026-09-02T15:06:47+00:00</time>
      </trkpt>
      <trkpt lat="50.25491" lon="5.7065">
        <ele>596</ele>
        <time>2026-09-02T15:06:50+00:00</time>
      </trkpt>
      <trkpt lat="50.25497" lon="5.70736">
        <ele>601</ele>
        <time>2026-09-02T15:06:53+00:00</time>
      </trkpt>
      <trkpt lat="50.25508" lon="5.70784">
        <ele>601</ele>
        <time>2026-09-02T15:06:56+00:00</time>
      </trkpt>
      <trkpt lat="50.25519" lon="5.70831">
        <ele>602</ele>
        <time>2026-09-02T15:06:59+00:00</time>
      </trkpt>
      <trkpt lat="50.2553" lon="5.70879">
        <ele>597</ele>
        <time>2026-09-02T15:07:02+00:00</time>
      </trkpt>
      <trkpt lat="50.25541" lon="5.70929">
        <ele>598</ele>
        <time>2026-09-02T15:07:05+00:00</time>
      </trkpt>
      <trkpt lat="50.25545" lon="5.70975">
        <ele>599</ele>
        <time>2026-09-02T15:07:08+00:00</time>
      </trkpt>
      <trkpt lat="50.25549" lon="5.71022">
        <ele>597</ele>
        <time>2026-09-02T15:07:11+00:00</time>
      </trkpt>
      <trkpt lat="50.25555" lon="5.71083">
        <ele>597</ele>
        <time>2026-09-02T15:07:14+00:00</time>
      </trkpt>
      <trkpt lat="50.25552" lon="5.71118">
        <ele>597</ele>
        <time>2026-09-02T15:07:17+00:00</time>
      </trkpt>
      <trkpt lat="50.25549" lon="5.71156">
        <ele>598</ele>
        <time>2026-09-02T15:07:20+00:00</time>
      </trkpt>
      <trkpt lat="50.25552" lon="5.71198">
        <ele>598</ele>
        <time>2026-09-02T15:07:23+00:00</time>
      </trkpt>
      <trkpt lat="50.25558" lon="5.71272">
        <ele>599</ele>
        <time>2026-09-02T15:07:26+00:00</time>
      </trkpt>
      <trkpt lat="50.25534" lon="5.71301">
        <ele>605</ele>
        <time>2026-09-02T15:07:29+00:00</time>
      </trkpt>
      <trkpt lat="50.25511" lon="5.7133">
        <ele>605</ele>
        <time>2026-09-02T15:07:32+00:00</time>
      </trkpt>
      <trkpt lat="50.25481" lon="5.71367">
        <ele>605</ele>
        <time>2026-09-02T15:07:35+00:00</time>
      </trkpt>
      <trkpt lat="50.25465" lon="5.71391">
        <ele>608</ele>
        <time>2026-09-02T15:07:38+00:00</time>
      </trkpt>
      <trkpt lat="50.25447" lon="5.71417">
        <ele>608</ele>
        <time>2026-09-02T15:07:41+00:00</time>
      </trkpt>
      <trkpt lat="50.25423" lon="5.71439">
        <ele>613</ele>
        <time>2026-09-02T15:07:44+00:00</time>
      </trkpt>
      <trkpt lat="50.25378" lon="5.71479">
        <ele>617</ele>
        <time>2026-09-02T15:07:47+00:00</time>
      </trkpt>
      <trkpt lat="50.25357" lon="5.71503">
        <ele>617</ele>
        <time>2026-09-02T15:07:50+00:00</time>
      </trkpt>
      <trkpt lat="50.25327" lon="5.71538">
        <ele>618</ele>
        <time>2026-09-02T15:07:53+00:00</time>
      </trkpt>
      <trkpt lat="50.2532" lon="5.71537">
        <ele>619</ele>
        <time>2026-09-02T15:07:56+00:00</time>
      </trkpt>
      <trkpt lat="50.25298" lon="5.71532">
        <ele>620</ele>
        <time>2026-09-02T15:07:59+00:00</time>
      </trkpt>
      <trkpt lat="50.25267" lon="5.71525">
        <ele>622</ele>
        <time>2026-09-02T15:08:02+00:00</time>
      </trkpt>
      <trkpt lat="50.25239" lon="5.71517">
        <ele>623</ele>
        <time>2026-09-02T15:08:05+00:00</time>
      </trkpt>
      <trkpt lat="50.25185" lon="5.71502">
        <ele>625</ele>
        <time>2026-09-02T15:08:08+00:00</time>
      </trkpt>
      <trkpt lat="50.25156" lon="5.71484">
        <ele>625</ele>
        <time>2026-09-02T15:08:11+00:00</time>
      </trkpt>
      <trkpt lat="50.25127" lon="5.71466">
        <ele>626</ele>
        <time>2026-09-02T15:08:14+00:00</time>
      </trkpt>
      <trkpt lat="50.25078" lon="5.71437">
        <ele>628</ele>
        <time>2026-09-02T15:08:17+00:00</time>
      </trkpt>
      <trkpt lat="50.25071" lon="5.71417">
        <ele>631</ele>
        <time>2026-09-02T15:08:20+00:00</time>
      </trkpt>
      <trkpt lat="50.25051" lon="5.71422">
        <ele>631</ele>
        <time>2026-09-02T15:08:23+00:00</time>
      </trkpt>
      <trkpt lat="50.25019" lon="5.71431">
        <ele>633</ele>
        <time>2026-09-02T15:08:26+00:00</time>
      </trkpt>
      <trkpt lat="50.24998" lon="5.71442">
        <ele>632</ele>
        <time>2026-09-02T15:08:29+00:00</time>
      </trkpt>
      <trkpt lat="50.24977" lon="5.71454">
        <ele>632</ele>
        <time>2026-09-02T15:08:32+00:00</time>
      </trkpt>
      <trkpt lat="50.24958" lon="5.71451">
        <ele>633</ele>
        <time>2026-09-02T15:08:35+00:00</time>
      </trkpt>
      <trkpt lat="50.24935" lon="5.71445">
        <ele>635</ele>
        <time>2026-09-02T15:08:38+00:00</time>
      </trkpt>
      <trkpt lat="50.24908" lon="5.71439">
        <ele>640</ele>
        <time>2026-09-02T15:08:41+00:00</time>
      </trkpt>
      <trkpt lat="50.24886" lon="5.71421">
        <ele>643</ele>
        <time>2026-09-02T15:08:44+00:00</time>
      </trkpt>
      <trkpt lat="50.24858" lon="5.71399">
        <ele>647</ele>
        <time>2026-09-02T15:08:47+00:00</time>
      </trkpt>
      <trkpt lat="50.24832" lon="5.7138">
        <ele>646</ele>
        <time>2026-09-02T15:08:50+00:00</time>
      </trkpt>
      <trkpt lat="50.24782" lon="5.71342">
        <ele>646</ele>
        <time>2026-09-02T15:08:53+00:00</time>
      </trkpt>
      <trkpt lat="50.24761" lon="5.71312">
        <ele>643</ele>
        <time>2026-09-02T15:08:56+00:00</time>
      </trkpt>
      <trkpt lat="50.24721" lon="5.71256">
        <ele>642</ele>
        <time>2026-09-02T15:08:59+00:00</time>
      </trkpt>
      <trkpt lat="50.24735" lon="5.71209">
        <ele>642</ele>
        <time>2026-09-02T15:09:02+00:00</time>
      </trkpt>
      <trkpt lat="50.24752" lon="5.71159">
        <ele>642</ele>
        <time>2026-09-02T15:09:05+00:00</time>
      </trkpt>
      <trkpt lat="50.2477" lon="5.71109">
        <ele>644</ele>
        <time>2026-09-02T15:09:08+00:00</time>
      </trkpt>
      <trkpt lat="50.24787" lon="5.71059">
        <ele>650</ele>
        <time>2026-09-02T15:09:11+00:00</time>
      </trkpt>
      <trkpt lat="50.24804" lon="5.7101">
        <ele>648</ele>
        <time>2026-09-02T15:09:14+00:00</time>
      </trkpt>
      <trkpt lat="50.24822" lon="5.7096">
        <ele>646</ele>
        <time>2026-09-02T15:09:17+00:00</time>
      </trkpt>
      <trkpt lat="50.24845" lon="5.70893">
        <ele>643</ele>
        <time>2026-09-02T15:09:20+00:00</time>
      </trkpt>
      <trkpt lat="50.24851" lon="5.70853">
        <ele>643</ele>
        <time>2026-09-02T15:09:23+00:00</time>
      </trkpt>
      <trkpt lat="50.24861" lon="5.70794">
        <ele>637</ele>
        <time>2026-09-02T15:09:26+00:00</time>
      </trkpt>
      <trkpt lat="50.24868" lon="5.70758">
        <ele>637</ele>
        <time>2026-09-02T15:09:29+00:00</time>
      </trkpt>
      <trkpt lat="50.24878" lon="5.70711">
        <ele>636</ele>
        <time>2026-09-02T15:09:32+00:00</time>
      </trkpt>
      <trkpt lat="50.24892" lon="5.70675">
        <ele>636</ele>
        <time>2026-09-02T15:09:35+00:00</time>
      </trkpt>
      <trkpt lat="50.24917" lon="5.70615">
        <ele>636</ele>
        <time>2026-09-02T15:09:38+00:00</time>
      </trkpt>
      <trkpt lat="50.24938" lon="5.70565">
        <ele>636</ele>
        <time>2026-09-02T15:09:41+00:00</time>
      </trkpt>
      <trkpt lat="50.2496" lon="5.70516">
        <ele>634</ele>
        <time>2026-09-02T15:09:44+00:00</time>
      </trkpt>
      <trkpt lat="50.24981" lon="5.70466">
        <ele>633</ele>
        <time>2026-09-02T15:09:47+00:00</time>
      </trkpt>
      <trkpt lat="50.25002" lon="5.70416">
        <ele>631</ele>
        <time>2026-09-02T15:09:50+00:00</time>
      </trkpt>
      <trkpt lat="50.25024" lon="5.70367">
        <ele>629</ele>
        <time>2026-09-02T15:09:53+00:00</time>
      </trkpt>
      <trkpt lat="50.25045" lon="5.70317">
        <ele>627</ele>
        <time>2026-09-02T15:09:56+00:00</time>
      </trkpt>
      <trkpt lat="50.25066" lon="5.70268">
        <ele>625</ele>
        <time>2026-09-02T15:09:59+00:00</time>
      </trkpt>
      <trkpt lat="50.25107" lon="5.70173">
        <ele>623</ele>
        <time>2026-09-02T15:10:02+00:00</time>
      </trkpt>
      <trkpt lat="50.25124" lon="5.70137">
        <ele>620</ele>
        <time>2026-09-02T15:10:05+00:00</time>
      </trkpt>
      <trkpt lat="50.25156" lon="5.70066">
        <ele>610</ele>
        <time>2026-09-02T15:10:08+00:00</time>
      </trkpt>
      <trkpt lat="50.25167" lon="5.70034">
        <ele>608</ele>
        <time>2026-09-02T15:10:11+00:00</time>
      </trkpt>
      <trkpt lat="50.2518" lon="5.69997">
        <ele>606</ele>
        <time>2026-09-02T15:10:14+00:00</time>
      </trkpt>
      <trkpt lat="50.25188" lon="5.69959">
        <ele>605</ele>
        <time>2026-09-02T15:10:17+00:00</time>
      </trkpt>
      <trkpt lat="50.252" lon="5.69903">
        <ele>603</ele>
        <time>2026-09-02T15:10:20+00:00</time>
      </trkpt>
      <trkpt lat="50.25213" lon="5.69873">
        <ele>602</ele>
        <time>2026-09-02T15:10:23+00:00</time>
      </trkpt>
      <trkpt lat="50.25231" lon="5.69851">
        <ele>601</ele>
        <time>2026-09-02T15:10:26+00:00</time>
      </trkpt>
      <trkpt lat="50.25256" lon="5.69827">
        <ele>599</ele>
        <time>2026-09-02T15:10:29+00:00</time>
      </trkpt>
      <trkpt lat="50.2528" lon="5.69802">
        <ele>597</ele>
        <time>2026-09-02T15:10:32+00:00</time>
      </trkpt>
      <trkpt lat="50.25308" lon="5.69775">
        <ele>596</ele>
        <time>2026-09-02T15:10:35+00:00</time>
      </trkpt>
      <trkpt lat="50.25323" lon="5.69753">
        <ele>595</ele>
        <time>2026-09-02T15:10:38+00:00</time>
      </trkpt>
      <trkpt lat="50.25333" lon="5.69736">
        <ele>594</ele>
        <time>2026-09-02T15:10:41+00:00</time>
      </trkpt>
      <trkpt lat="50.25347" lon="5.69705">
        <ele>593</ele>
        <time>2026-09-02T15:10:44+00:00</time>
      </trkpt>
      <trkpt lat="50.25362" lon="5.69673">
        <ele>591</ele>
        <time>2026-09-02T15:10:47+00:00</time>
      </trkpt>
      <trkpt lat="50.25378" lon="5.69638">
        <ele>590</ele>
        <time>2026-09-02T15:10:50+00:00</time>
      </trkpt>
      <trkpt lat="50.25399" lon="5.69602">
        <ele>588</ele>
        <time>2026-09-02T15:10:53+00:00</time>
      </trkpt>
      <trkpt lat="50.2542" lon="5.69567">
        <ele>586</ele>
        <time>2026-09-02T15:10:56+00:00</time>
      </trkpt>
      <trkpt lat="50.25451" lon="5.69513">
        <ele>584</ele>
        <time>2026-09-02T15:10:59+00:00</time>
      </trkpt>
      <trkpt lat="50.25465" lon="5.69483">
        <ele>582</ele>
        <time>2026-09-02T15:11:02+00:00</time>
      </trkpt>
      <trkpt lat="50.25482" lon="5.69447">
        <ele>580</ele>
        <time>2026-09-02T15:11:05+00:00</time>
      </trkpt>
      <trkpt lat="50.25498" lon="5.694">
        <ele>578</ele>
        <time>2026-09-02T15:11:08+00:00</time>
      </trkpt>
      <trkpt lat="50.25515" lon="5.69353">
        <ele>576</ele>
        <time>2026-09-02T15:11:11+00:00</time>
      </trkpt>
      <trkpt lat="50.25532" lon="5.69306">
        <ele>573</ele>
        <time>2026-09-02T15:11:14+00:00</time>
      </trkpt>
      <trkpt lat="50.25564" lon="5.69214">
        <ele>570</ele>
        <time>2026-09-02T15:11:17+00:00</time>
      </trkpt>
      <trkpt lat="50.25583" lon="5.69169">
        <ele>567</ele>
        <time>2026-09-02T15:11:20+00:00</time>
      </trkpt>
      <trkpt lat="50.25603" lon="5.69125">
        <ele>567</ele>
        <time>2026-09-02T15:11:23+00:00</time>
      </trkpt>
      <trkpt lat="50.25622" lon="5.6908">
        <ele>566</ele>
        <time>2026-09-02T15:11:26+00:00</time>
      </trkpt>
      <trkpt lat="50.25642" lon="5.69036">
        <ele>564</ele>
        <time>2026-09-02T15:11:29+00:00</time>
      </trkpt>
      <trkpt lat="50.25661" lon="5.68991">
        <ele>562</ele>
        <time>2026-09-02T15:11:32+00:00</time>
      </trkpt>
      <trkpt lat="50.25671" lon="5.68978">
        <ele>562</ele>
        <time>2026-09-02T15:11:35+00:00</time>
      </trkpt>
      <trkpt lat="50.25676" lon="5.68937">
        <ele>559</ele>
        <time>2026-09-02T15:11:38+00:00</time>
      </trkpt>
      <trkpt lat="50.25681" lon="5.68896">
        <ele>558</ele>
        <time>2026-09-02T15:11:41+00:00</time>
      </trkpt>
      <trkpt lat="50.25688" lon="5.6884">
        <ele>555</ele>
        <time>2026-09-02T15:11:44+00:00</time>
      </trkpt>
      <trkpt lat="50.25693" lon="5.68793">
        <ele>553</ele>
        <time>2026-09-02T15:11:47+00:00</time>
      </trkpt>
      <trkpt lat="50.25699" lon="5.68746">
        <ele>551</ele>
        <time>2026-09-02T15:11:50+00:00</time>
      </trkpt>
      <trkpt lat="50.25706" lon="5.68682">
        <ele>548</ele>
        <time>2026-09-02T15:11:53+00:00</time>
      </trkpt>
      <trkpt lat="50.25711" lon="5.68639">
        <ele>544</ele>
        <time>2026-09-02T15:11:56+00:00</time>
      </trkpt>
      <trkpt lat="50.25721" lon="5.68558">
        <ele>539</ele>
        <time>2026-09-02T15:11:59+00:00</time>
      </trkpt>
      <trkpt lat="50.25724" lon="5.68522">
        <ele>536</ele>
        <time>2026-09-02T15:12:02+00:00</time>
      </trkpt>
      <trkpt lat="50.25723" lon="5.6851">
        <ele>534</ele>
        <time>2026-09-02T15:12:05+00:00</time>
      </trkpt>
      <trkpt lat="50.25721" lon="5.68497">
        <ele>533</ele>
        <time>2026-09-02T15:12:08+00:00</time>
      </trkpt>
      <trkpt lat="50.25716" lon="5.68484">
        <ele>533</ele>
        <time>2026-09-02T15:12:11+00:00</time>
      </trkpt>
      <trkpt lat="50.25706" lon="5.68466">
        <ele>532</ele>
        <time>2026-09-02T15:12:14+00:00</time>
      </trkpt>
      <trkpt lat="50.25693" lon="5.68445">
        <ele>531</ele>
        <time>2026-09-02T15:12:17+00:00</time>
      </trkpt>
      <trkpt lat="50.25674" lon="5.68416">
        <ele>531</ele>
        <time>2026-09-02T15:12:20+00:00</time>
      </trkpt>
      <trkpt lat="50.25654" lon="5.68395">
        <ele>531</ele>
        <time>2026-09-02T15:12:23+00:00</time>
      </trkpt>
      <trkpt lat="50.25634" lon="5.68378">
        <ele>531</ele>
        <time>2026-09-02T15:12:26+00:00</time>
      </trkpt>
      <trkpt lat="50.25612" lon="5.68359">
        <ele>531</ele>
        <time>2026-09-02T15:12:29+00:00</time>
      </trkpt>
      <trkpt lat="50.25597" lon="5.68351">
        <ele>532</ele>
        <time>2026-09-02T15:12:32+00:00</time>
      </trkpt>
      <trkpt lat="50.25572" lon="5.68344">
        <ele>532</ele>
        <time>2026-09-02T15:12:35+00:00</time>
      </trkpt>
      <trkpt lat="50.25564" lon="5.68341">
        <ele>533</ele>
        <time>2026-09-02T15:12:38+00:00</time>
      </trkpt>
      <trkpt lat="50.25558" lon="5.68321">
        <ele>530</ele>
        <time>2026-09-02T15:12:41+00:00</time>
      </trkpt>
      <trkpt lat="50.25558" lon="5.68303">
        <ele>531</ele>
        <time>2026-09-02T15:12:44+00:00</time>
      </trkpt>
      <trkpt lat="50.25538" lon="5.6829">
        <ele>529</ele>
        <time>2026-09-02T15:12:47+00:00</time>
      </trkpt>
      <trkpt lat="50.2551" lon="5.6827">
        <ele>528</ele>
        <time>2026-09-02T15:12:50+00:00</time>
      </trkpt>
      <trkpt lat="50.25485" lon="5.68255">
        <ele>528</ele>
        <time>2026-09-02T15:12:53+00:00</time>
      </trkpt>
      <trkpt lat="50.25443" lon="5.68248">
        <ele>528</ele>
        <time>2026-09-02T15:12:56+00:00</time>
      </trkpt>
      <trkpt lat="50.25418" lon="5.68244">
        <ele>528</ele>
        <time>2026-09-02T15:12:59+00:00</time>
      </trkpt>
      <trkpt lat="50.25381" lon="5.68238">
        <ele>528</ele>
        <time>2026-09-02T15:13:02+00:00</time>
      </trkpt>
      <trkpt lat="50.25366" lon="5.68224">
        <ele>528</ele>
        <time>2026-09-02T15:13:05+00:00</time>
      </trkpt>
      <trkpt lat="50.2536" lon="5.68229">
        <ele>529</ele>
        <time>2026-09-02T15:13:08+00:00</time>
      </trkpt>
      <trkpt lat="50.25337" lon="5.6824">
        <ele>531</ele>
        <time>2026-09-02T15:13:11+00:00</time>
      </trkpt>
      <trkpt lat="50.25326" lon="5.68251">
        <ele>532</ele>
        <time>2026-09-02T15:13:14+00:00</time>
      </trkpt>
      <trkpt lat="50.25315" lon="5.68274">
        <ele>533</ele>
        <time>2026-09-02T15:13:17+00:00</time>
      </trkpt>
      <trkpt lat="50.253" lon="5.68303">
        <ele>535</ele>
        <time>2026-09-02T15:13:20+00:00</time>
      </trkpt>
      <trkpt lat="50.25274" lon="5.68331">
        <ele>539</ele>
        <time>2026-09-02T15:13:23+00:00</time>
      </trkpt>
      <trkpt lat="50.25247" lon="5.6836">
        <ele>540</ele>
        <time>2026-09-02T15:13:26+00:00</time>
      </trkpt>
      <trkpt lat="50.25199" lon="5.68412">
        <ele>545</ele>
        <time>2026-09-02T15:13:29+00:00</time>
      </trkpt>
      <trkpt lat="50.25191" lon="5.6842">
        <ele>545</ele>
        <time>2026-09-02T15:13:32+00:00</time>
      </trkpt>
      <trkpt lat="50.25171" lon="5.6843">
        <ele>547</ele>
        <time>2026-09-02T15:13:35+00:00</time>
      </trkpt>
      <trkpt lat="50.25151" lon="5.68429">
        <ele>549</ele>
        <time>2026-09-02T15:13:38+00:00</time>
      </trkpt>
      <trkpt lat="50.25143" lon="5.68424">
        <ele>550</ele>
        <time>2026-09-02T15:13:41+00:00</time>
      </trkpt>
      <trkpt lat="50.25126" lon="5.68405">
        <ele>552</ele>
        <time>2026-09-02T15:13:44+00:00</time>
      </trkpt>
      <trkpt lat="50.25104" lon="5.68379">
        <ele>552</ele>
        <time>2026-09-02T15:13:47+00:00</time>
      </trkpt>
      <trkpt lat="50.25097" lon="5.68374">
        <ele>553</ele>
        <time>2026-09-02T15:13:50+00:00</time>
      </trkpt>
      <trkpt lat="50.2507" lon="5.68365">
        <ele>555</ele>
        <time>2026-09-02T15:13:53+00:00</time>
      </trkpt>
      <trkpt lat="50.25047" lon="5.68373">
        <ele>557</ele>
        <time>2026-09-02T15:13:56+00:00</time>
      </trkpt>
      <trkpt lat="50.25012" lon="5.68401">
        <ele>560</ele>
        <time>2026-09-02T15:13:59+00:00</time>
      </trkpt>
      <trkpt lat="50.24992" lon="5.68422">
        <ele>560</ele>
        <time>2026-09-02T15:14:02+00:00</time>
      </trkpt>
      <trkpt lat="50.24965" lon="5.68449">
        <ele>562</ele>
        <time>2026-09-02T15:14:05+00:00</time>
      </trkpt>
      <trkpt lat="50.24935" lon="5.68495">
        <ele>563</ele>
        <time>2026-09-02T15:14:08+00:00</time>
      </trkpt>
      <trkpt lat="50.24915" lon="5.68535">
        <ele>565</ele>
        <time>2026-09-02T15:14:11+00:00</time>
      </trkpt>
      <trkpt lat="50.24894" lon="5.68568">
        <ele>566</ele>
        <time>2026-09-02T15:14:14+00:00</time>
      </trkpt>
      <trkpt lat="50.24876" lon="5.68592">
        <ele>567</ele>
        <time>2026-09-02T15:14:17+00:00</time>
      </trkpt>
      <trkpt lat="50.24858" lon="5.68608">
        <ele>567</ele>
        <time>2026-09-02T15:14:20+00:00</time>
      </trkpt>
      <trkpt lat="50.24844" lon="5.68576">
        <ele>567</ele>
        <time>2026-09-02T15:14:23+00:00</time>
      </trkpt>
      <trkpt lat="50.24833" lon="5.68594">
        <ele>568</ele>
        <time>2026-09-02T15:14:26+00:00</time>
      </trkpt>
      <trkpt lat="50.24824" lon="5.68592">
        <ele>568</ele>
        <time>2026-09-02T15:14:29+00:00</time>
      </trkpt>
      <trkpt lat="50.24801" lon="5.68598">
        <ele>568</ele>
        <time>2026-09-02T15:14:32+00:00</time>
      </trkpt>
      <trkpt lat="50.24768" lon="5.68619">
        <ele>572</ele>
        <time>2026-09-02T15:14:35+00:00</time>
      </trkpt>
      <trkpt lat="50.24741" lon="5.68639">
        <ele>580</ele>
        <time>2026-09-02T15:14:38+00:00</time>
      </trkpt>
      <trkpt lat="50.24718" lon="5.68662">
        <ele>585</ele>
        <time>2026-09-02T15:14:41+00:00</time>
      </trkpt>
      <trkpt lat="50.24705" lon="5.68634">
        <ele>586</ele>
        <time>2026-09-02T15:14:44+00:00</time>
      </trkpt>
      <trkpt lat="50.24697" lon="5.68579">
        <ele>586</ele>
        <time>2026-09-02T15:14:47+00:00</time>
      </trkpt>
      <trkpt lat="50.2469" lon="5.68525">
        <ele>586</ele>
        <time>2026-09-02T15:14:50+00:00</time>
      </trkpt>
      <trkpt lat="50.24682" lon="5.68471">
        <ele>577</ele>
        <time>2026-09-02T15:14:53+00:00</time>
      </trkpt>
      <trkpt lat="50.24674" lon="5.68416">
        <ele>568</ele>
        <time>2026-09-02T15:14:56+00:00</time>
      </trkpt>
      <trkpt lat="50.24661" lon="5.6832">
        <ele>556</ele>
        <time>2026-09-02T15:14:59+00:00</time>
      </trkpt>
      <trkpt lat="50.24635" lon="5.68326">
        <ele>553</ele>
        <time>2026-09-02T15:15:02+00:00</time>
      </trkpt>
      <trkpt lat="50.24595" lon="5.68335">
        <ele>553</ele>
        <time>2026-09-02T15:15:05+00:00</time>
      </trkpt>
      <trkpt lat="50.24572" lon="5.68343">
        <ele>549</ele>
        <time>2026-09-02T15:15:08+00:00</time>
      </trkpt>
      <trkpt lat="50.24543" lon="5.68353">
        <ele>545</ele>
        <time>2026-09-02T15:15:11+00:00</time>
      </trkpt>
      <trkpt lat="50.24521" lon="5.68368">
        <ele>545</ele>
        <time>2026-09-02T15:15:14+00:00</time>
      </trkpt>
      <trkpt lat="50.24508" lon="5.6838">
        <ele>546</ele>
        <time>2026-09-02T15:15:17+00:00</time>
      </trkpt>
      <trkpt lat="50.24497" lon="5.68393">
        <ele>544</ele>
        <time>2026-09-02T15:15:20+00:00</time>
      </trkpt>
      <trkpt lat="50.24485" lon="5.68407">
        <ele>543</ele>
        <time>2026-09-02T15:15:23+00:00</time>
      </trkpt>
      <trkpt lat="50.24461" lon="5.68449">
        <ele>538</ele>
        <time>2026-09-02T15:15:26+00:00</time>
      </trkpt>
      <trkpt lat="50.24451" lon="5.68459">
        <ele>536</ele>
        <time>2026-09-02T15:15:29+00:00</time>
      </trkpt>
      <trkpt lat="50.24433" lon="5.68461">
        <ele>541</ele>
        <time>2026-09-02T15:15:32+00:00</time>
      </trkpt>
      <trkpt lat="50.24398" lon="5.68455">
        <ele>545</ele>
        <time>2026-09-02T15:15:35+00:00</time>
      </trkpt>
      <trkpt lat="50.24363" lon="5.68449">
        <ele>553</ele>
        <time>2026-09-02T15:15:38+00:00</time>
      </trkpt>
      <trkpt lat="50.24328" lon="5.68444">
        <ele>554</ele>
        <time>2026-09-02T15:15:41+00:00</time>
      </trkpt>
      <trkpt lat="50.24293" lon="5.68438">
        <ele>554</ele>
        <time>2026-09-02T15:15:44+00:00</time>
      </trkpt>
      <trkpt lat="50.24245" lon="5.6843">
        <ele>555</ele>
        <time>2026-09-02T15:15:47+00:00</time>
      </trkpt>
      <trkpt lat="50.24219" lon="5.68417">
        <ele>558</ele>
        <time>2026-09-02T15:15:50+00:00</time>
      </trkpt>
      <trkpt lat="50.24177" lon="5.68395">
        <ele>562</ele>
        <time>2026-09-02T15:15:53+00:00</time>
      </trkpt>
      <trkpt lat="50.24156" lon="5.68386">
        <ele>564</ele>
        <time>2026-09-02T15:15:56+00:00</time>
      </trkpt>
      <trkpt lat="50.24133" lon="5.68376">
        <ele>566</ele>
        <time>2026-09-02T15:15:59+00:00</time>
      </trkpt>
      <trkpt lat="50.24102" lon="5.68366">
        <ele>569</ele>
        <time>2026-09-02T15:16:02+00:00</time>
      </trkpt>
      <trkpt lat="50.2407" lon="5.68356">
        <ele>573</ele>
        <time>2026-09-02T15:16:05+00:00</time>
      </trkpt>
      <trkpt lat="50.24013" lon="5.68338">
        <ele>577</ele>
        <time>2026-09-02T15:16:08+00:00</time>
      </trkpt>
      <trkpt lat="50.23983" lon="5.68332">
        <ele>580</ele>
        <time>2026-09-02T15:16:11+00:00</time>
      </trkpt>
      <trkpt lat="50.23953" lon="5.68327">
        <ele>581</ele>
        <time>2026-09-02T15:16:14+00:00</time>
      </trkpt>
      <trkpt lat="50.23913" lon="5.68319">
        <ele>584</ele>
        <time>2026-09-02T15:16:17+00:00</time>
      </trkpt>
      <trkpt lat="50.23894" lon="5.68307">
        <ele>585</ele>
        <time>2026-09-02T15:16:20+00:00</time>
      </trkpt>
      <trkpt lat="50.23863" lon="5.68281">
        <ele>585</ele>
        <time>2026-09-02T15:16:23+00:00</time>
      </trkpt>
      <trkpt lat="50.23832" lon="5.68255">
        <ele>585</ele>
        <time>2026-09-02T15:16:26+00:00</time>
      </trkpt>
      <trkpt lat="50.23801" lon="5.68229">
        <ele>585</ele>
        <time>2026-09-02T15:16:29+00:00</time>
      </trkpt>
      <trkpt lat="50.2377" lon="5.68203">
        <ele>585</ele>
        <time>2026-09-02T15:16:32+00:00</time>
      </trkpt>
      <trkpt lat="50.23724" lon="5.68165">
        <ele>585</ele>
        <time>2026-09-02T15:16:35+00:00</time>
      </trkpt>
      <trkpt lat="50.237" lon="5.68152">
        <ele>584</ele>
        <time>2026-09-02T15:16:38+00:00</time>
      </trkpt>
      <trkpt lat="50.23668" lon="5.68142">
        <ele>583</ele>
        <time>2026-09-02T15:16:41+00:00</time>
      </trkpt>
      <trkpt lat="50.23637" lon="5.68131">
        <ele>582</ele>
        <time>2026-09-02T15:16:44+00:00</time>
      </trkpt>
      <trkpt lat="50.23576" lon="5.68111">
        <ele>580</ele>
        <time>2026-09-02T15:16:47+00:00</time>
      </trkpt>
      <trkpt lat="50.23552" lon="5.68098">
        <ele>579</ele>
        <time>2026-09-02T15:16:50+00:00</time>
      </trkpt>
      <trkpt lat="50.23529" lon="5.68092">
        <ele>578</ele>
        <time>2026-09-02T15:16:53+00:00</time>
      </trkpt>
      <trkpt lat="50.23504" lon="5.68085">
        <ele>575</ele>
        <time>2026-09-02T15:16:56+00:00</time>
      </trkpt>
      <trkpt lat="50.23481" lon="5.68074">
        <ele>574</ele>
        <time>2026-09-02T15:16:59+00:00</time>
      </trkpt>
      <trkpt lat="50.23451" lon="5.68061">
        <ele>574</ele>
        <time>2026-09-02T15:17:02+00:00</time>
      </trkpt>
      <trkpt lat="50.23429" lon="5.68049">
        <ele>573</ele>
        <time>2026-09-02T15:17:05+00:00</time>
      </trkpt>
      <trkpt lat="50.23419" lon="5.68032">
        <ele>572</ele>
        <time>2026-09-02T15:17:08+00:00</time>
      </trkpt>
      <trkpt lat="50.23403" lon="5.68">
        <ele>573</ele>
        <time>2026-09-02T15:17:11+00:00</time>
      </trkpt>
      <trkpt lat="50.23387" lon="5.67968">
        <ele>573</ele>
        <time>2026-09-02T15:17:14+00:00</time>
      </trkpt>
      <trkpt lat="50.23366" lon="5.67926">
        <ele>574</ele>
        <time>2026-09-02T15:17:17+00:00</time>
      </trkpt>
      <trkpt lat="50.23355" lon="5.67907">
        <ele>575</ele>
        <time>2026-09-02T15:17:20+00:00</time>
      </trkpt>
      <trkpt lat="50.23341" lon="5.67893">
        <ele>576</ele>
        <time>2026-09-02T15:17:23+00:00</time>
      </trkpt>
      <trkpt lat="50.23308" lon="5.67867">
        <ele>578</ele>
        <time>2026-09-02T15:17:26+00:00</time>
      </trkpt>
      <trkpt lat="50.23275" lon="5.67841">
        <ele>580</ele>
        <time>2026-09-02T15:17:29+00:00</time>
      </trkpt>
      <trkpt lat="50.23242" lon="5.67814">
        <ele>582</ele>
        <time>2026-09-02T15:17:32+00:00</time>
      </trkpt>
      <trkpt lat="50.23208" lon="5.67788">
        <ele>584</ele>
        <time>2026-09-02T15:17:35+00:00</time>
      </trkpt>
      <trkpt lat="50.23175" lon="5.67762">
        <ele>585</ele>
        <time>2026-09-02T15:17:38+00:00</time>
      </trkpt>
      <trkpt lat="50.23142" lon="5.67736">
        <ele>587</ele>
        <time>2026-09-02T15:17:41+00:00</time>
      </trkpt>
      <trkpt lat="50.23103" lon="5.67705">
        <ele>590</ele>
        <time>2026-09-02T15:17:44+00:00</time>
      </trkpt>
      <trkpt lat="50.23087" lon="5.67694">
        <ele>591</ele>
        <time>2026-09-02T15:17:47+00:00</time>
      </trkpt>
      <trkpt lat="50.23062" lon="5.67688">
        <ele>592</ele>
        <time>2026-09-02T15:17:50+00:00</time>
      </trkpt>
      <trkpt lat="50.23025" lon="5.6768">
        <ele>594</ele>
        <time>2026-09-02T15:17:53+00:00</time>
      </trkpt>
      <trkpt lat="50.23001" lon="5.67666">
        <ele>595</ele>
        <time>2026-09-02T15:17:56+00:00</time>
      </trkpt>
      <trkpt lat="50.22975" lon="5.67641">
        <ele>602</ele>
        <time>2026-09-02T15:17:59+00:00</time>
      </trkpt>
      <trkpt lat="50.22956" lon="5.67609">
        <ele>600</ele>
        <time>2026-09-02T15:18:02+00:00</time>
      </trkpt>
      <trkpt lat="50.22921" lon="5.67549">
        <ele>601</ele>
        <time>2026-09-02T15:18:05+00:00</time>
      </trkpt>
      <trkpt lat="50.22909" lon="5.67487">
        <ele>600</ele>
        <time>2026-09-02T15:18:08+00:00</time>
      </trkpt>
      <trkpt lat="50.229" lon="5.67446">
        <ele>599</ele>
        <time>2026-09-02T15:18:11+00:00</time>
      </trkpt>
      <trkpt lat="50.22883" lon="5.67372">
        <ele>598</ele>
        <time>2026-09-02T15:18:14+00:00</time>
      </trkpt>
      <trkpt lat="50.22874" lon="5.67315">
        <ele>595</ele>
        <time>2026-09-02T15:18:17+00:00</time>
      </trkpt>
      <trkpt lat="50.22862" lon="5.67257">
        <ele>592</ele>
        <time>2026-09-02T15:18:20+00:00</time>
      </trkpt>
      <trkpt lat="50.22856" lon="5.67222">
        <ele>592</ele>
        <time>2026-09-02T15:18:23+00:00</time>
      </trkpt>
      <trkpt lat="50.2285" lon="5.6718">
        <ele>592</ele>
        <time>2026-09-02T15:18:26+00:00</time>
      </trkpt>
      <trkpt lat="50.22848" lon="5.67154">
        <ele>592</ele>
        <time>2026-09-02T15:18:29+00:00</time>
      </trkpt>
      <trkpt lat="50.22847" lon="5.67114">
        <ele>592</ele>
        <time>2026-09-02T15:18:32+00:00</time>
      </trkpt>
      <trkpt lat="50.22846" lon="5.67074">
        <ele>595</ele>
        <time>2026-09-02T15:18:35+00:00</time>
      </trkpt>
      <trkpt lat="50.22844" lon="5.67016">
        <ele>600</ele>
        <time>2026-09-02T15:18:38+00:00</time>
      </trkpt>
      <trkpt lat="50.22842" lon="5.66976">
        <ele>604</ele>
        <time>2026-09-02T15:18:41+00:00</time>
      </trkpt>
      <trkpt lat="50.2284" lon="5.6692">
        <ele>601</ele>
        <time>2026-09-02T15:18:44+00:00</time>
      </trkpt>
      <trkpt lat="50.22834" lon="5.66869">
        <ele>599</ele>
        <time>2026-09-02T15:18:47+00:00</time>
      </trkpt>
      <trkpt lat="50.22828" lon="5.66819">
        <ele>597</ele>
        <time>2026-09-02T15:18:50+00:00</time>
      </trkpt>
      <trkpt lat="50.22823" lon="5.66768">
        <ele>596</ele>
        <time>2026-09-02T15:18:53+00:00</time>
      </trkpt>
      <trkpt lat="50.22816" lon="5.66709">
        <ele>595</ele>
        <time>2026-09-02T15:18:56+00:00</time>
      </trkpt>
      <trkpt lat="50.22815" lon="5.66671">
        <ele>595</ele>
        <time>2026-09-02T15:18:59+00:00</time>
      </trkpt>
      <trkpt lat="50.22814" lon="5.66623">
        <ele>596</ele>
        <time>2026-09-02T15:19:02+00:00</time>
      </trkpt>
      <trkpt lat="50.22814" lon="5.66605">
        <ele>594</ele>
        <time>2026-09-02T15:19:05+00:00</time>
      </trkpt>
      <trkpt lat="50.22821" lon="5.6657">
        <ele>597</ele>
        <time>2026-09-02T15:19:08+00:00</time>
      </trkpt>
      <trkpt lat="50.22835" lon="5.66507">
        <ele>598</ele>
        <time>2026-09-02T15:19:11+00:00</time>
      </trkpt>
      <trkpt lat="50.22852" lon="5.66459">
        <ele>598</ele>
        <time>2026-09-02T15:19:14+00:00</time>
      </trkpt>
      <trkpt lat="50.22873" lon="5.66408">
        <ele>598</ele>
        <time>2026-09-02T15:19:17+00:00</time>
      </trkpt>
      <trkpt lat="50.22886" lon="5.6637">
        <ele>598</ele>
        <time>2026-09-02T15:19:20+00:00</time>
      </trkpt>
      <trkpt lat="50.22911" lon="5.66299">
        <ele>593</ele>
        <time>2026-09-02T15:19:23+00:00</time>
      </trkpt>
      <trkpt lat="50.22925" lon="5.6627">
        <ele>589</ele>
        <time>2026-09-02T15:19:26+00:00</time>
      </trkpt>
      <trkpt lat="50.22934" lon="5.66235">
        <ele>589</ele>
        <time>2026-09-02T15:19:29+00:00</time>
      </trkpt>
      <trkpt lat="50.22938" lon="5.66209">
        <ele>593</ele>
        <time>2026-09-02T15:19:32+00:00</time>
      </trkpt>
      <trkpt lat="50.22939" lon="5.66183">
        <ele>589</ele>
        <time>2026-09-02T15:19:35+00:00</time>
      </trkpt>
      <trkpt lat="50.22941" lon="5.6615">
        <ele>588</ele>
        <time>2026-09-02T15:19:38+00:00</time>
      </trkpt>
      <trkpt lat="50.22945" lon="5.66104">
        <ele>588</ele>
        <time>2026-09-02T15:19:41+00:00</time>
      </trkpt>
      <trkpt lat="50.22949" lon="5.66059">
        <ele>587</ele>
        <time>2026-09-02T15:19:44+00:00</time>
      </trkpt>
      <trkpt lat="50.22954" lon="5.66008">
        <ele>587</ele>
        <time>2026-09-02T15:19:47+00:00</time>
      </trkpt>
      <trkpt lat="50.22988" lon="5.66026">
        <ele>581</ele>
        <time>2026-09-02T15:19:50+00:00</time>
      </trkpt>
      <trkpt lat="50.23023" lon="5.66044">
        <ele>581</ele>
        <time>2026-09-02T15:19:53+00:00</time>
      </trkpt>
      <trkpt lat="50.23057" lon="5.66062">
        <ele>581</ele>
        <time>2026-09-02T15:19:56+00:00</time>
      </trkpt>
      <trkpt lat="50.23092" lon="5.66081">
        <ele>581</ele>
        <time>2026-09-02T15:19:59+00:00</time>
      </trkpt>
      <trkpt lat="50.23126" lon="5.66099">
        <ele>578</ele>
        <time>2026-09-02T15:20:02+00:00</time>
      </trkpt>
      <trkpt lat="50.23176" lon="5.66125">
        <ele>576</ele>
        <time>2026-09-02T15:20:05+00:00</time>
      </trkpt>
      <trkpt lat="50.23202" lon="5.66147">
        <ele>576</ele>
        <time>2026-09-02T15:20:08+00:00</time>
      </trkpt>
      <trkpt lat="50.23214" lon="5.66139">
        <ele>581</ele>
        <time>2026-09-02T15:20:11+00:00</time>
      </trkpt>
      <trkpt lat="50.23235" lon="5.66119">
        <ele>584</ele>
        <time>2026-09-02T15:20:14+00:00</time>
      </trkpt>
      <trkpt lat="50.23255" lon="5.66098">
        <ele>585</ele>
        <time>2026-09-02T15:20:17+00:00</time>
      </trkpt>
      <trkpt lat="50.23276" lon="5.66078">
        <ele>585</ele>
        <time>2026-09-02T15:20:20+00:00</time>
      </trkpt>
      <trkpt lat="50.23302" lon="5.66047">
        <ele>583</ele>
        <time>2026-09-02T15:20:23+00:00</time>
      </trkpt>
      <trkpt lat="50.23328" lon="5.66016">
        <ele>581</ele>
        <time>2026-09-02T15:20:26+00:00</time>
      </trkpt>
      <trkpt lat="50.23355" lon="5.65986">
        <ele>571</ele>
        <time>2026-09-02T15:20:29+00:00</time>
      </trkpt>
      <trkpt lat="50.23386" lon="5.65949">
        <ele>572</ele>
        <time>2026-09-02T15:20:32+00:00</time>
      </trkpt>
      <trkpt lat="50.23413" lon="5.6591">
        <ele>567</ele>
        <time>2026-09-02T15:20:35+00:00</time>
      </trkpt>
      <trkpt lat="50.23434" lon="5.65873">
        <ele>567</ele>
        <time>2026-09-02T15:20:38+00:00</time>
      </trkpt>
      <trkpt lat="50.23428" lon="5.65864">
        <ele>566</ele>
        <time>2026-09-02T15:20:41+00:00</time>
      </trkpt>
      <trkpt lat="50.23424" lon="5.65849">
        <ele>567</ele>
        <time>2026-09-02T15:20:44+00:00</time>
      </trkpt>
      <trkpt lat="50.23422" lon="5.65817">
        <ele>566</ele>
        <time>2026-09-02T15:20:47+00:00</time>
      </trkpt>
      <trkpt lat="50.23415" lon="5.65779">
        <ele>563</ele>
        <time>2026-09-02T15:20:50+00:00</time>
      </trkpt>
      <trkpt lat="50.23405" lon="5.65723">
        <ele>560</ele>
        <time>2026-09-02T15:20:53+00:00</time>
      </trkpt>
      <trkpt lat="50.23402" lon="5.65686">
        <ele>560</ele>
        <time>2026-09-02T15:20:56+00:00</time>
      </trkpt>
      <trkpt lat="50.23398" lon="5.6564">
        <ele>560</ele>
        <time>2026-09-02T15:20:59+00:00</time>
      </trkpt>
      <trkpt lat="50.23395" lon="5.656">
        <ele>560</ele>
        <time>2026-09-02T15:21:02+00:00</time>
      </trkpt>
      <trkpt lat="50.23392" lon="5.65543">
        <ele>554</ele>
        <time>2026-09-02T15:21:05+00:00</time>
      </trkpt>
      <trkpt lat="50.23392" lon="5.65508">
        <ele>553</ele>
        <time>2026-09-02T15:21:08+00:00</time>
      </trkpt>
      <trkpt lat="50.23392" lon="5.6547">
        <ele>552</ele>
        <time>2026-09-02T15:21:11+00:00</time>
      </trkpt>
      <trkpt lat="50.23397" lon="5.65419">
        <ele>550</ele>
        <time>2026-09-02T15:21:14+00:00</time>
      </trkpt>
      <trkpt lat="50.23402" lon="5.65368">
        <ele>547</ele>
        <time>2026-09-02T15:21:17+00:00</time>
      </trkpt>
      <trkpt lat="50.23407" lon="5.65316">
        <ele>546</ele>
        <time>2026-09-02T15:21:20+00:00</time>
      </trkpt>
      <trkpt lat="50.23413" lon="5.65249">
        <ele>545</ele>
        <time>2026-09-02T15:21:23+00:00</time>
      </trkpt>
      <trkpt lat="50.23412" lon="5.65214">
        <ele>545</ele>
        <time>2026-09-02T15:21:26+00:00</time>
      </trkpt>
      <trkpt lat="50.23411" lon="5.65178">
        <ele>548</ele>
        <time>2026-09-02T15:21:29+00:00</time>
      </trkpt>
      <trkpt lat="50.23412" lon="5.65143">
        <ele>548</ele>
        <time>2026-09-02T15:21:32+00:00</time>
      </trkpt>
      <trkpt lat="50.23414" lon="5.65106">
        <ele>547</ele>
        <time>2026-09-02T15:21:35+00:00</time>
      </trkpt>
      <trkpt lat="50.23415" lon="5.65041">
        <ele>547</ele>
        <time>2026-09-02T15:21:38+00:00</time>
      </trkpt>
      <trkpt lat="50.23419" lon="5.64997">
        <ele>560</ele>
        <time>2026-09-02T15:21:41+00:00</time>
      </trkpt>
      <trkpt lat="50.2342" lon="5.64951">
        <ele>559</ele>
        <time>2026-09-02T15:21:44+00:00</time>
      </trkpt>
      <trkpt lat="50.23424" lon="5.64908">
        <ele>559</ele>
        <time>2026-09-02T15:21:47+00:00</time>
      </trkpt>
      <trkpt lat="50.23434" lon="5.64873">
        <ele>555</ele>
        <time>2026-09-02T15:21:50+00:00</time>
      </trkpt>
      <trkpt lat="50.23448" lon="5.64825">
        <ele>553</ele>
        <time>2026-09-02T15:21:53+00:00</time>
      </trkpt>
      <trkpt lat="50.23417" lon="5.64829">
        <ele>552</ele>
        <time>2026-09-02T15:21:56+00:00</time>
      </trkpt>
      <trkpt lat="50.23389" lon="5.64829">
        <ele>548</ele>
        <time>2026-09-02T15:21:59+00:00</time>
      </trkpt>
      <trkpt lat="50.23354" lon="5.64839">
        <ele>547</ele>
        <time>2026-09-02T15:22:02+00:00</time>
      </trkpt>
      <trkpt lat="50.23339" lon="5.64846">
        <ele>546</ele>
        <time>2026-09-02T15:22:05+00:00</time>
      </trkpt>
      <trkpt lat="50.23323" lon="5.64854">
        <ele>544</ele>
        <time>2026-09-02T15:22:08+00:00</time>
      </trkpt>
      <trkpt lat="50.23303" lon="5.64864">
        <ele>541</ele>
        <time>2026-09-02T15:22:11+00:00</time>
      </trkpt>
      <trkpt lat="50.23268" lon="5.64887">
        <ele>534</ele>
        <time>2026-09-02T15:22:14+00:00</time>
      </trkpt>
      <trkpt lat="50.23234" lon="5.64917">
        <ele>531</ele>
        <time>2026-09-02T15:22:17+00:00</time>
      </trkpt>
      <trkpt lat="50.23214" lon="5.64939">
        <ele>524</ele>
        <time>2026-09-02T15:22:20+00:00</time>
      </trkpt>
      <trkpt lat="50.23179" lon="5.64945">
        <ele>521</ele>
        <time>2026-09-02T15:22:23+00:00</time>
      </trkpt>
      <trkpt lat="50.23173" lon="5.64935">
        <ele>517</ele>
        <time>2026-09-02T15:22:26+00:00</time>
      </trkpt>
      <trkpt lat="50.23142" lon="5.64913">
        <ele>521</ele>
        <time>2026-09-02T15:22:29+00:00</time>
      </trkpt>
      <trkpt lat="50.23136" lon="5.64913">
        <ele>519</ele>
        <time>2026-09-02T15:22:32+00:00</time>
      </trkpt>
      <trkpt lat="50.23116" lon="5.64915">
        <ele>522</ele>
        <time>2026-09-02T15:22:35+00:00</time>
      </trkpt>
      <trkpt lat="50.23094" lon="5.64917">
        <ele>524</ele>
        <time>2026-09-02T15:22:38+00:00</time>
      </trkpt>
      <trkpt lat="50.23069" lon="5.64927">
        <ele>527</ele>
        <time>2026-09-02T15:22:41+00:00</time>
      </trkpt>
      <trkpt lat="50.23053" lon="5.64929">
        <ele>528</ele>
        <time>2026-09-02T15:22:44+00:00</time>
      </trkpt>
      <trkpt lat="50.23035" lon="5.64928">
        <ele>529</ele>
        <time>2026-09-02T15:22:47+00:00</time>
      </trkpt>
      <trkpt lat="50.23021" lon="5.6493">
        <ele>530</ele>
        <time>2026-09-02T15:22:50+00:00</time>
      </trkpt>
      <trkpt lat="50.23006" lon="5.64935">
        <ele>531</ele>
        <time>2026-09-02T15:22:53+00:00</time>
      </trkpt>
      <trkpt lat="50.22989" lon="5.64941">
        <ele>531</ele>
        <time>2026-09-02T15:22:56+00:00</time>
      </trkpt>
      <trkpt lat="50.22958" lon="5.64938">
        <ele>526</ele>
        <time>2026-09-02T15:22:59+00:00</time>
      </trkpt>
      <trkpt lat="50.22961" lon="5.64898">
        <ele>525</ele>
        <time>2026-09-02T15:23:02+00:00</time>
      </trkpt>
      <trkpt lat="50.22965" lon="5.64859">
        <ele>525</ele>
        <time>2026-09-02T15:23:05+00:00</time>
      </trkpt>
      <trkpt lat="50.2297" lon="5.64807">
        <ele>522</ele>
        <time>2026-09-02T15:23:08+00:00</time>
      </trkpt>
      <trkpt lat="50.22972" lon="5.64764">
        <ele>519</ele>
        <time>2026-09-02T15:23:11+00:00</time>
      </trkpt>
      <trkpt lat="50.22976" lon="5.6469">
        <ele>514</ele>
        <time>2026-09-02T15:23:14+00:00</time>
      </trkpt>
      <trkpt lat="50.22973" lon="5.64624">
        <ele>513</ele>
        <time>2026-09-02T15:23:17+00:00</time>
      </trkpt>
      <trkpt lat="50.2297" lon="5.64594">
        <ele>512</ele>
        <time>2026-09-02T15:23:20+00:00</time>
      </trkpt>
      <trkpt lat="50.22962" lon="5.64555">
        <ele>506</ele>
        <time>2026-09-02T15:23:23+00:00</time>
      </trkpt>
      <trkpt lat="50.2295" lon="5.64493">
        <ele>503</ele>
        <time>2026-09-02T15:23:26+00:00</time>
      </trkpt>
      <trkpt lat="50.22933" lon="5.6445">
        <ele>499</ele>
        <time>2026-09-02T15:23:29+00:00</time>
      </trkpt>
      <trkpt lat="50.22926" lon="5.64408">
        <ele>497</ele>
        <time>2026-09-02T15:23:32+00:00</time>
      </trkpt>
      <trkpt lat="50.22916" lon="5.64374">
        <ele>497</ele>
        <time>2026-09-02T15:23:35+00:00</time>
      </trkpt>
      <trkpt lat="50.22904" lon="5.64331">
        <ele>495</ele>
        <time>2026-09-02T15:23:38+00:00</time>
      </trkpt>
      <trkpt lat="50.22899" lon="5.64305">
        <ele>494</ele>
        <time>2026-09-02T15:23:41+00:00</time>
      </trkpt>
      <trkpt lat="50.22898" lon="5.64263">
        <ele>488</ele>
        <time>2026-09-02T15:23:44+00:00</time>
      </trkpt>
      <trkpt lat="50.22896" lon="5.64195">
        <ele>477</ele>
        <time>2026-09-02T15:23:47+00:00</time>
      </trkpt>
      <trkpt lat="50.22894" lon="5.64177">
        <ele>475</ele>
        <time>2026-09-02T15:23:50+00:00</time>
      </trkpt>
      <trkpt lat="50.22892" lon="5.64167">
        <ele>476</ele>
        <time>2026-09-02T15:23:53+00:00</time>
      </trkpt>
      <trkpt lat="50.2289" lon="5.64175">
        <ele>474</ele>
        <time>2026-09-02T15:23:56+00:00</time>
      </trkpt>
      <trkpt lat="50.22886" lon="5.64197">
        <ele>477</ele>
        <time>2026-09-02T15:23:59+00:00</time>
      </trkpt>
      <trkpt lat="50.22882" lon="5.64208">
        <ele>476</ele>
        <time>2026-09-02T15:24:02+00:00</time>
      </trkpt>
      <trkpt lat="50.22866" lon="5.64232">
        <ele>478</ele>
        <time>2026-09-02T15:24:05+00:00</time>
      </trkpt>
      <trkpt lat="50.22844" lon="5.64268">
        <ele>485</ele>
        <time>2026-09-02T15:24:08+00:00</time>
      </trkpt>
      <trkpt lat="50.2282" lon="5.64302">
        <ele>492</ele>
        <time>2026-09-02T15:24:11+00:00</time>
      </trkpt>
      <trkpt lat="50.228" lon="5.64349">
        <ele>496</ele>
        <time>2026-09-02T15:24:14+00:00</time>
      </trkpt>
      <trkpt lat="50.22783" lon="5.64385">
        <ele>501</ele>
        <time>2026-09-02T15:24:17+00:00</time>
      </trkpt>
      <trkpt lat="50.22768" lon="5.64404">
        <ele>504</ele>
        <time>2026-09-02T15:24:20+00:00</time>
      </trkpt>
      <trkpt lat="50.22752" lon="5.64445">
        <ele>507</ele>
        <time>2026-09-02T15:24:23+00:00</time>
      </trkpt>
      <trkpt lat="50.22732" lon="5.64488">
        <ele>510</ele>
        <time>2026-09-02T15:24:26+00:00</time>
      </trkpt>
      <trkpt lat="50.22711" lon="5.64531">
        <ele>513</ele>
        <time>2026-09-02T15:24:29+00:00</time>
      </trkpt>
      <trkpt lat="50.22691" lon="5.64573">
        <ele>515</ele>
        <time>2026-09-02T15:24:32+00:00</time>
      </trkpt>
      <trkpt lat="50.22655" lon="5.6465">
        <ele>516</ele>
        <time>2026-09-02T15:24:35+00:00</time>
      </trkpt>
      <trkpt lat="50.22642" lon="5.64684">
        <ele>517</ele>
        <time>2026-09-02T15:24:38+00:00</time>
      </trkpt>
      <trkpt lat="50.22629" lon="5.64736">
        <ele>518</ele>
        <time>2026-09-02T15:24:41+00:00</time>
      </trkpt>
      <trkpt lat="50.22615" lon="5.6477">
        <ele>520</ele>
        <time>2026-09-02T15:24:44+00:00</time>
      </trkpt>
      <trkpt lat="50.22592" lon="5.64824">
        <ele>520</ele>
        <time>2026-09-02T15:24:47+00:00</time>
      </trkpt>
      <trkpt lat="50.2258" lon="5.64864">
        <ele>520</ele>
        <time>2026-09-02T15:24:50+00:00</time>
      </trkpt>
      <trkpt lat="50.22555" lon="5.64861">
        <ele>517</ele>
        <time>2026-09-02T15:24:53+00:00</time>
      </trkpt>
      <trkpt lat="50.22518" lon="5.64857">
        <ele>515</ele>
        <time>2026-09-02T15:24:56+00:00</time>
      </trkpt>
      <trkpt lat="50.225" lon="5.64868">
        <ele>515</ele>
        <time>2026-09-02T15:24:59+00:00</time>
      </trkpt>
      <trkpt lat="50.22479" lon="5.64858">
        <ele>513</ele>
        <time>2026-09-02T15:25:02+00:00</time>
      </trkpt>
      <trkpt lat="50.22456" lon="5.64847">
        <ele>512</ele>
        <time>2026-09-02T15:25:05+00:00</time>
      </trkpt>
      <trkpt lat="50.22427" lon="5.64847">
        <ele>512</ele>
        <time>2026-09-02T15:25:08+00:00</time>
      </trkpt>
      <trkpt lat="50.22404" lon="5.64829">
        <ele>510</ele>
        <time>2026-09-02T15:25:11+00:00</time>
      </trkpt>
      <trkpt lat="50.22391" lon="5.64801">
        <ele>512</ele>
        <time>2026-09-02T15:25:14+00:00</time>
      </trkpt>
      <trkpt lat="50.22397" lon="5.64772">
        <ele>514</ele>
        <time>2026-09-02T15:25:17+00:00</time>
      </trkpt>
      <trkpt lat="50.22395" lon="5.64724">
        <ele>521</ele>
        <time>2026-09-02T15:25:20+00:00</time>
      </trkpt>
      <trkpt lat="50.22388" lon="5.64679">
        <ele>526</ele>
        <time>2026-09-02T15:25:23+00:00</time>
      </trkpt>
      <trkpt lat="50.22361" lon="5.64643">
        <ele>526</ele>
        <time>2026-09-02T15:25:26+00:00</time>
      </trkpt>
      <trkpt lat="50.22339" lon="5.64619">
        <ele>526</ele>
        <time>2026-09-02T15:25:29+00:00</time>
      </trkpt>
      <trkpt lat="50.22305" lon="5.6458">
        <ele>527</ele>
        <time>2026-09-02T15:25:32+00:00</time>
      </trkpt>
      <trkpt lat="50.22299" lon="5.64581">
        <ele>528</ele>
        <time>2026-09-02T15:25:35+00:00</time>
      </trkpt>
      <trkpt lat="50.22268" lon="5.64583">
        <ele>530</ele>
        <time>2026-09-02T15:25:38+00:00</time>
      </trkpt>
      <trkpt lat="50.22238" lon="5.64584">
        <ele>534</ele>
        <time>2026-09-02T15:25:41+00:00</time>
      </trkpt>
      <trkpt lat="50.22178" lon="5.64588">
        <ele>534</ele>
        <time>2026-09-02T15:25:44+00:00</time>
      </trkpt>
      <trkpt lat="50.22156" lon="5.64586">
        <ele>534</ele>
        <time>2026-09-02T15:25:47+00:00</time>
      </trkpt>
      <trkpt lat="50.22121" lon="5.64573">
        <ele>532</ele>
        <time>2026-09-02T15:25:50+00:00</time>
      </trkpt>
      <trkpt lat="50.22088" lon="5.64549">
        <ele>531</ele>
        <time>2026-09-02T15:25:53+00:00</time>
      </trkpt>
      <trkpt lat="50.22069" lon="5.64532">
        <ele>530</ele>
        <time>2026-09-02T15:25:56+00:00</time>
      </trkpt>
      <trkpt lat="50.22048" lon="5.64513">
        <ele>526</ele>
        <time>2026-09-02T15:25:59+00:00</time>
      </trkpt>
      <trkpt lat="50.22029" lon="5.64494">
        <ele>521</ele>
        <time>2026-09-02T15:26:02+00:00</time>
      </trkpt>
      <trkpt lat="50.2201" lon="5.64475">
        <ele>519</ele>
        <time>2026-09-02T15:26:05+00:00</time>
      </trkpt>
      <trkpt lat="50.21992" lon="5.64463">
        <ele>518</ele>
        <time>2026-09-02T15:26:08+00:00</time>
      </trkpt>
      <trkpt lat="50.2197" lon="5.64452">
        <ele>518</ele>
        <time>2026-09-02T15:26:11+00:00</time>
      </trkpt>
      <trkpt lat="50.21956" lon="5.64449">
        <ele>517</ele>
        <time>2026-09-02T15:26:14+00:00</time>
      </trkpt>
      <trkpt lat="50.2194" lon="5.64448">
        <ele>517</ele>
        <time>2026-09-02T15:26:17+00:00</time>
      </trkpt>
      <trkpt lat="50.21923" lon="5.64448">
        <ele>517</ele>
        <time>2026-09-02T15:26:20+00:00</time>
      </trkpt>
      <trkpt lat="50.21915" lon="5.64444">
        <ele>516</ele>
        <time>2026-09-02T15:26:23+00:00</time>
      </trkpt>
      <trkpt lat="50.21897" lon="5.64421">
        <ele>518</ele>
        <time>2026-09-02T15:26:26+00:00</time>
      </trkpt>
      <trkpt lat="50.21888" lon="5.64405">
        <ele>518</ele>
        <time>2026-09-02T15:26:29+00:00</time>
      </trkpt>
      <trkpt lat="50.21876" lon="5.64373">
        <ele>520</ele>
        <time>2026-09-02T15:26:32+00:00</time>
      </trkpt>
      <trkpt lat="50.21874" lon="5.64354">
        <ele>521</ele>
        <time>2026-09-02T15:26:35+00:00</time>
      </trkpt>
      <trkpt lat="50.21874" lon="5.64328">
        <ele>523</ele>
        <time>2026-09-02T15:26:38+00:00</time>
      </trkpt>
      <trkpt lat="50.21875" lon="5.64299">
        <ele>525</ele>
        <time>2026-09-02T15:26:41+00:00</time>
      </trkpt>
      <trkpt lat="50.21873" lon="5.64284">
        <ele>526</ele>
        <time>2026-09-02T15:26:44+00:00</time>
      </trkpt>
      <trkpt lat="50.2187" lon="5.64271">
        <ele>527</ele>
        <time>2026-09-02T15:26:47+00:00</time>
      </trkpt>
      <trkpt lat="50.2186" lon="5.64251">
        <ele>528</ele>
        <time>2026-09-02T15:26:50+00:00</time>
      </trkpt>
      <trkpt lat="50.21855" lon="5.64245">
        <ele>528</ele>
        <time>2026-09-02T15:26:53+00:00</time>
      </trkpt>
      <trkpt lat="50.21837" lon="5.64226">
        <ele>529</ele>
        <time>2026-09-02T15:26:56+00:00</time>
      </trkpt>
      <trkpt lat="50.21814" lon="5.64209">
        <ele>531</ele>
        <time>2026-09-02T15:26:59+00:00</time>
      </trkpt>
      <trkpt lat="50.2178" lon="5.64184">
        <ele>534</ele>
        <time>2026-09-02T15:27:02+00:00</time>
      </trkpt>
      <trkpt lat="50.21766" lon="5.64169">
        <ele>534</ele>
        <time>2026-09-02T15:27:05+00:00</time>
      </trkpt>
      <trkpt lat="50.21751" lon="5.64151">
        <ele>534</ele>
        <time>2026-09-02T15:27:08+00:00</time>
      </trkpt>
      <trkpt lat="50.21732" lon="5.64117">
        <ele>534</ele>
        <time>2026-09-02T15:27:11+00:00</time>
      </trkpt>
      <trkpt lat="50.21704" lon="5.64075">
        <ele>534</ele>
        <time>2026-09-02T15:27:14+00:00</time>
      </trkpt>
      <trkpt lat="50.21717" lon="5.64019">
        <ele>534</ele>
        <time>2026-09-02T15:27:17+00:00</time>
      </trkpt>
      <trkpt lat="50.21723" lon="5.63975">
        <ele>531</ele>
        <time>2026-09-02T15:27:20+00:00</time>
      </trkpt>
      <trkpt lat="50.21728" lon="5.6393">
        <ele>530</ele>
        <time>2026-09-02T15:27:23+00:00</time>
      </trkpt>
      <trkpt lat="50.21734" lon="5.63885">
        <ele>530</ele>
        <time>2026-09-02T15:27:26+00:00</time>
      </trkpt>
      <trkpt lat="50.21738" lon="5.63863">
        <ele>530</ele>
        <time>2026-09-02T15:27:29+00:00</time>
      </trkpt>
      <trkpt lat="50.21747" lon="5.63825">
        <ele>530</ele>
        <time>2026-09-02T15:27:32+00:00</time>
      </trkpt>
      <trkpt lat="50.21756" lon="5.63787">
        <ele>531</ele>
        <time>2026-09-02T15:27:35+00:00</time>
      </trkpt>
      <trkpt lat="50.21769" lon="5.63735">
        <ele>532</ele>
        <time>2026-09-02T15:27:38+00:00</time>
      </trkpt>
      <trkpt lat="50.21774" lon="5.63718">
        <ele>533</ele>
        <time>2026-09-02T15:27:41+00:00</time>
      </trkpt>
      <trkpt lat="50.21781" lon="5.63704">
        <ele>533</ele>
        <time>2026-09-02T15:27:44+00:00</time>
      </trkpt>
      <trkpt lat="50.21798" lon="5.63674">
        <ele>534</ele>
        <time>2026-09-02T15:27:47+00:00</time>
      </trkpt>
      <trkpt lat="50.21824" lon="5.63629">
        <ele>538</ele>
        <time>2026-09-02T15:27:50+00:00</time>
      </trkpt>
      <trkpt lat="50.21832" lon="5.63614">
        <ele>538</ele>
        <time>2026-09-02T15:27:53+00:00</time>
      </trkpt>
      <trkpt lat="50.21839" lon="5.63598">
        <ele>539</ele>
        <time>2026-09-02T15:27:56+00:00</time>
      </trkpt>
      <trkpt lat="50.2185" lon="5.63555">
        <ele>540</ele>
        <time>2026-09-02T15:27:59+00:00</time>
      </trkpt>
      <trkpt lat="50.21862" lon="5.63511">
        <ele>541</ele>
        <time>2026-09-02T15:28:02+00:00</time>
      </trkpt>
      <trkpt lat="50.21876" lon="5.63456">
        <ele>542</ele>
        <time>2026-09-02T15:28:05+00:00</time>
      </trkpt>
      <trkpt lat="50.21898" lon="5.6345">
        <ele>543</ele>
        <time>2026-09-02T15:28:08+00:00</time>
      </trkpt>
      <trkpt lat="50.21924" lon="5.63443">
        <ele>544</ele>
        <time>2026-09-02T15:28:11+00:00</time>
      </trkpt>
      <trkpt lat="50.21951" lon="5.63432">
        <ele>544</ele>
        <time>2026-09-02T15:28:14+00:00</time>
      </trkpt>
      <trkpt lat="50.22001" lon="5.63412">
        <ele>544</ele>
        <time>2026-09-02T15:28:17+00:00</time>
      </trkpt>
      <trkpt lat="50.22024" lon="5.63398">
        <ele>544</ele>
        <time>2026-09-02T15:28:20+00:00</time>
      </trkpt>
      <trkpt lat="50.22057" lon="5.63378">
        <ele>543</ele>
        <time>2026-09-02T15:28:23+00:00</time>
      </trkpt>
      <trkpt lat="50.22094" lon="5.63347">
        <ele>540</ele>
        <time>2026-09-02T15:28:26+00:00</time>
      </trkpt>
      <trkpt lat="50.22114" lon="5.63311">
        <ele>540</ele>
        <time>2026-09-02T15:28:29+00:00</time>
      </trkpt>
      <trkpt lat="50.22137" lon="5.63259">
        <ele>536</ele>
        <time>2026-09-02T15:28:32+00:00</time>
      </trkpt>
      <trkpt lat="50.22147" lon="5.63226">
        <ele>534</ele>
        <time>2026-09-02T15:28:35+00:00</time>
      </trkpt>
      <trkpt lat="50.2216" lon="5.63186">
        <ele>532</ele>
        <time>2026-09-02T15:28:38+00:00</time>
      </trkpt>
      <trkpt lat="50.2216" lon="5.63149">
        <ele>530</ele>
        <time>2026-09-02T15:28:41+00:00</time>
      </trkpt>
      <trkpt lat="50.22161" lon="5.63103">
        <ele>529</ele>
        <time>2026-09-02T15:28:44+00:00</time>
      </trkpt>
      <trkpt lat="50.22164" lon="5.63068">
        <ele>527</ele>
        <time>2026-09-02T15:28:47+00:00</time>
      </trkpt>
      <trkpt lat="50.22168" lon="5.63029">
        <ele>524</ele>
        <time>2026-09-02T15:28:50+00:00</time>
      </trkpt>
      <trkpt lat="50.22174" lon="5.62983">
        <ele>520</ele>
        <time>2026-09-02T15:28:53+00:00</time>
      </trkpt>
      <trkpt lat="50.22182" lon="5.62945">
        <ele>516</ele>
        <time>2026-09-02T15:28:56+00:00</time>
      </trkpt>
      <trkpt lat="50.22192" lon="5.62891">
        <ele>512</ele>
        <time>2026-09-02T15:28:59+00:00</time>
      </trkpt>
      <trkpt lat="50.22201" lon="5.62851">
        <ele>509</ele>
        <time>2026-09-02T15:29:02+00:00</time>
      </trkpt>
      <trkpt lat="50.2222" lon="5.628">
        <ele>506</ele>
        <time>2026-09-02T15:29:05+00:00</time>
      </trkpt>
      <trkpt lat="50.22235" lon="5.62763">
        <ele>503</ele>
        <time>2026-09-02T15:29:08+00:00</time>
      </trkpt>
      <trkpt lat="50.2225" lon="5.62726">
        <ele>501</ele>
        <time>2026-09-02T15:29:11+00:00</time>
      </trkpt>
      <trkpt lat="50.22278" lon="5.62659">
        <ele>498</ele>
        <time>2026-09-02T15:29:14+00:00</time>
      </trkpt>
      <trkpt lat="50.22296" lon="5.62633">
        <ele>497</ele>
        <time>2026-09-02T15:29:17+00:00</time>
      </trkpt>
      <trkpt lat="50.2232" lon="5.62598">
        <ele>497</ele>
        <time>2026-09-02T15:29:20+00:00</time>
      </trkpt>
      <trkpt lat="50.22359" lon="5.62575">
        <ele>497</ele>
        <time>2026-09-02T15:29:23+00:00</time>
      </trkpt>
      <trkpt lat="50.22381" lon="5.62564">
        <ele>497</ele>
        <time>2026-09-02T15:29:26+00:00</time>
      </trkpt>
      <trkpt lat="50.22408" lon="5.62551">
        <ele>497</ele>
        <time>2026-09-02T15:29:29+00:00</time>
      </trkpt>
      <trkpt lat="50.22432" lon="5.62534">
        <ele>498</ele>
        <time>2026-09-02T15:29:32+00:00</time>
      </trkpt>
      <trkpt lat="50.22471" lon="5.62508">
        <ele>498</ele>
        <time>2026-09-02T15:29:35+00:00</time>
      </trkpt>
      <trkpt lat="50.22496" lon="5.62504">
        <ele>498</ele>
        <time>2026-09-02T15:29:38+00:00</time>
      </trkpt>
      <trkpt lat="50.22529" lon="5.62498">
        <ele>497</ele>
        <time>2026-09-02T15:29:41+00:00</time>
      </trkpt>
      <trkpt lat="50.22557" lon="5.62502">
        <ele>497</ele>
        <time>2026-09-02T15:29:44+00:00</time>
      </trkpt>
      <trkpt lat="50.2261" lon="5.6251">
        <ele>497</ele>
        <time>2026-09-02T15:29:47+00:00</time>
      </trkpt>
      <trkpt lat="50.22641" lon="5.62513">
        <ele>498</ele>
        <time>2026-09-02T15:29:50+00:00</time>
      </trkpt>
      <trkpt lat="50.22672" lon="5.62515">
        <ele>500</ele>
        <time>2026-09-02T15:29:53+00:00</time>
      </trkpt>
      <trkpt lat="50.22719" lon="5.6252">
        <ele>500</ele>
        <time>2026-09-02T15:29:56+00:00</time>
      </trkpt>
      <trkpt lat="50.22744" lon="5.62511">
        <ele>500</ele>
        <time>2026-09-02T15:29:59+00:00</time>
      </trkpt>
      <trkpt lat="50.22778" lon="5.62498">
        <ele>500</ele>
        <time>2026-09-02T15:30:02+00:00</time>
      </trkpt>
      <trkpt lat="50.22768" lon="5.62446">
        <ele>502</ele>
        <time>2026-09-02T15:30:05+00:00</time>
      </trkpt>
      <trkpt lat="50.22758" lon="5.62394">
        <ele>510</ele>
        <time>2026-09-02T15:30:08+00:00</time>
      </trkpt>
      <trkpt lat="50.22748" lon="5.62341">
        <ele>514</ele>
        <time>2026-09-02T15:30:11+00:00</time>
      </trkpt>
      <trkpt lat="50.22737" lon="5.62289">
        <ele>521</ele>
        <time>2026-09-02T15:30:14+00:00</time>
      </trkpt>
      <trkpt lat="50.22724" lon="5.6222">
        <ele>527</ele>
        <time>2026-09-02T15:30:17+00:00</time>
      </trkpt>
      <trkpt lat="50.22715" lon="5.62171">
        <ele>532</ele>
        <time>2026-09-02T15:30:20+00:00</time>
      </trkpt>
      <trkpt lat="50.22705" lon="5.62122">
        <ele>536</ele>
        <time>2026-09-02T15:30:23+00:00</time>
      </trkpt>
      <trkpt lat="50.22695" lon="5.62072">
        <ele>540</ele>
        <time>2026-09-02T15:30:26+00:00</time>
      </trkpt>
      <trkpt lat="50.22684" lon="5.62012">
        <ele>545</ele>
        <time>2026-09-02T15:30:29+00:00</time>
      </trkpt>
      <trkpt lat="50.2267" lon="5.61965">
        <ele>550</ele>
        <time>2026-09-02T15:30:32+00:00</time>
      </trkpt>
      <trkpt lat="50.22655" lon="5.61918">
        <ele>553</ele>
        <time>2026-09-02T15:30:35+00:00</time>
      </trkpt>
      <trkpt lat="50.22641" lon="5.61872">
        <ele>556</ele>
        <time>2026-09-02T15:30:38+00:00</time>
      </trkpt>
      <trkpt lat="50.22623" lon="5.61813">
        <ele>558</ele>
        <time>2026-09-02T15:30:41+00:00</time>
      </trkpt>
      <trkpt lat="50.22609" lon="5.61776">
        <ele>563</ele>
        <time>2026-09-02T15:30:44+00:00</time>
      </trkpt>
      <trkpt lat="50.22586" lon="5.61713">
        <ele>563</ele>
        <time>2026-09-02T15:30:47+00:00</time>
      </trkpt>
      <trkpt lat="50.22584" lon="5.61699">
        <ele>564</ele>
        <time>2026-09-02T15:30:50+00:00</time>
      </trkpt>
      <trkpt lat="50.22576" lon="5.61678">
        <ele>562</ele>
        <time>2026-09-02T15:30:53+00:00</time>
      </trkpt>
      <trkpt lat="50.22575" lon="5.61669">
        <ele>563</ele>
        <time>2026-09-02T15:30:56+00:00</time>
      </trkpt>
      <trkpt lat="50.22578" lon="5.61661">
        <ele>563</ele>
        <time>2026-09-02T15:30:59+00:00</time>
      </trkpt>
      <trkpt lat="50.22597" lon="5.61642">
        <ele>562</ele>
        <time>2026-09-02T15:31:02+00:00</time>
      </trkpt>
      <trkpt lat="50.22604" lon="5.61625">
        <ele>561</ele>
        <time>2026-09-02T15:31:05+00:00</time>
      </trkpt>
      <trkpt lat="50.22578" lon="5.61617">
        <ele>562</ele>
        <time>2026-09-02T15:31:08+00:00</time>
      </trkpt>
      <trkpt lat="50.22553" lon="5.6161">
        <ele>563</ele>
        <time>2026-09-02T15:31:11+00:00</time>
      </trkpt>
      <trkpt lat="50.2252" lon="5.616">
        <ele>563</ele>
        <time>2026-09-02T15:31:14+00:00</time>
      </trkpt>
      <trkpt lat="50.2249" lon="5.61588">
        <ele>564</ele>
        <time>2026-09-02T15:31:17+00:00</time>
      </trkpt>
      <trkpt lat="50.22462" lon="5.61581">
        <ele>564</ele>
        <time>2026-09-02T15:31:20+00:00</time>
      </trkpt>
      <trkpt lat="50.22425" lon="5.61578">
        <ele>562</ele>
        <time>2026-09-02T15:31:23+00:00</time>
      </trkpt>
      <trkpt lat="50.22399" lon="5.61554">
        <ele>561</ele>
        <time>2026-09-02T15:31:26+00:00</time>
      </trkpt>
      <trkpt lat="50.22373" lon="5.6153">
        <ele>559</ele>
        <time>2026-09-02T15:31:29+00:00</time>
      </trkpt>
      <trkpt lat="50.22338" lon="5.61498">
        <ele>555</ele>
        <time>2026-09-02T15:31:32+00:00</time>
      </trkpt>
      <trkpt lat="50.22332" lon="5.61494">
        <ele>555</ele>
        <time>2026-09-02T15:31:35+00:00</time>
      </trkpt>
      <trkpt lat="50.22326" lon="5.61495">
        <ele>554</ele>
        <time>2026-09-02T15:31:38+00:00</time>
      </trkpt>
      <trkpt lat="50.2231" lon="5.61501">
        <ele>554</ele>
        <time>2026-09-02T15:31:41+00:00</time>
      </trkpt>
      <trkpt lat="50.22292" lon="5.61508">
        <ele>554</ele>
        <time>2026-09-02T15:31:44+00:00</time>
      </trkpt>
      <trkpt lat="50.22276" lon="5.61523">
        <ele>553</ele>
        <time>2026-09-02T15:31:47+00:00</time>
      </trkpt>
      <trkpt lat="50.22252" lon="5.61537">
        <ele>553</ele>
        <time>2026-09-02T15:31:50+00:00</time>
      </trkpt>
      <trkpt lat="50.22232" lon="5.61545">
        <ele>552</ele>
        <time>2026-09-02T15:31:53+00:00</time>
      </trkpt>
      <trkpt lat="50.22212" lon="5.61523">
        <ele>552</ele>
        <time>2026-09-02T15:31:56+00:00</time>
      </trkpt>
      <trkpt lat="50.22184" lon="5.61492">
        <ele>546</ele>
        <time>2026-09-02T15:31:59+00:00</time>
      </trkpt>
      <trkpt lat="50.22167" lon="5.61479">
        <ele>547</ele>
        <time>2026-09-02T15:32:02+00:00</time>
      </trkpt>
      <trkpt lat="50.22154" lon="5.61474">
        <ele>547</ele>
        <time>2026-09-02T15:32:05+00:00</time>
      </trkpt>
      <trkpt lat="50.22144" lon="5.61468">
        <ele>545</ele>
        <time>2026-09-02T15:32:08+00:00</time>
      </trkpt>
      <trkpt lat="50.22129" lon="5.61446">
        <ele>543</ele>
        <time>2026-09-02T15:32:11+00:00</time>
      </trkpt>
      <trkpt lat="50.22122" lon="5.61433">
        <ele>541</ele>
        <time>2026-09-02T15:32:14+00:00</time>
      </trkpt>
      <trkpt lat="50.22111" lon="5.61399">
        <ele>537</ele>
        <time>2026-09-02T15:32:17+00:00</time>
      </trkpt>
      <trkpt lat="50.22097" lon="5.61368">
        <ele>533</ele>
        <time>2026-09-02T15:32:20+00:00</time>
      </trkpt>
      <trkpt lat="50.22078" lon="5.61326">
        <ele>530</ele>
        <time>2026-09-02T15:32:23+00:00</time>
      </trkpt>
      <trkpt lat="50.22069" lon="5.61274">
        <ele>525</ele>
        <time>2026-09-02T15:32:26+00:00</time>
      </trkpt>
      <trkpt lat="50.22063" lon="5.6127">
        <ele>524</ele>
        <time>2026-09-02T15:32:29+00:00</time>
      </trkpt>
      <trkpt lat="50.22045" lon="5.61251">
        <ele>521</ele>
        <time>2026-09-02T15:32:32+00:00</time>
      </trkpt>
      <trkpt lat="50.22023" lon="5.61228">
        <ele>518</ele>
        <time>2026-09-02T15:32:35+00:00</time>
      </trkpt>
      <trkpt lat="50.22011" lon="5.61207">
        <ele>518</ele>
        <time>2026-09-02T15:32:38+00:00</time>
      </trkpt>
      <trkpt lat="50.22004" lon="5.61187">
        <ele>518</ele>
        <time>2026-09-02T15:32:41+00:00</time>
      </trkpt>
      <trkpt lat="50.21992" lon="5.61171">
        <ele>518</ele>
        <time>2026-09-02T15:32:44+00:00</time>
      </trkpt>
      <trkpt lat="50.21978" lon="5.61153">
        <ele>516</ele>
        <time>2026-09-02T15:32:47+00:00</time>
      </trkpt>
      <trkpt lat="50.21952" lon="5.61107">
        <ele>513</ele>
        <time>2026-09-02T15:32:50+00:00</time>
      </trkpt>
      <trkpt lat="50.21935" lon="5.61084">
        <ele>511</ele>
        <time>2026-09-02T15:32:53+00:00</time>
      </trkpt>
      <trkpt lat="50.21916" lon="5.6106">
        <ele>510</ele>
        <time>2026-09-02T15:32:56+00:00</time>
      </trkpt>
      <trkpt lat="50.21909" lon="5.61042">
        <ele>509</ele>
        <time>2026-09-02T15:32:59+00:00</time>
      </trkpt>
      <trkpt lat="50.21907" lon="5.61031">
        <ele>508</ele>
        <time>2026-09-02T15:33:02+00:00</time>
      </trkpt>
      <trkpt lat="50.21909" lon="5.61018">
        <ele>505</ele>
        <time>2026-09-02T15:33:05+00:00</time>
      </trkpt>
      <trkpt lat="50.21914" lon="5.61005">
        <ele>508</ele>
        <time>2026-09-02T15:33:08+00:00</time>
      </trkpt>
      <trkpt lat="50.21934" lon="5.60973">
        <ele>508</ele>
        <time>2026-09-02T15:33:11+00:00</time>
      </trkpt>
      <trkpt lat="50.21942" lon="5.60955">
        <ele>509</ele>
        <time>2026-09-02T15:33:14+00:00</time>
      </trkpt>
      <trkpt lat="50.21955" lon="5.60923">
        <ele>507</ele>
        <time>2026-09-02T15:33:17+00:00</time>
      </trkpt>
      <trkpt lat="50.2198" lon="5.6086">
        <ele>506</ele>
        <time>2026-09-02T15:33:20+00:00</time>
      </trkpt>
      <trkpt lat="50.21992" lon="5.60815">
        <ele>505</ele>
        <time>2026-09-02T15:33:23+00:00</time>
      </trkpt>
      <trkpt lat="50.22005" lon="5.6077">
        <ele>505</ele>
        <time>2026-09-02T15:33:26+00:00</time>
      </trkpt>
      <trkpt lat="50.22025" lon="5.60697">
        <ele>505</ele>
        <time>2026-09-02T15:33:29+00:00</time>
      </trkpt>
      <trkpt lat="50.22041" lon="5.60658">
        <ele>507</ele>
        <time>2026-09-02T15:33:32+00:00</time>
      </trkpt>
      <trkpt lat="50.22052" lon="5.60621">
        <ele>507</ele>
        <time>2026-09-02T15:33:35+00:00</time>
      </trkpt>
      <trkpt lat="50.22061" lon="5.60574">
        <ele>508</ele>
        <time>2026-09-02T15:33:38+00:00</time>
      </trkpt>
      <trkpt lat="50.2207" lon="5.60527">
        <ele>508</ele>
        <time>2026-09-02T15:33:41+00:00</time>
      </trkpt>
      <trkpt lat="50.22086" lon="5.60446">
        <ele>510</ele>
        <time>2026-09-02T15:33:44+00:00</time>
      </trkpt>
      <trkpt lat="50.22088" lon="5.60416">
        <ele>512</ele>
        <time>2026-09-02T15:33:47+00:00</time>
      </trkpt>
      <trkpt lat="50.22094" lon="5.60387">
        <ele>515</ele>
        <time>2026-09-02T15:33:50+00:00</time>
      </trkpt>
      <trkpt lat="50.22111" lon="5.60329">
        <ele>522</ele>
        <time>2026-09-02T15:33:53+00:00</time>
      </trkpt>
      <trkpt lat="50.22116" lon="5.60298">
        <ele>522</ele>
        <time>2026-09-02T15:33:56+00:00</time>
      </trkpt>
      <trkpt lat="50.22119" lon="5.60271">
        <ele>522</ele>
        <time>2026-09-02T15:33:59+00:00</time>
      </trkpt>
      <trkpt lat="50.22117" lon="5.60209">
        <ele>526</ele>
        <time>2026-09-02T15:34:02+00:00</time>
      </trkpt>
      <trkpt lat="50.22119" lon="5.60184">
        <ele>526</ele>
        <time>2026-09-02T15:34:05+00:00</time>
      </trkpt>
      <trkpt lat="50.22127" lon="5.60152">
        <ele>529</ele>
        <time>2026-09-02T15:34:08+00:00</time>
      </trkpt>
      <trkpt lat="50.22142" lon="5.60096">
        <ele>535</ele>
        <time>2026-09-02T15:34:11+00:00</time>
      </trkpt>
      <trkpt lat="50.2215" lon="5.6006">
        <ele>533</ele>
        <time>2026-09-02T15:34:14+00:00</time>
      </trkpt>
      <trkpt lat="50.22152" lon="5.60044">
        <ele>538</ele>
        <time>2026-09-02T15:34:17+00:00</time>
      </trkpt>
      <trkpt lat="50.22153" lon="5.60005">
        <ele>532</ele>
        <time>2026-09-02T15:34:20+00:00</time>
      </trkpt>
      <trkpt lat="50.22155" lon="5.59932">
        <ele>524</ele>
        <time>2026-09-02T15:34:23+00:00</time>
      </trkpt>
      <trkpt lat="50.22154" lon="5.59896">
        <ele>521</ele>
        <time>2026-09-02T15:34:26+00:00</time>
      </trkpt>
      <trkpt lat="50.22153" lon="5.59855">
        <ele>521</ele>
        <time>2026-09-02T15:34:29+00:00</time>
      </trkpt>
      <trkpt lat="50.22168" lon="5.59826">
        <ele>521</ele>
        <time>2026-09-02T15:34:32+00:00</time>
      </trkpt>
      <trkpt lat="50.22188" lon="5.59788">
        <ele>521</ele>
        <time>2026-09-02T15:34:35+00:00</time>
      </trkpt>
      <trkpt lat="50.22187" lon="5.59773">
        <ele>521</ele>
        <time>2026-09-02T15:34:38+00:00</time>
      </trkpt>
      <trkpt lat="50.22169" lon="5.59761">
        <ele>521</ele>
        <time>2026-09-02T15:34:41+00:00</time>
      </trkpt>
      <trkpt lat="50.22149" lon="5.59729">
        <ele>521</ele>
        <time>2026-09-02T15:34:44+00:00</time>
      </trkpt>
      <trkpt lat="50.22109" lon="5.59668">
        <ele>521</ele>
        <time>2026-09-02T15:34:47+00:00</time>
      </trkpt>
      <trkpt lat="50.22087" lon="5.5964">
        <ele>521</ele>
        <time>2026-09-02T15:34:50+00:00</time>
      </trkpt>
      <trkpt lat="50.22045" lon="5.59587">
        <ele>521</ele>
        <time>2026-09-02T15:34:53+00:00</time>
      </trkpt>
      <trkpt lat="50.22024" lon="5.59558">
        <ele>521</ele>
        <time>2026-09-02T15:34:56+00:00</time>
      </trkpt>
      <trkpt lat="50.21989" lon="5.59509">
        <ele>520</ele>
        <time>2026-09-02T15:34:59+00:00</time>
      </trkpt>
      <trkpt lat="50.21976" lon="5.59487">
        <ele>520</ele>
        <time>2026-09-02T15:35:02+00:00</time>
      </trkpt>
      <trkpt lat="50.21989" lon="5.59469">
        <ele>520</ele>
        <time>2026-09-02T15:35:05+00:00</time>
      </trkpt>
      <trkpt lat="50.22014" lon="5.5944">
        <ele>518</ele>
        <time>2026-09-02T15:35:08+00:00</time>
      </trkpt>
      <trkpt lat="50.2204" lon="5.59412">
        <ele>514</ele>
        <time>2026-09-02T15:35:11+00:00</time>
      </trkpt>
      <trkpt lat="50.22082" lon="5.59365">
        <ele>506</ele>
        <time>2026-09-02T15:35:14+00:00</time>
      </trkpt>
      <trkpt lat="50.22112" lon="5.5933">
        <ele>505</ele>
        <time>2026-09-02T15:35:17+00:00</time>
      </trkpt>
      <trkpt lat="50.22142" lon="5.59296">
        <ele>504</ele>
        <time>2026-09-02T15:35:20+00:00</time>
      </trkpt>
      <trkpt lat="50.22172" lon="5.59262">
        <ele>491</ele>
        <time>2026-09-02T15:35:23+00:00</time>
      </trkpt>
      <trkpt lat="50.22203" lon="5.59227">
        <ele>485</ele>
        <time>2026-09-02T15:35:26+00:00</time>
      </trkpt>
      <trkpt lat="50.22233" lon="5.59193">
        <ele>479</ele>
        <time>2026-09-02T15:35:29+00:00</time>
      </trkpt>
      <trkpt lat="50.22263" lon="5.59158">
        <ele>472</ele>
        <time>2026-09-02T15:35:32+00:00</time>
      </trkpt>
      <trkpt lat="50.22308" lon="5.59107">
        <ele>465</ele>
        <time>2026-09-02T15:35:35+00:00</time>
      </trkpt>
      <trkpt lat="50.22327" lon="5.59075">
        <ele>463</ele>
        <time>2026-09-02T15:35:38+00:00</time>
      </trkpt>
      <trkpt lat="50.22341" lon="5.59067">
        <ele>461</ele>
        <time>2026-09-02T15:35:41+00:00</time>
      </trkpt>
      <trkpt lat="50.22341" lon="5.59075">
        <ele>464</ele>
        <time>2026-09-02T15:35:44+00:00</time>
      </trkpt>
      <trkpt lat="50.22344" lon="5.59095">
        <ele>462</ele>
        <time>2026-09-02T15:35:47+00:00</time>
      </trkpt>
      <trkpt lat="50.2234" lon="5.59139">
        <ele>465</ele>
        <time>2026-09-02T15:35:50+00:00</time>
      </trkpt>
      <trkpt lat="50.22336" lon="5.59182">
        <ele>469</ele>
        <time>2026-09-02T15:35:53+00:00</time>
      </trkpt>
      <trkpt lat="50.22328" lon="5.59261">
        <ele>477</ele>
        <time>2026-09-02T15:35:56+00:00</time>
      </trkpt>
      <trkpt lat="50.22323" lon="5.59288">
        <ele>479</ele>
        <time>2026-09-02T15:35:59+00:00</time>
      </trkpt>
      <trkpt lat="50.22329" lon="5.59326">
        <ele>483</ele>
        <time>2026-09-02T15:36:02+00:00</time>
      </trkpt>
      <trkpt lat="50.22343" lon="5.59353">
        <ele>485</ele>
        <time>2026-09-02T15:36:05+00:00</time>
      </trkpt>
      <trkpt lat="50.22359" lon="5.59384">
        <ele>487</ele>
        <time>2026-09-02T15:36:08+00:00</time>
      </trkpt>
      <trkpt lat="50.22375" lon="5.5942">
        <ele>489</ele>
        <time>2026-09-02T15:36:11+00:00</time>
      </trkpt>
      <trkpt lat="50.22405" lon="5.59488">
        <ele>495</ele>
        <time>2026-09-02T15:36:14+00:00</time>
      </trkpt>
      <trkpt lat="50.22413" lon="5.59493">
        <ele>498</ele>
        <time>2026-09-02T15:36:17+00:00</time>
      </trkpt>
      <trkpt lat="50.22425" lon="5.59521">
        <ele>499</ele>
        <time>2026-09-02T15:36:20+00:00</time>
      </trkpt>
      <trkpt lat="50.22442" lon="5.59562">
        <ele>505</ele>
        <time>2026-09-02T15:36:23+00:00</time>
      </trkpt>
      <trkpt lat="50.22466" lon="5.59594">
        <ele>510</ele>
        <time>2026-09-02T15:36:26+00:00</time>
      </trkpt>
      <trkpt lat="50.22484" lon="5.59642">
        <ele>514</ele>
        <time>2026-09-02T15:36:29+00:00</time>
      </trkpt>
      <trkpt lat="50.22488" lon="5.59666">
        <ele>515</ele>
        <time>2026-09-02T15:36:32+00:00</time>
      </trkpt>
      <trkpt lat="50.22504" lon="5.59657">
        <ele>518</ele>
        <time>2026-09-02T15:36:35+00:00</time>
      </trkpt>
      <trkpt lat="50.22523" lon="5.59646">
        <ele>518</ele>
        <time>2026-09-02T15:36:38+00:00</time>
      </trkpt>
      <trkpt lat="50.22543" lon="5.5961">
        <ele>517</ele>
        <time>2026-09-02T15:36:41+00:00</time>
      </trkpt>
      <trkpt lat="50.22563" lon="5.59574">
        <ele>517</ele>
        <time>2026-09-02T15:36:44+00:00</time>
      </trkpt>
      <trkpt lat="50.2259" lon="5.59525">
        <ele>517</ele>
        <time>2026-09-02T15:36:47+00:00</time>
      </trkpt>
      <trkpt lat="50.22607" lon="5.59493">
        <ele>516</ele>
        <time>2026-09-02T15:36:50+00:00</time>
      </trkpt>
      <trkpt lat="50.22632" lon="5.59445">
        <ele>516</ele>
        <time>2026-09-02T15:36:53+00:00</time>
      </trkpt>
      <trkpt lat="50.22659" lon="5.59404">
        <ele>514</ele>
        <time>2026-09-02T15:36:56+00:00</time>
      </trkpt>
      <trkpt lat="50.22677" lon="5.59382">
        <ele>513</ele>
        <time>2026-09-02T15:36:59+00:00</time>
      </trkpt>
      <trkpt lat="50.22697" lon="5.59357">
        <ele>513</ele>
        <time>2026-09-02T15:37:02+00:00</time>
      </trkpt>
      <trkpt lat="50.22715" lon="5.59332">
        <ele>512</ele>
        <time>2026-09-02T15:37:05+00:00</time>
      </trkpt>
      <trkpt lat="50.22738" lon="5.593">
        <ele>510</ele>
        <time>2026-09-02T15:37:08+00:00</time>
      </trkpt>
      <trkpt lat="50.22752" lon="5.59275">
        <ele>510</ele>
        <time>2026-09-02T15:37:11+00:00</time>
      </trkpt>
      <trkpt lat="50.22768" lon="5.5923">
        <ele>509</ele>
        <time>2026-09-02T15:37:14+00:00</time>
      </trkpt>
      <trkpt lat="50.22779" lon="5.59186">
        <ele>507</ele>
        <time>2026-09-02T15:37:17+00:00</time>
      </trkpt>
      <trkpt lat="50.2279" lon="5.59141">
        <ele>507</ele>
        <time>2026-09-02T15:37:20+00:00</time>
      </trkpt>
      <trkpt lat="50.22806" lon="5.59079">
        <ele>506</ele>
        <time>2026-09-02T15:37:23+00:00</time>
      </trkpt>
      <trkpt lat="50.22817" lon="5.59025">
        <ele>506</ele>
        <time>2026-09-02T15:37:26+00:00</time>
      </trkpt>
      <trkpt lat="50.22822" lon="5.58976">
        <ele>507</ele>
        <time>2026-09-02T15:37:29+00:00</time>
      </trkpt>
      <trkpt lat="50.22826" lon="5.58928">
        <ele>509</ele>
        <time>2026-09-02T15:37:32+00:00</time>
      </trkpt>
      <trkpt lat="50.22834" lon="5.58847">
        <ele>510</ele>
        <time>2026-09-02T15:37:35+00:00</time>
      </trkpt>
      <trkpt lat="50.22837" lon="5.58793">
        <ele>510</ele>
        <time>2026-09-02T15:37:38+00:00</time>
      </trkpt>
      <trkpt lat="50.22839" lon="5.58739">
        <ele>510</ele>
        <time>2026-09-02T15:37:41+00:00</time>
      </trkpt>
      <trkpt lat="50.22842" lon="5.58685">
        <ele>509</ele>
        <time>2026-09-02T15:37:44+00:00</time>
      </trkpt>
      <trkpt lat="50.22845" lon="5.58631">
        <ele>501</ele>
        <time>2026-09-02T15:37:47+00:00</time>
      </trkpt>
      <trkpt lat="50.22848" lon="5.58569">
        <ele>499</ele>
        <time>2026-09-02T15:37:50+00:00</time>
      </trkpt>
      <trkpt lat="50.22848" lon="5.58527">
        <ele>498</ele>
        <time>2026-09-02T15:37:53+00:00</time>
      </trkpt>
      <trkpt lat="50.2285" lon="5.5849">
        <ele>498</ele>
        <time>2026-09-02T15:37:56+00:00</time>
      </trkpt>
      <trkpt lat="50.22852" lon="5.58446">
        <ele>497</ele>
        <time>2026-09-02T15:37:59+00:00</time>
      </trkpt>
      <trkpt lat="50.22859" lon="5.58412">
        <ele>497</ele>
        <time>2026-09-02T15:38:02+00:00</time>
      </trkpt>
      <trkpt lat="50.22867" lon="5.58372">
        <ele>497</ele>
        <time>2026-09-02T15:38:05+00:00</time>
      </trkpt>
      <trkpt lat="50.22872" lon="5.58413">
        <ele>498</ele>
        <time>2026-09-02T15:38:08+00:00</time>
      </trkpt>
      <trkpt lat="50.22882" lon="5.58484">
        <ele>499</ele>
        <time>2026-09-02T15:38:11+00:00</time>
      </trkpt>
      <trkpt lat="50.22892" lon="5.58534">
        <ele>501</ele>
        <time>2026-09-02T15:38:14+00:00</time>
      </trkpt>
      <trkpt lat="50.22902" lon="5.58584">
        <ele>504</ele>
        <time>2026-09-02T15:38:17+00:00</time>
      </trkpt>
      <trkpt lat="50.22912" lon="5.58633">
        <ele>510</ele>
        <time>2026-09-02T15:38:20+00:00</time>
      </trkpt>
      <trkpt lat="50.22926" lon="5.58705">
        <ele>519</ele>
        <time>2026-09-02T15:38:23+00:00</time>
      </trkpt>
      <trkpt lat="50.2294" lon="5.58741">
        <ele>519</ele>
        <time>2026-09-02T15:38:26+00:00</time>
      </trkpt>
      <trkpt lat="50.22964" lon="5.58801">
        <ele>520</ele>
        <time>2026-09-02T15:38:29+00:00</time>
      </trkpt>
      <trkpt lat="50.22974" lon="5.58851">
        <ele>522</ele>
        <time>2026-09-02T15:38:32+00:00</time>
      </trkpt>
      <trkpt lat="50.22984" lon="5.589">
        <ele>525</ele>
        <time>2026-09-02T15:38:35+00:00</time>
      </trkpt>
      <trkpt lat="50.22994" lon="5.5895">
        <ele>525</ele>
        <time>2026-09-02T15:38:38+00:00</time>
      </trkpt>
      <trkpt lat="50.23008" lon="5.5902">
        <ele>525</ele>
        <time>2026-09-02T15:38:41+00:00</time>
      </trkpt>
      <trkpt lat="50.23006" lon="5.59085">
        <ele>526</ele>
        <time>2026-09-02T15:38:44+00:00</time>
      </trkpt>
      <trkpt lat="50.23008" lon="5.59093">
        <ele>527</ele>
        <time>2026-09-02T15:38:47+00:00</time>
      </trkpt>
      <trkpt lat="50.23035" lon="5.59059">
        <ele>533</ele>
        <time>2026-09-02T15:38:50+00:00</time>
      </trkpt>
      <trkpt lat="50.23062" lon="5.59025">
        <ele>539</ele>
        <time>2026-09-02T15:38:53+00:00</time>
      </trkpt>
      <trkpt lat="50.2309" lon="5.58991">
        <ele>541</ele>
        <time>2026-09-02T15:38:56+00:00</time>
      </trkpt>
      <trkpt lat="50.23117" lon="5.58957">
        <ele>535</ele>
        <time>2026-09-02T15:38:59+00:00</time>
      </trkpt>
      <trkpt lat="50.23167" lon="5.58895">
        <ele>530</ele>
        <time>2026-09-02T15:39:02+00:00</time>
      </trkpt>
      <trkpt lat="50.23198" lon="5.58851">
        <ele>525</ele>
        <time>2026-09-02T15:39:05+00:00</time>
      </trkpt>
      <trkpt lat="50.23214" lon="5.58824">
        <ele>522</ele>
        <time>2026-09-02T15:39:08+00:00</time>
      </trkpt>
      <trkpt lat="50.23233" lon="5.58774">
        <ele>515</ele>
        <time>2026-09-02T15:39:11+00:00</time>
      </trkpt>
      <trkpt lat="50.23241" lon="5.58771">
        <ele>516</ele>
        <time>2026-09-02T15:39:14+00:00</time>
      </trkpt>
      <trkpt lat="50.2326" lon="5.58737">
        <ele>512</ele>
        <time>2026-09-02T15:39:17+00:00</time>
      </trkpt>
      <trkpt lat="50.23279" lon="5.58703">
        <ele>510</ele>
        <time>2026-09-02T15:39:20+00:00</time>
      </trkpt>
      <trkpt lat="50.23311" lon="5.58648">
        <ele>510</ele>
        <time>2026-09-02T15:39:23+00:00</time>
      </trkpt>
      <trkpt lat="50.23331" lon="5.58617">
        <ele>510</ele>
        <time>2026-09-02T15:39:26+00:00</time>
      </trkpt>
      <trkpt lat="50.23367" lon="5.5856">
        <ele>509</ele>
        <time>2026-09-02T15:39:29+00:00</time>
      </trkpt>
      <trkpt lat="50.23374" lon="5.58537">
        <ele>505</ele>
        <time>2026-09-02T15:39:32+00:00</time>
      </trkpt>
      <trkpt lat="50.23395" lon="5.58513">
        <ele>509</ele>
        <time>2026-09-02T15:39:35+00:00</time>
      </trkpt>
      <trkpt lat="50.23416" lon="5.58488">
        <ele>506</ele>
        <time>2026-09-02T15:39:38+00:00</time>
      </trkpt>
      <trkpt lat="50.23446" lon="5.58453">
        <ele>504</ele>
        <time>2026-09-02T15:39:41+00:00</time>
      </trkpt>
      <trkpt lat="50.23473" lon="5.5843">
        <ele>501</ele>
        <time>2026-09-02T15:39:44+00:00</time>
      </trkpt>
      <trkpt lat="50.23494" lon="5.58416">
        <ele>500</ele>
        <time>2026-09-02T15:39:47+00:00</time>
      </trkpt>
      <trkpt lat="50.23518" lon="5.58401">
        <ele>500</ele>
        <time>2026-09-02T15:39:50+00:00</time>
      </trkpt>
      <trkpt lat="50.23542" lon="5.58397">
        <ele>499</ele>
        <time>2026-09-02T15:39:53+00:00</time>
      </trkpt>
      <trkpt lat="50.23573" lon="5.58391">
        <ele>498</ele>
        <time>2026-09-02T15:39:56+00:00</time>
      </trkpt>
      <trkpt lat="50.23599" lon="5.58375">
        <ele>499</ele>
        <time>2026-09-02T15:39:59+00:00</time>
      </trkpt>
      <trkpt lat="50.23633" lon="5.58402">
        <ele>501</ele>
        <time>2026-09-02T15:40:02+00:00</time>
      </trkpt>
      <trkpt lat="50.23668" lon="5.58429">
        <ele>502</ele>
        <time>2026-09-02T15:40:05+00:00</time>
      </trkpt>
      <trkpt lat="50.23702" lon="5.58455">
        <ele>507</ele>
        <time>2026-09-02T15:40:08+00:00</time>
      </trkpt>
      <trkpt lat="50.23737" lon="5.58482">
        <ele>513</ele>
        <time>2026-09-02T15:40:11+00:00</time>
      </trkpt>
      <trkpt lat="50.23771" lon="5.58509">
        <ele>522</ele>
        <time>2026-09-02T15:40:14+00:00</time>
      </trkpt>
      <trkpt lat="50.23806" lon="5.58536">
        <ele>520</ele>
        <time>2026-09-02T15:40:17+00:00</time>
      </trkpt>
      <trkpt lat="50.2384" lon="5.58563">
        <ele>518</ele>
        <time>2026-09-02T15:40:20+00:00</time>
      </trkpt>
      <trkpt lat="50.23875" lon="5.5859">
        <ele>519</ele>
        <time>2026-09-02T15:40:23+00:00</time>
      </trkpt>
      <trkpt lat="50.23924" lon="5.58628">
        <ele>520</ele>
        <time>2026-09-02T15:40:26+00:00</time>
      </trkpt>
      <trkpt lat="50.23927" lon="5.58631">
        <ele>521</ele>
        <time>2026-09-02T15:40:29+00:00</time>
      </trkpt>
      <trkpt lat="50.23937" lon="5.5862">
        <ele>519</ele>
        <time>2026-09-02T15:40:32+00:00</time>
      </trkpt>
      <trkpt lat="50.2396" lon="5.5862">
        <ele>520</ele>
        <time>2026-09-02T15:40:35+00:00</time>
      </trkpt>
      <trkpt lat="50.23965" lon="5.58616">
        <ele>519</ele>
        <time>2026-09-02T15:40:38+00:00</time>
      </trkpt>
      <trkpt lat="50.23972" lon="5.58601">
        <ele>519</ele>
        <time>2026-09-02T15:40:41+00:00</time>
      </trkpt>
      <trkpt lat="50.23982" lon="5.58558">
        <ele>519</ele>
        <time>2026-09-02T15:40:44+00:00</time>
      </trkpt>
      <trkpt lat="50.23993" lon="5.58517">
        <ele>519</ele>
        <time>2026-09-02T15:40:47+00:00</time>
      </trkpt>
      <trkpt lat="50.24005" lon="5.58475">
        <ele>519</ele>
        <time>2026-09-02T15:40:50+00:00</time>
      </trkpt>
      <trkpt lat="50.24016" lon="5.58434">
        <ele>518</ele>
        <time>2026-09-02T15:40:53+00:00</time>
      </trkpt>
      <trkpt lat="50.24019" lon="5.58399">
        <ele>517</ele>
        <time>2026-09-02T15:40:56+00:00</time>
      </trkpt>
      <trkpt lat="50.24022" lon="5.58361">
        <ele>515</ele>
        <time>2026-09-02T15:40:59+00:00</time>
      </trkpt>
      <trkpt lat="50.24026" lon="5.58354">
        <ele>510</ele>
        <time>2026-09-02T15:41:02+00:00</time>
      </trkpt>
      <trkpt lat="50.24035" lon="5.58352">
        <ele>512</ele>
        <time>2026-09-02T15:41:05+00:00</time>
      </trkpt>
      <trkpt lat="50.24045" lon="5.58356">
        <ele>513</ele>
        <time>2026-09-02T15:41:08+00:00</time>
      </trkpt>
      <trkpt lat="50.24062" lon="5.58367">
        <ele>513</ele>
        <time>2026-09-02T15:41:11+00:00</time>
      </trkpt>
      <trkpt lat="50.24084" lon="5.58384">
        <ele>513</ele>
        <time>2026-09-02T15:41:14+00:00</time>
      </trkpt>
      <trkpt lat="50.24113" lon="5.58406">
        <ele>512</ele>
        <time>2026-09-02T15:41:17+00:00</time>
      </trkpt>
      <trkpt lat="50.24127" lon="5.58428">
        <ele>512</ele>
        <time>2026-09-02T15:41:20+00:00</time>
      </trkpt>
      <trkpt lat="50.24146" lon="5.58471">
        <ele>511</ele>
        <time>2026-09-02T15:41:23+00:00</time>
      </trkpt>
      <trkpt lat="50.24166" lon="5.58514">
        <ele>510</ele>
        <time>2026-09-02T15:41:26+00:00</time>
      </trkpt>
      <trkpt lat="50.24185" lon="5.58557">
        <ele>508</ele>
        <time>2026-09-02T15:41:29+00:00</time>
      </trkpt>
      <trkpt lat="50.24216" lon="5.58626">
        <ele>509</ele>
        <time>2026-09-02T15:41:32+00:00</time>
      </trkpt>
      <trkpt lat="50.24213" lon="5.58655">
        <ele>511</ele>
        <time>2026-09-02T15:41:35+00:00</time>
      </trkpt>
      <trkpt lat="50.24204" lon="5.58686">
        <ele>512</ele>
        <time>2026-09-02T15:41:38+00:00</time>
      </trkpt>
      <trkpt lat="50.24194" lon="5.5872">
        <ele>511</ele>
        <time>2026-09-02T15:41:41+00:00</time>
      </trkpt>
      <trkpt lat="50.24176" lon="5.5876">
        <ele>510</ele>
        <time>2026-09-02T15:41:44+00:00</time>
      </trkpt>
      <trkpt lat="50.24158" lon="5.588">
        <ele>509</ele>
        <time>2026-09-02T15:41:47+00:00</time>
      </trkpt>
      <trkpt lat="50.24128" lon="5.58865">
        <ele>501</ele>
        <time>2026-09-02T15:41:50+00:00</time>
      </trkpt>
      <trkpt lat="50.24112" lon="5.58921">
        <ele>496</ele>
        <time>2026-09-02T15:41:53+00:00</time>
      </trkpt>
      <trkpt lat="50.24108" lon="5.58933">
        <ele>496</ele>
        <time>2026-09-02T15:41:56+00:00</time>
      </trkpt>
      <trkpt lat="50.24096" lon="5.58955">
        <ele>496</ele>
        <time>2026-09-02T15:41:59+00:00</time>
      </trkpt>
      <trkpt lat="50.24122" lon="5.58935">
        <ele>496</ele>
        <time>2026-09-02T15:42:02+00:00</time>
      </trkpt>
      <trkpt lat="50.24146" lon="5.58906">
        <ele>497</ele>
        <time>2026-09-02T15:42:05+00:00</time>
      </trkpt>
      <trkpt lat="50.24177" lon="5.58892">
        <ele>500</ele>
        <time>2026-09-02T15:42:08+00:00</time>
      </trkpt>
      <trkpt lat="50.24203" lon="5.58894">
        <ele>500</ele>
        <time>2026-09-02T15:42:11+00:00</time>
      </trkpt>
      <trkpt lat="50.24234" lon="5.58902">
        <ele>496</ele>
        <time>2026-09-02T15:42:14+00:00</time>
      </trkpt>
      <trkpt lat="50.2426" lon="5.58906">
        <ele>492</ele>
        <time>2026-09-02T15:42:17+00:00</time>
      </trkpt>
      <trkpt lat="50.24298" lon="5.58913">
        <ele>487</ele>
        <time>2026-09-02T15:42:20+00:00</time>
      </trkpt>
      <trkpt lat="50.24334" lon="5.58925">
        <ele>486</ele>
        <time>2026-09-02T15:42:23+00:00</time>
      </trkpt>
      <trkpt lat="50.2437" lon="5.58924">
        <ele>486</ele>
        <time>2026-09-02T15:42:26+00:00</time>
      </trkpt>
      <trkpt lat="50.24384" lon="5.5892">
        <ele>486</ele>
        <time>2026-09-02T15:42:29+00:00</time>
      </trkpt>
      <trkpt lat="50.24398" lon="5.58913">
        <ele>486</ele>
        <time>2026-09-02T15:42:32+00:00</time>
      </trkpt>
      <trkpt lat="50.24424" lon="5.58896">
        <ele>482</ele>
        <time>2026-09-02T15:42:35+00:00</time>
      </trkpt>
      <trkpt lat="50.24474" lon="5.58864">
        <ele>482</ele>
        <time>2026-09-02T15:42:38+00:00</time>
      </trkpt>
      <trkpt lat="50.245" lon="5.58849">
        <ele>482</ele>
        <time>2026-09-02T15:42:41+00:00</time>
      </trkpt>
      <trkpt lat="50.24545" lon="5.58823">
        <ele>476</ele>
        <time>2026-09-02T15:42:44+00:00</time>
      </trkpt>
      <trkpt lat="50.24576" lon="5.58798">
        <ele>473</ele>
        <time>2026-09-02T15:42:47+00:00</time>
      </trkpt>
      <trkpt lat="50.24608" lon="5.58756">
        <ele>470</ele>
        <time>2026-09-02T15:42:50+00:00</time>
      </trkpt>
      <trkpt lat="50.24629" lon="5.58715">
        <ele>466</ele>
        <time>2026-09-02T15:42:53+00:00</time>
      </trkpt>
      <trkpt lat="50.2465" lon="5.58687">
        <ele>465</ele>
        <time>2026-09-02T15:42:56+00:00</time>
      </trkpt>
      <trkpt lat="50.24688" lon="5.58636">
        <ele>465</ele>
        <time>2026-09-02T15:42:59+00:00</time>
      </trkpt>
      <trkpt lat="50.24701" lon="5.58621">
        <ele>465</ele>
        <time>2026-09-02T15:43:02+00:00</time>
      </trkpt>
      <trkpt lat="50.24713" lon="5.58611">
        <ele>465</ele>
        <time>2026-09-02T15:43:05+00:00</time>
      </trkpt>
      <trkpt lat="50.24726" lon="5.586">
        <ele>464</ele>
        <time>2026-09-02T15:43:08+00:00</time>
      </trkpt>
      <trkpt lat="50.24752" lon="5.58582">
        <ele>464</ele>
        <time>2026-09-02T15:43:11+00:00</time>
      </trkpt>
      <trkpt lat="50.24779" lon="5.58564">
        <ele>464</ele>
        <time>2026-09-02T15:43:14+00:00</time>
      </trkpt>
      <trkpt lat="50.24806" lon="5.58545">
        <ele>464</ele>
        <time>2026-09-02T15:43:17+00:00</time>
      </trkpt>
      <trkpt lat="50.24821" lon="5.58531">
        <ele>465</ele>
        <time>2026-09-02T15:43:20+00:00</time>
      </trkpt>
      <trkpt lat="50.24846" lon="5.58498">
        <ele>465</ele>
        <time>2026-09-02T15:43:23+00:00</time>
      </trkpt>
      <trkpt lat="50.2487" lon="5.58461">
        <ele>464</ele>
        <time>2026-09-02T15:43:26+00:00</time>
      </trkpt>
      <trkpt lat="50.24883" lon="5.58429">
        <ele>461</ele>
        <time>2026-09-02T15:43:29+00:00</time>
      </trkpt>
      <trkpt lat="50.24895" lon="5.58393">
        <ele>459</ele>
        <time>2026-09-02T15:43:32+00:00</time>
      </trkpt>
      <trkpt lat="50.24913" lon="5.58338">
        <ele>457</ele>
        <time>2026-09-02T15:43:35+00:00</time>
      </trkpt>
      <trkpt lat="50.24931" lon="5.58308">
        <ele>455</ele>
        <time>2026-09-02T15:43:38+00:00</time>
      </trkpt>
      <trkpt lat="50.24945" lon="5.58292">
        <ele>451</ele>
        <time>2026-09-02T15:43:41+00:00</time>
      </trkpt>
      <trkpt lat="50.24968" lon="5.5827">
        <ele>450</ele>
        <time>2026-09-02T15:43:44+00:00</time>
      </trkpt>
      <trkpt lat="50.25009" lon="5.58232">
        <ele>450</ele>
        <time>2026-09-02T15:43:47+00:00</time>
      </trkpt>
      <trkpt lat="50.25026" lon="5.58225">
        <ele>444</ele>
        <time>2026-09-02T15:43:50+00:00</time>
      </trkpt>
      <trkpt lat="50.2505" lon="5.58224">
        <ele>440</ele>
        <time>2026-09-02T15:43:53+00:00</time>
      </trkpt>
      <trkpt lat="50.25061" lon="5.58226">
        <ele>436</ele>
        <time>2026-09-02T15:43:56+00:00</time>
      </trkpt>
      <trkpt lat="50.25064" lon="5.58191">
        <ele>435</ele>
        <time>2026-09-02T15:43:59+00:00</time>
      </trkpt>
      <trkpt lat="50.25078" lon="5.5814">
        <ele>432</ele>
        <time>2026-09-02T15:44:02+00:00</time>
      </trkpt>
      <trkpt lat="50.25081" lon="5.5812">
        <ele>431</ele>
        <time>2026-09-02T15:44:05+00:00</time>
      </trkpt>
      <trkpt lat="50.25078" lon="5.58085">
        <ele>432</ele>
        <time>2026-09-02T15:44:08+00:00</time>
      </trkpt>
      <trkpt lat="50.25073" lon="5.58027">
        <ele>429</ele>
        <time>2026-09-02T15:44:11+00:00</time>
      </trkpt>
      <trkpt lat="50.25074" lon="5.57982">
        <ele>427</ele>
        <time>2026-09-02T15:44:14+00:00</time>
      </trkpt>
      <trkpt lat="50.25074" lon="5.57937">
        <ele>424</ele>
        <time>2026-09-02T15:44:17+00:00</time>
      </trkpt>
      <trkpt lat="50.25075" lon="5.5789">
        <ele>422</ele>
        <time>2026-09-02T15:44:20+00:00</time>
      </trkpt>
      <trkpt lat="50.2508" lon="5.57841">
        <ele>422</ele>
        <time>2026-09-02T15:44:23+00:00</time>
      </trkpt>
      <trkpt lat="50.2509" lon="5.57809">
        <ele>419</ele>
        <time>2026-09-02T15:44:26+00:00</time>
      </trkpt>
      <trkpt lat="50.25104" lon="5.57777">
        <ele>417</ele>
        <time>2026-09-02T15:44:29+00:00</time>
      </trkpt>
      <trkpt lat="50.25123" lon="5.57732">
        <ele>417</ele>
        <time>2026-09-02T15:44:32+00:00</time>
      </trkpt>
      <trkpt lat="50.25134" lon="5.5769">
        <ele>415</ele>
        <time>2026-09-02T15:44:35+00:00</time>
      </trkpt>
      <trkpt lat="50.25136" lon="5.57655">
        <ele>415</ele>
        <time>2026-09-02T15:44:38+00:00</time>
      </trkpt>
      <trkpt lat="50.25135" lon="5.57612">
        <ele>416</ele>
        <time>2026-09-02T15:44:41+00:00</time>
      </trkpt>
      <trkpt lat="50.25129" lon="5.57584">
        <ele>416</ele>
        <time>2026-09-02T15:44:44+00:00</time>
      </trkpt>
      <trkpt lat="50.25115" lon="5.57549">
        <ele>415</ele>
        <time>2026-09-02T15:44:47+00:00</time>
      </trkpt>
      <trkpt lat="50.25093" lon="5.57492">
        <ele>411</ele>
        <time>2026-09-02T15:44:50+00:00</time>
      </trkpt>
      <trkpt lat="50.2507" lon="5.57469">
        <ele>408</ele>
        <time>2026-09-02T15:44:53+00:00</time>
      </trkpt>
      <trkpt lat="50.25062" lon="5.57455">
        <ele>407</ele>
        <time>2026-09-02T15:44:56+00:00</time>
      </trkpt>
      <trkpt lat="50.25053" lon="5.57434">
        <ele>409</ele>
        <time>2026-09-02T15:44:59+00:00</time>
      </trkpt>
      <trkpt lat="50.25027" lon="5.57432">
        <ele>410</ele>
        <time>2026-09-02T15:45:02+00:00</time>
      </trkpt>
      <trkpt lat="50.24999" lon="5.5741">
        <ele>418</ele>
        <time>2026-09-02T15:45:05+00:00</time>
      </trkpt>
      <trkpt lat="50.24975" lon="5.57384">
        <ele>422</ele>
        <time>2026-09-02T15:45:08+00:00</time>
      </trkpt>
      <trkpt lat="50.24951" lon="5.57357">
        <ele>429</ele>
        <time>2026-09-02T15:45:11+00:00</time>
      </trkpt>
      <trkpt lat="50.24924" lon="5.57328">
        <ele>438</ele>
        <time>2026-09-02T15:45:14+00:00</time>
      </trkpt>
      <trkpt lat="50.249" lon="5.57311">
        <ele>438</ele>
        <time>2026-09-02T15:45:17+00:00</time>
      </trkpt>
      <trkpt lat="50.24867" lon="5.57301">
        <ele>438</ele>
        <time>2026-09-02T15:45:20+00:00</time>
      </trkpt>
      <trkpt lat="50.24855" lon="5.57279">
        <ele>439</ele>
        <time>2026-09-02T15:45:23+00:00</time>
      </trkpt>
      <trkpt lat="50.24843" lon="5.57245">
        <ele>440</ele>
        <time>2026-09-02T15:45:26+00:00</time>
      </trkpt>
      <trkpt lat="50.24827" lon="5.57201">
        <ele>440</ele>
        <time>2026-09-02T15:45:29+00:00</time>
      </trkpt>
      <trkpt lat="50.2482" lon="5.57156">
        <ele>440</ele>
        <time>2026-09-02T15:45:32+00:00</time>
      </trkpt>
      <trkpt lat="50.24813" lon="5.57112">
        <ele>437</ele>
        <time>2026-09-02T15:45:35+00:00</time>
      </trkpt>
      <trkpt lat="50.24805" lon="5.57062">
        <ele>429</ele>
        <time>2026-09-02T15:45:38+00:00</time>
      </trkpt>
      <trkpt lat="50.248" lon="5.57026">
        <ele>424</ele>
        <time>2026-09-02T15:45:41+00:00</time>
      </trkpt>
      <trkpt lat="50.24813" lon="5.57014">
        <ele>420</ele>
        <time>2026-09-02T15:45:44+00:00</time>
      </trkpt>
      <trkpt lat="50.24823" lon="5.57015">
        <ele>427</ele>
        <time>2026-09-02T15:45:47+00:00</time>
      </trkpt>
      <trkpt lat="50.24831" lon="5.5702">
        <ele>422</ele>
        <time>2026-09-02T15:45:50+00:00</time>
      </trkpt>
      <trkpt lat="50.24853" lon="5.57061">
        <ele>430</ele>
        <time>2026-09-02T15:45:53+00:00</time>
      </trkpt>
      <trkpt lat="50.24882" lon="5.57107">
        <ele>432</ele>
        <time>2026-09-02T15:45:56+00:00</time>
      </trkpt>
      <trkpt lat="50.24898" lon="5.5712">
        <ele>429</ele>
        <time>2026-09-02T15:45:59+00:00</time>
      </trkpt>
      <trkpt lat="50.24913" lon="5.57127">
        <ele>432</ele>
        <time>2026-09-02T15:46:02+00:00</time>
      </trkpt>
      <trkpt lat="50.24934" lon="5.57131">
        <ele>427</ele>
        <time>2026-09-02T15:46:05+00:00</time>
      </trkpt>
      <trkpt lat="50.24959" lon="5.57126">
        <ele>424</ele>
        <time>2026-09-02T15:46:08+00:00</time>
      </trkpt>
      <trkpt lat="50.24987" lon="5.57104">
        <ele>421</ele>
        <time>2026-09-02T15:46:11+00:00</time>
      </trkpt>
      <trkpt lat="50.25008" lon="5.57092">
        <ele>418</ele>
        <time>2026-09-02T15:46:14+00:00</time>
      </trkpt>
      <trkpt lat="50.25026" lon="5.57091">
        <ele>418</ele>
        <time>2026-09-02T15:46:17+00:00</time>
      </trkpt>
      <trkpt lat="50.25056" lon="5.57095">
        <ele>416</ele>
        <time>2026-09-02T15:46:20+00:00</time>
      </trkpt>
      <trkpt lat="50.25086" lon="5.57099">
        <ele>419</ele>
        <time>2026-09-02T15:46:23+00:00</time>
      </trkpt>
      <trkpt lat="50.25124" lon="5.57104">
        <ele>422</ele>
        <time>2026-09-02T15:46:26+00:00</time>
      </trkpt>
      <trkpt lat="50.25159" lon="5.57105">
        <ele>421</ele>
        <time>2026-09-02T15:46:29+00:00</time>
      </trkpt>
      <trkpt lat="50.25181" lon="5.57104">
        <ele>421</ele>
        <time>2026-09-02T15:46:32+00:00</time>
      </trkpt>
      <trkpt lat="50.25206" lon="5.57103">
        <ele>421</ele>
        <time>2026-09-02T15:46:35+00:00</time>
      </trkpt>
      <trkpt lat="50.25235" lon="5.57095">
        <ele>421</ele>
        <time>2026-09-02T15:46:38+00:00</time>
      </trkpt>
      <trkpt lat="50.25268" lon="5.57092">
        <ele>418</ele>
        <time>2026-09-02T15:46:41+00:00</time>
      </trkpt>
      <trkpt lat="50.25279" lon="5.57101">
        <ele>412</ele>
        <time>2026-09-02T15:46:44+00:00</time>
      </trkpt>
      <trkpt lat="50.25291" lon="5.57115">
        <ele>411</ele>
        <time>2026-09-02T15:46:47+00:00</time>
      </trkpt>
      <trkpt lat="50.25314" lon="5.57148">
        <ele>413</ele>
        <time>2026-09-02T15:46:50+00:00</time>
      </trkpt>
      <trkpt lat="50.25325" lon="5.57158">
        <ele>410</ele>
        <time>2026-09-02T15:46:53+00:00</time>
      </trkpt>
      <trkpt lat="50.25349" lon="5.5717">
        <ele>413</ele>
        <time>2026-09-02T15:46:56+00:00</time>
      </trkpt>
      <trkpt lat="50.25382" lon="5.57182">
        <ele>414</ele>
        <time>2026-09-02T15:46:59+00:00</time>
      </trkpt>
      <trkpt lat="50.25405" lon="5.57209">
        <ele>413</ele>
        <time>2026-09-02T15:47:02+00:00</time>
      </trkpt>
      <trkpt lat="50.25409" lon="5.57234">
        <ele>412</ele>
        <time>2026-09-02T15:47:05+00:00</time>
      </trkpt>
      <trkpt lat="50.25418" lon="5.57261">
        <ele>414</ele>
        <time>2026-09-02T15:47:08+00:00</time>
      </trkpt>
      <trkpt lat="50.25435" lon="5.57296">
        <ele>413</ele>
        <time>2026-09-02T15:47:11+00:00</time>
      </trkpt>
      <trkpt lat="50.25469" lon="5.57363">
        <ele>412</ele>
        <time>2026-09-02T15:47:14+00:00</time>
      </trkpt>
      <trkpt lat="50.25491" lon="5.57382">
        <ele>411</ele>
        <time>2026-09-02T15:47:17+00:00</time>
      </trkpt>
      <trkpt lat="50.25521" lon="5.57409">
        <ele>409</ele>
        <time>2026-09-02T15:47:20+00:00</time>
      </trkpt>
      <trkpt lat="50.2554" lon="5.57428">
        <ele>409</ele>
        <time>2026-09-02T15:47:23+00:00</time>
      </trkpt>
      <trkpt lat="50.2556" lon="5.57449">
        <ele>409</ele>
        <time>2026-09-02T15:47:26+00:00</time>
      </trkpt>
      <trkpt lat="50.2559" lon="5.57462">
        <ele>410</ele>
        <time>2026-09-02T15:47:29+00:00</time>
      </trkpt>
      <trkpt lat="50.2563" lon="5.57455">
        <ele>414</ele>
        <time>2026-09-02T15:47:32+00:00</time>
      </trkpt>
      <trkpt lat="50.25657" lon="5.57443">
        <ele>415</ele>
        <time>2026-09-02T15:47:35+00:00</time>
      </trkpt>
      <trkpt lat="50.25657" lon="5.57442">
        <ele>415</ele>
        <time>2026-09-02T15:47:38+00:00</time>
      </trkpt>
      <trkpt lat="50.25664" lon="5.57439">
        <ele>415</ele>
        <time>2026-09-02T15:47:41+00:00</time>
      </trkpt>
      <trkpt lat="50.25693" lon="5.57416">
        <ele>419</ele>
        <time>2026-09-02T15:47:44+00:00</time>
      </trkpt>
      <trkpt lat="50.25708" lon="5.57396">
        <ele>419</ele>
        <time>2026-09-02T15:47:47+00:00</time>
      </trkpt>
      <trkpt lat="50.25733" lon="5.57367">
        <ele>417</ele>
        <time>2026-09-02T15:47:50+00:00</time>
      </trkpt>
      <trkpt lat="50.25752" lon="5.57325">
        <ele>416</ele>
        <time>2026-09-02T15:47:53+00:00</time>
      </trkpt>
      <trkpt lat="50.25771" lon="5.57284">
        <ele>416</ele>
        <time>2026-09-02T15:47:56+00:00</time>
      </trkpt>
      <trkpt lat="50.25789" lon="5.57242">
        <ele>416</ele>
        <time>2026-09-02T15:47:59+00:00</time>
      </trkpt>
      <trkpt lat="50.2581" lon="5.57197">
        <ele>414</ele>
        <time>2026-09-02T15:48:02+00:00</time>
      </trkpt>
      <trkpt lat="50.2582" lon="5.57162">
        <ele>412</ele>
        <time>2026-09-02T15:48:05+00:00</time>
      </trkpt>
      <trkpt lat="50.25833" lon="5.57118">
        <ele>411</ele>
        <time>2026-09-02T15:48:08+00:00</time>
      </trkpt>
      <trkpt lat="50.25842" lon="5.57081">
        <ele>411</ele>
        <time>2026-09-02T15:48:11+00:00</time>
      </trkpt>
      <trkpt lat="50.25861" lon="5.57038">
        <ele>409</ele>
        <time>2026-09-02T15:48:14+00:00</time>
      </trkpt>
      <trkpt lat="50.25877" lon="5.56988">
        <ele>407</ele>
        <time>2026-09-02T15:48:17+00:00</time>
      </trkpt>
      <trkpt lat="50.25893" lon="5.56953">
        <ele>402</ele>
        <time>2026-09-02T15:48:20+00:00</time>
      </trkpt>
      <trkpt lat="50.25923" lon="5.56889">
        <ele>400</ele>
        <time>2026-09-02T15:48:23+00:00</time>
      </trkpt>
      <trkpt lat="50.25942" lon="5.56859">
        <ele>398</ele>
        <time>2026-09-02T15:48:26+00:00</time>
      </trkpt>
      <trkpt lat="50.25973" lon="5.5681">
        <ele>397</ele>
        <time>2026-09-02T15:48:29+00:00</time>
      </trkpt>
      <trkpt lat="50.25991" lon="5.56787">
        <ele>392</ele>
        <time>2026-09-02T15:48:32+00:00</time>
      </trkpt>
      <trkpt lat="50.26013" lon="5.56761">
        <ele>387</ele>
        <time>2026-09-02T15:48:35+00:00</time>
      </trkpt>
      <trkpt lat="50.26033" lon="5.56728">
        <ele>374</ele>
        <time>2026-09-02T15:48:38+00:00</time>
      </trkpt>
      <trkpt lat="50.26053" lon="5.56694">
        <ele>372</ele>
        <time>2026-09-02T15:48:41+00:00</time>
      </trkpt>
      <trkpt lat="50.26076" lon="5.56657">
        <ele>369</ele>
        <time>2026-09-02T15:48:44+00:00</time>
      </trkpt>
      <trkpt lat="50.26092" lon="5.56625">
        <ele>365</ele>
        <time>2026-09-02T15:48:47+00:00</time>
      </trkpt>
      <trkpt lat="50.26108" lon="5.56607">
        <ele>364</ele>
        <time>2026-09-02T15:48:50+00:00</time>
      </trkpt>
      <trkpt lat="50.2612" lon="5.56578">
        <ele>363</ele>
        <time>2026-09-02T15:48:53+00:00</time>
      </trkpt>
      <trkpt lat="50.26132" lon="5.56547">
        <ele>362</ele>
        <time>2026-09-02T15:48:56+00:00</time>
      </trkpt>
      <trkpt lat="50.26138" lon="5.56512">
        <ele>358</ele>
        <time>2026-09-02T15:48:59+00:00</time>
      </trkpt>
      <trkpt lat="50.26145" lon="5.56472">
        <ele>347</ele>
        <time>2026-09-02T15:49:02+00:00</time>
      </trkpt>
      <trkpt lat="50.26149" lon="5.56439">
        <ele>343</ele>
        <time>2026-09-02T15:49:05+00:00</time>
      </trkpt>
      <trkpt lat="50.26156" lon="5.56396">
        <ele>341</ele>
        <time>2026-09-02T15:49:08+00:00</time>
      </trkpt>
      <trkpt lat="50.2617" lon="5.56311">
        <ele>338</ele>
        <time>2026-09-02T15:49:11+00:00</time>
      </trkpt>
      <trkpt lat="50.26175" lon="5.5627">
        <ele>336</ele>
        <time>2026-09-02T15:49:14+00:00</time>
      </trkpt>
      <trkpt lat="50.26184" lon="5.56204">
        <ele>333</ele>
        <time>2026-09-02T15:49:17+00:00</time>
      </trkpt>
      <trkpt lat="50.26186" lon="5.56158">
        <ele>331</ele>
        <time>2026-09-02T15:49:20+00:00</time>
      </trkpt>
      <trkpt lat="50.26194" lon="5.56121">
        <ele>329</ele>
        <time>2026-09-02T15:49:23+00:00</time>
      </trkpt>
      <trkpt lat="50.26206" lon="5.56069">
        <ele>325</ele>
        <time>2026-09-02T15:49:26+00:00</time>
      </trkpt>
      <trkpt lat="50.26209" lon="5.5605">
        <ele>324</ele>
        <time>2026-09-02T15:49:29+00:00</time>
      </trkpt>
      <trkpt lat="50.26208" lon="5.56034">
        <ele>323</ele>
        <time>2026-09-02T15:49:32+00:00</time>
      </trkpt>
      <trkpt lat="50.26195" lon="5.56004">
        <ele>320</ele>
        <time>2026-09-02T15:49:35+00:00</time>
      </trkpt>
      <trkpt lat="50.26198" lon="5.55983">
        <ele>319</ele>
        <time>2026-09-02T15:49:38+00:00</time>
      </trkpt>
      <trkpt lat="50.26202" lon="5.55975">
        <ele>318</ele>
        <time>2026-09-02T15:49:41+00:00</time>
      </trkpt>
      <trkpt lat="50.26208" lon="5.55968">
        <ele>317</ele>
        <time>2026-09-02T15:49:44+00:00</time>
      </trkpt>
      <trkpt lat="50.26215" lon="5.55964">
        <ele>317</ele>
        <time>2026-09-02T15:49:47+00:00</time>
      </trkpt>
      <trkpt lat="50.26224" lon="5.55964">
        <ele>316</ele>
        <time>2026-09-02T15:49:50+00:00</time>
      </trkpt>
      <trkpt lat="50.26259" lon="5.5597">
        <ele>314</ele>
        <time>2026-09-02T15:49:53+00:00</time>
      </trkpt>
      <trkpt lat="50.26265" lon="5.5596">
        <ele>312</ele>
        <time>2026-09-02T15:49:56+00:00</time>
      </trkpt>
      <trkpt lat="50.26266" lon="5.55954">
        <ele>312</ele>
        <time>2026-09-02T15:49:59+00:00</time>
      </trkpt>
      <trkpt lat="50.26264" lon="5.55943">
        <ele>311</ele>
        <time>2026-09-02T15:50:02+00:00</time>
      </trkpt>
      <trkpt lat="50.26262" lon="5.55937">
        <ele>310</ele>
        <time>2026-09-02T15:50:05+00:00</time>
      </trkpt>
      <trkpt lat="50.26236" lon="5.55905">
        <ele>313</ele>
        <time>2026-09-02T15:50:08+00:00</time>
      </trkpt>
      <trkpt lat="50.26231" lon="5.55886">
        <ele>312</ele>
        <time>2026-09-02T15:50:11+00:00</time>
      </trkpt>
      <trkpt lat="50.26231" lon="5.55877">
        <ele>316</ele>
        <time>2026-09-02T15:50:14+00:00</time>
      </trkpt>
      <trkpt lat="50.26233" lon="5.55865">
        <ele>318</ele>
        <time>2026-09-02T15:50:17+00:00</time>
      </trkpt>
      <trkpt lat="50.26243" lon="5.55839">
        <ele>320</ele>
        <time>2026-09-02T15:50:20+00:00</time>
      </trkpt>
      <trkpt lat="50.26251" lon="5.55811">
        <ele>321</ele>
        <time>2026-09-02T15:50:23+00:00</time>
      </trkpt>
      <trkpt lat="50.26267" lon="5.55808">
        <ele>322</ele>
        <time>2026-09-02T15:50:26+00:00</time>
      </trkpt>
      <trkpt lat="50.26293" lon="5.55815">
        <ele>321</ele>
        <time>2026-09-02T15:50:29+00:00</time>
      </trkpt>
      <trkpt lat="50.26314" lon="5.55811">
        <ele>322</ele>
        <time>2026-09-02T15:50:32+00:00</time>
      </trkpt>
      <trkpt lat="50.26333" lon="5.55812">
        <ele>323</ele>
        <time>2026-09-02T15:50:35+00:00</time>
      </trkpt>
      <trkpt lat="50.26355" lon="5.55818">
        <ele>323</ele>
        <time>2026-09-02T15:50:38+00:00</time>
      </trkpt>
      <trkpt lat="50.26381" lon="5.55826">
        <ele>323</ele>
        <time>2026-09-02T15:50:41+00:00</time>
      </trkpt>
      <trkpt lat="50.26418" lon="5.5582">
        <ele>320</ele>
        <time>2026-09-02T15:50:44+00:00</time>
      </trkpt>
      <trkpt lat="50.26441" lon="5.55766">
        <ele>316</ele>
        <time>2026-09-02T15:50:47+00:00</time>
      </trkpt>
      <trkpt lat="50.26436" lon="5.55755">
        <ele>318</ele>
        <time>2026-09-02T15:50:50+00:00</time>
      </trkpt>
      <trkpt lat="50.26454" lon="5.55724">
        <ele>316</ele>
        <time>2026-09-02T15:50:53+00:00</time>
      </trkpt>
      <trkpt lat="50.26466" lon="5.55694">
        <ele>313</ele>
        <time>2026-09-02T15:50:56+00:00</time>
      </trkpt>
      <trkpt lat="50.26482" lon="5.55647">
        <ele>312</ele>
        <time>2026-09-02T15:50:59+00:00</time>
      </trkpt>
      <trkpt lat="50.26488" lon="5.55635">
        <ele>308</ele>
        <time>2026-09-02T15:51:02+00:00</time>
      </trkpt>
      <trkpt lat="50.26495" lon="5.55628">
        <ele>312</ele>
        <time>2026-09-02T15:51:05+00:00</time>
      </trkpt>
      <trkpt lat="50.26519" lon="5.55616">
        <ele>315</ele>
        <time>2026-09-02T15:51:08+00:00</time>
      </trkpt>
      <trkpt lat="50.26551" lon="5.55601">
        <ele>317</ele>
        <time>2026-09-02T15:51:11+00:00</time>
      </trkpt>
      <trkpt lat="50.26577" lon="5.55599">
        <ele>317</ele>
        <time>2026-09-02T15:51:14+00:00</time>
      </trkpt>
      <trkpt lat="50.26582" lon="5.55576">
        <ele>318</ele>
        <time>2026-09-02T15:51:17+00:00</time>
      </trkpt>
      <trkpt lat="50.2659" lon="5.55553">
        <ele>320</ele>
        <time>2026-09-02T15:51:20+00:00</time>
      </trkpt>
      <trkpt lat="50.26601" lon="5.55525">
        <ele>321</ele>
        <time>2026-09-02T15:51:23+00:00</time>
      </trkpt>
      <trkpt lat="50.26607" lon="5.55501">
        <ele>322</ele>
        <time>2026-09-02T15:51:26+00:00</time>
      </trkpt>
      <trkpt lat="50.26611" lon="5.55462">
        <ele>322</ele>
        <time>2026-09-02T15:51:29+00:00</time>
      </trkpt>
      <trkpt lat="50.26615" lon="5.55424">
        <ele>323</ele>
        <time>2026-09-02T15:51:32+00:00</time>
      </trkpt>
      <trkpt lat="50.2662" lon="5.55374">
        <ele>324</ele>
        <time>2026-09-02T15:51:35+00:00</time>
      </trkpt>
      <trkpt lat="50.26626" lon="5.55345">
        <ele>324</ele>
        <time>2026-09-02T15:51:38+00:00</time>
      </trkpt>
      <trkpt lat="50.26636" lon="5.55309">
        <ele>322</ele>
        <time>2026-09-02T15:51:41+00:00</time>
      </trkpt>
      <trkpt lat="50.26649" lon="5.55261">
        <ele>322</ele>
        <time>2026-09-02T15:51:44+00:00</time>
      </trkpt>
      <trkpt lat="50.26652" lon="5.55241">
        <ele>321</ele>
        <time>2026-09-02T15:51:47+00:00</time>
      </trkpt>
      <trkpt lat="50.26653" lon="5.55211">
        <ele>321</ele>
        <time>2026-09-02T15:51:50+00:00</time>
      </trkpt>
      <trkpt lat="50.26652" lon="5.55191">
        <ele>320</ele>
        <time>2026-09-02T15:51:53+00:00</time>
      </trkpt>
      <trkpt lat="50.26647" lon="5.55161">
        <ele>321</ele>
        <time>2026-09-02T15:51:56+00:00</time>
      </trkpt>
      <trkpt lat="50.26629" lon="5.55112">
        <ele>320</ele>
        <time>2026-09-02T15:51:59+00:00</time>
      </trkpt>
      <trkpt lat="50.26612" lon="5.55087">
        <ele>320</ele>
        <time>2026-09-02T15:52:02+00:00</time>
      </trkpt>
      <trkpt lat="50.26594" lon="5.55059">
        <ele>320</ele>
        <time>2026-09-02T15:52:05+00:00</time>
      </trkpt>
      <trkpt lat="50.26583" lon="5.55039">
        <ele>321</ele>
        <time>2026-09-02T15:52:08+00:00</time>
      </trkpt>
      <trkpt lat="50.26573" lon="5.55008">
        <ele>323</ele>
        <time>2026-09-02T15:52:11+00:00</time>
      </trkpt>
      <trkpt lat="50.2657" lon="5.54991">
        <ele>323</ele>
        <time>2026-09-02T15:52:14+00:00</time>
      </trkpt>
      <trkpt lat="50.26568" lon="5.54956">
        <ele>327</ele>
        <time>2026-09-02T15:52:17+00:00</time>
      </trkpt>
      <trkpt lat="50.26569" lon="5.54938">
        <ele>328</ele>
        <time>2026-09-02T15:52:20+00:00</time>
      </trkpt>
      <trkpt lat="50.26573" lon="5.5491">
        <ele>331</ele>
        <time>2026-09-02T15:52:23+00:00</time>
      </trkpt>
      <trkpt lat="50.26579" lon="5.54876">
        <ele>335</ele>
        <time>2026-09-02T15:52:26+00:00</time>
      </trkpt>
      <trkpt lat="50.26581" lon="5.54836">
        <ele>341</ele>
        <time>2026-09-02T15:52:29+00:00</time>
      </trkpt>
      <trkpt lat="50.26578" lon="5.54796">
        <ele>344</ele>
        <time>2026-09-02T15:52:32+00:00</time>
      </trkpt>
      <trkpt lat="50.26573" lon="5.54738">
        <ele>349</ele>
        <time>2026-09-02T15:52:35+00:00</time>
      </trkpt>
      <trkpt lat="50.26567" lon="5.54684">
        <ele>352</ele>
        <time>2026-09-02T15:52:38+00:00</time>
      </trkpt>
      <trkpt lat="50.26561" lon="5.54629">
        <ele>354</ele>
        <time>2026-09-02T15:52:41+00:00</time>
      </trkpt>
      <trkpt lat="50.26555" lon="5.54575">
        <ele>357</ele>
        <time>2026-09-02T15:52:44+00:00</time>
      </trkpt>
      <trkpt lat="50.2655" lon="5.54521">
        <ele>360</ele>
        <time>2026-09-02T15:52:47+00:00</time>
      </trkpt>
      <trkpt lat="50.26541" lon="5.54439">
        <ele>364</ele>
        <time>2026-09-02T15:52:50+00:00</time>
      </trkpt>
      <trkpt lat="50.26542" lon="5.54405">
        <ele>366</ele>
        <time>2026-09-02T15:52:53+00:00</time>
      </trkpt>
      <trkpt lat="50.26558" lon="5.5437">
        <ele>367</ele>
        <time>2026-09-02T15:52:56+00:00</time>
      </trkpt>
      <trkpt lat="50.26579" lon="5.5434">
        <ele>367</ele>
        <time>2026-09-02T15:52:59+00:00</time>
      </trkpt>
      <trkpt lat="50.26601" lon="5.54309">
        <ele>367</ele>
        <time>2026-09-02T15:53:02+00:00</time>
      </trkpt>
      <trkpt lat="50.26623" lon="5.54278">
        <ele>369</ele>
        <time>2026-09-02T15:53:05+00:00</time>
      </trkpt>
      <trkpt lat="50.26648" lon="5.54252">
        <ele>369</ele>
        <time>2026-09-02T15:53:08+00:00</time>
      </trkpt>
      <trkpt lat="50.26677" lon="5.54224">
        <ele>369</ele>
        <time>2026-09-02T15:53:11+00:00</time>
      </trkpt>
      <trkpt lat="50.26707" lon="5.54196">
        <ele>369</ele>
        <time>2026-09-02T15:53:14+00:00</time>
      </trkpt>
      <trkpt lat="50.26736" lon="5.54167">
        <ele>369</ele>
        <time>2026-09-02T15:53:17+00:00</time>
      </trkpt>
      <trkpt lat="50.26765" lon="5.54139">
        <ele>370</ele>
        <time>2026-09-02T15:53:20+00:00</time>
      </trkpt>
      <trkpt lat="50.26795" lon="5.54111">
        <ele>370</ele>
        <time>2026-09-02T15:53:23+00:00</time>
      </trkpt>
      <trkpt lat="50.26814" lon="5.54091">
        <ele>370</ele>
        <time>2026-09-02T15:53:26+00:00</time>
      </trkpt>
      <trkpt lat="50.26821" lon="5.54102">
        <ele>370</ele>
        <time>2026-09-02T15:53:29+00:00</time>
      </trkpt>
      <trkpt lat="50.26831" lon="5.54107">
        <ele>370</ele>
        <time>2026-09-02T15:53:32+00:00</time>
      </trkpt>
      <trkpt lat="50.26857" lon="5.54114">
        <ele>369</ele>
        <time>2026-09-02T15:53:35+00:00</time>
      </trkpt>
      <trkpt lat="50.26896" lon="5.54124">
        <ele>369</ele>
        <time>2026-09-02T15:53:38+00:00</time>
      </trkpt>
      <trkpt lat="50.26925" lon="5.54138">
        <ele>369</ele>
        <time>2026-09-02T15:53:41+00:00</time>
      </trkpt>
      <trkpt lat="50.26961" lon="5.54152">
        <ele>366</ele>
        <time>2026-09-02T15:53:44+00:00</time>
      </trkpt>
      <trkpt lat="50.26997" lon="5.54165">
        <ele>365</ele>
        <time>2026-09-02T15:53:47+00:00</time>
      </trkpt>
      <trkpt lat="50.27033" lon="5.54179">
        <ele>364</ele>
        <time>2026-09-02T15:53:50+00:00</time>
      </trkpt>
      <trkpt lat="50.27069" lon="5.54193">
        <ele>362</ele>
        <time>2026-09-02T15:53:53+00:00</time>
      </trkpt>
      <trkpt lat="50.27105" lon="5.54207">
        <ele>360</ele>
        <time>2026-09-02T15:53:56+00:00</time>
      </trkpt>
      <trkpt lat="50.27141" lon="5.54221">
        <ele>357</ele>
        <time>2026-09-02T15:53:59+00:00</time>
      </trkpt>
      <trkpt lat="50.27183" lon="5.54237">
        <ele>353</ele>
        <time>2026-09-02T15:54:02+00:00</time>
      </trkpt>
      <trkpt lat="50.27209" lon="5.54246">
        <ele>352</ele>
        <time>2026-09-02T15:54:05+00:00</time>
      </trkpt>
      <trkpt lat="50.27254" lon="5.5426">
        <ele>348</ele>
        <time>2026-09-02T15:54:08+00:00</time>
      </trkpt>
      <trkpt lat="50.27284" lon="5.54271">
        <ele>345</ele>
        <time>2026-09-02T15:54:11+00:00</time>
      </trkpt>
      <trkpt lat="50.27314" lon="5.54283">
        <ele>341</ele>
        <time>2026-09-02T15:54:14+00:00</time>
      </trkpt>
      <trkpt lat="50.27358" lon="5.543">
        <ele>337</ele>
        <time>2026-09-02T15:54:17+00:00</time>
      </trkpt>
      <trkpt lat="50.27374" lon="5.54303">
        <ele>335</ele>
        <time>2026-09-02T15:54:20+00:00</time>
      </trkpt>
      <trkpt lat="50.27397" lon="5.54298">
        <ele>333</ele>
        <time>2026-09-02T15:54:23+00:00</time>
      </trkpt>
      <trkpt lat="50.27408" lon="5.54293">
        <ele>332</ele>
        <time>2026-09-02T15:54:26+00:00</time>
      </trkpt>
      <trkpt lat="50.2743" lon="5.54273">
        <ele>329</ele>
        <time>2026-09-02T15:54:29+00:00</time>
      </trkpt>
      <trkpt lat="50.27453" lon="5.54253">
        <ele>327</ele>
        <time>2026-09-02T15:54:32+00:00</time>
      </trkpt>
      <trkpt lat="50.27478" lon="5.54231">
        <ele>324</ele>
        <time>2026-09-02T15:54:35+00:00</time>
      </trkpt>
      <trkpt lat="50.27485" lon="5.5423">
        <ele>323</ele>
        <time>2026-09-02T15:54:38+00:00</time>
      </trkpt>
      <trkpt lat="50.27491" lon="5.54235">
        <ele>323</ele>
        <time>2026-09-02T15:54:41+00:00</time>
      </trkpt>
      <trkpt lat="50.27514" lon="5.54265">
        <ele>321</ele>
        <time>2026-09-02T15:54:44+00:00</time>
      </trkpt>
      <trkpt lat="50.27537" lon="5.54296">
        <ele>320</ele>
        <time>2026-09-02T15:54:47+00:00</time>
      </trkpt>
      <trkpt lat="50.2756" lon="5.54326">
        <ele>317</ele>
        <time>2026-09-02T15:54:50+00:00</time>
      </trkpt>
      <trkpt lat="50.27593" lon="5.54369">
        <ele>314</ele>
        <time>2026-09-02T15:54:53+00:00</time>
      </trkpt>
      <trkpt lat="50.27613" lon="5.54399">
        <ele>311</ele>
        <time>2026-09-02T15:54:56+00:00</time>
      </trkpt>
      <trkpt lat="50.27652" lon="5.54455">
        <ele>304</ele>
        <time>2026-09-02T15:54:59+00:00</time>
      </trkpt>
      <trkpt lat="50.27663" lon="5.54468">
        <ele>304</ele>
        <time>2026-09-02T15:55:02+00:00</time>
      </trkpt>
      <trkpt lat="50.27674" lon="5.54484">
        <ele>302</ele>
        <time>2026-09-02T15:55:05+00:00</time>
      </trkpt>
      <trkpt lat="50.27686" lon="5.54501">
        <ele>302</ele>
        <time>2026-09-02T15:55:08+00:00</time>
      </trkpt>
      <trkpt lat="50.27693" lon="5.54504">
        <ele>301</ele>
        <time>2026-09-02T15:55:11+00:00</time>
      </trkpt>
      <trkpt lat="50.27719" lon="5.54503">
        <ele>300</ele>
        <time>2026-09-02T15:55:14+00:00</time>
      </trkpt>
      <trkpt lat="50.27741" lon="5.54507">
        <ele>299</ele>
        <time>2026-09-02T15:55:17+00:00</time>
      </trkpt>
      <trkpt lat="50.2775" lon="5.54516">
        <ele>296</ele>
        <time>2026-09-02T15:55:20+00:00</time>
      </trkpt>
      <trkpt lat="50.27757" lon="5.54527">
        <ele>296</ele>
        <time>2026-09-02T15:55:23+00:00</time>
      </trkpt>
      <trkpt lat="50.27776" lon="5.54561">
        <ele>292</ele>
        <time>2026-09-02T15:55:26+00:00</time>
      </trkpt>
      <trkpt lat="50.27794" lon="5.54585">
        <ele>292</ele>
        <time>2026-09-02T15:55:29+00:00</time>
      </trkpt>
      <trkpt lat="50.27806" lon="5.54595">
        <ele>290</ele>
        <time>2026-09-02T15:55:32+00:00</time>
      </trkpt>
      <trkpt lat="50.27821" lon="5.54603">
        <ele>288</ele>
        <time>2026-09-02T15:55:35+00:00</time>
      </trkpt>
      <trkpt lat="50.27838" lon="5.54611">
        <ele>286</ele>
        <time>2026-09-02T15:55:38+00:00</time>
      </trkpt>
      <trkpt lat="50.27866" lon="5.54572">
        <ele>286</ele>
        <time>2026-09-02T15:55:41+00:00</time>
      </trkpt>
      <trkpt lat="50.27884" lon="5.54553">
        <ele>283</ele>
        <time>2026-09-02T15:55:44+00:00</time>
      </trkpt>
      <trkpt lat="50.27903" lon="5.54535">
        <ele>282</ele>
        <time>2026-09-02T15:55:47+00:00</time>
      </trkpt>
      <trkpt lat="50.27914" lon="5.54539">
        <ele>283</ele>
        <time>2026-09-02T15:55:50+00:00</time>
      </trkpt>
      <trkpt lat="50.27907" lon="5.54571">
        <ele>280</ele>
        <time>2026-09-02T15:55:53+00:00</time>
      </trkpt>
      <trkpt lat="50.27897" lon="5.54623">
        <ele>279</ele>
        <time>2026-09-02T15:55:56+00:00</time>
      </trkpt>
      <trkpt lat="50.27891" lon="5.54642">
        <ele>278</ele>
        <time>2026-09-02T15:55:59+00:00</time>
      </trkpt>
      <trkpt lat="50.2791" lon="5.54644">
        <ele>277</ele>
        <time>2026-09-02T15:56:02+00:00</time>
      </trkpt>
      <trkpt lat="50.27936" lon="5.54648">
        <ele>277</ele>
        <time>2026-09-02T15:56:05+00:00</time>
      </trkpt>
      <trkpt lat="50.2796" lon="5.54641">
        <ele>276</ele>
        <time>2026-09-02T15:56:08+00:00</time>
      </trkpt>
      <trkpt lat="50.27967" lon="5.54663">
        <ele>275</ele>
        <time>2026-09-02T15:56:11+00:00</time>
      </trkpt>
      <trkpt lat="50.27986" lon="5.5469">
        <ele>274</ele>
        <time>2026-09-02T15:56:14+00:00</time>
      </trkpt>
      <trkpt lat="50.28004" lon="5.54718">
        <ele>274</ele>
        <time>2026-09-02T15:56:17+00:00</time>
      </trkpt>
      <trkpt lat="50.2803" lon="5.54755">
        <ele>273</ele>
        <time>2026-09-02T15:56:20+00:00</time>
      </trkpt>
      <trkpt lat="50.28046" lon="5.54785">
        <ele>273</ele>
        <time>2026-09-02T15:56:23+00:00</time>
      </trkpt>
      <trkpt lat="50.28047" lon="5.54791">
        <ele>273</ele>
        <time>2026-09-02T15:56:26+00:00</time>
      </trkpt>
      <trkpt lat="50.28054" lon="5.54821">
        <ele>273</ele>
        <time>2026-09-02T15:56:29+00:00</time>
      </trkpt>
      <trkpt lat="50.28062" lon="5.54854">
        <ele>273</ele>
        <time>2026-09-02T15:56:32+00:00</time>
      </trkpt>
      <trkpt lat="50.28073" lon="5.54903">
        <ele>274</ele>
        <time>2026-09-02T15:56:35+00:00</time>
      </trkpt>
      <trkpt lat="50.28079" lon="5.54949">
        <ele>276</ele>
        <time>2026-09-02T15:56:38+00:00</time>
      </trkpt>
      <trkpt lat="50.2808" lon="5.54973">
        <ele>278</ele>
        <time>2026-09-02T15:56:41+00:00</time>
      </trkpt>
      <trkpt lat="50.28076" lon="5.54975">
        <ele>278</ele>
        <time>2026-09-02T15:56:44+00:00</time>
      </trkpt>
      <trkpt lat="50.28055" lon="5.54992">
        <ele>281</ele>
        <time>2026-09-02T15:56:47+00:00</time>
      </trkpt>
      <trkpt lat="50.28028" lon="5.55014">
        <ele>282</ele>
        <time>2026-09-02T15:56:50+00:00</time>
      </trkpt>
      <trkpt lat="50.2799" lon="5.55019">
        <ele>283</ele>
        <time>2026-09-02T15:56:53+00:00</time>
      </trkpt>
      <trkpt lat="50.27972" lon="5.55029">
        <ele>283</ele>
        <time>2026-09-02T15:56:56+00:00</time>
      </trkpt>
      <trkpt lat="50.27951" lon="5.55036">
        <ele>286</ele>
        <time>2026-09-02T15:56:59+00:00</time>
      </trkpt>
      <trkpt lat="50.27923" lon="5.55055">
        <ele>289</ele>
        <time>2026-09-02T15:57:02+00:00</time>
      </trkpt>
      <trkpt lat="50.27911" lon="5.55068">
        <ele>290</ele>
        <time>2026-09-02T15:57:05+00:00</time>
      </trkpt>
      <trkpt lat="50.27895" lon="5.5508">
        <ele>290</ele>
        <time>2026-09-02T15:57:08+00:00</time>
      </trkpt>
      <trkpt lat="50.27876" lon="5.55095">
        <ele>290</ele>
        <time>2026-09-02T15:57:11+00:00</time>
      </trkpt>
      <trkpt lat="50.27855" lon="5.55106">
        <ele>291</ele>
        <time>2026-09-02T15:57:14+00:00</time>
      </trkpt>
      <trkpt lat="50.2783" lon="5.55115">
        <ele>291</ele>
        <time>2026-09-02T15:57:17+00:00</time>
      </trkpt>
      <trkpt lat="50.27795" lon="5.55128">
        <ele>291</ele>
        <time>2026-09-02T15:57:20+00:00</time>
      </trkpt>
      <trkpt lat="50.27766" lon="5.55144">
        <ele>292</ele>
        <time>2026-09-02T15:57:23+00:00</time>
      </trkpt>
      <trkpt lat="50.27736" lon="5.55161">
        <ele>292</ele>
        <time>2026-09-02T15:57:26+00:00</time>
      </trkpt>
      <trkpt lat="50.27702" lon="5.55189">
        <ele>292</ele>
        <time>2026-09-02T15:57:29+00:00</time>
      </trkpt>
      <trkpt lat="50.2768" lon="5.55204">
        <ele>292</ele>
        <time>2026-09-02T15:57:32+00:00</time>
      </trkpt>
      <trkpt lat="50.27639" lon="5.55216">
        <ele>291</ele>
        <time>2026-09-02T15:57:35+00:00</time>
      </trkpt>
      <trkpt lat="50.27626" lon="5.55222">
        <ele>293</ele>
        <time>2026-09-02T15:57:38+00:00</time>
      </trkpt>
      <trkpt lat="50.27603" lon="5.55228">
        <ele>291</ele>
        <time>2026-09-02T15:57:41+00:00</time>
      </trkpt>
      <trkpt lat="50.27564" lon="5.55246">
        <ele>292</ele>
        <time>2026-09-02T15:57:44+00:00</time>
      </trkpt>
      <trkpt lat="50.27558" lon="5.55257">
        <ele>296</ele>
        <time>2026-09-02T15:57:47+00:00</time>
      </trkpt>
      <trkpt lat="50.27553" lon="5.55257">
        <ele>296</ele>
        <time>2026-09-02T15:57:50+00:00</time>
      </trkpt>
      <trkpt lat="50.27532" lon="5.55266">
        <ele>295</ele>
        <time>2026-09-02T15:57:53+00:00</time>
      </trkpt>
      <trkpt lat="50.27499" lon="5.5528">
        <ele>295</ele>
        <time>2026-09-02T15:57:56+00:00</time>
      </trkpt>
      <trkpt lat="50.27477" lon="5.55284">
        <ele>295</ele>
        <time>2026-09-02T15:57:59+00:00</time>
      </trkpt>
      <trkpt lat="50.27454" lon="5.55289">
        <ele>290</ele>
        <time>2026-09-02T15:58:02+00:00</time>
      </trkpt>
      <trkpt lat="50.27418" lon="5.55307">
        <ele>289</ele>
        <time>2026-09-02T15:58:05+00:00</time>
      </trkpt>
      <trkpt lat="50.27399" lon="5.55324">
        <ele>289</ele>
        <time>2026-09-02T15:58:08+00:00</time>
      </trkpt>
      <trkpt lat="50.2738" lon="5.55342">
        <ele>289</ele>
        <time>2026-09-02T15:58:11+00:00</time>
      </trkpt>
      <trkpt lat="50.27364" lon="5.55366">
        <ele>289</ele>
        <time>2026-09-02T15:58:14+00:00</time>
      </trkpt>
      <trkpt lat="50.27347" lon="5.55391">
        <ele>290</ele>
        <time>2026-09-02T15:58:17+00:00</time>
      </trkpt>
      <trkpt lat="50.27328" lon="5.55412">
        <ele>290</ele>
        <time>2026-09-02T15:58:20+00:00</time>
      </trkpt>
      <trkpt lat="50.27305" lon="5.55437">
        <ele>290</ele>
        <time>2026-09-02T15:58:23+00:00</time>
      </trkpt>
      <trkpt lat="50.27284" lon="5.55456">
        <ele>290</ele>
        <time>2026-09-02T15:58:26+00:00</time>
      </trkpt>
      <trkpt lat="50.27259" lon="5.5548">
        <ele>291</ele>
        <time>2026-09-02T15:58:29+00:00</time>
      </trkpt>
      <trkpt lat="50.27231" lon="5.55517">
        <ele>291</ele>
        <time>2026-09-02T15:58:32+00:00</time>
      </trkpt>
      <trkpt lat="50.27214" lon="5.55553">
        <ele>292</ele>
        <time>2026-09-02T15:58:35+00:00</time>
      </trkpt>
      <trkpt lat="50.27202" lon="5.55591">
        <ele>291</ele>
        <time>2026-09-02T15:58:38+00:00</time>
      </trkpt>
      <trkpt lat="50.27183" lon="5.55606">
        <ele>291</ele>
        <time>2026-09-02T15:58:41+00:00</time>
      </trkpt>
      <trkpt lat="50.2717" lon="5.55653">
        <ele>293</ele>
        <time>2026-09-02T15:58:44+00:00</time>
      </trkpt>
      <trkpt lat="50.27169" lon="5.5569">
        <ele>295</ele>
        <time>2026-09-02T15:58:47+00:00</time>
      </trkpt>
      <trkpt lat="50.27169" lon="5.55735">
        <ele>294</ele>
        <time>2026-09-02T15:58:50+00:00</time>
      </trkpt>
      <trkpt lat="50.27152" lon="5.55775">
        <ele>295</ele>
        <time>2026-09-02T15:58:53+00:00</time>
      </trkpt>
      <trkpt lat="50.27136" lon="5.55815">
        <ele>294</ele>
        <time>2026-09-02T15:58:56+00:00</time>
      </trkpt>
      <trkpt lat="50.27111" lon="5.55875">
        <ele>294</ele>
        <time>2026-09-02T15:58:59+00:00</time>
      </trkpt>
      <trkpt lat="50.27104" lon="5.55908">
        <ele>295</ele>
        <time>2026-09-02T15:59:02+00:00</time>
      </trkpt>
      <trkpt lat="50.27111" lon="5.55938">
        <ele>297</ele>
        <time>2026-09-02T15:59:05+00:00</time>
      </trkpt>
      <trkpt lat="50.27089" lon="5.55945">
        <ele>302</ele>
        <time>2026-09-02T15:59:08+00:00</time>
      </trkpt>
      <trkpt lat="50.27067" lon="5.55953">
        <ele>302</ele>
        <time>2026-09-02T15:59:11+00:00</time>
      </trkpt>
      <trkpt lat="50.27048" lon="5.55972">
        <ele>301</ele>
        <time>2026-09-02T15:59:14+00:00</time>
      </trkpt>
      <trkpt lat="50.27028" lon="5.55992">
        <ele>301</ele>
        <time>2026-09-02T15:59:17+00:00</time>
      </trkpt>
      <trkpt lat="50.27001" lon="5.56029">
        <ele>302</ele>
        <time>2026-09-02T15:59:20+00:00</time>
      </trkpt>
      <trkpt lat="50.26986" lon="5.56066">
        <ele>302</ele>
        <time>2026-09-02T15:59:23+00:00</time>
      </trkpt>
      <trkpt lat="50.26959" lon="5.56132">
        <ele>299</ele>
        <time>2026-09-02T15:59:26+00:00</time>
      </trkpt>
      <trkpt lat="50.26946" lon="5.56157">
        <ele>303</ele>
        <time>2026-09-02T15:59:29+00:00</time>
      </trkpt>
      <trkpt lat="50.26953" lon="5.5621">
        <ele>307</ele>
        <time>2026-09-02T15:59:32+00:00</time>
      </trkpt>
      <trkpt lat="50.26966" lon="5.56234">
        <ele>307</ele>
        <time>2026-09-02T15:59:35+00:00</time>
      </trkpt>
      <trkpt lat="50.26995" lon="5.56275">
        <ele>315</ele>
        <time>2026-09-02T15:59:38+00:00</time>
      </trkpt>
      <trkpt lat="50.27024" lon="5.56315">
        <ele>323</ele>
        <time>2026-09-02T15:59:41+00:00</time>
      </trkpt>
      <trkpt lat="50.27052" lon="5.56356">
        <ele>324</ele>
        <time>2026-09-02T15:59:44+00:00</time>
      </trkpt>
      <trkpt lat="50.27081" lon="5.56397">
        <ele>326</ele>
        <time>2026-09-02T15:59:47+00:00</time>
      </trkpt>
      <trkpt lat="50.2711" lon="5.56437">
        <ele>330</ele>
        <time>2026-09-02T15:59:50+00:00</time>
      </trkpt>
      <trkpt lat="50.27139" lon="5.56478">
        <ele>335</ele>
        <time>2026-09-02T15:59:53+00:00</time>
      </trkpt>
      <trkpt lat="50.27168" lon="5.56519">
        <ele>338</ele>
        <time>2026-09-02T15:59:56+00:00</time>
      </trkpt>
      <trkpt lat="50.27196" lon="5.56559">
        <ele>342</ele>
        <time>2026-09-02T15:59:59+00:00</time>
      </trkpt>
      <trkpt lat="50.27225" lon="5.566">
        <ele>345</ele>
        <time>2026-09-02T16:00:02+00:00</time>
      </trkpt>
      <trkpt lat="50.27257" lon="5.56645">
        <ele>346</ele>
        <time>2026-09-02T16:00:05+00:00</time>
      </trkpt>
      <trkpt lat="50.27275" lon="5.56661">
        <ele>348</ele>
        <time>2026-09-02T16:00:08+00:00</time>
      </trkpt>
      <trkpt lat="50.27299" lon="5.56674">
        <ele>349</ele>
        <time>2026-09-02T16:00:11+00:00</time>
      </trkpt>
      <trkpt lat="50.27326" lon="5.56681">
        <ele>350</ele>
        <time>2026-09-02T16:00:14+00:00</time>
      </trkpt>
      <trkpt lat="50.27371" lon="5.56693">
        <ele>351</ele>
        <time>2026-09-02T16:00:17+00:00</time>
      </trkpt>
      <trkpt lat="50.27396" lon="5.56703">
        <ele>352</ele>
        <time>2026-09-02T16:00:20+00:00</time>
      </trkpt>
      <trkpt lat="50.27406" lon="5.56709">
        <ele>353</ele>
        <time>2026-09-02T16:00:23+00:00</time>
      </trkpt>
      <trkpt lat="50.27431" lon="5.56731">
        <ele>355</ele>
        <time>2026-09-02T16:00:26+00:00</time>
      </trkpt>
      <trkpt lat="50.27451" lon="5.56755">
        <ele>358</ele>
        <time>2026-09-02T16:00:29+00:00</time>
      </trkpt>
      <trkpt lat="50.27481" lon="5.56791">
        <ele>361</ele>
        <time>2026-09-02T16:00:32+00:00</time>
      </trkpt>
      <trkpt lat="50.27494" lon="5.56794">
        <ele>361</ele>
        <time>2026-09-02T16:00:35+00:00</time>
      </trkpt>
      <trkpt lat="50.27511" lon="5.56793">
        <ele>363</ele>
        <time>2026-09-02T16:00:38+00:00</time>
      </trkpt>
      <trkpt lat="50.27525" lon="5.56796">
        <ele>363</ele>
        <time>2026-09-02T16:00:41+00:00</time>
      </trkpt>
      <trkpt lat="50.27534" lon="5.568">
        <ele>363</ele>
        <time>2026-09-02T16:00:44+00:00</time>
      </trkpt>
      <trkpt lat="50.27553" lon="5.56817">
        <ele>365</ele>
        <time>2026-09-02T16:00:47+00:00</time>
      </trkpt>
      <trkpt lat="50.27567" lon="5.56837">
        <ele>366</ele>
        <time>2026-09-02T16:00:50+00:00</time>
      </trkpt>
      <trkpt lat="50.27572" lon="5.5685">
        <ele>367</ele>
        <time>2026-09-02T16:00:53+00:00</time>
      </trkpt>
      <trkpt lat="50.27578" lon="5.56877">
        <ele>367</ele>
        <time>2026-09-02T16:00:56+00:00</time>
      </trkpt>
      <trkpt lat="50.27586" lon="5.56909">
        <ele>367</ele>
        <time>2026-09-02T16:00:59+00:00</time>
      </trkpt>
      <trkpt lat="50.276" lon="5.5694">
        <ele>367</ele>
        <time>2026-09-02T16:01:02+00:00</time>
      </trkpt>
      <trkpt lat="50.27618" lon="5.5698">
        <ele>367</ele>
        <time>2026-09-02T16:01:05+00:00</time>
      </trkpt>
      <trkpt lat="50.27604" lon="5.57013">
        <ele>367</ele>
        <time>2026-09-02T16:01:08+00:00</time>
      </trkpt>
      <trkpt lat="50.27584" lon="5.5706">
        <ele>367</ele>
        <time>2026-09-02T16:01:11+00:00</time>
      </trkpt>
      <trkpt lat="50.27568" lon="5.57099">
        <ele>367</ele>
        <time>2026-09-02T16:01:14+00:00</time>
      </trkpt>
      <trkpt lat="50.27552" lon="5.57138">
        <ele>367</ele>
        <time>2026-09-02T16:01:17+00:00</time>
      </trkpt>
      <trkpt lat="50.27532" lon="5.57186">
        <ele>368</ele>
        <time>2026-09-02T16:01:20+00:00</time>
      </trkpt>
      <trkpt lat="50.27514" lon="5.57231">
        <ele>369</ele>
        <time>2026-09-02T16:01:23+00:00</time>
      </trkpt>
      <trkpt lat="50.27496" lon="5.57275">
        <ele>370</ele>
        <time>2026-09-02T16:01:26+00:00</time>
      </trkpt>
      <trkpt lat="50.27479" lon="5.5732">
        <ele>371</ele>
        <time>2026-09-02T16:01:29+00:00</time>
      </trkpt>
      <trkpt lat="50.2745" lon="5.57392">
        <ele>373</ele>
        <time>2026-09-02T16:01:32+00:00</time>
      </trkpt>
      <trkpt lat="50.27439" lon="5.57423">
        <ele>374</ele>
        <time>2026-09-02T16:01:35+00:00</time>
      </trkpt>
      <trkpt lat="50.27426" lon="5.57458">
        <ele>375</ele>
        <time>2026-09-02T16:01:38+00:00</time>
      </trkpt>
      <trkpt lat="50.27409" lon="5.57493">
        <ele>376</ele>
        <time>2026-09-02T16:01:41+00:00</time>
      </trkpt>
      <trkpt lat="50.27401" lon="5.57514">
        <ele>376</ele>
        <time>2026-09-02T16:01:44+00:00</time>
      </trkpt>
      <trkpt lat="50.27387" lon="5.57561">
        <ele>378</ele>
        <time>2026-09-02T16:01:47+00:00</time>
      </trkpt>
      <trkpt lat="50.27374" lon="5.57608">
        <ele>378</ele>
        <time>2026-09-02T16:01:50+00:00</time>
      </trkpt>
      <trkpt lat="50.2736" lon="5.57654">
        <ele>383</ele>
        <time>2026-09-02T16:01:53+00:00</time>
      </trkpt>
      <trkpt lat="50.27346" lon="5.57701">
        <ele>386</ele>
        <time>2026-09-02T16:01:56+00:00</time>
      </trkpt>
      <trkpt lat="50.27322" lon="5.57785">
        <ele>394</ele>
        <time>2026-09-02T16:01:59+00:00</time>
      </trkpt>
      <trkpt lat="50.27313" lon="5.5783">
        <ele>398</ele>
        <time>2026-09-02T16:02:02+00:00</time>
      </trkpt>
      <trkpt lat="50.27313" lon="5.57854">
        <ele>397</ele>
        <time>2026-09-02T16:02:05+00:00</time>
      </trkpt>
      <trkpt lat="50.27303" lon="5.57876">
        <ele>404</ele>
        <time>2026-09-02T16:02:08+00:00</time>
      </trkpt>
      <trkpt lat="50.27283" lon="5.57895">
        <ele>411</ele>
        <time>2026-09-02T16:02:11+00:00</time>
      </trkpt>
      <trkpt lat="50.27243" lon="5.57919">
        <ele>416</ele>
        <time>2026-09-02T16:02:14+00:00</time>
      </trkpt>
      <trkpt lat="50.27221" lon="5.57939">
        <ele>415</ele>
        <time>2026-09-02T16:02:17+00:00</time>
      </trkpt>
      <trkpt lat="50.27189" lon="5.57967">
        <ele>414</ele>
        <time>2026-09-02T16:02:20+00:00</time>
      </trkpt>
      <trkpt lat="50.27166" lon="5.57983">
        <ele>411</ele>
        <time>2026-09-02T16:02:23+00:00</time>
      </trkpt>
      <trkpt lat="50.27133" lon="5.58006">
        <ele>410</ele>
        <time>2026-09-02T16:02:26+00:00</time>
      </trkpt>
      <trkpt lat="50.27105" lon="5.58032">
        <ele>410</ele>
        <time>2026-09-02T16:02:29+00:00</time>
      </trkpt>
      <trkpt lat="50.27077" lon="5.58058">
        <ele>410</ele>
        <time>2026-09-02T16:02:32+00:00</time>
      </trkpt>
      <trkpt lat="50.27049" lon="5.58083">
        <ele>410</ele>
        <time>2026-09-02T16:02:35+00:00</time>
      </trkpt>
      <trkpt lat="50.27021" lon="5.5811">
        <ele>414</ele>
        <time>2026-09-02T16:02:38+00:00</time>
      </trkpt>
      <trkpt lat="50.26997" lon="5.5813">
        <ele>413</ele>
        <time>2026-09-02T16:02:41+00:00</time>
      </trkpt>
      <trkpt lat="50.26955" lon="5.58165">
        <ele>413</ele>
        <time>2026-09-02T16:02:44+00:00</time>
      </trkpt>
      <trkpt lat="50.26932" lon="5.58188">
        <ele>418</ele>
        <time>2026-09-02T16:02:47+00:00</time>
      </trkpt>
      <trkpt lat="50.26928" lon="5.58201">
        <ele>421</ele>
        <time>2026-09-02T16:02:50+00:00</time>
      </trkpt>
      <trkpt lat="50.26915" lon="5.58213">
        <ele>422</ele>
        <time>2026-09-02T16:02:53+00:00</time>
      </trkpt>
      <trkpt lat="50.269" lon="5.58236">
        <ele>422</ele>
        <time>2026-09-02T16:02:56+00:00</time>
      </trkpt>
      <trkpt lat="50.26873" lon="5.5825">
        <ele>421</ele>
        <time>2026-09-02T16:02:59+00:00</time>
      </trkpt>
      <trkpt lat="50.26849" lon="5.58258">
        <ele>420</ele>
        <time>2026-09-02T16:03:02+00:00</time>
      </trkpt>
      <trkpt lat="50.26823" lon="5.5827">
        <ele>418</ele>
        <time>2026-09-02T16:03:05+00:00</time>
      </trkpt>
      <trkpt lat="50.26776" lon="5.58292">
        <ele>418</ele>
        <time>2026-09-02T16:03:08+00:00</time>
      </trkpt>
      <trkpt lat="50.2675" lon="5.58308">
        <ele>419</ele>
        <time>2026-09-02T16:03:11+00:00</time>
      </trkpt>
      <trkpt lat="50.2672" lon="5.5834">
        <ele>419</ele>
        <time>2026-09-02T16:03:14+00:00</time>
      </trkpt>
      <trkpt lat="50.26691" lon="5.58372">
        <ele>420</ele>
        <time>2026-09-02T16:03:17+00:00</time>
      </trkpt>
      <trkpt lat="50.26661" lon="5.58405">
        <ele>421</ele>
        <time>2026-09-02T16:03:20+00:00</time>
      </trkpt>
      <trkpt lat="50.26632" lon="5.58437">
        <ele>423</ele>
        <time>2026-09-02T16:03:23+00:00</time>
      </trkpt>
      <trkpt lat="50.26602" lon="5.58469">
        <ele>423</ele>
        <time>2026-09-02T16:03:26+00:00</time>
      </trkpt>
      <trkpt lat="50.26569" lon="5.58505">
        <ele>421</ele>
        <time>2026-09-02T16:03:29+00:00</time>
      </trkpt>
      <trkpt lat="50.26547" lon="5.58529">
        <ele>421</ele>
        <time>2026-09-02T16:03:32+00:00</time>
      </trkpt>
      <trkpt lat="50.26513" lon="5.58569">
        <ele>421</ele>
        <time>2026-09-02T16:03:35+00:00</time>
      </trkpt>
      <trkpt lat="50.26489" lon="5.58593">
        <ele>421</ele>
        <time>2026-09-02T16:03:38+00:00</time>
      </trkpt>
      <trkpt lat="50.26464" lon="5.58617">
        <ele>417</ele>
        <time>2026-09-02T16:03:41+00:00</time>
      </trkpt>
      <trkpt lat="50.2644" lon="5.58642">
        <ele>417</ele>
        <time>2026-09-02T16:03:44+00:00</time>
      </trkpt>
      <trkpt lat="50.26415" lon="5.58669">
        <ele>417</ele>
        <time>2026-09-02T16:03:47+00:00</time>
      </trkpt>
      <trkpt lat="50.26391" lon="5.58695">
        <ele>417</ele>
        <time>2026-09-02T16:03:50+00:00</time>
      </trkpt>
      <trkpt lat="50.2636" lon="5.58729">
        <ele>421</ele>
        <time>2026-09-02T16:03:53+00:00</time>
      </trkpt>
      <trkpt lat="50.26336" lon="5.58753">
        <ele>421</ele>
        <time>2026-09-02T16:03:56+00:00</time>
      </trkpt>
      <trkpt lat="50.26292" lon="5.588">
        <ele>421</ele>
        <time>2026-09-02T16:03:59+00:00</time>
      </trkpt>
      <trkpt lat="50.2627" lon="5.58834">
        <ele>420</ele>
        <time>2026-09-02T16:04:02+00:00</time>
      </trkpt>
      <trkpt lat="50.26248" lon="5.58868">
        <ele>419</ele>
        <time>2026-09-02T16:04:05+00:00</time>
      </trkpt>
      <trkpt lat="50.26216" lon="5.58919">
        <ele>415</ele>
        <time>2026-09-02T16:04:08+00:00</time>
      </trkpt>
      <trkpt lat="50.26193" lon="5.58972">
        <ele>412</ele>
        <time>2026-09-02T16:04:11+00:00</time>
      </trkpt>
      <trkpt lat="50.26173" lon="5.5903">
        <ele>408</ele>
        <time>2026-09-02T16:04:14+00:00</time>
      </trkpt>
      <trkpt lat="50.26158" lon="5.59057">
        <ele>402</ele>
        <time>2026-09-02T16:04:17+00:00</time>
      </trkpt>
      <trkpt lat="50.26142" lon="5.59086">
        <ele>400</ele>
        <time>2026-09-02T16:04:20+00:00</time>
      </trkpt>
      <trkpt lat="50.26122" lon="5.59102">
        <ele>399</ele>
        <time>2026-09-02T16:04:23+00:00</time>
      </trkpt>
      <trkpt lat="50.26084" lon="5.59116">
        <ele>389</ele>
        <time>2026-09-02T16:04:26+00:00</time>
      </trkpt>
      <trkpt lat="50.26062" lon="5.59127">
        <ele>388</ele>
        <time>2026-09-02T16:04:29+00:00</time>
      </trkpt>
      <trkpt lat="50.26037" lon="5.59139">
        <ele>392</ele>
        <time>2026-09-02T16:04:32+00:00</time>
      </trkpt>
      <trkpt lat="50.26045" lon="5.59153">
        <ele>386</ele>
        <time>2026-09-02T16:04:35+00:00</time>
      </trkpt>
      <trkpt lat="50.26052" lon="5.59194">
        <ele>397</ele>
        <time>2026-09-02T16:04:38+00:00</time>
      </trkpt>
      <trkpt lat="50.2606" lon="5.59234">
        <ele>405</ele>
        <time>2026-09-02T16:04:41+00:00</time>
      </trkpt>
      <trkpt lat="50.26071" lon="5.59293">
        <ele>407</ele>
        <time>2026-09-02T16:04:44+00:00</time>
      </trkpt>
      <trkpt lat="50.26075" lon="5.59305">
        <ele>407</ele>
        <time>2026-09-02T16:04:47+00:00</time>
      </trkpt>
      <trkpt lat="50.26082" lon="5.59318">
        <ele>409</ele>
        <time>2026-09-02T16:04:50+00:00</time>
      </trkpt>
      <trkpt lat="50.26089" lon="5.59326">
        <ele>408</ele>
        <time>2026-09-02T16:04:53+00:00</time>
      </trkpt>
      <trkpt lat="50.26106" lon="5.59339">
        <ele>412</ele>
        <time>2026-09-02T16:04:56+00:00</time>
      </trkpt>
      <trkpt lat="50.26127" lon="5.59354">
        <ele>412</ele>
        <time>2026-09-02T16:04:59+00:00</time>
      </trkpt>
      <trkpt lat="50.26163" lon="5.59372">
        <ele>417</ele>
        <time>2026-09-02T16:05:02+00:00</time>
      </trkpt>
      <trkpt lat="50.26195" lon="5.59399">
        <ele>424</ele>
        <time>2026-09-02T16:05:05+00:00</time>
      </trkpt>
      <trkpt lat="50.26209" lon="5.59406">
        <ele>427</ele>
        <time>2026-09-02T16:05:08+00:00</time>
      </trkpt>
      <trkpt lat="50.26233" lon="5.5941">
        <ele>437</ele>
        <time>2026-09-02T16:05:11+00:00</time>
      </trkpt>
      <trkpt lat="50.2627" lon="5.5943">
        <ele>438</ele>
        <time>2026-09-02T16:05:14+00:00</time>
      </trkpt>
      <trkpt lat="50.26295" lon="5.59434">
        <ele>439</ele>
        <time>2026-09-02T16:05:17+00:00</time>
      </trkpt>
      <trkpt lat="50.26313" lon="5.59441">
        <ele>440</ele>
        <time>2026-09-02T16:05:20+00:00</time>
      </trkpt>
      <trkpt lat="50.26337" lon="5.59457">
        <ele>440</ele>
        <time>2026-09-02T16:05:23+00:00</time>
      </trkpt>
      <trkpt lat="50.26372" lon="5.59471">
        <ele>455</ele>
        <time>2026-09-02T16:05:26+00:00</time>
      </trkpt>
      <trkpt lat="50.26395" lon="5.59473">
        <ele>459</ele>
        <time>2026-09-02T16:05:29+00:00</time>
      </trkpt>
      <trkpt lat="50.2642" lon="5.59476">
        <ele>459</ele>
        <time>2026-09-02T16:05:32+00:00</time>
      </trkpt>
      <trkpt lat="50.26444" lon="5.59484">
        <ele>463</ele>
        <time>2026-09-02T16:05:35+00:00</time>
      </trkpt>
      <trkpt lat="50.26474" lon="5.59495">
        <ele>468</ele>
        <time>2026-09-02T16:05:38+00:00</time>
      </trkpt>
      <trkpt lat="50.26516" lon="5.59504">
        <ele>468</ele>
        <time>2026-09-02T16:05:41+00:00</time>
      </trkpt>
      <trkpt lat="50.26549" lon="5.59515">
        <ele>467</ele>
        <time>2026-09-02T16:05:44+00:00</time>
      </trkpt>
      <trkpt lat="50.26573" lon="5.59527">
        <ele>467</ele>
        <time>2026-09-02T16:05:47+00:00</time>
      </trkpt>
      <trkpt lat="50.26608" lon="5.59544">
        <ele>466</ele>
        <time>2026-09-02T16:05:50+00:00</time>
      </trkpt>
      <trkpt lat="50.26629" lon="5.59563">
        <ele>468</ele>
        <time>2026-09-02T16:05:53+00:00</time>
      </trkpt>
      <trkpt lat="50.26654" lon="5.59596">
        <ele>470</ele>
        <time>2026-09-02T16:05:56+00:00</time>
      </trkpt>
      <trkpt lat="50.26679" lon="5.59629">
        <ele>465</ele>
        <time>2026-09-02T16:05:59+00:00</time>
      </trkpt>
      <trkpt lat="50.26704" lon="5.59662">
        <ele>461</ele>
        <time>2026-09-02T16:06:02+00:00</time>
      </trkpt>
      <trkpt lat="50.26733" lon="5.59701">
        <ele>457</ele>
        <time>2026-09-02T16:06:05+00:00</time>
      </trkpt>
      <trkpt lat="50.26749" lon="5.5972">
        <ele>459</ele>
        <time>2026-09-02T16:06:08+00:00</time>
      </trkpt>
      <trkpt lat="50.26763" lon="5.59732">
        <ele>459</ele>
        <time>2026-09-02T16:06:11+00:00</time>
      </trkpt>
      <trkpt lat="50.26777" lon="5.59741">
        <ele>461</ele>
        <time>2026-09-02T16:06:14+00:00</time>
      </trkpt>
      <trkpt lat="50.26802" lon="5.59759">
        <ele>466</ele>
        <time>2026-09-02T16:06:17+00:00</time>
      </trkpt>
      <trkpt lat="50.26821" lon="5.59774">
        <ele>473</ele>
        <time>2026-09-02T16:06:20+00:00</time>
      </trkpt>
      <trkpt lat="50.26841" lon="5.5979">
        <ele>473</ele>
        <time>2026-09-02T16:06:23+00:00</time>
      </trkpt>
      <trkpt lat="50.26854" lon="5.59807">
        <ele>471</ele>
        <time>2026-09-02T16:06:26+00:00</time>
      </trkpt>
      <trkpt lat="50.26862" lon="5.59825">
        <ele>473</ele>
        <time>2026-09-02T16:06:29+00:00</time>
      </trkpt>
      <trkpt lat="50.26872" lon="5.59846">
        <ele>476</ele>
        <time>2026-09-02T16:06:32+00:00</time>
      </trkpt>
      <trkpt lat="50.26885" lon="5.59867">
        <ele>476</ele>
        <time>2026-09-02T16:06:35+00:00</time>
      </trkpt>
      <trkpt lat="50.26914" lon="5.599">
        <ele>476</ele>
        <time>2026-09-02T16:06:38+00:00</time>
      </trkpt>
      <trkpt lat="50.26938" lon="5.59919">
        <ele>476</ele>
        <time>2026-09-02T16:06:41+00:00</time>
      </trkpt>
      <trkpt lat="50.26976" lon="5.59951">
        <ele>481</ele>
        <time>2026-09-02T16:06:44+00:00</time>
      </trkpt>
      <trkpt lat="50.26999" lon="5.59968">
        <ele>480</ele>
        <time>2026-09-02T16:06:47+00:00</time>
      </trkpt>
      <trkpt lat="50.27033" lon="5.59992">
        <ele>480</ele>
        <time>2026-09-02T16:06:50+00:00</time>
      </trkpt>
      <trkpt lat="50.27058" lon="5.60013">
        <ele>483</ele>
        <time>2026-09-02T16:06:53+00:00</time>
      </trkpt>
      <trkpt lat="50.27075" lon="5.60035">
        <ele>482</ele>
        <time>2026-09-02T16:06:56+00:00</time>
      </trkpt>
      <trkpt lat="50.27094" lon="5.60058">
        <ele>483</ele>
        <time>2026-09-02T16:06:59+00:00</time>
      </trkpt>
      <trkpt lat="50.27117" lon="5.60038">
        <ele>483</ele>
        <time>2026-09-02T16:07:02+00:00</time>
      </trkpt>
      <trkpt lat="50.27139" lon="5.60013">
        <ele>480</ele>
        <time>2026-09-02T16:07:05+00:00</time>
      </trkpt>
      <trkpt lat="50.27176" lon="5.59972">
        <ele>477</ele>
        <time>2026-09-02T16:07:08+00:00</time>
      </trkpt>
      <trkpt lat="50.27188" lon="5.59967">
        <ele>475</ele>
        <time>2026-09-02T16:07:11+00:00</time>
      </trkpt>
      <trkpt lat="50.27215" lon="5.59968">
        <ele>471</ele>
        <time>2026-09-02T16:07:14+00:00</time>
      </trkpt>
      <trkpt lat="50.27243" lon="5.5997">
        <ele>466</ele>
        <time>2026-09-02T16:07:17+00:00</time>
      </trkpt>
      <trkpt lat="50.27286" lon="5.59972">
        <ele>462</ele>
        <time>2026-09-02T16:07:20+00:00</time>
      </trkpt>
      <trkpt lat="50.27324" lon="5.59979">
        <ele>460</ele>
        <time>2026-09-02T16:07:23+00:00</time>
      </trkpt>
      <trkpt lat="50.27356" lon="5.59976">
        <ele>460</ele>
        <time>2026-09-02T16:07:26+00:00</time>
      </trkpt>
      <trkpt lat="50.27389" lon="5.59973">
        <ele>457</ele>
        <time>2026-09-02T16:07:29+00:00</time>
      </trkpt>
      <trkpt lat="50.27421" lon="5.59971">
        <ele>453</ele>
        <time>2026-09-02T16:07:32+00:00</time>
      </trkpt>
      <trkpt lat="50.27454" lon="5.59968">
        <ele>450</ele>
        <time>2026-09-02T16:07:35+00:00</time>
      </trkpt>
      <trkpt lat="50.2748" lon="5.59969">
        <ele>445</ele>
        <time>2026-09-02T16:07:38+00:00</time>
      </trkpt>
      <trkpt lat="50.27523" lon="5.59972">
        <ele>445</ele>
        <time>2026-09-02T16:07:41+00:00</time>
      </trkpt>
      <trkpt lat="50.27543" lon="5.59964">
        <ele>439</ele>
        <time>2026-09-02T16:07:44+00:00</time>
      </trkpt>
      <trkpt lat="50.27566" lon="5.59949">
        <ele>439</ele>
        <time>2026-09-02T16:07:47+00:00</time>
      </trkpt>
      <trkpt lat="50.27593" lon="5.59934">
        <ele>439</ele>
        <time>2026-09-02T16:07:50+00:00</time>
      </trkpt>
      <trkpt lat="50.27647" lon="5.59904">
        <ele>439</ele>
        <time>2026-09-02T16:07:53+00:00</time>
      </trkpt>
      <trkpt lat="50.27673" lon="5.59883">
        <ele>439</ele>
        <time>2026-09-02T16:07:56+00:00</time>
      </trkpt>
      <trkpt lat="50.277" lon="5.59874">
        <ele>438</ele>
        <time>2026-09-02T16:07:59+00:00</time>
      </trkpt>
      <trkpt lat="50.27726" lon="5.59871">
        <ele>437</ele>
        <time>2026-09-02T16:08:02+00:00</time>
      </trkpt>
      <trkpt lat="50.27751" lon="5.59873">
        <ele>437</ele>
        <time>2026-09-02T16:08:05+00:00</time>
      </trkpt>
      <trkpt lat="50.27787" lon="5.59875">
        <ele>434</ele>
        <time>2026-09-02T16:08:08+00:00</time>
      </trkpt>
      <trkpt lat="50.27822" lon="5.59869">
        <ele>433</ele>
        <time>2026-09-02T16:08:11+00:00</time>
      </trkpt>
      <trkpt lat="50.27844" lon="5.5986">
        <ele>432</ele>
        <time>2026-09-02T16:08:14+00:00</time>
      </trkpt>
      <trkpt lat="50.27864" lon="5.59849">
        <ele>430</ele>
        <time>2026-09-02T16:08:17+00:00</time>
      </trkpt>
      <trkpt lat="50.27885" lon="5.59838">
        <ele>430</ele>
        <time>2026-09-02T16:08:20+00:00</time>
      </trkpt>
      <trkpt lat="50.27882" lon="5.59848">
        <ele>422</ele>
        <time>2026-09-02T16:08:23+00:00</time>
      </trkpt>
      <trkpt lat="50.27864" lon="5.59884">
        <ele>430</ele>
        <time>2026-09-02T16:08:26+00:00</time>
      </trkpt>
      <trkpt lat="50.27846" lon="5.59921">
        <ele>431</ele>
        <time>2026-09-02T16:08:29+00:00</time>
      </trkpt>
      <trkpt lat="50.27816" lon="5.59982">
        <ele>434</ele>
        <time>2026-09-02T16:08:32+00:00</time>
      </trkpt>
      <trkpt lat="50.27798" lon="5.60032">
        <ele>435</ele>
        <time>2026-09-02T16:08:35+00:00</time>
      </trkpt>
      <trkpt lat="50.27777" lon="5.60069">
        <ele>440</ele>
        <time>2026-09-02T16:08:38+00:00</time>
      </trkpt>
      <trkpt lat="50.27757" lon="5.60092">
        <ele>441</ele>
        <time>2026-09-02T16:08:41+00:00</time>
      </trkpt>
      <trkpt lat="50.2773" lon="5.60115">
        <ele>442</ele>
        <time>2026-09-02T16:08:44+00:00</time>
      </trkpt>
      <trkpt lat="50.27705" lon="5.60147">
        <ele>445</ele>
        <time>2026-09-02T16:08:47+00:00</time>
      </trkpt>
      <trkpt lat="50.27686" lon="5.60185">
        <ele>445</ele>
        <time>2026-09-02T16:08:50+00:00</time>
      </trkpt>
      <trkpt lat="50.27674" lon="5.60226">
        <ele>446</ele>
        <time>2026-09-02T16:08:53+00:00</time>
      </trkpt>
      <trkpt lat="50.27662" lon="5.60274">
        <ele>453</ele>
        <time>2026-09-02T16:08:56+00:00</time>
      </trkpt>
      <trkpt lat="50.27647" lon="5.60323">
        <ele>454</ele>
        <time>2026-09-02T16:08:59+00:00</time>
      </trkpt>
      <trkpt lat="50.2764" lon="5.60354">
        <ele>457</ele>
        <time>2026-09-02T16:09:02+00:00</time>
      </trkpt>
      <trkpt lat="50.27635" lon="5.60392">
        <ele>471</ele>
        <time>2026-09-02T16:09:05+00:00</time>
      </trkpt>
      <trkpt lat="50.27629" lon="5.60443">
        <ele>471</ele>
        <time>2026-09-02T16:09:08+00:00</time>
      </trkpt>
      <trkpt lat="50.27624" lon="5.60488">
        <ele>472</ele>
        <time>2026-09-02T16:09:11+00:00</time>
      </trkpt>
      <trkpt lat="50.2762" lon="5.60533">
        <ele>472</ele>
        <time>2026-09-02T16:09:14+00:00</time>
      </trkpt>
      <trkpt lat="50.27615" lon="5.60582">
        <ele>471</ele>
        <time>2026-09-02T16:09:17+00:00</time>
      </trkpt>
      <trkpt lat="50.27604" lon="5.6064">
        <ele>474</ele>
        <time>2026-09-02T16:09:20+00:00</time>
      </trkpt>
      <trkpt lat="50.27593" lon="5.6068">
        <ele>478</ele>
        <time>2026-09-02T16:09:23+00:00</time>
      </trkpt>
      <trkpt lat="50.27583" lon="5.60738">
        <ele>485</ele>
        <time>2026-09-02T16:09:26+00:00</time>
      </trkpt>
      <trkpt lat="50.2758" lon="5.6077">
        <ele>487</ele>
        <time>2026-09-02T16:09:29+00:00</time>
      </trkpt>
      <trkpt lat="50.27578" lon="5.60803">
        <ele>488</ele>
        <time>2026-09-02T16:09:32+00:00</time>
      </trkpt>
      <trkpt lat="50.2758" lon="5.60856">
        <ele>490</ele>
        <time>2026-09-02T16:09:35+00:00</time>
      </trkpt>
      <trkpt lat="50.27579" lon="5.60908">
        <ele>491</ele>
        <time>2026-09-02T16:09:38+00:00</time>
      </trkpt>
      <trkpt lat="50.27572" lon="5.60974">
        <ele>494</ele>
        <time>2026-09-02T16:09:41+00:00</time>
      </trkpt>
      <trkpt lat="50.27568" lon="5.61004">
        <ele>493</ele>
        <time>2026-09-02T16:09:44+00:00</time>
      </trkpt>
      <trkpt lat="50.27563" lon="5.61015">
        <ele>498</ele>
        <time>2026-09-02T16:09:47+00:00</time>
      </trkpt>
      <trkpt lat="50.27563" lon="5.61064">
        <ele>493</ele>
        <time>2026-09-02T16:09:50+00:00</time>
      </trkpt>
      <trkpt lat="50.27563" lon="5.61113">
        <ele>491</ele>
        <time>2026-09-02T16:09:53+00:00</time>
      </trkpt>
      <trkpt lat="50.27562" lon="5.61162">
        <ele>491</ele>
        <time>2026-09-02T16:09:56+00:00</time>
      </trkpt>
      <trkpt lat="50.27562" lon="5.61232">
        <ele>490</ele>
        <time>2026-09-02T16:09:59+00:00</time>
      </trkpt>
      <trkpt lat="50.27562" lon="5.61291">
        <ele>490</ele>
        <time>2026-09-02T16:10:02+00:00</time>
      </trkpt>
      <trkpt lat="50.27562" lon="5.6135">
        <ele>490</ele>
        <time>2026-09-02T16:10:05+00:00</time>
      </trkpt>
      <trkpt lat="50.27562" lon="5.61409">
        <ele>492</ele>
        <time>2026-09-02T16:10:08+00:00</time>
      </trkpt>
      <trkpt lat="50.27562" lon="5.61469">
        <ele>492</ele>
        <time>2026-09-02T16:10:11+00:00</time>
      </trkpt>
      <trkpt lat="50.27563" lon="5.61528">
        <ele>493</ele>
        <time>2026-09-02T16:10:14+00:00</time>
      </trkpt>
      <trkpt lat="50.27563" lon="5.61587">
        <ele>494</ele>
        <time>2026-09-02T16:10:17+00:00</time>
      </trkpt>
      <trkpt lat="50.27563" lon="5.61646">
        <ele>498</ele>
        <time>2026-09-02T16:10:20+00:00</time>
      </trkpt>
      <trkpt lat="50.27563" lon="5.61717">
        <ele>498</ele>
        <time>2026-09-02T16:10:23+00:00</time>
      </trkpt>
      <trkpt lat="50.2757" lon="5.61761">
        <ele>498</ele>
        <time>2026-09-02T16:10:26+00:00</time>
      </trkpt>
      <trkpt lat="50.27576" lon="5.61781">
        <ele>499</ele>
        <time>2026-09-02T16:10:29+00:00</time>
      </trkpt>
      <trkpt lat="50.27578" lon="5.61797">
        <ele>498</ele>
        <time>2026-09-02T16:10:32+00:00</time>
      </trkpt>
      <trkpt lat="50.27572" lon="5.61848">
        <ele>498</ele>
        <time>2026-09-02T16:10:35+00:00</time>
      </trkpt>
      <trkpt lat="50.27567" lon="5.61898">
        <ele>499</ele>
        <time>2026-09-02T16:10:38+00:00</time>
      </trkpt>
      <trkpt lat="50.27562" lon="5.61949">
        <ele>508</ele>
        <time>2026-09-02T16:10:41+00:00</time>
      </trkpt>
      <trkpt lat="50.27555" lon="5.6201">
        <ele>513</ele>
        <time>2026-09-02T16:10:44+00:00</time>
      </trkpt>
      <trkpt lat="50.27552" lon="5.62061">
        <ele>518</ele>
        <time>2026-09-02T16:10:47+00:00</time>
      </trkpt>
      <trkpt lat="50.27544" lon="5.62125">
        <ele>518</ele>
        <time>2026-09-02T16:10:50+00:00</time>
      </trkpt>
      <trkpt lat="50.27543" lon="5.62149">
        <ele>517</ele>
        <time>2026-09-02T16:10:53+00:00</time>
      </trkpt>
      <trkpt lat="50.27545" lon="5.62186">
        <ele>522</ele>
        <time>2026-09-02T16:10:56+00:00</time>
      </trkpt>
      <trkpt lat="50.27549" lon="5.62219">
        <ele>527</ele>
        <time>2026-09-02T16:10:59+00:00</time>
      </trkpt>
      <trkpt lat="50.27549" lon="5.62247">
        <ele>527</ele>
        <time>2026-09-02T16:11:02+00:00</time>
      </trkpt>
      <trkpt lat="50.27548" lon="5.62271">
        <ele>529</ele>
        <time>2026-09-02T16:11:05+00:00</time>
      </trkpt>
      <trkpt lat="50.27544" lon="5.62303">
        <ele>527</ele>
        <time>2026-09-02T16:11:08+00:00</time>
      </trkpt>
      <trkpt lat="50.27537" lon="5.62356">
        <ele>527</ele>
        <time>2026-09-02T16:11:11+00:00</time>
      </trkpt>
      <trkpt lat="50.27532" lon="5.62384">
        <ele>526</ele>
        <time>2026-09-02T16:11:14+00:00</time>
      </trkpt>
      <trkpt lat="50.27521" lon="5.62426">
        <ele>526</ele>
        <time>2026-09-02T16:11:17+00:00</time>
      </trkpt>
      <trkpt lat="50.2751" lon="5.62467">
        <ele>527</ele>
        <time>2026-09-02T16:11:20+00:00</time>
      </trkpt>
      <trkpt lat="50.27499" lon="5.6251">
        <ele>527</ele>
        <time>2026-09-02T16:11:23+00:00</time>
      </trkpt>
      <trkpt lat="50.27489" lon="5.62543">
        <ele>526</ele>
        <time>2026-09-02T16:11:26+00:00</time>
      </trkpt>
      <trkpt lat="50.27487" lon="5.62562">
        <ele>526</ele>
        <time>2026-09-02T16:11:29+00:00</time>
      </trkpt>
      <trkpt lat="50.27478" lon="5.62538">
        <ele>526</ele>
        <time>2026-09-02T16:11:32+00:00</time>
      </trkpt>
      <trkpt lat="50.27468" lon="5.62511">
        <ele>527</ele>
        <time>2026-09-02T16:11:35+00:00</time>
      </trkpt>
      <trkpt lat="50.2745" lon="5.62476">
        <ele>527</ele>
        <time>2026-09-02T16:11:38+00:00</time>
      </trkpt>
      <trkpt lat="50.27433" lon="5.62439">
        <ele>527</ele>
        <time>2026-09-02T16:11:41+00:00</time>
      </trkpt>
      <trkpt lat="50.27416" lon="5.62402">
        <ele>527</ele>
        <time>2026-09-02T16:11:44+00:00</time>
      </trkpt>
      <trkpt lat="50.27397" lon="5.62362">
        <ele>531</ele>
        <time>2026-09-02T16:11:47+00:00</time>
      </trkpt>
      <trkpt lat="50.27377" lon="5.62305">
        <ele>532</ele>
        <time>2026-09-02T16:11:50+00:00</time>
      </trkpt>
      <trkpt lat="50.27368" lon="5.62271">
        <ele>530</ele>
        <time>2026-09-02T16:11:53+00:00</time>
      </trkpt>
      <trkpt lat="50.27358" lon="5.62232">
        <ele>530</ele>
        <time>2026-09-02T16:11:56+00:00</time>
      </trkpt>
      <trkpt lat="50.27342" lon="5.62188">
        <ele>530</ele>
        <time>2026-09-02T16:11:59+00:00</time>
      </trkpt>
      <trkpt lat="50.2733" lon="5.62144">
        <ele>535</ele>
        <time>2026-09-02T16:12:02+00:00</time>
      </trkpt>
      <trkpt lat="50.27311" lon="5.62106">
        <ele>537</ele>
        <time>2026-09-02T16:12:05+00:00</time>
      </trkpt>
      <trkpt lat="50.27291" lon="5.62072">
        <ele>537</ele>
        <time>2026-09-02T16:12:08+00:00</time>
      </trkpt>
      <trkpt lat="50.27273" lon="5.62046">
        <ele>534</ele>
        <time>2026-09-02T16:12:11+00:00</time>
      </trkpt>
      <trkpt lat="50.27252" lon="5.62015">
        <ele>534</ele>
        <time>2026-09-02T16:12:14+00:00</time>
      </trkpt>
      <trkpt lat="50.27242" lon="5.61995">
        <ele>535</ele>
        <time>2026-09-02T16:12:17+00:00</time>
      </trkpt>
      <trkpt lat="50.27234" lon="5.61971">
        <ele>533</ele>
        <time>2026-09-02T16:12:20+00:00</time>
      </trkpt>
      <trkpt lat="50.27224" lon="5.61942">
        <ele>532</ele>
        <time>2026-09-02T16:12:23+00:00</time>
      </trkpt>
      <trkpt lat="50.27208" lon="5.61909">
        <ele>530</ele>
        <time>2026-09-02T16:12:26+00:00</time>
      </trkpt>
      <trkpt lat="50.27182" lon="5.61858">
        <ele>523</ele>
        <time>2026-09-02T16:12:29+00:00</time>
      </trkpt>
      <trkpt lat="50.2716" lon="5.61821">
        <ele>520</ele>
        <time>2026-09-02T16:12:32+00:00</time>
      </trkpt>
      <trkpt lat="50.2714" lon="5.61793">
        <ele>518</ele>
        <time>2026-09-02T16:12:35+00:00</time>
      </trkpt>
      <trkpt lat="50.27105" lon="5.61745">
        <ele>515</ele>
        <time>2026-09-02T16:12:38+00:00</time>
      </trkpt>
      <trkpt lat="50.27076" lon="5.617">
        <ele>513</ele>
        <time>2026-09-02T16:12:41+00:00</time>
      </trkpt>
      <trkpt lat="50.27056" lon="5.61681">
        <ele>513</ele>
        <time>2026-09-02T16:12:44+00:00</time>
      </trkpt>
      <trkpt lat="50.27033" lon="5.61659">
        <ele>513</ele>
        <time>2026-09-02T16:12:47+00:00</time>
      </trkpt>
      <trkpt lat="50.27007" lon="5.61637">
        <ele>510</ele>
        <time>2026-09-02T16:12:50+00:00</time>
      </trkpt>
      <trkpt lat="50.26987" lon="5.61616">
        <ele>509</ele>
        <time>2026-09-02T16:12:53+00:00</time>
      </trkpt>
      <trkpt lat="50.26962" lon="5.61589">
        <ele>508</ele>
        <time>2026-09-02T16:12:56+00:00</time>
      </trkpt>
      <trkpt lat="50.26941" lon="5.61568">
        <ele>507</ele>
        <time>2026-09-02T16:12:59+00:00</time>
      </trkpt>
      <trkpt lat="50.26912" lon="5.6154">
        <ele>505</ele>
        <time>2026-09-02T16:13:02+00:00</time>
      </trkpt>
      <trkpt lat="50.26875" lon="5.61516">
        <ele>503</ele>
        <time>2026-09-02T16:13:05+00:00</time>
      </trkpt>
      <trkpt lat="50.26842" lon="5.61504">
        <ele>498</ele>
        <time>2026-09-02T16:13:08+00:00</time>
      </trkpt>
      <trkpt lat="50.26806" lon="5.61481">
        <ele>496</ele>
        <time>2026-09-02T16:13:11+00:00</time>
      </trkpt>
      <trkpt lat="50.26785" lon="5.61464">
        <ele>493</ele>
        <time>2026-09-02T16:13:14+00:00</time>
      </trkpt>
      <trkpt lat="50.2676" lon="5.61445">
        <ele>491</ele>
        <time>2026-09-02T16:13:17+00:00</time>
      </trkpt>
      <trkpt lat="50.26722" lon="5.61421">
        <ele>491</ele>
        <time>2026-09-02T16:13:20+00:00</time>
      </trkpt>
      <trkpt lat="50.26709" lon="5.61388">
        <ele>491</ele>
        <time>2026-09-02T16:13:23+00:00</time>
      </trkpt>
      <trkpt lat="50.26691" lon="5.61345">
        <ele>490</ele>
        <time>2026-09-02T16:13:26+00:00</time>
      </trkpt>
      <trkpt lat="50.26678" lon="5.6132">
        <ele>489</ele>
        <time>2026-09-02T16:13:29+00:00</time>
      </trkpt>
      <trkpt lat="50.26659" lon="5.61298">
        <ele>485</ele>
        <time>2026-09-02T16:13:32+00:00</time>
      </trkpt>
      <trkpt lat="50.26635" lon="5.61277">
        <ele>477</ele>
        <time>2026-09-02T16:13:35+00:00</time>
      </trkpt>
      <trkpt lat="50.26594" lon="5.61242">
        <ele>471</ele>
        <time>2026-09-02T16:13:38+00:00</time>
      </trkpt>
      <trkpt lat="50.26574" lon="5.61219">
        <ele>470</ele>
        <time>2026-09-02T16:13:41+00:00</time>
      </trkpt>
      <trkpt lat="50.26549" lon="5.6119">
        <ele>471</ele>
        <time>2026-09-02T16:13:44+00:00</time>
      </trkpt>
      <trkpt lat="50.26533" lon="5.61163">
        <ele>473</ele>
        <time>2026-09-02T16:13:47+00:00</time>
      </trkpt>
      <trkpt lat="50.26515" lon="5.61133">
        <ele>485</ele>
        <time>2026-09-02T16:13:50+00:00</time>
      </trkpt>
      <trkpt lat="50.2649" lon="5.61103">
        <ele>486</ele>
        <time>2026-09-02T16:13:53+00:00</time>
      </trkpt>
      <trkpt lat="50.26465" lon="5.61073">
        <ele>486</ele>
        <time>2026-09-02T16:13:56+00:00</time>
      </trkpt>
      <trkpt lat="50.2642" lon="5.6102">
        <ele>483</ele>
        <time>2026-09-02T16:13:59+00:00</time>
      </trkpt>
      <trkpt lat="50.26399" lon="5.6099">
        <ele>482</ele>
        <time>2026-09-02T16:14:02+00:00</time>
      </trkpt>
      <trkpt lat="50.26359" lon="5.60932">
        <ele>482</ele>
        <time>2026-09-02T16:14:05+00:00</time>
      </trkpt>
      <trkpt lat="50.26333" lon="5.60883">
        <ele>478</ele>
        <time>2026-09-02T16:14:08+00:00</time>
      </trkpt>
      <trkpt lat="50.26316" lon="5.60838">
        <ele>477</ele>
        <time>2026-09-02T16:14:11+00:00</time>
      </trkpt>
      <trkpt lat="50.26299" lon="5.60792">
        <ele>477</ele>
        <time>2026-09-02T16:14:14+00:00</time>
      </trkpt>
      <trkpt lat="50.26282" lon="5.60747">
        <ele>476</ele>
        <time>2026-09-02T16:14:17+00:00</time>
      </trkpt>
      <trkpt lat="50.26257" lon="5.60679">
        <ele>472</ele>
        <time>2026-09-02T16:14:20+00:00</time>
      </trkpt>
      <trkpt lat="50.26225" lon="5.60637">
        <ele>471</ele>
        <time>2026-09-02T16:14:23+00:00</time>
      </trkpt>
      <trkpt lat="50.26204" lon="5.60606">
        <ele>465</ele>
        <time>2026-09-02T16:14:26+00:00</time>
      </trkpt>
      <trkpt lat="50.26165" lon="5.60548">
        <ele>446</ele>
        <time>2026-09-02T16:14:29+00:00</time>
      </trkpt>
      <trkpt lat="50.26147" lon="5.60527">
        <ele>444</ele>
        <time>2026-09-02T16:14:32+00:00</time>
      </trkpt>
      <trkpt lat="50.26132" lon="5.60517">
        <ele>442</ele>
        <time>2026-09-02T16:14:35+00:00</time>
      </trkpt>
      <trkpt lat="50.26118" lon="5.60516">
        <ele>441</ele>
        <time>2026-09-02T16:14:38+00:00</time>
      </trkpt>
      <trkpt lat="50.26103" lon="5.60515">
        <ele>440</ele>
        <time>2026-09-02T16:14:41+00:00</time>
      </trkpt>
      <trkpt lat="50.26085" lon="5.6051">
        <ele>438</ele>
        <time>2026-09-02T16:14:44+00:00</time>
      </trkpt>
      <trkpt lat="50.26066" lon="5.60489">
        <ele>436</ele>
        <time>2026-09-02T16:14:47+00:00</time>
      </trkpt>
      <trkpt lat="50.26045" lon="5.60465">
        <ele>433</ele>
        <time>2026-09-02T16:14:50+00:00</time>
      </trkpt>
      <trkpt lat="50.26023" lon="5.60444">
        <ele>429</ele>
        <time>2026-09-02T16:14:53+00:00</time>
      </trkpt>
      <trkpt lat="50.25993" lon="5.60414">
        <ele>426</ele>
        <time>2026-09-02T16:14:56+00:00</time>
      </trkpt>
      <trkpt lat="50.25982" lon="5.60397">
        <ele>424</ele>
        <time>2026-09-02T16:14:59+00:00</time>
      </trkpt>
      <trkpt lat="50.25974" lon="5.60382">
        <ele>422</ele>
        <time>2026-09-02T16:15:02+00:00</time>
      </trkpt>
      <trkpt lat="50.2597" lon="5.60367">
        <ele>422</ele>
        <time>2026-09-02T16:15:05+00:00</time>
      </trkpt>
      <trkpt lat="50.25964" lon="5.60333">
        <ele>422</ele>
        <time>2026-09-02T16:15:08+00:00</time>
      </trkpt>
      <trkpt lat="50.25954" lon="5.60279">
        <ele>418</ele>
        <time>2026-09-02T16:15:11+00:00</time>
      </trkpt>
      <trkpt lat="50.25946" lon="5.60258">
        <ele>415</ele>
        <time>2026-09-02T16:15:14+00:00</time>
      </trkpt>
      <trkpt lat="50.25929" lon="5.60228">
        <ele>413</ele>
        <time>2026-09-02T16:15:17+00:00</time>
      </trkpt>
      <trkpt lat="50.2591" lon="5.6019">
        <ele>411</ele>
        <time>2026-09-02T16:15:20+00:00</time>
      </trkpt>
      <trkpt lat="50.25896" lon="5.60155">
        <ele>408</ele>
        <time>2026-09-02T16:15:23+00:00</time>
      </trkpt>
      <trkpt lat="50.25886" lon="5.60093">
        <ele>407</ele>
        <time>2026-09-02T16:15:26+00:00</time>
      </trkpt>
      <trkpt lat="50.25879" lon="5.6006">
        <ele>407</ele>
        <time>2026-09-02T16:15:29+00:00</time>
      </trkpt>
      <trkpt lat="50.25876" lon="5.60019">
        <ele>408</ele>
        <time>2026-09-02T16:15:32+00:00</time>
      </trkpt>
      <trkpt lat="50.25876" lon="5.59982">
        <ele>408</ele>
        <time>2026-09-02T16:15:35+00:00</time>
      </trkpt>
      <trkpt lat="50.25876" lon="5.59936">
        <ele>403</ele>
        <time>2026-09-02T16:15:38+00:00</time>
      </trkpt>
      <trkpt lat="50.25885" lon="5.59913">
        <ele>399</ele>
        <time>2026-09-02T16:15:41+00:00</time>
      </trkpt>
      <trkpt lat="50.25895" lon="5.59898">
        <ele>395</ele>
        <time>2026-09-02T16:15:44+00:00</time>
      </trkpt>
      <trkpt lat="50.25907" lon="5.59889">
        <ele>391</ele>
        <time>2026-09-02T16:15:47+00:00</time>
      </trkpt>
      <trkpt lat="50.2593" lon="5.59878">
        <ele>384</ele>
        <time>2026-09-02T16:15:50+00:00</time>
      </trkpt>
      <trkpt lat="50.25957" lon="5.59865">
        <ele>383</ele>
        <time>2026-09-02T16:15:53+00:00</time>
      </trkpt>
      <trkpt lat="50.25988" lon="5.59846">
        <ele>382</ele>
        <time>2026-09-02T16:15:56+00:00</time>
      </trkpt>
      <trkpt lat="50.25981" lon="5.59804">
        <ele>378</ele>
        <time>2026-09-02T16:15:59+00:00</time>
      </trkpt>
      <trkpt lat="50.25969" lon="5.59771">
        <ele>372</ele>
        <time>2026-09-02T16:16:02+00:00</time>
      </trkpt>
      <trkpt lat="50.25952" lon="5.59734">
        <ele>365</ele>
        <time>2026-09-02T16:16:05+00:00</time>
      </trkpt>
      <trkpt lat="50.25929" lon="5.59696">
        <ele>364</ele>
        <time>2026-09-02T16:16:08+00:00</time>
      </trkpt>
      <trkpt lat="50.25907" lon="5.59642">
        <ele>358</ele>
        <time>2026-09-02T16:16:11+00:00</time>
      </trkpt>
      <trkpt lat="50.25894" lon="5.59613">
        <ele>352</ele>
        <time>2026-09-02T16:16:14+00:00</time>
      </trkpt>
      <trkpt lat="50.25872" lon="5.59584">
        <ele>345</ele>
        <time>2026-09-02T16:16:17+00:00</time>
      </trkpt>
      <trkpt lat="50.25859" lon="5.59577">
        <ele>342</ele>
        <time>2026-09-02T16:16:20+00:00</time>
      </trkpt>
      <trkpt lat="50.25846" lon="5.59575">
        <ele>342</ele>
        <time>2026-09-02T16:16:23+00:00</time>
      </trkpt>
      <trkpt lat="50.25832" lon="5.59578">
        <ele>337</ele>
        <time>2026-09-02T16:16:26+00:00</time>
      </trkpt>
      <trkpt lat="50.25818" lon="5.59588">
        <ele>340</ele>
        <time>2026-09-02T16:16:29+00:00</time>
      </trkpt>
      <trkpt lat="50.25804" lon="5.59599">
        <ele>340</ele>
        <time>2026-09-02T16:16:32+00:00</time>
      </trkpt>
      <trkpt lat="50.25772" lon="5.59635">
        <ele>335</ele>
        <time>2026-09-02T16:16:35+00:00</time>
      </trkpt>
      <trkpt lat="50.25759" lon="5.5964">
        <ele>332</ele>
        <time>2026-09-02T16:16:38+00:00</time>
      </trkpt>
      <trkpt lat="50.25743" lon="5.59636">
        <ele>330</ele>
        <time>2026-09-02T16:16:41+00:00</time>
      </trkpt>
      <trkpt lat="50.25724" lon="5.59632">
        <ele>329</ele>
        <time>2026-09-02T16:16:44+00:00</time>
      </trkpt>
      <trkpt lat="50.25708" lon="5.59639">
        <ele>328</ele>
        <time>2026-09-02T16:16:47+00:00</time>
      </trkpt>
      <trkpt lat="50.25695" lon="5.59631">
        <ele>329</ele>
        <time>2026-09-02T16:16:50+00:00</time>
      </trkpt>
      <trkpt lat="50.25691" lon="5.59621">
        <ele>328</ele>
        <time>2026-09-02T16:16:53+00:00</time>
      </trkpt>
      <trkpt lat="50.25692" lon="5.5961">
        <ele>328</ele>
        <time>2026-09-02T16:16:56+00:00</time>
      </trkpt>
      <trkpt lat="50.25679" lon="5.59605">
        <ele>329</ele>
        <time>2026-09-02T16:16:59+00:00</time>
      </trkpt>
      <trkpt lat="50.25652" lon="5.59606">
        <ele>330</ele>
        <time>2026-09-02T16:17:02+00:00</time>
      </trkpt>
      <trkpt lat="50.25607" lon="5.59609">
        <ele>330</ele>
        <time>2026-09-02T16:17:05+00:00</time>
      </trkpt>
      <trkpt lat="50.25607" lon="5.59601">
        <ele>330</ele>
        <time>2026-09-02T16:17:08+00:00</time>
      </trkpt>
      <trkpt lat="50.25582" lon="5.596">
        <ele>330</ele>
        <time>2026-09-02T16:17:11+00:00</time>
      </trkpt>
      <trkpt lat="50.25542" lon="5.59598">
        <ele>342</ele>
        <time>2026-09-02T16:17:14+00:00</time>
      </trkpt>
      <trkpt lat="50.25519" lon="5.59584">
        <ele>351</ele>
        <time>2026-09-02T16:17:17+00:00</time>
      </trkpt>
      <trkpt lat="50.25489" lon="5.59567">
        <ele>360</ele>
        <time>2026-09-02T16:17:20+00:00</time>
      </trkpt>
      <trkpt lat="50.25462" lon="5.59525">
        <ele>367</ele>
        <time>2026-09-02T16:17:23+00:00</time>
      </trkpt>
      <trkpt lat="50.25436" lon="5.59479">
        <ele>370</ele>
        <time>2026-09-02T16:17:26+00:00</time>
      </trkpt>
      <trkpt lat="50.25423" lon="5.59447">
        <ele>371</ele>
        <time>2026-09-02T16:17:29+00:00</time>
      </trkpt>
      <trkpt lat="50.25408" lon="5.59407">
        <ele>372</ele>
        <time>2026-09-02T16:17:32+00:00</time>
      </trkpt>
      <trkpt lat="50.25393" lon="5.59382">
        <ele>374</ele>
        <time>2026-09-02T16:17:35+00:00</time>
      </trkpt>
      <trkpt lat="50.25377" lon="5.59357">
        <ele>380</ele>
        <time>2026-09-02T16:17:38+00:00</time>
      </trkpt>
      <trkpt lat="50.25355" lon="5.59338">
        <ele>383</ele>
        <time>2026-09-02T16:17:41+00:00</time>
      </trkpt>
      <trkpt lat="50.25326" lon="5.59312">
        <ele>385</ele>
        <time>2026-09-02T16:17:44+00:00</time>
      </trkpt>
      <trkpt lat="50.25318" lon="5.59302">
        <ele>385</ele>
        <time>2026-09-02T16:17:47+00:00</time>
      </trkpt>
      <trkpt lat="50.25305" lon="5.59284">
        <ele>385</ele>
        <time>2026-09-02T16:17:50+00:00</time>
      </trkpt>
      <trkpt lat="50.2529" lon="5.59264">
        <ele>383</ele>
        <time>2026-09-02T16:17:53+00:00</time>
      </trkpt>
      <trkpt lat="50.25262" lon="5.59222">
        <ele>372</ele>
        <time>2026-09-02T16:17:56+00:00</time>
      </trkpt>
      <trkpt lat="50.25251" lon="5.59192">
        <ele>375</ele>
        <time>2026-09-02T16:17:59+00:00</time>
      </trkpt>
      <trkpt lat="50.25241" lon="5.59181">
        <ele>373</ele>
        <time>2026-09-02T16:18:02+00:00</time>
      </trkpt>
      <trkpt lat="50.25229" lon="5.59192">
        <ele>378</ele>
        <time>2026-09-02T16:18:05+00:00</time>
      </trkpt>
      <trkpt lat="50.25201" lon="5.59198">
        <ele>380</ele>
        <time>2026-09-02T16:18:08+00:00</time>
      </trkpt>
      <trkpt lat="50.25149" lon="5.59211">
        <ele>379</ele>
        <time>2026-09-02T16:18:11+00:00</time>
      </trkpt>
      <trkpt lat="50.25116" lon="5.59214">
        <ele>379</ele>
        <time>2026-09-02T16:18:14+00:00</time>
      </trkpt>
      <trkpt lat="50.25086" lon="5.59209">
        <ele>375</ele>
        <time>2026-09-02T16:18:17+00:00</time>
      </trkpt>
      <trkpt lat="50.25068" lon="5.59209">
        <ele>363</ele>
        <time>2026-09-02T16:18:20+00:00</time>
      </trkpt>
      <trkpt lat="50.25059" lon="5.59216">
        <ele>361</ele>
        <time>2026-09-02T16:18:23+00:00</time>
      </trkpt>
      <trkpt lat="50.25053" lon="5.59233">
        <ele>364</ele>
        <time>2026-09-02T16:18:26+00:00</time>
      </trkpt>
      <trkpt lat="50.25051" lon="5.59249">
        <ele>364</ele>
        <time>2026-09-02T16:18:29+00:00</time>
      </trkpt>
      <trkpt lat="50.25058" lon="5.59281">
        <ele>363</ele>
        <time>2026-09-02T16:18:32+00:00</time>
      </trkpt>
      <trkpt lat="50.25068" lon="5.59329">
        <ele>363</ele>
        <time>2026-09-02T16:18:35+00:00</time>
      </trkpt>
      <trkpt lat="50.25071" lon="5.59358">
        <ele>363</ele>
        <time>2026-09-02T16:18:38+00:00</time>
      </trkpt>
      <trkpt lat="50.25054" lon="5.59366">
        <ele>366</ele>
        <time>2026-09-02T16:18:41+00:00</time>
      </trkpt>
      <trkpt lat="50.25036" lon="5.59385">
        <ele>366</ele>
        <time>2026-09-02T16:18:44+00:00</time>
      </trkpt>
      <trkpt lat="50.2502" lon="5.59392">
        <ele>369</ele>
        <time>2026-09-02T16:18:47+00:00</time>
      </trkpt>
      <trkpt lat="50.25001" lon="5.5939">
        <ele>370</ele>
        <time>2026-09-02T16:18:50+00:00</time>
      </trkpt>
      <trkpt lat="50.24971" lon="5.59388">
        <ele>372</ele>
        <time>2026-09-02T16:18:53+00:00</time>
      </trkpt>
      <trkpt lat="50.24936" lon="5.59383">
        <ele>381</ele>
        <time>2026-09-02T16:18:56+00:00</time>
      </trkpt>
      <trkpt lat="50.24924" lon="5.59366">
        <ele>387</ele>
        <time>2026-09-02T16:18:59+00:00</time>
      </trkpt>
      <trkpt lat="50.24915" lon="5.59346">
        <ele>383</ele>
        <time>2026-09-02T16:19:02+00:00</time>
      </trkpt>
      <trkpt lat="50.24912" lon="5.5931">
        <ele>385</ele>
        <time>2026-09-02T16:19:05+00:00</time>
      </trkpt>
      <trkpt lat="50.249" lon="5.59284">
        <ele>396</ele>
        <time>2026-09-02T16:19:08+00:00</time>
      </trkpt>
      <trkpt lat="50.24887" lon="5.59276">
        <ele>396</ele>
        <time>2026-09-02T16:19:11+00:00</time>
      </trkpt>
      <trkpt lat="50.2486" lon="5.59279">
        <ele>404</ele>
        <time>2026-09-02T16:19:14+00:00</time>
      </trkpt>
      <trkpt lat="50.2485" lon="5.59287">
        <ele>407</ele>
        <time>2026-09-02T16:19:17+00:00</time>
      </trkpt>
      <trkpt lat="50.24836" lon="5.59293">
        <ele>408</ele>
        <time>2026-09-02T16:19:20+00:00</time>
      </trkpt>
      <trkpt lat="50.24822" lon="5.59303">
        <ele>411</ele>
        <time>2026-09-02T16:19:23+00:00</time>
      </trkpt>
      <trkpt lat="50.24819" lon="5.59318">
        <ele>415</ele>
        <time>2026-09-02T16:19:26+00:00</time>
      </trkpt>
      <trkpt lat="50.248" lon="5.59338">
        <ele>418</ele>
        <time>2026-09-02T16:19:29+00:00</time>
      </trkpt>
      <trkpt lat="50.24777" lon="5.59362">
        <ele>420</ele>
        <time>2026-09-02T16:19:32+00:00</time>
      </trkpt>
      <trkpt lat="50.24747" lon="5.59376">
        <ele>423</ele>
        <time>2026-09-02T16:19:35+00:00</time>
      </trkpt>
      <trkpt lat="50.24715" lon="5.594">
        <ele>428</ele>
        <time>2026-09-02T16:19:38+00:00</time>
      </trkpt>
      <trkpt lat="50.24678" lon="5.59412">
        <ele>430</ele>
        <time>2026-09-02T16:19:41+00:00</time>
      </trkpt>
      <trkpt lat="50.24668" lon="5.5941">
        <ele>435</ele>
        <time>2026-09-02T16:19:44+00:00</time>
      </trkpt>
      <trkpt lat="50.24648" lon="5.59419">
        <ele>433</ele>
        <time>2026-09-02T16:19:47+00:00</time>
      </trkpt>
      <trkpt lat="50.24637" lon="5.59428">
        <ele>428</ele>
        <time>2026-09-02T16:19:50+00:00</time>
      </trkpt>
      <trkpt lat="50.2462" lon="5.59435">
        <ele>433</ele>
        <time>2026-09-02T16:19:53+00:00</time>
      </trkpt>
      <trkpt lat="50.24609" lon="5.59457">
        <ele>437</ele>
        <time>2026-09-02T16:19:56+00:00</time>
      </trkpt>
      <trkpt lat="50.24584" lon="5.59492">
        <ele>449</ele>
        <time>2026-09-02T16:19:59+00:00</time>
      </trkpt>
      <trkpt lat="50.24567" lon="5.59525">
        <ele>456</ele>
        <time>2026-09-02T16:20:02+00:00</time>
      </trkpt>
      <trkpt lat="50.2454" lon="5.59581">
        <ele>463</ele>
        <time>2026-09-02T16:20:05+00:00</time>
      </trkpt>
      <trkpt lat="50.24523" lon="5.59604">
        <ele>465</ele>
        <time>2026-09-02T16:20:08+00:00</time>
      </trkpt>
      <trkpt lat="50.24503" lon="5.59631">
        <ele>468</ele>
        <time>2026-09-02T16:20:11+00:00</time>
      </trkpt>
      <trkpt lat="50.2447" lon="5.59643">
        <ele>468</ele>
        <time>2026-09-02T16:20:14+00:00</time>
      </trkpt>
      <trkpt lat="50.24447" lon="5.59648">
        <ele>474</ele>
        <time>2026-09-02T16:20:17+00:00</time>
      </trkpt>
      <trkpt lat="50.24419" lon="5.59662">
        <ele>477</ele>
        <time>2026-09-02T16:20:20+00:00</time>
      </trkpt>
      <trkpt lat="50.24396" lon="5.59685">
        <ele>481</ele>
        <time>2026-09-02T16:20:23+00:00</time>
      </trkpt>
      <trkpt lat="50.24356" lon="5.59725">
        <ele>487</ele>
        <time>2026-09-02T16:20:26+00:00</time>
      </trkpt>
      <trkpt lat="50.24335" lon="5.59764">
        <ele>490</ele>
        <time>2026-09-02T16:20:29+00:00</time>
      </trkpt>
      <trkpt lat="50.24302" lon="5.59797">
        <ele>492</ele>
        <time>2026-09-02T16:20:32+00:00</time>
      </trkpt>
      <trkpt lat="50.24282" lon="5.5981">
        <ele>494</ele>
        <time>2026-09-02T16:20:35+00:00</time>
      </trkpt>
      <trkpt lat="50.24267" lon="5.59815">
        <ele>495</ele>
        <time>2026-09-02T16:20:38+00:00</time>
      </trkpt>
      <trkpt lat="50.24242" lon="5.59813">
        <ele>495</ele>
        <time>2026-09-02T16:20:41+00:00</time>
      </trkpt>
      <trkpt lat="50.24209" lon="5.59803">
        <ele>497</ele>
        <time>2026-09-02T16:20:44+00:00</time>
      </trkpt>
      <trkpt lat="50.2419" lon="5.59803">
        <ele>499</ele>
        <time>2026-09-02T16:20:47+00:00</time>
      </trkpt>
      <trkpt lat="50.24184" lon="5.59812">
        <ele>499</ele>
        <time>2026-09-02T16:20:50+00:00</time>
      </trkpt>
      <trkpt lat="50.2417" lon="5.59829">
        <ele>502</ele>
        <time>2026-09-02T16:20:53+00:00</time>
      </trkpt>
      <trkpt lat="50.24155" lon="5.59848">
        <ele>502</ele>
        <time>2026-09-02T16:20:56+00:00</time>
      </trkpt>
      <trkpt lat="50.24123" lon="5.59872">
        <ele>503</ele>
        <time>2026-09-02T16:20:59+00:00</time>
      </trkpt>
      <trkpt lat="50.24084" lon="5.5989">
        <ele>503</ele>
        <time>2026-09-02T16:21:02+00:00</time>
      </trkpt>
      <trkpt lat="50.24042" lon="5.59897">
        <ele>499</ele>
        <time>2026-09-02T16:21:05+00:00</time>
      </trkpt>
      <trkpt lat="50.24006" lon="5.59895">
        <ele>499</ele>
        <time>2026-09-02T16:21:08+00:00</time>
      </trkpt>
      <trkpt lat="50.23965" lon="5.59912">
        <ele>499</ele>
        <time>2026-09-02T16:21:11+00:00</time>
      </trkpt>
      <trkpt lat="50.23945" lon="5.59929">
        <ele>499</ele>
        <time>2026-09-02T16:21:14+00:00</time>
      </trkpt>
      <trkpt lat="50.23924" lon="5.59948">
        <ele>495</ele>
        <time>2026-09-02T16:21:17+00:00</time>
      </trkpt>
      <trkpt lat="50.23901" lon="5.59975">
        <ele>490</ele>
        <time>2026-09-02T16:21:20+00:00</time>
      </trkpt>
      <trkpt lat="50.23855" lon="5.60028">
        <ele>485</ele>
        <time>2026-09-02T16:21:23+00:00</time>
      </trkpt>
      <trkpt lat="50.23829" lon="5.6005">
        <ele>481</ele>
        <time>2026-09-02T16:21:26+00:00</time>
      </trkpt>
      <trkpt lat="50.23803" lon="5.60072">
        <ele>480</ele>
        <time>2026-09-02T16:21:29+00:00</time>
      </trkpt>
      <trkpt lat="50.23771" lon="5.60099">
        <ele>479</ele>
        <time>2026-09-02T16:21:32+00:00</time>
      </trkpt>
      <trkpt lat="50.2375" lon="5.60114">
        <ele>478</ele>
        <time>2026-09-02T16:21:35+00:00</time>
      </trkpt>
      <trkpt lat="50.23727" lon="5.60131">
        <ele>478</ele>
        <time>2026-09-02T16:21:38+00:00</time>
      </trkpt>
      <trkpt lat="50.23697" lon="5.60141">
        <ele>481</ele>
        <time>2026-09-02T16:21:41+00:00</time>
      </trkpt>
      <trkpt lat="50.23679" lon="5.60164">
        <ele>481</ele>
        <time>2026-09-02T16:21:44+00:00</time>
      </trkpt>
      <trkpt lat="50.23656" lon="5.60193">
        <ele>476</ele>
        <time>2026-09-02T16:21:47+00:00</time>
      </trkpt>
      <trkpt lat="50.23632" lon="5.60211">
        <ele>472</ele>
        <time>2026-09-02T16:21:50+00:00</time>
      </trkpt>
      <trkpt lat="50.23594" lon="5.60239">
        <ele>470</ele>
        <time>2026-09-02T16:21:53+00:00</time>
      </trkpt>
      <trkpt lat="50.23573" lon="5.60272">
        <ele>464</ele>
        <time>2026-09-02T16:21:56+00:00</time>
      </trkpt>
      <trkpt lat="50.23551" lon="5.60304">
        <ele>461</ele>
        <time>2026-09-02T16:21:59+00:00</time>
      </trkpt>
      <trkpt lat="50.23525" lon="5.60345">
        <ele>457</ele>
        <time>2026-09-02T16:22:02+00:00</time>
      </trkpt>
      <trkpt lat="50.23515" lon="5.60364">
        <ele>451</ele>
        <time>2026-09-02T16:22:05+00:00</time>
      </trkpt>
      <trkpt lat="50.23514" lon="5.60371">
        <ele>457</ele>
        <time>2026-09-02T16:22:08+00:00</time>
      </trkpt>
      <trkpt lat="50.23514" lon="5.60394">
        <ele>450</ele>
        <time>2026-09-02T16:22:11+00:00</time>
      </trkpt>
      <trkpt lat="50.23528" lon="5.60427">
        <ele>458</ele>
        <time>2026-09-02T16:22:14+00:00</time>
      </trkpt>
      <trkpt lat="50.23542" lon="5.60461">
        <ele>462</ele>
        <time>2026-09-02T16:22:17+00:00</time>
      </trkpt>
      <trkpt lat="50.2356" lon="5.60505">
        <ele>466</ele>
        <time>2026-09-02T16:22:20+00:00</time>
      </trkpt>
      <trkpt lat="50.2357" lon="5.60544">
        <ele>469</ele>
        <time>2026-09-02T16:22:23+00:00</time>
      </trkpt>
      <trkpt lat="50.23586" lon="5.60607">
        <ele>470</ele>
        <time>2026-09-02T16:22:26+00:00</time>
      </trkpt>
      <trkpt lat="50.23603" lon="5.60642">
        <ele>475</ele>
        <time>2026-09-02T16:22:29+00:00</time>
      </trkpt>
      <trkpt lat="50.23634" lon="5.60709">
        <ele>476</ele>
        <time>2026-09-02T16:22:32+00:00</time>
      </trkpt>
      <trkpt lat="50.2364" lon="5.60742">
        <ele>477</ele>
        <time>2026-09-02T16:22:35+00:00</time>
      </trkpt>
      <trkpt lat="50.23647" lon="5.60777">
        <ele>481</ele>
        <time>2026-09-02T16:22:38+00:00</time>
      </trkpt>
      <trkpt lat="50.23652" lon="5.60814">
        <ele>486</ele>
        <time>2026-09-02T16:22:41+00:00</time>
      </trkpt>
      <trkpt lat="50.23658" lon="5.60863">
        <ele>488</ele>
        <time>2026-09-02T16:22:44+00:00</time>
      </trkpt>
      <trkpt lat="50.23663" lon="5.60913">
        <ele>491</ele>
        <time>2026-09-02T16:22:47+00:00</time>
      </trkpt>
      <trkpt lat="50.23669" lon="5.60963">
        <ele>496</ele>
        <time>2026-09-02T16:22:50+00:00</time>
      </trkpt>
      <trkpt lat="50.23674" lon="5.61013">
        <ele>497</ele>
        <time>2026-09-02T16:22:53+00:00</time>
      </trkpt>
      <trkpt lat="50.2368" lon="5.61067">
        <ele>498</ele>
        <time>2026-09-02T16:22:56+00:00</time>
      </trkpt>
      <trkpt lat="50.23683" lon="5.61107">
        <ele>500</ele>
        <time>2026-09-02T16:22:59+00:00</time>
      </trkpt>
      <trkpt lat="50.23688" lon="5.61168">
        <ele>500</ele>
        <time>2026-09-02T16:23:02+00:00</time>
      </trkpt>
      <trkpt lat="50.23692" lon="5.61204">
        <ele>500</ele>
        <time>2026-09-02T16:23:05+00:00</time>
      </trkpt>
      <trkpt lat="50.23698" lon="5.61248">
        <ele>501</ele>
        <time>2026-09-02T16:23:08+00:00</time>
      </trkpt>
      <trkpt lat="50.23702" lon="5.61313">
        <ele>503</ele>
        <time>2026-09-02T16:23:11+00:00</time>
      </trkpt>
      <trkpt lat="50.23702" lon="5.61359">
        <ele>502</ele>
        <time>2026-09-02T16:23:14+00:00</time>
      </trkpt>
      <trkpt lat="50.23742" lon="5.61377">
        <ele>501</ele>
        <time>2026-09-02T16:23:17+00:00</time>
      </trkpt>
      <trkpt lat="50.23754" lon="5.61388">
        <ele>500</ele>
        <time>2026-09-02T16:23:20+00:00</time>
      </trkpt>
      <trkpt lat="50.23763" lon="5.61412">
        <ele>500</ele>
        <time>2026-09-02T16:23:23+00:00</time>
      </trkpt>
      <trkpt lat="50.23764" lon="5.6142">
        <ele>500</ele>
        <time>2026-09-02T16:23:26+00:00</time>
      </trkpt>
      <trkpt lat="50.2377" lon="5.61453">
        <ele>500</ele>
        <time>2026-09-02T16:23:29+00:00</time>
      </trkpt>
      <trkpt lat="50.23778" lon="5.61497">
        <ele>500</ele>
        <time>2026-09-02T16:23:32+00:00</time>
      </trkpt>
      <trkpt lat="50.23783" lon="5.61543">
        <ele>499</ele>
        <time>2026-09-02T16:23:35+00:00</time>
      </trkpt>
      <trkpt lat="50.238" lon="5.61579">
        <ele>498</ele>
        <time>2026-09-02T16:23:38+00:00</time>
      </trkpt>
      <trkpt lat="50.23814" lon="5.61622">
        <ele>493</ele>
        <time>2026-09-02T16:23:41+00:00</time>
      </trkpt>
      <trkpt lat="50.23822" lon="5.61651">
        <ele>490</ele>
        <time>2026-09-02T16:23:44+00:00</time>
      </trkpt>
      <trkpt lat="50.23824" lon="5.61689">
        <ele>487</ele>
        <time>2026-09-02T16:23:47+00:00</time>
      </trkpt>
      <trkpt lat="50.23821" lon="5.61726">
        <ele>487</ele>
        <time>2026-09-02T16:23:50+00:00</time>
      </trkpt>
      <trkpt lat="50.23817" lon="5.61772">
        <ele>487</ele>
        <time>2026-09-02T16:23:53+00:00</time>
      </trkpt>
      <trkpt lat="50.23809" lon="5.61814">
        <ele>484</ele>
        <time>2026-09-02T16:23:56+00:00</time>
      </trkpt>
      <trkpt lat="50.23793" lon="5.61897">
        <ele>482</ele>
        <time>2026-09-02T16:23:59+00:00</time>
      </trkpt>
      <trkpt lat="50.23789" lon="5.61922">
        <ele>481</ele>
        <time>2026-09-02T16:24:02+00:00</time>
      </trkpt>
      <trkpt lat="50.23789" lon="5.6193">
        <ele>481</ele>
        <time>2026-09-02T16:24:05+00:00</time>
      </trkpt>
      <trkpt lat="50.2379" lon="5.6194">
        <ele>480</ele>
        <time>2026-09-02T16:24:08+00:00</time>
      </trkpt>
      <trkpt lat="50.23795" lon="5.61942">
        <ele>472</ele>
        <time>2026-09-02T16:24:11+00:00</time>
      </trkpt>
      <trkpt lat="50.23819" lon="5.6192">
        <ele>468</ele>
        <time>2026-09-02T16:24:14+00:00</time>
      </trkpt>
      <trkpt lat="50.23822" lon="5.61931">
        <ele>461</ele>
        <time>2026-09-02T16:24:17+00:00</time>
      </trkpt>
      <trkpt lat="50.2382" lon="5.61972">
        <ele>461</ele>
        <time>2026-09-02T16:24:20+00:00</time>
      </trkpt>
      <trkpt lat="50.23817" lon="5.62013">
        <ele>456</ele>
        <time>2026-09-02T16:24:23+00:00</time>
      </trkpt>
      <trkpt lat="50.23815" lon="5.62057">
        <ele>452</ele>
        <time>2026-09-02T16:24:26+00:00</time>
      </trkpt>
      <trkpt lat="50.23815" lon="5.62077">
        <ele>451</ele>
        <time>2026-09-02T16:24:29+00:00</time>
      </trkpt>
      <trkpt lat="50.23822" lon="5.62099">
        <ele>450</ele>
        <time>2026-09-02T16:24:32+00:00</time>
      </trkpt>
      <trkpt lat="50.23842" lon="5.6214">
        <ele>446</ele>
        <time>2026-09-02T16:24:35+00:00</time>
      </trkpt>
      <trkpt lat="50.2386" lon="5.62159">
        <ele>445</ele>
        <time>2026-09-02T16:24:38+00:00</time>
      </trkpt>
      <trkpt lat="50.23878" lon="5.62179">
        <ele>443</ele>
        <time>2026-09-02T16:24:41+00:00</time>
      </trkpt>
      <trkpt lat="50.23896" lon="5.62201">
        <ele>439</ele>
        <time>2026-09-02T16:24:44+00:00</time>
      </trkpt>
      <trkpt lat="50.23918" lon="5.62228">
        <ele>437</ele>
        <time>2026-09-02T16:24:47+00:00</time>
      </trkpt>
      <trkpt lat="50.23951" lon="5.62257">
        <ele>432</ele>
        <time>2026-09-02T16:24:50+00:00</time>
      </trkpt>
      <trkpt lat="50.23974" lon="5.62278">
        <ele>431</ele>
        <time>2026-09-02T16:24:53+00:00</time>
      </trkpt>
      <trkpt lat="50.24009" lon="5.62311">
        <ele>428</ele>
        <time>2026-09-02T16:24:56+00:00</time>
      </trkpt>
      <trkpt lat="50.24039" lon="5.62344">
        <ele>427</ele>
        <time>2026-09-02T16:24:59+00:00</time>
      </trkpt>
      <trkpt lat="50.24074" lon="5.6237">
        <ele>426</ele>
        <time>2026-09-02T16:25:02+00:00</time>
      </trkpt>
      <trkpt lat="50.24098" lon="5.62381">
        <ele>425</ele>
        <time>2026-09-02T16:25:05+00:00</time>
      </trkpt>
      <trkpt lat="50.24129" lon="5.62395">
        <ele>422</ele>
        <time>2026-09-02T16:25:08+00:00</time>
      </trkpt>
      <trkpt lat="50.24145" lon="5.62414">
        <ele>419</ele>
        <time>2026-09-02T16:25:11+00:00</time>
      </trkpt>
      <trkpt lat="50.24153" lon="5.62435">
        <ele>419</ele>
        <time>2026-09-02T16:25:14+00:00</time>
      </trkpt>
      <trkpt lat="50.24155" lon="5.62462">
        <ele>418</ele>
        <time>2026-09-02T16:25:17+00:00</time>
      </trkpt>
      <trkpt lat="50.24157" lon="5.62496">
        <ele>416</ele>
        <time>2026-09-02T16:25:20+00:00</time>
      </trkpt>
      <trkpt lat="50.24161" lon="5.62512">
        <ele>412</ele>
        <time>2026-09-02T16:25:23+00:00</time>
      </trkpt>
      <trkpt lat="50.24177" lon="5.62548">
        <ele>415</ele>
        <time>2026-09-02T16:25:26+00:00</time>
      </trkpt>
      <trkpt lat="50.24182" lon="5.62586">
        <ele>415</ele>
        <time>2026-09-02T16:25:29+00:00</time>
      </trkpt>
      <trkpt lat="50.24174" lon="5.62627">
        <ele>415</ele>
        <time>2026-09-02T16:25:32+00:00</time>
      </trkpt>
      <trkpt lat="50.24172" lon="5.62645">
        <ele>414</ele>
        <time>2026-09-02T16:25:35+00:00</time>
      </trkpt>
      <trkpt lat="50.24164" lon="5.62667">
        <ele>413</ele>
        <time>2026-09-02T16:25:38+00:00</time>
      </trkpt>
      <trkpt lat="50.24157" lon="5.62689">
        <ele>413</ele>
        <time>2026-09-02T16:25:41+00:00</time>
      </trkpt>
      <trkpt lat="50.2415" lon="5.62704">
        <ele>412</ele>
        <time>2026-09-02T16:25:44+00:00</time>
      </trkpt>
      <trkpt lat="50.24133" lon="5.62727">
        <ele>412</ele>
        <time>2026-09-02T16:25:47+00:00</time>
      </trkpt>
      <trkpt lat="50.24109" lon="5.62753">
        <ele>412</ele>
        <time>2026-09-02T16:25:50+00:00</time>
      </trkpt>
      <trkpt lat="50.24083" lon="5.62761">
        <ele>412</ele>
        <time>2026-09-02T16:25:53+00:00</time>
      </trkpt>
      <trkpt lat="50.24058" lon="5.62783">
        <ele>412</ele>
        <time>2026-09-02T16:25:56+00:00</time>
      </trkpt>
      <trkpt lat="50.24052" lon="5.62792">
        <ele>412</ele>
        <time>2026-09-02T16:25:59+00:00</time>
      </trkpt>
      <trkpt lat="50.24045" lon="5.62812">
        <ele>412</ele>
        <time>2026-09-02T16:26:02+00:00</time>
      </trkpt>
      <trkpt lat="50.24037" lon="5.62822">
        <ele>413</ele>
        <time>2026-09-02T16:26:05+00:00</time>
      </trkpt>
      <trkpt lat="50.24022" lon="5.62833">
        <ele>413</ele>
        <time>2026-09-02T16:26:08+00:00</time>
      </trkpt>
      <trkpt lat="50.24006" lon="5.62844">
        <ele>414</ele>
        <time>2026-09-02T16:26:11+00:00</time>
      </trkpt>
      <trkpt lat="50.23977" lon="5.62849">
        <ele>415</ele>
        <time>2026-09-02T16:26:14+00:00</time>
      </trkpt>
      <trkpt lat="50.23967" lon="5.62853">
        <ele>415</ele>
        <time>2026-09-02T16:26:17+00:00</time>
      </trkpt>
      <trkpt lat="50.23942" lon="5.62878">
        <ele>416</ele>
        <time>2026-09-02T16:26:20+00:00</time>
      </trkpt>
      <trkpt lat="50.2392" lon="5.62906">
        <ele>416</ele>
        <time>2026-09-02T16:26:23+00:00</time>
      </trkpt>
      <trkpt lat="50.23879" lon="5.6296">
        <ele>418</ele>
        <time>2026-09-02T16:26:26+00:00</time>
      </trkpt>
      <trkpt lat="50.23858" lon="5.62991">
        <ele>420</ele>
        <time>2026-09-02T16:26:29+00:00</time>
      </trkpt>
      <trkpt lat="50.23819" lon="5.6305">
        <ele>423</ele>
        <time>2026-09-02T16:26:32+00:00</time>
      </trkpt>
      <trkpt lat="50.23804" lon="5.63077">
        <ele>424</ele>
        <time>2026-09-02T16:26:35+00:00</time>
      </trkpt>
      <trkpt lat="50.23786" lon="5.63108">
        <ele>423</ele>
        <time>2026-09-02T16:26:38+00:00</time>
      </trkpt>
      <trkpt lat="50.23788" lon="5.63119">
        <ele>425</ele>
        <time>2026-09-02T16:26:41+00:00</time>
      </trkpt>
      <trkpt lat="50.2379" lon="5.63158">
        <ele>423</ele>
        <time>2026-09-02T16:26:44+00:00</time>
      </trkpt>
      <trkpt lat="50.23792" lon="5.63165">
        <ele>422</ele>
        <time>2026-09-02T16:26:47+00:00</time>
      </trkpt>
      <trkpt lat="50.23794" lon="5.63169">
        <ele>422</ele>
        <time>2026-09-02T16:26:50+00:00</time>
      </trkpt>
      <trkpt lat="50.23807" lon="5.63166">
        <ele>421</ele>
        <time>2026-09-02T16:26:53+00:00</time>
      </trkpt>
      <trkpt lat="50.23814" lon="5.63171">
        <ele>419</ele>
        <time>2026-09-02T16:26:56+00:00</time>
      </trkpt>
      <trkpt lat="50.23819" lon="5.63183">
        <ele>420</ele>
        <time>2026-09-02T16:26:59+00:00</time>
      </trkpt>
      <trkpt lat="50.2382" lon="5.63194">
        <ele>420</ele>
        <time>2026-09-02T16:27:02+00:00</time>
      </trkpt>
      <trkpt lat="50.23828" lon="5.63212">
        <ele>420</ele>
        <time>2026-09-02T16:27:05+00:00</time>
      </trkpt>
      <trkpt lat="50.23835" lon="5.6322">
        <ele>420</ele>
        <time>2026-09-02T16:27:08+00:00</time>
      </trkpt>
      <trkpt lat="50.23851" lon="5.63231">
        <ele>421</ele>
        <time>2026-09-02T16:27:11+00:00</time>
      </trkpt>
      <trkpt lat="50.23856" lon="5.63233">
        <ele>421</ele>
        <time>2026-09-02T16:27:14+00:00</time>
      </trkpt>
      <trkpt lat="50.23886" lon="5.63227">
        <ele>421</ele>
        <time>2026-09-02T16:27:17+00:00</time>
      </trkpt>
      <trkpt lat="50.23904" lon="5.63215">
        <ele>422</ele>
        <time>2026-09-02T16:27:20+00:00</time>
      </trkpt>
      <trkpt lat="50.23915" lon="5.63201">
        <ele>425</ele>
        <time>2026-09-02T16:27:23+00:00</time>
      </trkpt>
      <trkpt lat="50.23929" lon="5.6319">
        <ele>424</ele>
        <time>2026-09-02T16:27:26+00:00</time>
      </trkpt>
      <trkpt lat="50.23946" lon="5.63183">
        <ele>427</ele>
        <time>2026-09-02T16:27:29+00:00</time>
      </trkpt>
      <trkpt lat="50.23978" lon="5.63188">
        <ele>428</ele>
        <time>2026-09-02T16:27:32+00:00</time>
      </trkpt>
      <trkpt lat="50.23984" lon="5.63179">
        <ele>429</ele>
        <time>2026-09-02T16:27:35+00:00</time>
      </trkpt>
      <trkpt lat="50.24003" lon="5.63158">
        <ele>432</ele>
        <time>2026-09-02T16:27:38+00:00</time>
      </trkpt>
      <trkpt lat="50.24015" lon="5.63148">
        <ele>433</ele>
        <time>2026-09-02T16:27:41+00:00</time>
      </trkpt>
      <trkpt lat="50.24027" lon="5.63142">
        <ele>436</ele>
        <time>2026-09-02T16:27:44+00:00</time>
      </trkpt>
      <trkpt lat="50.24042" lon="5.6314">
        <ele>439</ele>
        <time>2026-09-02T16:27:47+00:00</time>
      </trkpt>
      <trkpt lat="50.24054" lon="5.63153">
        <ele>443</ele>
        <time>2026-09-02T16:27:50+00:00</time>
      </trkpt>
      <trkpt lat="50.24057" lon="5.63164">
        <ele>444</ele>
        <time>2026-09-02T16:27:53+00:00</time>
      </trkpt>
      <trkpt lat="50.24054" lon="5.63184">
        <ele>446</ele>
        <time>2026-09-02T16:27:56+00:00</time>
      </trkpt>
      <trkpt lat="50.24048" lon="5.63211">
        <ele>448</ele>
        <time>2026-09-02T16:27:59+00:00</time>
      </trkpt>
      <trkpt lat="50.2405" lon="5.63226">
        <ele>449</ele>
        <time>2026-09-02T16:28:02+00:00</time>
      </trkpt>
      <trkpt lat="50.24061" lon="5.63242">
        <ele>452</ele>
        <time>2026-09-02T16:28:05+00:00</time>
      </trkpt>
      <trkpt lat="50.24071" lon="5.6325">
        <ele>454</ele>
        <time>2026-09-02T16:28:08+00:00</time>
      </trkpt>
      <trkpt lat="50.24087" lon="5.63267">
        <ele>457</ele>
        <time>2026-09-02T16:28:11+00:00</time>
      </trkpt>
      <trkpt lat="50.24107" lon="5.63288">
        <ele>457</ele>
        <time>2026-09-02T16:28:14+00:00</time>
      </trkpt>
      <trkpt lat="50.24115" lon="5.63314">
        <ele>460</ele>
        <time>2026-09-02T16:28:17+00:00</time>
      </trkpt>
      <trkpt lat="50.24119" lon="5.63315">
        <ele>460</ele>
        <time>2026-09-02T16:28:20+00:00</time>
      </trkpt>
      <trkpt lat="50.24111" lon="5.63337">
        <ele>461</ele>
        <time>2026-09-02T16:28:23+00:00</time>
      </trkpt>
      <trkpt lat="50.2411" lon="5.63353">
        <ele>463</ele>
        <time>2026-09-02T16:28:26+00:00</time>
      </trkpt>
      <trkpt lat="50.24104" lon="5.63396">
        <ele>465</ele>
        <time>2026-09-02T16:28:29+00:00</time>
      </trkpt>
      <trkpt lat="50.24093" lon="5.63434">
        <ele>467</ele>
        <time>2026-09-02T16:28:32+00:00</time>
      </trkpt>
      <trkpt lat="50.24093" lon="5.63472">
        <ele>470</ele>
        <time>2026-09-02T16:28:35+00:00</time>
      </trkpt>
      <trkpt lat="50.24085" lon="5.63513">
        <ele>473</ele>
        <time>2026-09-02T16:28:38+00:00</time>
      </trkpt>
      <trkpt lat="50.24081" lon="5.63541">
        <ele>475</ele>
        <time>2026-09-02T16:28:41+00:00</time>
      </trkpt>
      <trkpt lat="50.24069" lon="5.63593">
        <ele>479</ele>
        <time>2026-09-02T16:28:44+00:00</time>
      </trkpt>
      <trkpt lat="50.24052" lon="5.63616">
        <ele>479</ele>
        <time>2026-09-02T16:28:47+00:00</time>
      </trkpt>
      <trkpt lat="50.24039" lon="5.63643">
        <ele>481</ele>
        <time>2026-09-02T16:28:50+00:00</time>
      </trkpt>
      <trkpt lat="50.24017" lon="5.63682">
        <ele>489</ele>
        <time>2026-09-02T16:28:53+00:00</time>
      </trkpt>
      <trkpt lat="50.23998" lon="5.6371">
        <ele>494</ele>
        <time>2026-09-02T16:28:56+00:00</time>
      </trkpt>
      <trkpt lat="50.23968" lon="5.63755">
        <ele>503</ele>
        <time>2026-09-02T16:28:59+00:00</time>
      </trkpt>
      <trkpt lat="50.23929" lon="5.63756">
        <ele>505</ele>
        <time>2026-09-02T16:29:02+00:00</time>
      </trkpt>
      <trkpt lat="50.23904" lon="5.63748">
        <ele>508</ele>
        <time>2026-09-02T16:29:05+00:00</time>
      </trkpt>
      <trkpt lat="50.23884" lon="5.63764">
        <ele>508</ele>
        <time>2026-09-02T16:29:08+00:00</time>
      </trkpt>
      <trkpt lat="50.23861" lon="5.63783">
        <ele>508</ele>
        <time>2026-09-02T16:29:11+00:00</time>
      </trkpt>
      <trkpt lat="50.23842" lon="5.63805">
        <ele>507</ele>
        <time>2026-09-02T16:29:14+00:00</time>
      </trkpt>
      <trkpt lat="50.23824" lon="5.6382">
        <ele>507</ele>
        <time>2026-09-02T16:29:17+00:00</time>
      </trkpt>
      <trkpt lat="50.23809" lon="5.63846">
        <ele>512</ele>
        <time>2026-09-02T16:29:20+00:00</time>
      </trkpt>
      <trkpt lat="50.23784" lon="5.63869">
        <ele>514</ele>
        <time>2026-09-02T16:29:23+00:00</time>
      </trkpt>
      <trkpt lat="50.23777" lon="5.6388">
        <ele>517</ele>
        <time>2026-09-02T16:29:26+00:00</time>
      </trkpt>
      <trkpt lat="50.23771" lon="5.63907">
        <ele>516</ele>
        <time>2026-09-02T16:29:29+00:00</time>
      </trkpt>
      <trkpt lat="50.23764" lon="5.63939">
        <ele>519</ele>
        <time>2026-09-02T16:29:32+00:00</time>
      </trkpt>
      <trkpt lat="50.23783" lon="5.6399">
        <ele>521</ele>
        <time>2026-09-02T16:29:35+00:00</time>
      </trkpt>
      <trkpt lat="50.23787" lon="5.6403">
        <ele>523</ele>
        <time>2026-09-02T16:29:38+00:00</time>
      </trkpt>
      <trkpt lat="50.23794" lon="5.64064">
        <ele>524</ele>
        <time>2026-09-02T16:29:41+00:00</time>
      </trkpt>
      <trkpt lat="50.23802" lon="5.64103">
        <ele>524</ele>
        <time>2026-09-02T16:29:44+00:00</time>
      </trkpt>
      <trkpt lat="50.23803" lon="5.64133">
        <ele>522</ele>
        <time>2026-09-02T16:29:47+00:00</time>
      </trkpt>
      <trkpt lat="50.23827" lon="5.64183">
        <ele>522</ele>
        <time>2026-09-02T16:29:50+00:00</time>
      </trkpt>
      <trkpt lat="50.23833" lon="5.64222">
        <ele>519</ele>
        <time>2026-09-02T16:29:53+00:00</time>
      </trkpt>
      <trkpt lat="50.23845" lon="5.64246">
        <ele>516</ele>
        <time>2026-09-02T16:29:56+00:00</time>
      </trkpt>
      <trkpt lat="50.23846" lon="5.64264">
        <ele>512</ele>
        <time>2026-09-02T16:29:59+00:00</time>
      </trkpt>
      <trkpt lat="50.23854" lon="5.64288">
        <ele>508</ele>
        <time>2026-09-02T16:30:02+00:00</time>
      </trkpt>
      <trkpt lat="50.23862" lon="5.64314">
        <ele>505</ele>
        <time>2026-09-02T16:30:05+00:00</time>
      </trkpt>
      <trkpt lat="50.23881" lon="5.64356">
        <ele>503</ele>
        <time>2026-09-02T16:30:08+00:00</time>
      </trkpt>
      <trkpt lat="50.239" lon="5.64399">
        <ele>503</ele>
        <time>2026-09-02T16:30:11+00:00</time>
      </trkpt>
      <trkpt lat="50.2392" lon="5.64441">
        <ele>511</ele>
        <time>2026-09-02T16:30:14+00:00</time>
      </trkpt>
      <trkpt lat="50.23946" lon="5.64499">
        <ele>518</ele>
        <time>2026-09-02T16:30:17+00:00</time>
      </trkpt>
      <trkpt lat="50.23959" lon="5.64535">
        <ele>522</ele>
        <time>2026-09-02T16:30:20+00:00</time>
      </trkpt>
      <trkpt lat="50.23978" lon="5.6459">
        <ele>524</ele>
        <time>2026-09-02T16:30:23+00:00</time>
      </trkpt>
      <trkpt lat="50.23991" lon="5.64631">
        <ele>526</ele>
        <time>2026-09-02T16:30:26+00:00</time>
      </trkpt>
      <trkpt lat="50.24005" lon="5.64671">
        <ele>532</ele>
        <time>2026-09-02T16:30:29+00:00</time>
      </trkpt>
      <trkpt lat="50.24019" lon="5.64715">
        <ele>530</ele>
        <time>2026-09-02T16:30:32+00:00</time>
      </trkpt>
      <trkpt lat="50.24032" lon="5.6475">
        <ele>531</ele>
        <time>2026-09-02T16:30:35+00:00</time>
      </trkpt>
      <trkpt lat="50.24051" lon="5.64802">
        <ele>533</ele>
        <time>2026-09-02T16:30:38+00:00</time>
      </trkpt>
      <trkpt lat="50.24041" lon="5.6485">
        <ele>534</ele>
        <time>2026-09-02T16:30:41+00:00</time>
      </trkpt>
      <trkpt lat="50.24032" lon="5.64898">
        <ele>534</ele>
        <time>2026-09-02T16:30:44+00:00</time>
      </trkpt>
      <trkpt lat="50.24022" lon="5.64947">
        <ele>534</ele>
        <time>2026-09-02T16:30:47+00:00</time>
      </trkpt>
      <trkpt lat="50.24012" lon="5.64996">
        <ele>537</ele>
        <time>2026-09-02T16:30:50+00:00</time>
      </trkpt>
      <trkpt lat="50.24003" lon="5.65042">
        <ele>537</ele>
        <time>2026-09-02T16:30:53+00:00</time>
      </trkpt>
      <trkpt lat="50.23995" lon="5.65088">
        <ele>537</ele>
        <time>2026-09-02T16:30:56+00:00</time>
      </trkpt>
      <trkpt lat="50.23982" lon="5.65154">
        <ele>535</ele>
        <time>2026-09-02T16:30:59+00:00</time>
      </trkpt>
      <trkpt lat="50.23974" lon="5.6519">
        <ele>535</ele>
        <time>2026-09-02T16:31:02+00:00</time>
      </trkpt>
      <trkpt lat="50.23965" lon="5.65236">
        <ele>535</ele>
        <time>2026-09-02T16:31:05+00:00</time>
      </trkpt>
      <trkpt lat="50.2399" lon="5.65233">
        <ele>540</ele>
        <time>2026-09-02T16:31:08+00:00</time>
      </trkpt>
      <trkpt lat="50.24024" lon="5.65229">
        <ele>540</ele>
        <time>2026-09-02T16:31:11+00:00</time>
      </trkpt>
      <trkpt lat="50.24053" lon="5.65222">
        <ele>540</ele>
        <time>2026-09-02T16:31:14+00:00</time>
      </trkpt>
      <trkpt lat="50.24094" lon="5.65208">
        <ele>532</ele>
        <time>2026-09-02T16:31:17+00:00</time>
      </trkpt>
      <trkpt lat="50.24122" lon="5.65202">
        <ele>532</ele>
        <time>2026-09-02T16:31:20+00:00</time>
      </trkpt>
      <trkpt lat="50.24176" lon="5.65191">
        <ele>533</ele>
        <time>2026-09-02T16:31:23+00:00</time>
      </trkpt>
      <trkpt lat="50.24204" lon="5.65187">
        <ele>533</ele>
        <time>2026-09-02T16:31:26+00:00</time>
      </trkpt>
      <trkpt lat="50.24258" lon="5.6518">
        <ele>531</ele>
        <time>2026-09-02T16:31:29+00:00</time>
      </trkpt>
      <trkpt lat="50.24282" lon="5.65174">
        <ele>531</ele>
        <time>2026-09-02T16:31:32+00:00</time>
      </trkpt>
      <trkpt lat="50.24311" lon="5.65167">
        <ele>531</ele>
        <time>2026-09-02T16:31:35+00:00</time>
      </trkpt>
      <trkpt lat="50.24345" lon="5.65168">
        <ele>531</ele>
        <time>2026-09-02T16:31:38+00:00</time>
      </trkpt>
      <trkpt lat="50.24375" lon="5.65159">
        <ele>532</ele>
        <time>2026-09-02T16:31:41+00:00</time>
      </trkpt>
      <trkpt lat="50.24406" lon="5.6515">
        <ele>533</ele>
        <time>2026-09-02T16:31:44+00:00</time>
      </trkpt>
      <trkpt lat="50.24453" lon="5.65136">
        <ele>534</ele>
        <time>2026-09-02T16:31:47+00:00</time>
      </trkpt>
      <trkpt lat="50.24482" lon="5.65132">
        <ele>534</ele>
        <time>2026-09-02T16:31:50+00:00</time>
      </trkpt>
      <trkpt lat="50.24511" lon="5.65128">
        <ele>535</ele>
        <time>2026-09-02T16:31:53+00:00</time>
      </trkpt>
      <trkpt lat="50.24544" lon="5.65123">
        <ele>548</ele>
        <time>2026-09-02T16:31:56+00:00</time>
      </trkpt>
      <trkpt lat="50.2457" lon="5.65118">
        <ele>546</ele>
        <time>2026-09-02T16:31:59+00:00</time>
      </trkpt>
      <trkpt lat="50.24609" lon="5.6511">
        <ele>546</ele>
        <time>2026-09-02T16:32:02+00:00</time>
      </trkpt>
      <trkpt lat="50.24638" lon="5.65104">
        <ele>546</ele>
        <time>2026-09-02T16:32:05+00:00</time>
      </trkpt>
      <trkpt lat="50.24668" lon="5.65098">
        <ele>538</ele>
        <time>2026-09-02T16:32:08+00:00</time>
      </trkpt>
      <trkpt lat="50.24704" lon="5.6509">
        <ele>539</ele>
        <time>2026-09-02T16:32:11+00:00</time>
      </trkpt>
      <trkpt lat="50.24711" lon="5.6513">
        <ele>541</ele>
        <time>2026-09-02T16:32:14+00:00</time>
      </trkpt>
      <trkpt lat="50.24722" lon="5.6519">
        <ele>542</ele>
        <time>2026-09-02T16:32:17+00:00</time>
      </trkpt>
      <trkpt lat="50.24731" lon="5.65243">
        <ele>542</ele>
        <time>2026-09-02T16:32:20+00:00</time>
      </trkpt>
      <trkpt lat="50.24739" lon="5.65296">
        <ele>538</ele>
        <time>2026-09-02T16:32:23+00:00</time>
      </trkpt>
      <trkpt lat="50.24748" lon="5.65349">
        <ele>535</ele>
        <time>2026-09-02T16:32:26+00:00</time>
      </trkpt>
      <trkpt lat="50.24757" lon="5.65402">
        <ele>531</ele>
        <time>2026-09-02T16:32:29+00:00</time>
      </trkpt>
      <trkpt lat="50.24768" lon="5.65472">
        <ele>525</ele>
        <time>2026-09-02T16:32:32+00:00</time>
      </trkpt>
      <trkpt lat="50.24774" lon="5.65524">
        <ele>519</ele>
        <time>2026-09-02T16:32:35+00:00</time>
      </trkpt>
      <trkpt lat="50.2478" lon="5.65575">
        <ele>515</ele>
        <time>2026-09-02T16:32:38+00:00</time>
      </trkpt>
      <trkpt lat="50.24785" lon="5.65627">
        <ele>510</ele>
        <time>2026-09-02T16:32:41+00:00</time>
      </trkpt>
      <trkpt lat="50.24794" lon="5.65704">
        <ele>504</ele>
        <time>2026-09-02T16:32:44+00:00</time>
      </trkpt>
      <trkpt lat="50.24763" lon="5.65706">
        <ele>499</ele>
        <time>2026-09-02T16:32:47+00:00</time>
      </trkpt>
      <trkpt lat="50.24732" lon="5.65707">
        <ele>500</ele>
        <time>2026-09-02T16:32:50+00:00</time>
      </trkpt>
      <trkpt lat="50.24686" lon="5.6571">
        <ele>501</ele>
        <time>2026-09-02T16:32:53+00:00</time>
      </trkpt>
      <trkpt lat="50.24679" lon="5.65712">
        <ele>502</ele>
        <time>2026-09-02T16:32:56+00:00</time>
      </trkpt>
      <trkpt lat="50.24655" lon="5.65721">
        <ele>504</ele>
        <time>2026-09-02T16:32:59+00:00</time>
      </trkpt>
      <trkpt lat="50.24617" lon="5.65735">
        <ele>506</ele>
        <time>2026-09-02T16:33:02+00:00</time>
      </trkpt>
      <trkpt lat="50.24593" lon="5.65747">
        <ele>500</ele>
        <time>2026-09-02T16:33:05+00:00</time>
      </trkpt>
      <trkpt lat="50.24559" lon="5.65763">
        <ele>498</ele>
        <time>2026-09-02T16:33:08+00:00</time>
      </trkpt>
      <trkpt lat="50.24533" lon="5.65772">
        <ele>501</ele>
        <time>2026-09-02T16:33:11+00:00</time>
      </trkpt>
      <trkpt lat="50.24489" lon="5.65788">
        <ele>501</ele>
        <time>2026-09-02T16:33:14+00:00</time>
      </trkpt>
      <trkpt lat="50.24458" lon="5.65796">
        <ele>499</ele>
        <time>2026-09-02T16:33:17+00:00</time>
      </trkpt>
      <trkpt lat="50.24433" lon="5.65795">
        <ele>498</ele>
        <time>2026-09-02T16:33:20+00:00</time>
      </trkpt>
      <trkpt lat="50.24415" lon="5.65788">
        <ele>496</ele>
        <time>2026-09-02T16:33:23+00:00</time>
      </trkpt>
      <trkpt lat="50.24404" lon="5.65796">
        <ele>491</ele>
        <time>2026-09-02T16:33:26+00:00</time>
      </trkpt>
      <trkpt lat="50.24404" lon="5.65815">
        <ele>496</ele>
        <time>2026-09-02T16:33:29+00:00</time>
      </trkpt>
      <trkpt lat="50.24409" lon="5.65848">
        <ele>497</ele>
        <time>2026-09-02T16:33:32+00:00</time>
      </trkpt>
      <trkpt lat="50.24415" lon="5.65883">
        <ele>497</ele>
        <time>2026-09-02T16:33:35+00:00</time>
      </trkpt>
      <trkpt lat="50.24429" lon="5.65946">
        <ele>495</ele>
        <time>2026-09-02T16:33:38+00:00</time>
      </trkpt>
      <trkpt lat="50.24443" lon="5.66">
        <ele>493</ele>
        <time>2026-09-02T16:33:41+00:00</time>
      </trkpt>
      <trkpt lat="50.24444" lon="5.66035">
        <ele>492</ele>
        <time>2026-09-02T16:33:44+00:00</time>
      </trkpt>
      <trkpt lat="50.24445" lon="5.66072">
        <ele>492</ele>
        <time>2026-09-02T16:33:47+00:00</time>
      </trkpt>
      <trkpt lat="50.24436" lon="5.66116">
        <ele>495</ele>
        <time>2026-09-02T16:33:50+00:00</time>
      </trkpt>
      <trkpt lat="50.24427" lon="5.6616">
        <ele>502</ele>
        <time>2026-09-02T16:33:53+00:00</time>
      </trkpt>
      <trkpt lat="50.24417" lon="5.66212">
        <ele>512</ele>
        <time>2026-09-02T16:33:56+00:00</time>
      </trkpt>
      <trkpt lat="50.24406" lon="5.66271">
        <ele>517</ele>
        <time>2026-09-02T16:33:59+00:00</time>
      </trkpt>
      <trkpt lat="50.24406" lon="5.66314">
        <ele>517</ele>
        <time>2026-09-02T16:34:02+00:00</time>
      </trkpt>
      <trkpt lat="50.24405" lon="5.66388">
        <ele>510</ele>
        <time>2026-09-02T16:34:05+00:00</time>
      </trkpt>
      <trkpt lat="50.24406" lon="5.66408">
        <ele>507</ele>
        <time>2026-09-02T16:34:08+00:00</time>
      </trkpt>
      <trkpt lat="50.24408" lon="5.66426">
        <ele>505</ele>
        <time>2026-09-02T16:34:11+00:00</time>
      </trkpt>
      <trkpt lat="50.24408" lon="5.66453">
        <ele>504</ele>
        <time>2026-09-02T16:34:14+00:00</time>
      </trkpt>
      <trkpt lat="50.24401" lon="5.66474">
        <ele>501</ele>
        <time>2026-09-02T16:34:17+00:00</time>
      </trkpt>
      <trkpt lat="50.24395" lon="5.66483">
        <ele>500</ele>
        <time>2026-09-02T16:34:20+00:00</time>
      </trkpt>
      <trkpt lat="50.24395" lon="5.66491">
        <ele>500</ele>
        <time>2026-09-02T16:34:23+00:00</time>
      </trkpt>
      <trkpt lat="50.24394" lon="5.66505">
        <ele>499</ele>
        <time>2026-09-02T16:34:26+00:00</time>
      </trkpt>
      <trkpt lat="50.24401" lon="5.66519">
        <ele>497</ele>
        <time>2026-09-02T16:34:29+00:00</time>
      </trkpt>
      <trkpt lat="50.24429" lon="5.6651">
        <ele>494</ele>
        <time>2026-09-02T16:34:32+00:00</time>
      </trkpt>
      <trkpt lat="50.2445" lon="5.665">
        <ele>491</ele>
        <time>2026-09-02T16:34:35+00:00</time>
      </trkpt>
      <trkpt lat="50.24485" lon="5.66502">
        <ele>489</ele>
        <time>2026-09-02T16:34:38+00:00</time>
      </trkpt>
      <trkpt lat="50.24512" lon="5.66511">
        <ele>484</ele>
        <time>2026-09-02T16:34:41+00:00</time>
      </trkpt>
      <trkpt lat="50.24533" lon="5.66522">
        <ele>484</ele>
        <time>2026-09-02T16:34:44+00:00</time>
      </trkpt>
      <trkpt lat="50.24556" lon="5.66534">
        <ele>485</ele>
        <time>2026-09-02T16:34:47+00:00</time>
      </trkpt>
      <trkpt lat="50.24597" lon="5.66544">
        <ele>491</ele>
        <time>2026-09-02T16:34:50+00:00</time>
      </trkpt>
      <trkpt lat="50.24613" lon="5.66552">
        <ele>495</ele>
        <time>2026-09-02T16:34:53+00:00</time>
      </trkpt>
      <trkpt lat="50.24629" lon="5.66568">
        <ele>493</ele>
        <time>2026-09-02T16:34:56+00:00</time>
      </trkpt>
      <trkpt lat="50.24655" lon="5.66594">
        <ele>495</ele>
        <time>2026-09-02T16:34:59+00:00</time>
      </trkpt>
      <trkpt lat="50.24675" lon="5.66628">
        <ele>498</ele>
        <time>2026-09-02T16:35:02+00:00</time>
      </trkpt>
      <trkpt lat="50.24682" lon="5.66662">
        <ele>501</ele>
        <time>2026-09-02T16:35:05+00:00</time>
      </trkpt>
      <trkpt lat="50.24689" lon="5.66699">
        <ele>502</ele>
        <time>2026-09-02T16:35:08+00:00</time>
      </trkpt>
      <trkpt lat="50.24697" lon="5.6673">
        <ele>501</ele>
        <time>2026-09-02T16:35:11+00:00</time>
      </trkpt>
      <trkpt lat="50.24706" lon="5.66762">
        <ele>500</ele>
        <time>2026-09-02T16:35:14+00:00</time>
      </trkpt>
      <trkpt lat="50.24717" lon="5.66788">
        <ele>497</ele>
        <time>2026-09-02T16:35:17+00:00</time>
      </trkpt>
      <trkpt lat="50.24746" lon="5.66828">
        <ele>495</ele>
        <time>2026-09-02T16:35:20+00:00</time>
      </trkpt>
      <trkpt lat="50.24763" lon="5.66858">
        <ele>495</ele>
        <time>2026-09-02T16:35:23+00:00</time>
      </trkpt>
      <trkpt lat="50.24777" lon="5.66891">
        <ele>495</ele>
        <time>2026-09-02T16:35:26+00:00</time>
      </trkpt>
      <trkpt lat="50.24791" lon="5.66918">
        <ele>494</ele>
        <time>2026-09-02T16:35:29+00:00</time>
      </trkpt>
      <trkpt lat="50.24806" lon="5.66946">
        <ele>494</ele>
        <time>2026-09-02T16:35:32+00:00</time>
      </trkpt>
      <trkpt lat="50.24819" lon="5.66979">
        <ele>495</ele>
        <time>2026-09-02T16:35:35+00:00</time>
      </trkpt>
      <trkpt lat="50.24837" lon="5.67026">
        <ele>498</ele>
        <time>2026-09-02T16:35:38+00:00</time>
      </trkpt>
      <trkpt lat="50.24845" lon="5.67067">
        <ele>492</ele>
        <time>2026-09-02T16:35:41+00:00</time>
      </trkpt>
      <trkpt lat="50.24863" lon="5.67121">
        <ele>487</ele>
        <time>2026-09-02T16:35:44+00:00</time>
      </trkpt>
      <trkpt lat="50.24871" lon="5.67154">
        <ele>480</ele>
        <time>2026-09-02T16:35:47+00:00</time>
      </trkpt>
      <trkpt lat="50.24877" lon="5.67188">
        <ele>479</ele>
        <time>2026-09-02T16:35:50+00:00</time>
      </trkpt>
      <trkpt lat="50.24884" lon="5.67224">
        <ele>479</ele>
        <time>2026-09-02T16:35:53+00:00</time>
      </trkpt>
      <trkpt lat="50.2489" lon="5.67242">
        <ele>481</ele>
        <time>2026-09-02T16:35:56+00:00</time>
      </trkpt>
      <trkpt lat="50.249" lon="5.67257">
        <ele>479</ele>
        <time>2026-09-02T16:35:59+00:00</time>
      </trkpt>
      <trkpt lat="50.2491" lon="5.67264">
        <ele>478</ele>
        <time>2026-09-02T16:36:02+00:00</time>
      </trkpt>
      <trkpt lat="50.24935" lon="5.67255">
        <ele>487</ele>
        <time>2026-09-02T16:36:05+00:00</time>
      </trkpt>
      <trkpt lat="50.2496" lon="5.67247">
        <ele>495</ele>
        <time>2026-09-02T16:36:08+00:00</time>
      </trkpt>
      <trkpt lat="50.24989" lon="5.67237">
        <ele>498</ele>
        <time>2026-09-02T16:36:11+00:00</time>
      </trkpt>
      <trkpt lat="50.25013" lon="5.67235">
        <ele>505</ele>
        <time>2026-09-02T16:36:14+00:00</time>
      </trkpt>
      <trkpt lat="50.25043" lon="5.67232">
        <ele>511</ele>
        <time>2026-09-02T16:36:17+00:00</time>
      </trkpt>
      <trkpt lat="50.25057" lon="5.67234">
        <ele>512</ele>
        <time>2026-09-02T16:36:20+00:00</time>
      </trkpt>
      <trkpt lat="50.25079" lon="5.67253">
        <ele>513</ele>
        <time>2026-09-02T16:36:23+00:00</time>
      </trkpt>
      <trkpt lat="50.25092" lon="5.67274">
        <ele>511</ele>
        <time>2026-09-02T16:36:26+00:00</time>
      </trkpt>
      <trkpt lat="50.25099" lon="5.67294">
        <ele>512</ele>
        <time>2026-09-02T16:36:29+00:00</time>
      </trkpt>
      <trkpt lat="50.2511" lon="5.67313">
        <ele>514</ele>
        <time>2026-09-02T16:36:32+00:00</time>
      </trkpt>
      <trkpt lat="50.25127" lon="5.67338">
        <ele>517</ele>
        <time>2026-09-02T16:36:35+00:00</time>
      </trkpt>
      <trkpt lat="50.25146" lon="5.67368">
        <ele>518</ele>
        <time>2026-09-02T16:36:38+00:00</time>
      </trkpt>
      <trkpt lat="50.25157" lon="5.67382">
        <ele>520</ele>
        <time>2026-09-02T16:36:41+00:00</time>
      </trkpt>
      <trkpt lat="50.25176" lon="5.67412">
        <ele>521</ele>
        <time>2026-09-02T16:36:44+00:00</time>
      </trkpt>
      <trkpt lat="50.25196" lon="5.67442">
        <ele>523</ele>
        <time>2026-09-02T16:36:47+00:00</time>
      </trkpt>
      <trkpt lat="50.25227" lon="5.67492">
        <ele>526</ele>
        <time>2026-09-02T16:36:50+00:00</time>
      </trkpt>
      <trkpt lat="50.2525" lon="5.67513">
        <ele>527</ele>
        <time>2026-09-02T16:36:53+00:00</time>
      </trkpt>
      <trkpt lat="50.25287" lon="5.67547">
        <ele>529</ele>
        <time>2026-09-02T16:36:56+00:00</time>
      </trkpt>
      <trkpt lat="50.25302" lon="5.67565">
        <ele>529</ele>
        <time>2026-09-02T16:36:59+00:00</time>
      </trkpt>
      <trkpt lat="50.2532" lon="5.67593">
        <ele>528</ele>
        <time>2026-09-02T16:37:02+00:00</time>
      </trkpt>
      <trkpt lat="50.25346" lon="5.67635">
        <ele>527</ele>
        <time>2026-09-02T16:37:05+00:00</time>
      </trkpt>
      <trkpt lat="50.2535" lon="5.67643">
        <ele>527</ele>
        <time>2026-09-02T16:37:08+00:00</time>
      </trkpt>
      <trkpt lat="50.25336" lon="5.67672">
        <ele>527</ele>
        <time>2026-09-02T16:37:11+00:00</time>
      </trkpt>
      <trkpt lat="50.25317" lon="5.67713">
        <ele>529</ele>
        <time>2026-09-02T16:37:14+00:00</time>
      </trkpt>
      <trkpt lat="50.25303" lon="5.67741">
        <ele>529</ele>
        <time>2026-09-02T16:37:17+00:00</time>
      </trkpt>
      <trkpt lat="50.25286" lon="5.67773">
        <ele>531</ele>
        <time>2026-09-02T16:37:20+00:00</time>
      </trkpt>
      <trkpt lat="50.25281" lon="5.67786">
        <ele>531</ele>
        <time>2026-09-02T16:37:23+00:00</time>
      </trkpt>
      <trkpt lat="50.2528" lon="5.67797">
        <ele>532</ele>
        <time>2026-09-02T16:37:26+00:00</time>
      </trkpt>
      <trkpt lat="50.25284" lon="5.67822">
        <ele>531</ele>
        <time>2026-09-02T16:37:29+00:00</time>
      </trkpt>
      <trkpt lat="50.25288" lon="5.67855">
        <ele>531</ele>
        <time>2026-09-02T16:37:32+00:00</time>
      </trkpt>
      <trkpt lat="50.25291" lon="5.67893">
        <ele>530</ele>
        <time>2026-09-02T16:37:35+00:00</time>
      </trkpt>
      <trkpt lat="50.25294" lon="5.67941">
        <ele>530</ele>
        <time>2026-09-02T16:37:38+00:00</time>
      </trkpt>
      <trkpt lat="50.25295" lon="5.67941">
        <ele>530</ele>
        <time>2026-09-02T16:37:41+00:00</time>
      </trkpt>
      <trkpt lat="50.25298" lon="5.67968">
        <ele>530</ele>
        <time>2026-09-02T16:37:44+00:00</time>
      </trkpt>
      <trkpt lat="50.25305" lon="5.68002">
        <ele>529</ele>
        <time>2026-09-02T16:37:47+00:00</time>
      </trkpt>
      <trkpt lat="50.25313" lon="5.68041">
        <ele>529</ele>
        <time>2026-09-02T16:37:50+00:00</time>
      </trkpt>
      <trkpt lat="50.25313" lon="5.6806">
        <ele>529</ele>
        <time>2026-09-02T16:37:53+00:00</time>
      </trkpt>
      <trkpt lat="50.2531" lon="5.68089">
        <ele>530</ele>
        <time>2026-09-02T16:37:56+00:00</time>
      </trkpt>
      <trkpt lat="50.25306" lon="5.68127">
        <ele>530</ele>
        <time>2026-09-02T16:37:59+00:00</time>
      </trkpt>
      <trkpt lat="50.25326" lon="5.68159">
        <ele>530</ele>
        <time>2026-09-02T16:38:02+00:00</time>
      </trkpt>
      <trkpt lat="50.25346" lon="5.68192">
        <ele>529</ele>
        <time>2026-09-02T16:38:05+00:00</time>
      </trkpt>
      <trkpt lat="50.25366" lon="5.68224">
        <ele>528</ele>
        <time>2026-09-02T16:38:08+00:00</time>
      </trkpt>
      <trkpt lat="50.25381" lon="5.68238">
        <ele>528</ele>
        <time>2026-09-02T16:38:11+00:00</time>
      </trkpt>
      <trkpt lat="50.25406" lon="5.68242">
        <ele>528</ele>
        <time>2026-09-02T16:38:14+00:00</time>
      </trkpt>
      <trkpt lat="50.25443" lon="5.68248">
        <ele>528</ele>
        <time>2026-09-02T16:38:17+00:00</time>
      </trkpt>
      <trkpt lat="50.2548" lon="5.68262">
        <ele>529</ele>
        <time>2026-09-02T16:38:20+00:00</time>
      </trkpt>
      <trkpt lat="50.25509" lon="5.6831">
        <ele>531</ele>
        <time>2026-09-02T16:38:23+00:00</time>
      </trkpt>
      <trkpt lat="50.2554" lon="5.68335">
        <ele>532</ele>
        <time>2026-09-02T16:38:26+00:00</time>
      </trkpt>
      <trkpt lat="50.25564" lon="5.68341">
        <ele>531</ele>
        <time>2026-09-02T16:38:29+00:00</time>
      </trkpt>
      <trkpt lat="50.25558" lon="5.68321">
        <ele>533</ele>
        <time>2026-09-02T16:38:32+00:00</time>
      </trkpt>
      <trkpt lat="50.25558" lon="5.68303">
        <ele>531</ele>
        <time>2026-09-02T16:38:35+00:00</time>
      </trkpt>
      <trkpt lat="50.25536" lon="5.68288">
        <ele>529</ele>
        <time>2026-09-02T16:38:38+00:00</time>
      </trkpt>
      <trkpt lat="50.2551" lon="5.6827">
        <ele>528</ele>
        <time>2026-09-02T16:38:41+00:00</time>
      </trkpt>
      <trkpt lat="50.25534" lon="5.68267">
        <ele>528</ele>
        <time>2026-09-02T16:38:44+00:00</time>
      </trkpt>
      <trkpt lat="50.25564" lon="5.6828">
        <ele>528</ele>
        <time>2026-09-02T16:38:47+00:00</time>
      </trkpt>
      <trkpt lat="50.25588" lon="5.6828">
        <ele>526</ele>
        <time>2026-09-02T16:38:50+00:00</time>
      </trkpt>
      <trkpt lat="50.25616" lon="5.68275">
        <ele>522</ele>
        <time>2026-09-02T16:38:53+00:00</time>
      </trkpt>
      <trkpt lat="50.25639" lon="5.6827">
        <ele>522</ele>
        <time>2026-09-02T16:38:56+00:00</time>
      </trkpt>
      <trkpt lat="50.25666" lon="5.68264">
        <ele>521</ele>
        <time>2026-09-02T16:38:59+00:00</time>
      </trkpt>
      <trkpt lat="50.25688" lon="5.68262">
        <ele>520</ele>
        <time>2026-09-02T16:39:02+00:00</time>
      </trkpt>
      <trkpt lat="50.25713" lon="5.68261">
        <ele>517</ele>
        <time>2026-09-02T16:39:05+00:00</time>
      </trkpt>
      <trkpt lat="50.25754" lon="5.68252">
        <ele>516</ele>
        <time>2026-09-02T16:39:08+00:00</time>
      </trkpt>
      <trkpt lat="50.25772" lon="5.6827">
        <ele>516</ele>
        <time>2026-09-02T16:39:11+00:00</time>
      </trkpt>
      <trkpt lat="50.25791" lon="5.68288">
        <ele>516</ele>
        <time>2026-09-02T16:39:14+00:00</time>
      </trkpt>
      <trkpt lat="50.25809" lon="5.68311">
        <ele>518</ele>
        <time>2026-09-02T16:39:17+00:00</time>
      </trkpt>
      <trkpt lat="50.25826" lon="5.68338">
        <ele>517</ele>
        <time>2026-09-02T16:39:20+00:00</time>
      </trkpt>
      <trkpt lat="50.25833" lon="5.68308">
        <ele>517</ele>
        <time>2026-09-02T16:39:23+00:00</time>
      </trkpt>
      <trkpt lat="50.25837" lon="5.68248">
        <ele>513</ele>
        <time>2026-09-02T16:39:26+00:00</time>
      </trkpt>
      <trkpt lat="50.25842" lon="5.68238">
        <ele>513</ele>
        <time>2026-09-02T16:39:29+00:00</time>
      </trkpt>
      <trkpt lat="50.25867" lon="5.68211">
        <ele>512</ele>
        <time>2026-09-02T16:39:32+00:00</time>
      </trkpt>
      <trkpt lat="50.25895" lon="5.68192">
        <ele>511</ele>
        <time>2026-09-02T16:39:35+00:00</time>
      </trkpt>
      <trkpt lat="50.2592" lon="5.68172">
        <ele>510</ele>
        <time>2026-09-02T16:39:38+00:00</time>
      </trkpt>
      <trkpt lat="50.25932" lon="5.68157">
        <ele>509</ele>
        <time>2026-09-02T16:39:41+00:00</time>
      </trkpt>
      <trkpt lat="50.2594" lon="5.68135">
        <ele>508</ele>
        <time>2026-09-02T16:39:44+00:00</time>
      </trkpt>
      <trkpt lat="50.25942" lon="5.68114">
        <ele>507</ele>
        <time>2026-09-02T16:39:47+00:00</time>
      </trkpt>
      <trkpt lat="50.25928" lon="5.68086">
        <ele>506</ele>
        <time>2026-09-02T16:39:50+00:00</time>
      </trkpt>
      <trkpt lat="50.25903" lon="5.68037">
        <ele>503</ele>
        <time>2026-09-02T16:39:53+00:00</time>
      </trkpt>
      <trkpt lat="50.25924" lon="5.68018">
        <ele>502</ele>
        <time>2026-09-02T16:39:56+00:00</time>
      </trkpt>
      <trkpt lat="50.2595" lon="5.67994">
        <ele>501</ele>
        <time>2026-09-02T16:39:59+00:00</time>
      </trkpt>
      <trkpt lat="50.25962" lon="5.67977">
        <ele>500</ele>
        <time>2026-09-02T16:40:02+00:00</time>
      </trkpt>
      <trkpt lat="50.2597" lon="5.67959">
        <ele>499</ele>
        <time>2026-09-02T16:40:05+00:00</time>
      </trkpt>
      <trkpt lat="50.25978" lon="5.6794">
        <ele>498</ele>
        <time>2026-09-02T16:40:08+00:00</time>
      </trkpt>
      <trkpt lat="50.25986" lon="5.67911">
        <ele>498</ele>
        <time>2026-09-02T16:40:11+00:00</time>
      </trkpt>
      <trkpt lat="50.25989" lon="5.67881">
        <ele>498</ele>
        <time>2026-09-02T16:40:14+00:00</time>
      </trkpt>
      <trkpt lat="50.26006" lon="5.67868">
        <ele>498</ele>
        <time>2026-09-02T16:40:17+00:00</time>
      </trkpt>
      <trkpt lat="50.26018" lon="5.67863">
        <ele>497</ele>
        <time>2026-09-02T16:40:20+00:00</time>
      </trkpt>
      <trkpt lat="50.26039" lon="5.67859">
        <ele>497</ele>
        <time>2026-09-02T16:40:23+00:00</time>
      </trkpt>
      <trkpt lat="50.26073" lon="5.67852">
        <ele>496</ele>
        <time>2026-09-02T16:40:26+00:00</time>
      </trkpt>
      <trkpt lat="50.26085" lon="5.67855">
        <ele>496</ele>
        <time>2026-09-02T16:40:29+00:00</time>
      </trkpt>
      <trkpt lat="50.26096" lon="5.67861">
        <ele>497</ele>
        <time>2026-09-02T16:40:32+00:00</time>
      </trkpt>
      <trkpt lat="50.26107" lon="5.67878">
        <ele>497</ele>
        <time>2026-09-02T16:40:35+00:00</time>
      </trkpt>
      <trkpt lat="50.26116" lon="5.67896">
        <ele>497</ele>
        <time>2026-09-02T16:40:38+00:00</time>
      </trkpt>
      <trkpt lat="50.26124" lon="5.67921">
        <ele>497</ele>
        <time>2026-09-02T16:40:41+00:00</time>
      </trkpt>
      <trkpt lat="50.26132" lon="5.67955">
        <ele>496</ele>
        <time>2026-09-02T16:40:44+00:00</time>
      </trkpt>
      <trkpt lat="50.26141" lon="5.67995">
        <ele>494</ele>
        <time>2026-09-02T16:40:47+00:00</time>
      </trkpt>
      <trkpt lat="50.26166" lon="5.68013">
        <ele>493</ele>
        <time>2026-09-02T16:40:50+00:00</time>
      </trkpt>
      <trkpt lat="50.26212" lon="5.68045">
        <ele>486</ele>
        <time>2026-09-02T16:40:53+00:00</time>
      </trkpt>
      <trkpt lat="50.26239" lon="5.68061">
        <ele>481</ele>
        <time>2026-09-02T16:40:56+00:00</time>
      </trkpt>
      <trkpt lat="50.26256" lon="5.68067">
        <ele>476</ele>
        <time>2026-09-02T16:40:59+00:00</time>
      </trkpt>
      <trkpt lat="50.26271" lon="5.68067">
        <ele>473</ele>
        <time>2026-09-02T16:41:02+00:00</time>
      </trkpt>
      <trkpt lat="50.26279" lon="5.68062">
        <ele>476</ele>
        <time>2026-09-02T16:41:05+00:00</time>
      </trkpt>
      <trkpt lat="50.26288" lon="5.6805">
        <ele>475</ele>
        <time>2026-09-02T16:41:08+00:00</time>
      </trkpt>
      <trkpt lat="50.2629" lon="5.6804">
        <ele>476</ele>
        <time>2026-09-02T16:41:11+00:00</time>
      </trkpt>
      <trkpt lat="50.26293" lon="5.6803">
        <ele>477</ele>
        <time>2026-09-02T16:41:14+00:00</time>
      </trkpt>
      <trkpt lat="50.26292" lon="5.68011">
        <ele>478</ele>
        <time>2026-09-02T16:41:17+00:00</time>
      </trkpt>
      <trkpt lat="50.26286" lon="5.67992">
        <ele>477</ele>
        <time>2026-09-02T16:41:20+00:00</time>
      </trkpt>
      <trkpt lat="50.26282" lon="5.67969">
        <ele>480</ele>
        <time>2026-09-02T16:41:23+00:00</time>
      </trkpt>
      <trkpt lat="50.26283" lon="5.67946">
        <ele>482</ele>
        <time>2026-09-02T16:41:26+00:00</time>
      </trkpt>
      <trkpt lat="50.26292" lon="5.67921">
        <ele>484</ele>
        <time>2026-09-02T16:41:29+00:00</time>
      </trkpt>
      <trkpt lat="50.26298" lon="5.67894">
        <ele>486</ele>
        <time>2026-09-02T16:41:32+00:00</time>
      </trkpt>
      <trkpt lat="50.26304" lon="5.67883">
        <ele>487</ele>
        <time>2026-09-02T16:41:35+00:00</time>
      </trkpt>
      <trkpt lat="50.2632" lon="5.67862">
        <ele>490</ele>
        <time>2026-09-02T16:41:38+00:00</time>
      </trkpt>
      <trkpt lat="50.26333" lon="5.67833">
        <ele>494</ele>
        <time>2026-09-02T16:41:41+00:00</time>
      </trkpt>
      <trkpt lat="50.26347" lon="5.67813">
        <ele>495</ele>
        <time>2026-09-02T16:41:44+00:00</time>
      </trkpt>
      <trkpt lat="50.26354" lon="5.67809">
        <ele>497</ele>
        <time>2026-09-02T16:41:47+00:00</time>
      </trkpt>
      <trkpt lat="50.26362" lon="5.6781">
        <ele>498</ele>
        <time>2026-09-02T16:41:50+00:00</time>
      </trkpt>
      <trkpt lat="50.26368" lon="5.67816">
        <ele>498</ele>
        <time>2026-09-02T16:41:53+00:00</time>
      </trkpt>
      <trkpt lat="50.26385" lon="5.67845">
        <ele>501</ele>
        <time>2026-09-02T16:41:56+00:00</time>
      </trkpt>
      <trkpt lat="50.26409" lon="5.67887">
        <ele>507</ele>
        <time>2026-09-02T16:41:59+00:00</time>
      </trkpt>
      <trkpt lat="50.26416" lon="5.67892">
        <ele>508</ele>
        <time>2026-09-02T16:42:02+00:00</time>
      </trkpt>
      <trkpt lat="50.26421" lon="5.67889">
        <ele>508</ele>
        <time>2026-09-02T16:42:05+00:00</time>
      </trkpt>
      <trkpt lat="50.26428" lon="5.67877">
        <ele>508</ele>
        <time>2026-09-02T16:42:08+00:00</time>
      </trkpt>
      <trkpt lat="50.2643" lon="5.67858">
        <ele>509</ele>
        <time>2026-09-02T16:42:11+00:00</time>
      </trkpt>
      <trkpt lat="50.26429" lon="5.67829">
        <ele>512</ele>
        <time>2026-09-02T16:42:14+00:00</time>
      </trkpt>
      <trkpt lat="50.2643" lon="5.67796">
        <ele>514</ele>
        <time>2026-09-02T16:42:17+00:00</time>
      </trkpt>
      <trkpt lat="50.26434" lon="5.67756">
        <ele>521</ele>
        <time>2026-09-02T16:42:20+00:00</time>
      </trkpt>
      <trkpt lat="50.26441" lon="5.67696">
        <ele>526</ele>
        <time>2026-09-02T16:42:23+00:00</time>
      </trkpt>
      <trkpt lat="50.26441" lon="5.67674">
        <ele>527</ele>
        <time>2026-09-02T16:42:26+00:00</time>
      </trkpt>
      <trkpt lat="50.26435" lon="5.67638">
        <ele>527</ele>
        <time>2026-09-02T16:42:29+00:00</time>
      </trkpt>
      <trkpt lat="50.26424" lon="5.67601">
        <ele>527</ele>
        <time>2026-09-02T16:42:32+00:00</time>
      </trkpt>
      <trkpt lat="50.26406" lon="5.67544">
        <ele>526</ele>
        <time>2026-09-02T16:42:35+00:00</time>
      </trkpt>
      <trkpt lat="50.26402" lon="5.67525">
        <ele>526</ele>
        <time>2026-09-02T16:42:38+00:00</time>
      </trkpt>
      <trkpt lat="50.26399" lon="5.67494">
        <ele>526</ele>
        <time>2026-09-02T16:42:41+00:00</time>
      </trkpt>
      <trkpt lat="50.26395" lon="5.67451">
        <ele>526</ele>
        <time>2026-09-02T16:42:44+00:00</time>
      </trkpt>
      <trkpt lat="50.26387" lon="5.67395">
        <ele>526</ele>
        <time>2026-09-02T16:42:47+00:00</time>
      </trkpt>
      <trkpt lat="50.26381" lon="5.6734">
        <ele>526</ele>
        <time>2026-09-02T16:42:50+00:00</time>
      </trkpt>
      <trkpt lat="50.26378" lon="5.67303">
        <ele>526</ele>
        <time>2026-09-02T16:42:53+00:00</time>
      </trkpt>
      <trkpt lat="50.26379" lon="5.67286">
        <ele>526</ele>
        <time>2026-09-02T16:42:56+00:00</time>
      </trkpt>
      <trkpt lat="50.26384" lon="5.67245">
        <ele>527</ele>
        <time>2026-09-02T16:42:59+00:00</time>
      </trkpt>
      <trkpt lat="50.26388" lon="5.67205">
        <ele>527</ele>
        <time>2026-09-02T16:43:02+00:00</time>
      </trkpt>
      <trkpt lat="50.26394" lon="5.67155">
        <ele>528</ele>
        <time>2026-09-02T16:43:05+00:00</time>
      </trkpt>
      <trkpt lat="50.26396" lon="5.67127">
        <ele>528</ele>
        <time>2026-09-02T16:43:08+00:00</time>
      </trkpt>
      <trkpt lat="50.26393" lon="5.67088">
        <ele>528</ele>
        <time>2026-09-02T16:43:11+00:00</time>
      </trkpt>
      <trkpt lat="50.2639" lon="5.67037">
        <ele>529</ele>
        <time>2026-09-02T16:43:14+00:00</time>
      </trkpt>
      <trkpt lat="50.26393" lon="5.67004">
        <ele>530</ele>
        <time>2026-09-02T16:43:17+00:00</time>
      </trkpt>
      <trkpt lat="50.264" lon="5.66956">
        <ele>530</ele>
        <time>2026-09-02T16:43:20+00:00</time>
      </trkpt>
      <trkpt lat="50.26407" lon="5.66919">
        <ele>531</ele>
        <time>2026-09-02T16:43:23+00:00</time>
      </trkpt>
      <trkpt lat="50.26416" lon="5.66871">
        <ele>531</ele>
        <time>2026-09-02T16:43:26+00:00</time>
      </trkpt>
      <trkpt lat="50.26428" lon="5.66829">
        <ele>532</ele>
        <time>2026-09-02T16:43:29+00:00</time>
      </trkpt>
      <trkpt lat="50.26439" lon="5.66798">
        <ele>532</ele>
        <time>2026-09-02T16:43:32+00:00</time>
      </trkpt>
      <trkpt lat="50.2645" lon="5.66765">
        <ele>533</ele>
        <time>2026-09-02T16:43:35+00:00</time>
      </trkpt>
      <trkpt lat="50.26476" lon="5.6672">
        <ele>540</ele>
        <time>2026-09-02T16:43:38+00:00</time>
      </trkpt>
      <trkpt lat="50.26503" lon="5.66694">
        <ele>541</ele>
        <time>2026-09-02T16:43:41+00:00</time>
      </trkpt>
      <trkpt lat="50.2653" lon="5.66668">
        <ele>539</ele>
        <time>2026-09-02T16:43:44+00:00</time>
      </trkpt>
      <trkpt lat="50.26577" lon="5.66623">
        <ele>537</ele>
        <time>2026-09-02T16:43:47+00:00</time>
      </trkpt>
      <trkpt lat="50.2661" lon="5.66583">
        <ele>537</ele>
        <time>2026-09-02T16:43:50+00:00</time>
      </trkpt>
      <trkpt lat="50.26635" lon="5.66543">
        <ele>531</ele>
        <time>2026-09-02T16:43:53+00:00</time>
      </trkpt>
      <trkpt lat="50.26648" lon="5.66515">
        <ele>529</ele>
        <time>2026-09-02T16:43:56+00:00</time>
      </trkpt>
      <trkpt lat="50.26662" lon="5.66485">
        <ele>526</ele>
        <time>2026-09-02T16:43:59+00:00</time>
      </trkpt>
      <trkpt lat="50.26673" lon="5.66473">
        <ele>525</ele>
        <time>2026-09-02T16:44:02+00:00</time>
      </trkpt>
      <trkpt lat="50.26697" lon="5.66455">
        <ele>523</ele>
        <time>2026-09-02T16:44:05+00:00</time>
      </trkpt>
      <trkpt lat="50.26721" lon="5.66438">
        <ele>522</ele>
        <time>2026-09-02T16:44:08+00:00</time>
      </trkpt>
      <trkpt lat="50.26754" lon="5.66413">
        <ele>521</ele>
        <time>2026-09-02T16:44:11+00:00</time>
      </trkpt>
      <trkpt lat="50.26772" lon="5.66392">
        <ele>520</ele>
        <time>2026-09-02T16:44:14+00:00</time>
      </trkpt>
      <trkpt lat="50.26792" lon="5.66368">
        <ele>519</ele>
        <time>2026-09-02T16:44:17+00:00</time>
      </trkpt>
      <trkpt lat="50.26825" lon="5.66338">
        <ele>513</ele>
        <time>2026-09-02T16:44:20+00:00</time>
      </trkpt>
      <trkpt lat="50.2685" lon="5.66323">
        <ele>513</ele>
        <time>2026-09-02T16:44:23+00:00</time>
      </trkpt>
      <trkpt lat="50.26894" lon="5.66298">
        <ele>513</ele>
        <time>2026-09-02T16:44:26+00:00</time>
      </trkpt>
      <trkpt lat="50.26921" lon="5.66288">
        <ele>512</ele>
        <time>2026-09-02T16:44:29+00:00</time>
      </trkpt>
      <trkpt lat="50.26944" lon="5.66286">
        <ele>508</ele>
        <time>2026-09-02T16:44:32+00:00</time>
      </trkpt>
      <trkpt lat="50.2697" lon="5.66284">
        <ele>504</ele>
        <time>2026-09-02T16:44:35+00:00</time>
      </trkpt>
      <trkpt lat="50.27005" lon="5.66285">
        <ele>499</ele>
        <time>2026-09-02T16:44:38+00:00</time>
      </trkpt>
      <trkpt lat="50.2703" lon="5.66291">
        <ele>496</ele>
        <time>2026-09-02T16:44:41+00:00</time>
      </trkpt>
      <trkpt lat="50.27066" lon="5.66301">
        <ele>494</ele>
        <time>2026-09-02T16:44:44+00:00</time>
      </trkpt>
      <trkpt lat="50.27103" lon="5.66303">
        <ele>491</ele>
        <time>2026-09-02T16:44:47+00:00</time>
      </trkpt>
      <trkpt lat="50.27126" lon="5.66308">
        <ele>489</ele>
        <time>2026-09-02T16:44:50+00:00</time>
      </trkpt>
      <trkpt lat="50.27151" lon="5.66314">
        <ele>487</ele>
        <time>2026-09-02T16:44:53+00:00</time>
      </trkpt>
      <trkpt lat="50.27178" lon="5.66312">
        <ele>486</ele>
        <time>2026-09-02T16:44:56+00:00</time>
      </trkpt>
      <trkpt lat="50.27225" lon="5.6631">
        <ele>482</ele>
        <time>2026-09-02T16:44:59+00:00</time>
      </trkpt>
      <trkpt lat="50.27248" lon="5.66301">
        <ele>481</ele>
        <time>2026-09-02T16:45:02+00:00</time>
      </trkpt>
      <trkpt lat="50.27254" lon="5.66292">
        <ele>480</ele>
        <time>2026-09-02T16:45:05+00:00</time>
      </trkpt>
      <trkpt lat="50.27267" lon="5.66242">
        <ele>475</ele>
        <time>2026-09-02T16:45:08+00:00</time>
      </trkpt>
      <trkpt lat="50.2728" lon="5.66191">
        <ele>472</ele>
        <time>2026-09-02T16:45:11+00:00</time>
      </trkpt>
      <trkpt lat="50.27293" lon="5.66141">
        <ele>467</ele>
        <time>2026-09-02T16:45:14+00:00</time>
      </trkpt>
      <trkpt lat="50.27305" lon="5.6609">
        <ele>465</ele>
        <time>2026-09-02T16:45:17+00:00</time>
      </trkpt>
      <trkpt lat="50.27318" lon="5.6604">
        <ele>462</ele>
        <time>2026-09-02T16:45:20+00:00</time>
      </trkpt>
      <trkpt lat="50.27333" lon="5.65983">
        <ele>461</ele>
        <time>2026-09-02T16:45:23+00:00</time>
      </trkpt>
      <trkpt lat="50.27338" lon="5.66006">
        <ele>460</ele>
        <time>2026-09-02T16:45:26+00:00</time>
      </trkpt>
      <trkpt lat="50.27341" lon="5.66029">
        <ele>461</ele>
        <time>2026-09-02T16:45:29+00:00</time>
      </trkpt>
      <trkpt lat="50.27344" lon="5.66053">
        <ele>462</ele>
        <time>2026-09-02T16:45:32+00:00</time>
      </trkpt>
      <trkpt lat="50.27345" lon="5.66108">
        <ele>464</ele>
        <time>2026-09-02T16:45:35+00:00</time>
      </trkpt>
      <trkpt lat="50.27347" lon="5.66163">
        <ele>466</ele>
        <time>2026-09-02T16:45:38+00:00</time>
      </trkpt>
      <trkpt lat="50.27348" lon="5.66217">
        <ele>469</ele>
        <time>2026-09-02T16:45:41+00:00</time>
      </trkpt>
      <trkpt lat="50.2735" lon="5.66272">
        <ele>472</ele>
        <time>2026-09-02T16:45:44+00:00</time>
      </trkpt>
      <trkpt lat="50.27352" lon="5.66348">
        <ele>477</ele>
        <time>2026-09-02T16:45:47+00:00</time>
      </trkpt>
      <trkpt lat="50.27351" lon="5.66385">
        <ele>481</ele>
        <time>2026-09-02T16:45:50+00:00</time>
      </trkpt>
      <trkpt lat="50.27349" lon="5.66431">
        <ele>485</ele>
        <time>2026-09-02T16:45:53+00:00</time>
      </trkpt>
      <trkpt lat="50.27358" lon="5.6646">
        <ele>487</ele>
        <time>2026-09-02T16:45:56+00:00</time>
      </trkpt>
      <trkpt lat="50.27377" lon="5.66512">
        <ele>489</ele>
        <time>2026-09-02T16:45:59+00:00</time>
      </trkpt>
      <trkpt lat="50.27385" lon="5.66558">
        <ele>491</ele>
        <time>2026-09-02T16:46:02+00:00</time>
      </trkpt>
      <trkpt lat="50.27394" lon="5.66604">
        <ele>493</ele>
        <time>2026-09-02T16:46:05+00:00</time>
      </trkpt>
      <trkpt lat="50.27406" lon="5.66673">
        <ele>498</ele>
        <time>2026-09-02T16:46:08+00:00</time>
      </trkpt>
      <trkpt lat="50.27428" lon="5.66725">
        <ele>501</ele>
        <time>2026-09-02T16:46:11+00:00</time>
      </trkpt>
      <trkpt lat="50.27411" lon="5.66737">
        <ele>502</ele>
        <time>2026-09-02T16:46:14+00:00</time>
      </trkpt>
      <trkpt lat="50.27398" lon="5.6676">
        <ele>504</ele>
        <time>2026-09-02T16:46:17+00:00</time>
      </trkpt>
      <trkpt lat="50.27404" lon="5.66803">
        <ele>507</ele>
        <time>2026-09-02T16:46:20+00:00</time>
      </trkpt>
      <trkpt lat="50.27417" lon="5.66886">
        <ele>511</ele>
        <time>2026-09-02T16:46:23+00:00</time>
      </trkpt>
      <trkpt lat="50.2742" lon="5.6692">
        <ele>514</ele>
        <time>2026-09-02T16:46:26+00:00</time>
      </trkpt>
      <trkpt lat="50.27424" lon="5.66957">
        <ele>517</ele>
        <time>2026-09-02T16:46:29+00:00</time>
      </trkpt>
      <trkpt lat="50.27421" lon="5.67004">
        <ele>523</ele>
        <time>2026-09-02T16:46:32+00:00</time>
      </trkpt>
      <trkpt lat="50.2742" lon="5.67064">
        <ele>532</ele>
        <time>2026-09-02T16:46:35+00:00</time>
      </trkpt>
      <trkpt lat="50.27415" lon="5.67109">
        <ele>533</ele>
        <time>2026-09-02T16:46:38+00:00</time>
      </trkpt>
      <trkpt lat="50.27411" lon="5.67154">
        <ele>543</ele>
        <time>2026-09-02T16:46:41+00:00</time>
      </trkpt>
      <trkpt lat="50.27406" lon="5.67204">
        <ele>554</ele>
        <time>2026-09-02T16:46:44+00:00</time>
      </trkpt>
      <trkpt lat="50.27403" lon="5.67249">
        <ele>554</ele>
        <time>2026-09-02T16:46:47+00:00</time>
      </trkpt>
      <trkpt lat="50.274" lon="5.67294">
        <ele>553</ele>
        <time>2026-09-02T16:46:50+00:00</time>
      </trkpt>
      <trkpt lat="50.27397" lon="5.6734">
        <ele>553</ele>
        <time>2026-09-02T16:46:53+00:00</time>
      </trkpt>
      <trkpt lat="50.27384" lon="5.67387">
        <ele>544</ele>
        <time>2026-09-02T16:46:56+00:00</time>
      </trkpt>
      <trkpt lat="50.27372" lon="5.67434">
        <ele>544</ele>
        <time>2026-09-02T16:46:59+00:00</time>
      </trkpt>
      <trkpt lat="50.27359" lon="5.6748">
        <ele>547</ele>
        <time>2026-09-02T16:47:02+00:00</time>
      </trkpt>
      <trkpt lat="50.27345" lon="5.67532">
        <ele>548</ele>
        <time>2026-09-02T16:47:05+00:00</time>
      </trkpt>
      <trkpt lat="50.27332" lon="5.6756">
        <ele>550</ele>
        <time>2026-09-02T16:47:08+00:00</time>
      </trkpt>
      <trkpt lat="50.27319" lon="5.6759">
        <ele>552</ele>
        <time>2026-09-02T16:47:11+00:00</time>
      </trkpt>
      <trkpt lat="50.27295" lon="5.67629">
        <ele>554</ele>
        <time>2026-09-02T16:47:14+00:00</time>
      </trkpt>
      <trkpt lat="50.2727" lon="5.67668">
        <ele>564</ele>
        <time>2026-09-02T16:47:17+00:00</time>
      </trkpt>
      <trkpt lat="50.27246" lon="5.67707">
        <ele>568</ele>
        <time>2026-09-02T16:47:20+00:00</time>
      </trkpt>
      <trkpt lat="50.27222" lon="5.67746">
        <ele>569</ele>
        <time>2026-09-02T16:47:23+00:00</time>
      </trkpt>
      <trkpt lat="50.27193" lon="5.67793">
        <ele>570</ele>
        <time>2026-09-02T16:47:26+00:00</time>
      </trkpt>
      <trkpt lat="50.2717" lon="5.6782">
        <ele>570</ele>
        <time>2026-09-02T16:47:29+00:00</time>
      </trkpt>
      <trkpt lat="50.27128" lon="5.6787">
        <ele>577</ele>
        <time>2026-09-02T16:47:32+00:00</time>
      </trkpt>
      <trkpt lat="50.27109" lon="5.67905">
        <ele>577</ele>
        <time>2026-09-02T16:47:35+00:00</time>
      </trkpt>
      <trkpt lat="50.2709" lon="5.67941">
        <ele>578</ele>
        <time>2026-09-02T16:47:38+00:00</time>
      </trkpt>
      <trkpt lat="50.27066" lon="5.67985">
        <ele>577</ele>
        <time>2026-09-02T16:47:41+00:00</time>
      </trkpt>
      <trkpt lat="50.27051" lon="5.68038">
        <ele>578</ele>
        <time>2026-09-02T16:47:44+00:00</time>
      </trkpt>
      <trkpt lat="50.27049" lon="5.68035">
        <ele>581</ele>
        <time>2026-09-02T16:47:47+00:00</time>
      </trkpt>
      <trkpt lat="50.27049" lon="5.68038">
        <ele>581</ele>
        <time>2026-09-02T16:47:50+00:00</time>
      </trkpt>
      <trkpt lat="50.27045" lon="5.6808">
        <ele>579</ele>
        <time>2026-09-02T16:47:53+00:00</time>
      </trkpt>
      <trkpt lat="50.27036" lon="5.68162">
        <ele>580</ele>
        <time>2026-09-02T16:47:56+00:00</time>
      </trkpt>
      <trkpt lat="50.27027" lon="5.68207">
        <ele>580</ele>
        <time>2026-09-02T16:47:59+00:00</time>
      </trkpt>
      <trkpt lat="50.27017" lon="5.68252">
        <ele>579</ele>
        <time>2026-09-02T16:48:02+00:00</time>
      </trkpt>
      <trkpt lat="50.27005" lon="5.68313">
        <ele>577</ele>
        <time>2026-09-02T16:48:05+00:00</time>
      </trkpt>
      <trkpt lat="50.27" lon="5.6836">
        <ele>575</ele>
        <time>2026-09-02T16:48:08+00:00</time>
      </trkpt>
      <trkpt lat="50.26994" lon="5.68406">
        <ele>572</ele>
        <time>2026-09-02T16:48:11+00:00</time>
      </trkpt>
      <trkpt lat="50.26987" lon="5.6847">
        <ele>569</ele>
        <time>2026-09-02T16:48:14+00:00</time>
      </trkpt>
      <trkpt lat="50.26983" lon="5.68517">
        <ele>566</ele>
        <time>2026-09-02T16:48:17+00:00</time>
      </trkpt>
      <trkpt lat="50.2698" lon="5.68564">
        <ele>563</ele>
        <time>2026-09-02T16:48:20+00:00</time>
      </trkpt>
      <trkpt lat="50.26975" lon="5.68629">
        <ele>559</ele>
        <time>2026-09-02T16:48:23+00:00</time>
      </trkpt>
      <trkpt lat="50.26973" lon="5.68677">
        <ele>557</ele>
        <time>2026-09-02T16:48:26+00:00</time>
      </trkpt>
      <trkpt lat="50.2697" lon="5.68724">
        <ele>553</ele>
        <time>2026-09-02T16:48:29+00:00</time>
      </trkpt>
      <trkpt lat="50.26967" lon="5.68792">
        <ele>548</ele>
        <time>2026-09-02T16:48:32+00:00</time>
      </trkpt>
      <trkpt lat="50.26963" lon="5.6884">
        <ele>546</ele>
        <time>2026-09-02T16:48:35+00:00</time>
      </trkpt>
      <trkpt lat="50.26959" lon="5.68888">
        <ele>543</ele>
        <time>2026-09-02T16:48:38+00:00</time>
      </trkpt>
      <trkpt lat="50.26952" lon="5.68963">
        <ele>541</ele>
        <time>2026-09-02T16:48:41+00:00</time>
      </trkpt>
      <trkpt lat="50.26938" lon="5.69017">
        <ele>538</ele>
        <time>2026-09-02T16:48:44+00:00</time>
      </trkpt>
      <trkpt lat="50.2692" lon="5.69066">
        <ele>537</ele>
        <time>2026-09-02T16:48:47+00:00</time>
      </trkpt>
      <trkpt lat="50.26903" lon="5.69114">
        <ele>536</ele>
        <time>2026-09-02T16:48:50+00:00</time>
      </trkpt>
      <trkpt lat="50.26885" lon="5.69163">
        <ele>534</ele>
        <time>2026-09-02T16:48:53+00:00</time>
      </trkpt>
      <trkpt lat="50.26868" lon="5.69211">
        <ele>533</ele>
        <time>2026-09-02T16:48:56+00:00</time>
      </trkpt>
      <trkpt lat="50.26835" lon="5.69302">
        <ele>533</ele>
        <time>2026-09-02T16:48:59+00:00</time>
      </trkpt>
      <trkpt lat="50.26828" lon="5.69332">
        <ele>533</ele>
        <time>2026-09-02T16:49:02+00:00</time>
      </trkpt>
      <trkpt lat="50.26825" lon="5.69371">
        <ele>533</ele>
        <time>2026-09-02T16:49:05+00:00</time>
      </trkpt>
      <trkpt lat="50.26824" lon="5.69371">
        <ele>533</ele>
        <time>2026-09-02T16:49:08+00:00</time>
      </trkpt>
      <trkpt lat="50.26802" lon="5.69396">
        <ele>534</ele>
        <time>2026-09-02T16:49:11+00:00</time>
      </trkpt>
      <trkpt lat="50.26764" lon="5.6944">
        <ele>536</ele>
        <time>2026-09-02T16:49:14+00:00</time>
      </trkpt>
      <trkpt lat="50.26752" lon="5.69453">
        <ele>537</ele>
        <time>2026-09-02T16:49:17+00:00</time>
      </trkpt>
      <trkpt lat="50.26734" lon="5.69496">
        <ele>540</ele>
        <time>2026-09-02T16:49:20+00:00</time>
      </trkpt>
      <trkpt lat="50.26716" lon="5.6954">
        <ele>544</ele>
        <time>2026-09-02T16:49:23+00:00</time>
      </trkpt>
      <trkpt lat="50.26698" lon="5.69583">
        <ele>548</ele>
        <time>2026-09-02T16:49:26+00:00</time>
      </trkpt>
      <trkpt lat="50.2668" lon="5.69627">
        <ele>551</ele>
        <time>2026-09-02T16:49:29+00:00</time>
      </trkpt>
      <trkpt lat="50.26647" lon="5.69705">
        <ele>556</ele>
        <time>2026-09-02T16:49:32+00:00</time>
      </trkpt>
      <trkpt lat="50.26632" lon="5.69739">
        <ele>556</ele>
        <time>2026-09-02T16:49:35+00:00</time>
      </trkpt>
      <trkpt lat="50.26606" lon="5.69797">
        <ele>557</ele>
        <time>2026-09-02T16:49:38+00:00</time>
      </trkpt>
      <trkpt lat="50.26626" lon="5.69817">
        <ele>557</ele>
        <time>2026-09-02T16:49:41+00:00</time>
      </trkpt>
      <trkpt lat="50.26635" lon="5.69831">
        <ele>554</ele>
        <time>2026-09-02T16:49:44+00:00</time>
      </trkpt>
      <trkpt lat="50.2664" lon="5.69854">
        <ele>553</ele>
        <time>2026-09-02T16:49:47+00:00</time>
      </trkpt>
      <trkpt lat="50.26641" lon="5.69884">
        <ele>553</ele>
        <time>2026-09-02T16:49:50+00:00</time>
      </trkpt>
      <trkpt lat="50.26639" lon="5.69934">
        <ele>556</ele>
        <time>2026-09-02T16:49:53+00:00</time>
      </trkpt>
      <trkpt lat="50.26638" lon="5.69984">
        <ele>556</ele>
        <time>2026-09-02T16:49:56+00:00</time>
      </trkpt>
      <trkpt lat="50.26635" lon="5.70076">
        <ele>556</ele>
        <time>2026-09-02T16:49:59+00:00</time>
      </trkpt>
      <trkpt lat="50.26635" lon="5.7013">
        <ele>556</ele>
        <time>2026-09-02T16:50:02+00:00</time>
      </trkpt>
      <trkpt lat="50.26635" lon="5.70183">
        <ele>556</ele>
        <time>2026-09-02T16:50:05+00:00</time>
      </trkpt>
      <trkpt lat="50.26635" lon="5.70237">
        <ele>556</ele>
        <time>2026-09-02T16:50:08+00:00</time>
      </trkpt>
      <trkpt lat="50.26635" lon="5.70341">
        <ele>557</ele>
        <time>2026-09-02T16:50:11+00:00</time>
      </trkpt>
      <trkpt lat="50.26633" lon="5.70372">
        <ele>559</ele>
        <time>2026-09-02T16:50:14+00:00</time>
      </trkpt>
      <trkpt lat="50.26635" lon="5.70407">
        <ele>559</ele>
        <time>2026-09-02T16:50:17+00:00</time>
      </trkpt>
      <trkpt lat="50.26637" lon="5.70444">
        <ele>560</ele>
        <time>2026-09-02T16:50:20+00:00</time>
      </trkpt>
      <trkpt lat="50.26641" lon="5.70487">
        <ele>560</ele>
        <time>2026-09-02T16:50:23+00:00</time>
      </trkpt>
      <trkpt lat="50.26649" lon="5.70565">
        <ele>563</ele>
        <time>2026-09-02T16:50:26+00:00</time>
      </trkpt>
      <trkpt lat="50.26652" lon="5.70614">
        <ele>563</ele>
        <time>2026-09-02T16:50:29+00:00</time>
      </trkpt>
      <trkpt lat="50.26656" lon="5.70663">
        <ele>565</ele>
        <time>2026-09-02T16:50:32+00:00</time>
      </trkpt>
      <trkpt lat="50.26662" lon="5.70752">
        <ele>568</ele>
        <time>2026-09-02T16:50:35+00:00</time>
      </trkpt>
      <trkpt lat="50.26666" lon="5.70795">
        <ele>571</ele>
        <time>2026-09-02T16:50:38+00:00</time>
      </trkpt>
      <trkpt lat="50.26675" lon="5.70878">
        <ele>583</ele>
        <time>2026-09-02T16:50:41+00:00</time>
      </trkpt>
      <trkpt lat="50.26676" lon="5.70925">
        <ele>589</ele>
        <time>2026-09-02T16:50:44+00:00</time>
      </trkpt>
      <trkpt lat="50.26675" lon="5.70986">
        <ele>588</ele>
        <time>2026-09-02T16:50:47+00:00</time>
      </trkpt>
      <trkpt lat="50.26675" lon="5.71047">
        <ele>588</ele>
        <time>2026-09-02T16:50:50+00:00</time>
      </trkpt>
      <trkpt lat="50.26675" lon="5.71108">
        <ele>585</ele>
        <time>2026-09-02T16:50:53+00:00</time>
      </trkpt>
      <trkpt lat="50.26674" lon="5.71169">
        <ele>585</ele>
        <time>2026-09-02T16:50:56+00:00</time>
      </trkpt>
      <trkpt lat="50.26674" lon="5.7123">
        <ele>585</ele>
        <time>2026-09-02T16:50:59+00:00</time>
      </trkpt>
      <trkpt lat="50.26673" lon="5.71292">
        <ele>587</ele>
        <time>2026-09-02T16:51:02+00:00</time>
      </trkpt>
      <trkpt lat="50.26673" lon="5.71353">
        <ele>588</ele>
        <time>2026-09-02T16:51:05+00:00</time>
      </trkpt>
      <trkpt lat="50.26672" lon="5.71414">
        <ele>588</ele>
        <time>2026-09-02T16:51:08+00:00</time>
      </trkpt>
      <trkpt lat="50.26672" lon="5.71475">
        <ele>588</ele>
        <time>2026-09-02T16:51:11+00:00</time>
      </trkpt>
      <trkpt lat="50.26671" lon="5.7158">
        <ele>589</ele>
        <time>2026-09-02T16:51:14+00:00</time>
      </trkpt>
      <trkpt lat="50.26672" lon="5.71625">
        <ele>592</ele>
        <time>2026-09-02T16:51:17+00:00</time>
      </trkpt>
      <trkpt lat="50.26673" lon="5.71712">
        <ele>606</ele>
        <time>2026-09-02T16:51:20+00:00</time>
      </trkpt>
      <trkpt lat="50.26677" lon="5.71733">
        <ele>607</ele>
        <time>2026-09-02T16:51:23+00:00</time>
      </trkpt>
      <trkpt lat="50.26679" lon="5.71752">
        <ele>606</ele>
        <time>2026-09-02T16:51:26+00:00</time>
      </trkpt>
      <trkpt lat="50.26683" lon="5.71768">
        <ele>604</ele>
        <time>2026-09-02T16:51:29+00:00</time>
      </trkpt>
      <trkpt lat="50.26698" lon="5.718">
        <ele>606</ele>
        <time>2026-09-02T16:51:32+00:00</time>
      </trkpt>
      <trkpt lat="50.26716" lon="5.71837">
        <ele>606</ele>
        <time>2026-09-02T16:51:35+00:00</time>
      </trkpt>
      <trkpt lat="50.26734" lon="5.71873">
        <ele>606</ele>
        <time>2026-09-02T16:51:38+00:00</time>
      </trkpt>
      <trkpt lat="50.26755" lon="5.71916">
        <ele>605</ele>
        <time>2026-09-02T16:51:41+00:00</time>
      </trkpt>
      <trkpt lat="50.26759" lon="5.7191">
        <ele>605</ele>
        <time>2026-09-02T16:51:44+00:00</time>
      </trkpt>
      <trkpt lat="50.26788" lon="5.71872">
        <ele>601</ele>
        <time>2026-09-02T16:51:47+00:00</time>
      </trkpt>
      <trkpt lat="50.26817" lon="5.71835">
        <ele>597</ele>
        <time>2026-09-02T16:51:50+00:00</time>
      </trkpt>
      <trkpt lat="50.26846" lon="5.71797">
        <ele>591</ele>
        <time>2026-09-02T16:51:53+00:00</time>
      </trkpt>
      <trkpt lat="50.26875" lon="5.7176">
        <ele>580</ele>
        <time>2026-09-02T16:51:56+00:00</time>
      </trkpt>
      <trkpt lat="50.26905" lon="5.71722">
        <ele>580</ele>
        <time>2026-09-02T16:51:59+00:00</time>
      </trkpt>
      <trkpt lat="50.26934" lon="5.71685">
        <ele>580</ele>
        <time>2026-09-02T16:52:02+00:00</time>
      </trkpt>
      <trkpt lat="50.26963" lon="5.71648">
        <ele>580</ele>
        <time>2026-09-02T16:52:05+00:00</time>
      </trkpt>
      <trkpt lat="50.26992" lon="5.7161">
        <ele>577</ele>
        <time>2026-09-02T16:52:08+00:00</time>
      </trkpt>
      <trkpt lat="50.27024" lon="5.71569">
        <ele>569</ele>
        <time>2026-09-02T16:52:11+00:00</time>
      </trkpt>
      <trkpt lat="50.27033" lon="5.71552">
        <ele>568</ele>
        <time>2026-09-02T16:52:14+00:00</time>
      </trkpt>
      <trkpt lat="50.27042" lon="5.71543">
        <ele>565</ele>
        <time>2026-09-02T16:52:17+00:00</time>
      </trkpt>
      <trkpt lat="50.27062" lon="5.71548">
        <ele>565</ele>
        <time>2026-09-02T16:52:20+00:00</time>
      </trkpt>
      <trkpt lat="50.27094" lon="5.71546">
        <ele>569</ele>
        <time>2026-09-02T16:52:23+00:00</time>
      </trkpt>
      <trkpt lat="50.27126" lon="5.71544">
        <ele>567</ele>
        <time>2026-09-02T16:52:26+00:00</time>
      </trkpt>
      <trkpt lat="50.2719" lon="5.7154">
        <ele>566</ele>
        <time>2026-09-02T16:52:29+00:00</time>
      </trkpt>
      <trkpt lat="50.27228" lon="5.71539">
        <ele>565</ele>
        <time>2026-09-02T16:52:32+00:00</time>
      </trkpt>
      <trkpt lat="50.27266" lon="5.71539">
        <ele>563</ele>
        <time>2026-09-02T16:52:35+00:00</time>
      </trkpt>
      <trkpt lat="50.27303" lon="5.71538">
        <ele>558</ele>
        <time>2026-09-02T16:52:38+00:00</time>
      </trkpt>
      <trkpt lat="50.27341" lon="5.71537">
        <ele>555</ele>
        <time>2026-09-02T16:52:41+00:00</time>
      </trkpt>
      <trkpt lat="50.27379" lon="5.71537">
        <ele>553</ele>
        <time>2026-09-02T16:52:44+00:00</time>
      </trkpt>
      <trkpt lat="50.27417" lon="5.71536">
        <ele>552</ele>
        <time>2026-09-02T16:52:47+00:00</time>
      </trkpt>
      <trkpt lat="50.27454" lon="5.71536">
        <ele>546</ele>
        <time>2026-09-02T16:52:50+00:00</time>
      </trkpt>
      <trkpt lat="50.27499" lon="5.71535">
        <ele>543</ele>
        <time>2026-09-02T16:52:53+00:00</time>
      </trkpt>
      <trkpt lat="50.27514" lon="5.71538">
        <ele>542</ele>
        <time>2026-09-02T16:52:56+00:00</time>
      </trkpt>
      <trkpt lat="50.27529" lon="5.71547">
        <ele>543</ele>
        <time>2026-09-02T16:52:59+00:00</time>
      </trkpt>
      <trkpt lat="50.27545" lon="5.71557">
        <ele>541</ele>
        <time>2026-09-02T16:53:02+00:00</time>
      </trkpt>
      <trkpt lat="50.27565" lon="5.71572">
        <ele>541</ele>
        <time>2026-09-02T16:53:05+00:00</time>
      </trkpt>
      <trkpt lat="50.27598" lon="5.71595">
        <ele>540</ele>
        <time>2026-09-02T16:53:08+00:00</time>
      </trkpt>
      <trkpt lat="50.27631" lon="5.71617">
        <ele>539</ele>
        <time>2026-09-02T16:53:11+00:00</time>
      </trkpt>
      <trkpt lat="50.27664" lon="5.7164">
        <ele>539</ele>
        <time>2026-09-02T16:53:14+00:00</time>
      </trkpt>
      <trkpt lat="50.27697" lon="5.71663">
        <ele>536</ele>
        <time>2026-09-02T16:53:17+00:00</time>
      </trkpt>
      <trkpt lat="50.2773" lon="5.71686">
        <ele>533</ele>
        <time>2026-09-02T16:53:20+00:00</time>
      </trkpt>
      <trkpt lat="50.27768" lon="5.71712">
        <ele>531</ele>
        <time>2026-09-02T16:53:23+00:00</time>
      </trkpt>
      <trkpt lat="50.27795" lon="5.71735">
        <ele>527</ele>
        <time>2026-09-02T16:53:26+00:00</time>
      </trkpt>
      <trkpt lat="50.27822" lon="5.71759">
        <ele>524</ele>
        <time>2026-09-02T16:53:29+00:00</time>
      </trkpt>
      <trkpt lat="50.27861" lon="5.71793">
        <ele>522</ele>
        <time>2026-09-02T16:53:32+00:00</time>
      </trkpt>
      <trkpt lat="50.27872" lon="5.71808">
        <ele>521</ele>
        <time>2026-09-02T16:53:35+00:00</time>
      </trkpt>
      <trkpt lat="50.27882" lon="5.71827">
        <ele>520</ele>
        <time>2026-09-02T16:53:38+00:00</time>
      </trkpt>
      <trkpt lat="50.27893" lon="5.71847">
        <ele>520</ele>
        <time>2026-09-02T16:53:41+00:00</time>
      </trkpt>
      <trkpt lat="50.27906" lon="5.71877">
        <ele>520</ele>
        <time>2026-09-02T16:53:44+00:00</time>
      </trkpt>
      <trkpt lat="50.27922" lon="5.71914">
        <ele>518</ele>
        <time>2026-09-02T16:53:47+00:00</time>
      </trkpt>
      <trkpt lat="50.27935" lon="5.71935">
        <ele>518</ele>
        <time>2026-09-02T16:53:50+00:00</time>
      </trkpt>
      <trkpt lat="50.2795" lon="5.71896">
        <ele>516</ele>
        <time>2026-09-02T16:53:53+00:00</time>
      </trkpt>
      <trkpt lat="50.27951" lon="5.71838">
        <ele>512</ele>
        <time>2026-09-02T16:53:56+00:00</time>
      </trkpt>
      <trkpt lat="50.27954" lon="5.71806">
        <ele>510</ele>
        <time>2026-09-02T16:53:59+00:00</time>
      </trkpt>
      <trkpt lat="50.27965" lon="5.71776">
        <ele>506</ele>
        <time>2026-09-02T16:54:02+00:00</time>
      </trkpt>
      <trkpt lat="50.27979" lon="5.71751">
        <ele>504</ele>
        <time>2026-09-02T16:54:05+00:00</time>
      </trkpt>
      <trkpt lat="50.27994" lon="5.71726">
        <ele>500</ele>
        <time>2026-09-02T16:54:08+00:00</time>
      </trkpt>
      <trkpt lat="50.28012" lon="5.71705">
        <ele>500</ele>
        <time>2026-09-02T16:54:11+00:00</time>
      </trkpt>
      <trkpt lat="50.2803" lon="5.71683">
        <ele>498</ele>
        <time>2026-09-02T16:54:14+00:00</time>
      </trkpt>
      <trkpt lat="50.28052" lon="5.71661">
        <ele>496</ele>
        <time>2026-09-02T16:54:17+00:00</time>
      </trkpt>
      <trkpt lat="50.28082" lon="5.71636">
        <ele>491</ele>
        <time>2026-09-02T16:54:20+00:00</time>
      </trkpt>
      <trkpt lat="50.28106" lon="5.71601">
        <ele>488</ele>
        <time>2026-09-02T16:54:23+00:00</time>
      </trkpt>
      <trkpt lat="50.28119" lon="5.71577">
        <ele>485</ele>
        <time>2026-09-02T16:54:26+00:00</time>
      </trkpt>
      <trkpt lat="50.28128" lon="5.71546">
        <ele>483</ele>
        <time>2026-09-02T16:54:29+00:00</time>
      </trkpt>
      <trkpt lat="50.28137" lon="5.71514">
        <ele>482</ele>
        <time>2026-09-02T16:54:32+00:00</time>
      </trkpt>
      <trkpt lat="50.28154" lon="5.71487">
        <ele>478</ele>
        <time>2026-09-02T16:54:35+00:00</time>
      </trkpt>
      <trkpt lat="50.28164" lon="5.7148">
        <ele>477</ele>
        <time>2026-09-02T16:54:38+00:00</time>
      </trkpt>
      <trkpt lat="50.28169" lon="5.71435">
        <ele>476</ele>
        <time>2026-09-02T16:54:41+00:00</time>
      </trkpt>
      <trkpt lat="50.28173" lon="5.71389">
        <ele>473</ele>
        <time>2026-09-02T16:54:44+00:00</time>
      </trkpt>
      <trkpt lat="50.28182" lon="5.71301">
        <ele>470</ele>
        <time>2026-09-02T16:54:47+00:00</time>
      </trkpt>
      <trkpt lat="50.2818" lon="5.71282">
        <ele>470</ele>
        <time>2026-09-02T16:54:50+00:00</time>
      </trkpt>
      <trkpt lat="50.28186" lon="5.7126">
        <ele>469</ele>
        <time>2026-09-02T16:54:53+00:00</time>
      </trkpt>
      <trkpt lat="50.28195" lon="5.71212">
        <ele>467</ele>
        <time>2026-09-02T16:54:56+00:00</time>
      </trkpt>
      <trkpt lat="50.282" lon="5.71191">
        <ele>467</ele>
        <time>2026-09-02T16:54:59+00:00</time>
      </trkpt>
      <trkpt lat="50.28215" lon="5.71153">
        <ele>464</ele>
        <time>2026-09-02T16:55:02+00:00</time>
      </trkpt>
      <trkpt lat="50.28232" lon="5.71119">
        <ele>463</ele>
        <time>2026-09-02T16:55:05+00:00</time>
      </trkpt>
      <trkpt lat="50.2824" lon="5.71099">
        <ele>462</ele>
        <time>2026-09-02T16:55:08+00:00</time>
      </trkpt>
      <trkpt lat="50.28246" lon="5.71072">
        <ele>459</ele>
        <time>2026-09-02T16:55:11+00:00</time>
      </trkpt>
      <trkpt lat="50.28247" lon="5.71034">
        <ele>457</ele>
        <time>2026-09-02T16:55:14+00:00</time>
      </trkpt>
      <trkpt lat="50.28248" lon="5.70985">
        <ele>456</ele>
        <time>2026-09-02T16:55:17+00:00</time>
      </trkpt>
      <trkpt lat="50.28242" lon="5.70947">
        <ele>453</ele>
        <time>2026-09-02T16:55:20+00:00</time>
      </trkpt>
      <trkpt lat="50.28235" lon="5.70898">
        <ele>450</ele>
        <time>2026-09-02T16:55:23+00:00</time>
      </trkpt>
      <trkpt lat="50.28234" lon="5.70868">
        <ele>448</ele>
        <time>2026-09-02T16:55:26+00:00</time>
      </trkpt>
      <trkpt lat="50.2824" lon="5.70821">
        <ele>446</ele>
        <time>2026-09-02T16:55:29+00:00</time>
      </trkpt>
      <trkpt lat="50.28245" lon="5.70775">
        <ele>447</ele>
        <time>2026-09-02T16:55:32+00:00</time>
      </trkpt>
      <trkpt lat="50.28253" lon="5.7071">
        <ele>449</ele>
        <time>2026-09-02T16:55:35+00:00</time>
      </trkpt>
      <trkpt lat="50.28256" lon="5.7067">
        <ele>453</ele>
        <time>2026-09-02T16:55:38+00:00</time>
      </trkpt>
      <trkpt lat="50.28273" lon="5.70651">
        <ele>456</ele>
        <time>2026-09-02T16:55:41+00:00</time>
      </trkpt>
      <trkpt lat="50.28282" lon="5.70648">
        <ele>458</ele>
        <time>2026-09-02T16:55:44+00:00</time>
      </trkpt>
      <trkpt lat="50.28292" lon="5.7065">
        <ele>457</ele>
        <time>2026-09-02T16:55:47+00:00</time>
      </trkpt>
      <trkpt lat="50.28318" lon="5.70674">
        <ele>458</ele>
        <time>2026-09-02T16:55:50+00:00</time>
      </trkpt>
      <trkpt lat="50.28333" lon="5.70682">
        <ele>459</ele>
        <time>2026-09-02T16:55:53+00:00</time>
      </trkpt>
      <trkpt lat="50.28342" lon="5.70683">
        <ele>460</ele>
        <time>2026-09-02T16:55:56+00:00</time>
      </trkpt>
      <trkpt lat="50.28352" lon="5.7068">
        <ele>463</ele>
        <time>2026-09-02T16:55:59+00:00</time>
      </trkpt>
      <trkpt lat="50.2838" lon="5.70667">
        <ele>466</ele>
        <time>2026-09-02T16:56:02+00:00</time>
      </trkpt>
      <trkpt lat="50.28403" lon="5.70666">
        <ele>469</ele>
        <time>2026-09-02T16:56:05+00:00</time>
      </trkpt>
      <trkpt lat="50.28432" lon="5.70673">
        <ele>473</ele>
        <time>2026-09-02T16:56:08+00:00</time>
      </trkpt>
      <trkpt lat="50.28461" lon="5.7068">
        <ele>476</ele>
        <time>2026-09-02T16:56:11+00:00</time>
      </trkpt>
      <trkpt lat="50.28496" lon="5.70689">
        <ele>479</ele>
        <time>2026-09-02T16:56:14+00:00</time>
      </trkpt>
      <trkpt lat="50.28521" lon="5.70686">
        <ele>481</ele>
        <time>2026-09-02T16:56:17+00:00</time>
      </trkpt>
      <trkpt lat="50.28557" lon="5.70681">
        <ele>482</ele>
        <time>2026-09-02T16:56:20+00:00</time>
      </trkpt>
      <trkpt lat="50.28578" lon="5.70685">
        <ele>483</ele>
        <time>2026-09-02T16:56:23+00:00</time>
      </trkpt>
      <trkpt lat="50.28602" lon="5.70704">
        <ele>489</ele>
        <time>2026-09-02T16:56:26+00:00</time>
      </trkpt>
      <trkpt lat="50.28626" lon="5.70729">
        <ele>493</ele>
        <time>2026-09-02T16:56:29+00:00</time>
      </trkpt>
      <trkpt lat="50.2864" lon="5.70739">
        <ele>494</ele>
        <time>2026-09-02T16:56:32+00:00</time>
      </trkpt>
      <trkpt lat="50.28654" lon="5.70743">
        <ele>498</ele>
        <time>2026-09-02T16:56:35+00:00</time>
      </trkpt>
      <trkpt lat="50.2867" lon="5.70747">
        <ele>498</ele>
        <time>2026-09-02T16:56:38+00:00</time>
      </trkpt>
      <trkpt lat="50.28677" lon="5.70764">
        <ele>497</ele>
        <time>2026-09-02T16:56:41+00:00</time>
      </trkpt>
      <trkpt lat="50.28688" lon="5.70782">
        <ele>498</ele>
        <time>2026-09-02T16:56:44+00:00</time>
      </trkpt>
      <trkpt lat="50.28701" lon="5.70803">
        <ele>502</ele>
        <time>2026-09-02T16:56:47+00:00</time>
      </trkpt>
      <trkpt lat="50.28719" lon="5.70829">
        <ele>503</ele>
        <time>2026-09-02T16:56:50+00:00</time>
      </trkpt>
      <trkpt lat="50.28725" lon="5.70841">
        <ele>503</ele>
        <time>2026-09-02T16:56:53+00:00</time>
      </trkpt>
      <trkpt lat="50.28728" lon="5.7086">
        <ele>503</ele>
        <time>2026-09-02T16:56:56+00:00</time>
      </trkpt>
      <trkpt lat="50.28736" lon="5.70874">
        <ele>503</ele>
        <time>2026-09-02T16:56:59+00:00</time>
      </trkpt>
      <trkpt lat="50.28746" lon="5.70885">
        <ele>503</ele>
        <time>2026-09-02T16:57:02+00:00</time>
      </trkpt>
      <trkpt lat="50.28767" lon="5.709">
        <ele>500</ele>
        <time>2026-09-02T16:57:05+00:00</time>
      </trkpt>
      <trkpt lat="50.28792" lon="5.70919">
        <ele>490</ele>
        <time>2026-09-02T16:57:08+00:00</time>
      </trkpt>
      <trkpt lat="50.28819" lon="5.70935">
        <ele>488</ele>
        <time>2026-09-02T16:57:11+00:00</time>
      </trkpt>
      <trkpt lat="50.28843" lon="5.70956">
        <ele>486</ele>
        <time>2026-09-02T16:57:14+00:00</time>
      </trkpt>
      <trkpt lat="50.28886" lon="5.70995">
        <ele>486</ele>
        <time>2026-09-02T16:57:17+00:00</time>
      </trkpt>
      <trkpt lat="50.28907" lon="5.71006">
        <ele>486</ele>
        <time>2026-09-02T16:57:20+00:00</time>
      </trkpt>
      <trkpt lat="50.28928" lon="5.71017">
        <ele>481</ele>
        <time>2026-09-02T16:57:23+00:00</time>
      </trkpt>
      <trkpt lat="50.28953" lon="5.71013">
        <ele>482</ele>
        <time>2026-09-02T16:57:26+00:00</time>
      </trkpt>
      <trkpt lat="50.28991" lon="5.71008">
        <ele>483</ele>
        <time>2026-09-02T16:57:29+00:00</time>
      </trkpt>
      <trkpt lat="50.29015" lon="5.71012">
        <ele>492</ele>
        <time>2026-09-02T16:57:32+00:00</time>
      </trkpt>
      <trkpt lat="50.29034" lon="5.71032">
        <ele>491</ele>
        <time>2026-09-02T16:57:35+00:00</time>
      </trkpt>
      <trkpt lat="50.29054" lon="5.71059">
        <ele>490</ele>
        <time>2026-09-02T16:57:38+00:00</time>
      </trkpt>
      <trkpt lat="50.29065" lon="5.71083">
        <ele>486</ele>
        <time>2026-09-02T16:57:41+00:00</time>
      </trkpt>
      <trkpt lat="50.29067" lon="5.71105">
        <ele>483</ele>
        <time>2026-09-02T16:57:44+00:00</time>
      </trkpt>
      <trkpt lat="50.29059" lon="5.71121">
        <ele>477</ele>
        <time>2026-09-02T16:57:47+00:00</time>
      </trkpt>
      <trkpt lat="50.29053" lon="5.71154">
        <ele>472</ele>
        <time>2026-09-02T16:57:50+00:00</time>
      </trkpt>
      <trkpt lat="50.29062" lon="5.71212">
        <ele>470</ele>
        <time>2026-09-02T16:57:53+00:00</time>
      </trkpt>
      <trkpt lat="50.29077" lon="5.71207">
        <ele>461</ele>
        <time>2026-09-02T16:57:56+00:00</time>
      </trkpt>
      <trkpt lat="50.29093" lon="5.7121">
        <ele>469</ele>
        <time>2026-09-02T16:57:59+00:00</time>
      </trkpt>
      <trkpt lat="50.29122" lon="5.71225">
        <ele>469</ele>
        <time>2026-09-02T16:58:02+00:00</time>
      </trkpt>
      <trkpt lat="50.29151" lon="5.71241">
        <ele>472</ele>
        <time>2026-09-02T16:58:05+00:00</time>
      </trkpt>
      <trkpt lat="50.29193" lon="5.71263">
        <ele>483</ele>
        <time>2026-09-02T16:58:08+00:00</time>
      </trkpt>
      <trkpt lat="50.29194" lon="5.71255">
        <ele>487</ele>
        <time>2026-09-02T16:58:11+00:00</time>
      </trkpt>
      <trkpt lat="50.29196" lon="5.71198">
        <ele>490</ele>
        <time>2026-09-02T16:58:14+00:00</time>
      </trkpt>
      <trkpt lat="50.29192" lon="5.71145">
        <ele>490</ele>
        <time>2026-09-02T16:58:17+00:00</time>
      </trkpt>
      <trkpt lat="50.2918" lon="5.71082">
        <ele>490</ele>
        <time>2026-09-02T16:58:20+00:00</time>
      </trkpt>
      <trkpt lat="50.29175" lon="5.71024">
        <ele>501</ele>
        <time>2026-09-02T16:58:23+00:00</time>
      </trkpt>
      <trkpt lat="50.29181" lon="5.7098">
        <ele>507</ele>
        <time>2026-09-02T16:58:26+00:00</time>
      </trkpt>
      <trkpt lat="50.29181" lon="5.70961">
        <ele>509</ele>
        <time>2026-09-02T16:58:29+00:00</time>
      </trkpt>
      <trkpt lat="50.29167" lon="5.7094">
        <ele>510</ele>
        <time>2026-09-02T16:58:32+00:00</time>
      </trkpt>
      <trkpt lat="50.29149" lon="5.70912">
        <ele>509</ele>
        <time>2026-09-02T16:58:35+00:00</time>
      </trkpt>
      <trkpt lat="50.29122" lon="5.7088">
        <ele>509</ele>
        <time>2026-09-02T16:58:38+00:00</time>
      </trkpt>
      <trkpt lat="50.29118" lon="5.70871">
        <ele>506</ele>
        <time>2026-09-02T16:58:41+00:00</time>
      </trkpt>
      <trkpt lat="50.29115" lon="5.70841">
        <ele>508</ele>
        <time>2026-09-02T16:58:44+00:00</time>
      </trkpt>
      <trkpt lat="50.29122" lon="5.70806">
        <ele>508</ele>
        <time>2026-09-02T16:58:47+00:00</time>
      </trkpt>
      <trkpt lat="50.2913" lon="5.70763">
        <ele>509</ele>
        <time>2026-09-02T16:58:50+00:00</time>
      </trkpt>
      <trkpt lat="50.29133" lon="5.70717">
        <ele>508</ele>
        <time>2026-09-02T16:58:53+00:00</time>
      </trkpt>
      <trkpt lat="50.29158" lon="5.70754">
        <ele>508</ele>
        <time>2026-09-02T16:58:56+00:00</time>
      </trkpt>
      <trkpt lat="50.29183" lon="5.70792">
        <ele>508</ele>
        <time>2026-09-02T16:58:59+00:00</time>
      </trkpt>
      <trkpt lat="50.29208" lon="5.70829">
        <ele>508</ele>
        <time>2026-09-02T16:59:02+00:00</time>
      </trkpt>
      <trkpt lat="50.29232" lon="5.70867">
        <ele>506</ele>
        <time>2026-09-02T16:59:05+00:00</time>
      </trkpt>
      <trkpt lat="50.29259" lon="5.70907">
        <ele>504</ele>
        <time>2026-09-02T16:59:08+00:00</time>
      </trkpt>
      <trkpt lat="50.29281" lon="5.70937">
        <ele>503</ele>
        <time>2026-09-02T16:59:11+00:00</time>
      </trkpt>
      <trkpt lat="50.29303" lon="5.70966">
        <ele>502</ele>
        <time>2026-09-02T16:59:14+00:00</time>
      </trkpt>
      <trkpt lat="50.29327" lon="5.70999">
        <ele>502</ele>
        <time>2026-09-02T16:59:17+00:00</time>
      </trkpt>
      <trkpt lat="50.29354" lon="5.71044">
        <ele>503</ele>
        <time>2026-09-02T16:59:20+00:00</time>
      </trkpt>
      <trkpt lat="50.29373" lon="5.7108">
        <ele>503</ele>
        <time>2026-09-02T16:59:23+00:00</time>
      </trkpt>
      <trkpt lat="50.29393" lon="5.71117">
        <ele>501</ele>
        <time>2026-09-02T16:59:26+00:00</time>
      </trkpt>
      <trkpt lat="50.29419" lon="5.71166">
        <ele>500</ele>
        <time>2026-09-02T16:59:29+00:00</time>
      </trkpt>
      <trkpt lat="50.29433" lon="5.71177">
        <ele>501</ele>
        <time>2026-09-02T16:59:32+00:00</time>
      </trkpt>
      <trkpt lat="50.29444" lon="5.7119">
        <ele>500</ele>
        <time>2026-09-02T16:59:35+00:00</time>
      </trkpt>
      <trkpt lat="50.29456" lon="5.71222">
        <ele>500</ele>
        <time>2026-09-02T16:59:38+00:00</time>
      </trkpt>
      <trkpt lat="50.2947" lon="5.71261">
        <ele>508</ele>
        <time>2026-09-02T16:59:41+00:00</time>
      </trkpt>
      <trkpt lat="50.29488" lon="5.71299">
        <ele>509</ele>
        <time>2026-09-02T16:59:44+00:00</time>
      </trkpt>
      <trkpt lat="50.29507" lon="5.71338">
        <ele>506</ele>
        <time>2026-09-02T16:59:47+00:00</time>
      </trkpt>
      <trkpt lat="50.29534" lon="5.71395">
        <ele>503</ele>
        <time>2026-09-02T16:59:50+00:00</time>
      </trkpt>
      <trkpt lat="50.2955" lon="5.71436">
        <ele>501</ele>
        <time>2026-09-02T16:59:53+00:00</time>
      </trkpt>
      <trkpt lat="50.29558" lon="5.71468">
        <ele>499</ele>
        <time>2026-09-02T16:59:56+00:00</time>
      </trkpt>
      <trkpt lat="50.29581" lon="5.71502">
        <ele>494</ele>
        <time>2026-09-02T16:59:59+00:00</time>
      </trkpt>
      <trkpt lat="50.29599" lon="5.71542">
        <ele>494</ele>
        <time>2026-09-02T17:00:02+00:00</time>
      </trkpt>
      <trkpt lat="50.29611" lon="5.71556">
        <ele>491</ele>
        <time>2026-09-02T17:00:05+00:00</time>
      </trkpt>
      <trkpt lat="50.2963" lon="5.71574">
        <ele>495</ele>
        <time>2026-09-02T17:00:08+00:00</time>
      </trkpt>
      <trkpt lat="50.29656" lon="5.71622">
        <ele>499</ele>
        <time>2026-09-02T17:00:11+00:00</time>
      </trkpt>
      <trkpt lat="50.29668" lon="5.71654">
        <ele>499</ele>
        <time>2026-09-02T17:00:14+00:00</time>
      </trkpt>
      <trkpt lat="50.29685" lon="5.71667">
        <ele>500</ele>
        <time>2026-09-02T17:00:17+00:00</time>
      </trkpt>
      <trkpt lat="50.29706" lon="5.71684">
        <ele>501</ele>
        <time>2026-09-02T17:00:20+00:00</time>
      </trkpt>
      <trkpt lat="50.2973" lon="5.71705">
        <ele>499</ele>
        <time>2026-09-02T17:00:23+00:00</time>
      </trkpt>
      <trkpt lat="50.29753" lon="5.71716">
        <ele>498</ele>
        <time>2026-09-02T17:00:26+00:00</time>
      </trkpt>
      <trkpt lat="50.29778" lon="5.71719">
        <ele>494</ele>
        <time>2026-09-02T17:00:29+00:00</time>
      </trkpt>
      <trkpt lat="50.29818" lon="5.7172">
        <ele>483</ele>
        <time>2026-09-02T17:00:32+00:00</time>
      </trkpt>
      <trkpt lat="50.29842" lon="5.71731">
        <ele>466</ele>
        <time>2026-09-02T17:00:35+00:00</time>
      </trkpt>
      <trkpt lat="50.29874" lon="5.71747">
        <ele>462</ele>
        <time>2026-09-02T17:00:38+00:00</time>
      </trkpt>
      <trkpt lat="50.29895" lon="5.71767">
        <ele>460</ele>
        <time>2026-09-02T17:00:41+00:00</time>
      </trkpt>
      <trkpt lat="50.29916" lon="5.71805">
        <ele>456</ele>
        <time>2026-09-02T17:00:44+00:00</time>
      </trkpt>
      <trkpt lat="50.2994" lon="5.71843">
        <ele>451</ele>
        <time>2026-09-02T17:00:47+00:00</time>
      </trkpt>
      <trkpt lat="50.29956" lon="5.71861">
        <ele>448</ele>
        <time>2026-09-02T17:00:50+00:00</time>
      </trkpt>
      <trkpt lat="50.29978" lon="5.71871">
        <ele>446</ele>
        <time>2026-09-02T17:00:53+00:00</time>
      </trkpt>
      <trkpt lat="50.29998" lon="5.71871">
        <ele>447</ele>
        <time>2026-09-02T17:00:56+00:00</time>
      </trkpt>
      <trkpt lat="50.3002" lon="5.71889">
        <ele>446</ele>
        <time>2026-09-02T17:00:59+00:00</time>
      </trkpt>
      <trkpt lat="50.3005" lon="5.71915">
        <ele>446</ele>
        <time>2026-09-02T17:01:02+00:00</time>
      </trkpt>
      <trkpt lat="50.30074" lon="5.71925">
        <ele>444</ele>
        <time>2026-09-02T17:01:05+00:00</time>
      </trkpt>
      <trkpt lat="50.30105" lon="5.71938">
        <ele>441</ele>
        <time>2026-09-02T17:01:08+00:00</time>
      </trkpt>
      <trkpt lat="50.30118" lon="5.71954">
        <ele>431</ele>
        <time>2026-09-02T17:01:11+00:00</time>
      </trkpt>
      <trkpt lat="50.30101" lon="5.71961">
        <ele>441</ele>
        <time>2026-09-02T17:01:14+00:00</time>
      </trkpt>
      <trkpt lat="50.30078" lon="5.7197">
        <ele>440</ele>
        <time>2026-09-02T17:01:17+00:00</time>
      </trkpt>
      <trkpt lat="50.30056" lon="5.71972">
        <ele>440</ele>
        <time>2026-09-02T17:01:20+00:00</time>
      </trkpt>
      <trkpt lat="50.30031" lon="5.71974">
        <ele>441</ele>
        <time>2026-09-02T17:01:23+00:00</time>
      </trkpt>
      <trkpt lat="50.30004" lon="5.71985">
        <ele>439</ele>
        <time>2026-09-02T17:01:26+00:00</time>
      </trkpt>
      <trkpt lat="50.29951" lon="5.72006">
        <ele>437</ele>
        <time>2026-09-02T17:01:29+00:00</time>
      </trkpt>
      <trkpt lat="50.29928" lon="5.72019">
        <ele>445</ele>
        <time>2026-09-02T17:01:32+00:00</time>
      </trkpt>
      <trkpt lat="50.29896" lon="5.72037">
        <ele>453</ele>
        <time>2026-09-02T17:01:35+00:00</time>
      </trkpt>
      <trkpt lat="50.29872" lon="5.72044">
        <ele>450</ele>
        <time>2026-09-02T17:01:38+00:00</time>
      </trkpt>
      <trkpt lat="50.29839" lon="5.72054">
        <ele>448</ele>
        <time>2026-09-02T17:01:41+00:00</time>
      </trkpt>
      <trkpt lat="50.29802" lon="5.72058">
        <ele>448</ele>
        <time>2026-09-02T17:01:44+00:00</time>
      </trkpt>
      <trkpt lat="50.29765" lon="5.72061">
        <ele>448</ele>
        <time>2026-09-02T17:01:47+00:00</time>
      </trkpt>
      <trkpt lat="50.29728" lon="5.72065">
        <ele>437</ele>
        <time>2026-09-02T17:01:50+00:00</time>
      </trkpt>
      <trkpt lat="50.29691" lon="5.72069">
        <ele>437</ele>
        <time>2026-09-02T17:01:53+00:00</time>
      </trkpt>
      <trkpt lat="50.29654" lon="5.72073">
        <ele>439</ele>
        <time>2026-09-02T17:01:56+00:00</time>
      </trkpt>
      <trkpt lat="50.29617" lon="5.72076">
        <ele>443</ele>
        <time>2026-09-02T17:01:59+00:00</time>
      </trkpt>
      <trkpt lat="50.29571" lon="5.72081">
        <ele>440</ele>
        <time>2026-09-02T17:02:02+00:00</time>
      </trkpt>
      <trkpt lat="50.29537" lon="5.72068">
        <ele>441</ele>
        <time>2026-09-02T17:02:05+00:00</time>
      </trkpt>
      <trkpt lat="50.29502" lon="5.72055">
        <ele>438</ele>
        <time>2026-09-02T17:02:08+00:00</time>
      </trkpt>
      <trkpt lat="50.29468" lon="5.72042">
        <ele>435</ele>
        <time>2026-09-02T17:02:11+00:00</time>
      </trkpt>
      <trkpt lat="50.29434" lon="5.72029">
        <ele>430</ele>
        <time>2026-09-02T17:02:14+00:00</time>
      </trkpt>
      <trkpt lat="50.29381" lon="5.72009">
        <ele>421</ele>
        <time>2026-09-02T17:02:17+00:00</time>
      </trkpt>
      <trkpt lat="50.29358" lon="5.71983">
        <ele>423</ele>
        <time>2026-09-02T17:02:20+00:00</time>
      </trkpt>
      <trkpt lat="50.29313" lon="5.71933">
        <ele>425</ele>
        <time>2026-09-02T17:02:23+00:00</time>
      </trkpt>
      <trkpt lat="50.29288" lon="5.71921">
        <ele>425</ele>
        <time>2026-09-02T17:02:26+00:00</time>
      </trkpt>
      <trkpt lat="50.29249" lon="5.71903">
        <ele>414</ele>
        <time>2026-09-02T17:02:29+00:00</time>
      </trkpt>
      <trkpt lat="50.29217" lon="5.71901">
        <ele>413</ele>
        <time>2026-09-02T17:02:32+00:00</time>
      </trkpt>
      <trkpt lat="50.29195" lon="5.71918">
        <ele>413</ele>
        <time>2026-09-02T17:02:35+00:00</time>
      </trkpt>
      <trkpt lat="50.29168" lon="5.7194">
        <ele>413</ele>
        <time>2026-09-02T17:02:38+00:00</time>
      </trkpt>
      <trkpt lat="50.2919" lon="5.71993">
        <ele>413</ele>
        <time>2026-09-02T17:02:41+00:00</time>
      </trkpt>
      <trkpt lat="50.29199" lon="5.72037">
        <ele>415</ele>
        <time>2026-09-02T17:02:44+00:00</time>
      </trkpt>
      <trkpt lat="50.29208" lon="5.72081">
        <ele>415</ele>
        <time>2026-09-02T17:02:47+00:00</time>
      </trkpt>
      <trkpt lat="50.29219" lon="5.72132">
        <ele>416</ele>
        <time>2026-09-02T17:02:50+00:00</time>
      </trkpt>
      <trkpt lat="50.29226" lon="5.7217">
        <ele>416</ele>
        <time>2026-09-02T17:02:53+00:00</time>
      </trkpt>
      <trkpt lat="50.29252" lon="5.72146">
        <ele>416</ele>
        <time>2026-09-02T17:02:56+00:00</time>
      </trkpt>
      <trkpt lat="50.29279" lon="5.72122">
        <ele>414</ele>
        <time>2026-09-02T17:02:59+00:00</time>
      </trkpt>
      <trkpt lat="50.29317" lon="5.72087">
        <ele>411</ele>
        <time>2026-09-02T17:03:02+00:00</time>
      </trkpt>
      <trkpt lat="50.29331" lon="5.72075">
        <ele>410</ele>
        <time>2026-09-02T17:03:05+00:00</time>
      </trkpt>
      <trkpt lat="50.29339" lon="5.72061">
        <ele>410</ele>
        <time>2026-09-02T17:03:08+00:00</time>
      </trkpt>
      <trkpt lat="50.2934" lon="5.7206">
        <ele>410</ele>
        <time>2026-09-02T17:03:11+00:00</time>
      </trkpt>
      <trkpt lat="50.29368" lon="5.72091">
        <ele>410</ele>
        <time>2026-09-02T17:03:14+00:00</time>
      </trkpt>
      <trkpt lat="50.29399" lon="5.72082">
        <ele>410</ele>
        <time>2026-09-02T17:03:17+00:00</time>
      </trkpt>
      <trkpt lat="50.29404" lon="5.7208">
        <ele>409</ele>
        <time>2026-09-02T17:03:20+00:00</time>
      </trkpt>
      <trkpt lat="50.29412" lon="5.72083">
        <ele>408</ele>
        <time>2026-09-02T17:03:23+00:00</time>
      </trkpt>
      <trkpt lat="50.29419" lon="5.72092">
        <ele>409</ele>
        <time>2026-09-02T17:03:26+00:00</time>
      </trkpt>
      <trkpt lat="50.29422" lon="5.7211">
        <ele>407</ele>
        <time>2026-09-02T17:03:29+00:00</time>
      </trkpt>
      <trkpt lat="50.29423" lon="5.72134">
        <ele>409</ele>
        <time>2026-09-02T17:03:32+00:00</time>
      </trkpt>
      <trkpt lat="50.29433" lon="5.72192">
        <ele>409</ele>
        <time>2026-09-02T17:03:35+00:00</time>
      </trkpt>
      <trkpt lat="50.29432" lon="5.72193">
        <ele>409</ele>
        <time>2026-09-02T17:03:38+00:00</time>
      </trkpt>
      <trkpt lat="50.29442" lon="5.72235">
        <ele>409</ele>
        <time>2026-09-02T17:03:41+00:00</time>
      </trkpt>
      <trkpt lat="50.29453" lon="5.72277">
        <ele>410</ele>
        <time>2026-09-02T17:03:44+00:00</time>
      </trkpt>
      <trkpt lat="50.29464" lon="5.72322">
        <ele>410</ele>
        <time>2026-09-02T17:03:47+00:00</time>
      </trkpt>
      <trkpt lat="50.29478" lon="5.72358">
        <ele>411</ele>
        <time>2026-09-02T17:03:50+00:00</time>
      </trkpt>
      <trkpt lat="50.29504" lon="5.72423">
        <ele>414</ele>
        <time>2026-09-02T17:03:53+00:00</time>
      </trkpt>
      <trkpt lat="50.29533" lon="5.72408">
        <ele>414</ele>
        <time>2026-09-02T17:03:56+00:00</time>
      </trkpt>
      <trkpt lat="50.29563" lon="5.72392">
        <ele>413</ele>
        <time>2026-09-02T17:03:59+00:00</time>
      </trkpt>
      <trkpt lat="50.29608" lon="5.72369">
        <ele>412</ele>
        <time>2026-09-02T17:04:02+00:00</time>
      </trkpt>
      <trkpt lat="50.29619" lon="5.7238">
        <ele>411</ele>
        <time>2026-09-02T17:04:05+00:00</time>
      </trkpt>
      <trkpt lat="50.2963" lon="5.72399">
        <ele>412</ele>
        <time>2026-09-02T17:04:08+00:00</time>
      </trkpt>
      <trkpt lat="50.29635" lon="5.72424">
        <ele>414</ele>
        <time>2026-09-02T17:04:11+00:00</time>
      </trkpt>
      <trkpt lat="50.29639" lon="5.72449">
        <ele>415</ele>
        <time>2026-09-02T17:04:14+00:00</time>
      </trkpt>
      <trkpt lat="50.29644" lon="5.72482">
        <ele>413</ele>
        <time>2026-09-02T17:04:17+00:00</time>
      </trkpt>
      <trkpt lat="50.29652" lon="5.72523">
        <ele>412</ele>
        <time>2026-09-02T17:04:20+00:00</time>
      </trkpt>
      <trkpt lat="50.29658" lon="5.72538">
        <ele>412</ele>
        <time>2026-09-02T17:04:23+00:00</time>
      </trkpt>
      <trkpt lat="50.29667" lon="5.72553">
        <ele>411</ele>
        <time>2026-09-02T17:04:26+00:00</time>
      </trkpt>
      <trkpt lat="50.29677" lon="5.72564">
        <ele>411</ele>
        <time>2026-09-02T17:04:29+00:00</time>
      </trkpt>
      <trkpt lat="50.29705" lon="5.7258">
        <ele>410</ele>
        <time>2026-09-02T17:04:32+00:00</time>
      </trkpt>
      <trkpt lat="50.29736" lon="5.72595">
        <ele>409</ele>
        <time>2026-09-02T17:04:35+00:00</time>
      </trkpt>
      <trkpt lat="50.29767" lon="5.7261">
        <ele>409</ele>
        <time>2026-09-02T17:04:38+00:00</time>
      </trkpt>
      <trkpt lat="50.29798" lon="5.72626">
        <ele>410</ele>
        <time>2026-09-02T17:04:41+00:00</time>
      </trkpt>
      <trkpt lat="50.29831" lon="5.72642">
        <ele>410</ele>
        <time>2026-09-02T17:04:44+00:00</time>
      </trkpt>
      <trkpt lat="50.29818" lon="5.72672">
        <ele>412</ele>
        <time>2026-09-02T17:04:47+00:00</time>
      </trkpt>
      <trkpt lat="50.29803" lon="5.72706">
        <ele>413</ele>
        <time>2026-09-02T17:04:50+00:00</time>
      </trkpt>
      <trkpt lat="50.29791" lon="5.72739">
        <ele>415</ele>
        <time>2026-09-02T17:04:53+00:00</time>
      </trkpt>
      <trkpt lat="50.29776" lon="5.72783">
        <ele>418</ele>
        <time>2026-09-02T17:04:56+00:00</time>
      </trkpt>
      <trkpt lat="50.29768" lon="5.728">
        <ele>419</ele>
        <time>2026-09-02T17:04:59+00:00</time>
      </trkpt>
      <trkpt lat="50.29758" lon="5.72814">
        <ele>419</ele>
        <time>2026-09-02T17:05:02+00:00</time>
      </trkpt>
      <trkpt lat="50.29726" lon="5.7284">
        <ele>420</ele>
        <time>2026-09-02T17:05:05+00:00</time>
      </trkpt>
      <trkpt lat="50.29694" lon="5.72867">
        <ele>421</ele>
        <time>2026-09-02T17:05:08+00:00</time>
      </trkpt>
      <trkpt lat="50.29663" lon="5.72893">
        <ele>427</ele>
        <time>2026-09-02T17:05:11+00:00</time>
      </trkpt>
      <trkpt lat="50.29631" lon="5.72919">
        <ele>435</ele>
        <time>2026-09-02T17:05:14+00:00</time>
      </trkpt>
      <trkpt lat="50.29599" lon="5.72946">
        <ele>435</ele>
        <time>2026-09-02T17:05:17+00:00</time>
      </trkpt>
      <trkpt lat="50.29565" lon="5.72974">
        <ele>436</ele>
        <time>2026-09-02T17:05:20+00:00</time>
      </trkpt>
      <trkpt lat="50.29535" lon="5.72995">
        <ele>438</ele>
        <time>2026-09-02T17:05:23+00:00</time>
      </trkpt>
      <trkpt lat="50.29506" lon="5.73016">
        <ele>438</ele>
        <time>2026-09-02T17:05:26+00:00</time>
      </trkpt>
      <trkpt lat="50.29476" lon="5.73037">
        <ele>440</ele>
        <time>2026-09-02T17:05:29+00:00</time>
      </trkpt>
      <trkpt lat="50.29445" lon="5.7306">
        <ele>442</ele>
        <time>2026-09-02T17:05:32+00:00</time>
      </trkpt>
      <trkpt lat="50.29416" lon="5.73068">
        <ele>445</ele>
        <time>2026-09-02T17:05:35+00:00</time>
      </trkpt>
      <trkpt lat="50.29402" lon="5.7308">
        <ele>446</ele>
        <time>2026-09-02T17:05:38+00:00</time>
      </trkpt>
      <trkpt lat="50.2939" lon="5.73102">
        <ele>449</ele>
        <time>2026-09-02T17:05:41+00:00</time>
      </trkpt>
      <trkpt lat="50.29363" lon="5.731">
        <ele>449</ele>
        <time>2026-09-02T17:05:44+00:00</time>
      </trkpt>
      <trkpt lat="50.29315" lon="5.73096">
        <ele>450</ele>
        <time>2026-09-02T17:05:47+00:00</time>
      </trkpt>
      <trkpt lat="50.29281" lon="5.73081">
        <ele>450</ele>
        <time>2026-09-02T17:05:50+00:00</time>
      </trkpt>
      <trkpt lat="50.29252" lon="5.73066">
        <ele>449</ele>
        <time>2026-09-02T17:05:53+00:00</time>
      </trkpt>
      <trkpt lat="50.29223" lon="5.73051">
        <ele>449</ele>
        <time>2026-09-02T17:05:56+00:00</time>
      </trkpt>
      <trkpt lat="50.2918" lon="5.73029">
        <ele>451</ele>
        <time>2026-09-02T17:05:59+00:00</time>
      </trkpt>
      <trkpt lat="50.29159" lon="5.73014">
        <ele>453</ele>
        <time>2026-09-02T17:06:02+00:00</time>
      </trkpt>
      <trkpt lat="50.29134" lon="5.72991">
        <ele>454</ele>
        <time>2026-09-02T17:06:05+00:00</time>
      </trkpt>
      <trkpt lat="50.29109" lon="5.72968">
        <ele>454</ele>
        <time>2026-09-02T17:06:08+00:00</time>
      </trkpt>
      <trkpt lat="50.29084" lon="5.72945">
        <ele>454</ele>
        <time>2026-09-02T17:06:11+00:00</time>
      </trkpt>
      <trkpt lat="50.29063" lon="5.72925">
        <ele>454</ele>
        <time>2026-09-02T17:06:14+00:00</time>
      </trkpt>
      <trkpt lat="50.29051" lon="5.72919">
        <ele>452</ele>
        <time>2026-09-02T17:06:17+00:00</time>
      </trkpt>
      <trkpt lat="50.29024" lon="5.72918">
        <ele>454</ele>
        <time>2026-09-02T17:06:20+00:00</time>
      </trkpt>
      <trkpt lat="50.28998" lon="5.72914">
        <ele>455</ele>
        <time>2026-09-02T17:06:23+00:00</time>
      </trkpt>
      <trkpt lat="50.28956" lon="5.72907">
        <ele>455</ele>
        <time>2026-09-02T17:06:26+00:00</time>
      </trkpt>
      <trkpt lat="50.28923" lon="5.72898">
        <ele>458</ele>
        <time>2026-09-02T17:06:29+00:00</time>
      </trkpt>
      <trkpt lat="50.2889" lon="5.72889">
        <ele>459</ele>
        <time>2026-09-02T17:06:32+00:00</time>
      </trkpt>
      <trkpt lat="50.28856" lon="5.72879">
        <ele>460</ele>
        <time>2026-09-02T17:06:35+00:00</time>
      </trkpt>
      <trkpt lat="50.28804" lon="5.72865">
        <ele>463</ele>
        <time>2026-09-02T17:06:38+00:00</time>
      </trkpt>
      <trkpt lat="50.28773" lon="5.72861">
        <ele>466</ele>
        <time>2026-09-02T17:06:41+00:00</time>
      </trkpt>
      <trkpt lat="50.28768" lon="5.72866">
        <ele>464</ele>
        <time>2026-09-02T17:06:44+00:00</time>
      </trkpt>
      <trkpt lat="50.28788" lon="5.72882">
        <ele>469</ele>
        <time>2026-09-02T17:06:47+00:00</time>
      </trkpt>
      <trkpt lat="50.28806" lon="5.729">
        <ele>470</ele>
        <time>2026-09-02T17:06:50+00:00</time>
      </trkpt>
      <trkpt lat="50.28829" lon="5.72926">
        <ele>470</ele>
        <time>2026-09-02T17:06:53+00:00</time>
      </trkpt>
      <trkpt lat="50.28874" lon="5.72978">
        <ele>472</ele>
        <time>2026-09-02T17:06:56+00:00</time>
      </trkpt>
      <trkpt lat="50.28902" lon="5.73009">
        <ele>472</ele>
        <time>2026-09-02T17:06:59+00:00</time>
      </trkpt>
      <trkpt lat="50.28931" lon="5.73039">
        <ele>472</ele>
        <time>2026-09-02T17:07:02+00:00</time>
      </trkpt>
      <trkpt lat="50.28959" lon="5.7307">
        <ele>472</ele>
        <time>2026-09-02T17:07:05+00:00</time>
      </trkpt>
      <trkpt lat="50.28987" lon="5.73101">
        <ele>472</ele>
        <time>2026-09-02T17:07:08+00:00</time>
      </trkpt>
      <trkpt lat="50.29017" lon="5.73133">
        <ele>473</ele>
        <time>2026-09-02T17:07:11+00:00</time>
      </trkpt>
      <trkpt lat="50.29032" lon="5.73153">
        <ele>473</ele>
        <time>2026-09-02T17:07:14+00:00</time>
      </trkpt>
      <trkpt lat="50.29054" lon="5.73189">
        <ele>474</ele>
        <time>2026-09-02T17:07:17+00:00</time>
      </trkpt>
      <trkpt lat="50.29077" lon="5.73238">
        <ele>476</ele>
        <time>2026-09-02T17:07:20+00:00</time>
      </trkpt>
      <trkpt lat="50.29087" lon="5.73271">
        <ele>486</ele>
        <time>2026-09-02T17:07:23+00:00</time>
      </trkpt>
      <trkpt lat="50.291" lon="5.7331">
        <ele>493</ele>
        <time>2026-09-02T17:07:26+00:00</time>
      </trkpt>
      <trkpt lat="50.29115" lon="5.73349">
        <ele>492</ele>
        <time>2026-09-02T17:07:29+00:00</time>
      </trkpt>
      <trkpt lat="50.29135" lon="5.73378">
        <ele>492</ele>
        <time>2026-09-02T17:07:32+00:00</time>
      </trkpt>
      <trkpt lat="50.29146" lon="5.73426">
        <ele>492</ele>
        <time>2026-09-02T17:07:35+00:00</time>
      </trkpt>
      <trkpt lat="50.29161" lon="5.73476">
        <ele>491</ele>
        <time>2026-09-02T17:07:38+00:00</time>
      </trkpt>
      <trkpt lat="50.2917" lon="5.73518">
        <ele>491</ele>
        <time>2026-09-02T17:07:41+00:00</time>
      </trkpt>
      <trkpt lat="50.2918" lon="5.73542">
        <ele>491</ele>
        <time>2026-09-02T17:07:44+00:00</time>
      </trkpt>
      <trkpt lat="50.29191" lon="5.73563">
        <ele>490</ele>
        <time>2026-09-02T17:07:47+00:00</time>
      </trkpt>
      <trkpt lat="50.292" lon="5.73598">
        <ele>487</ele>
        <time>2026-09-02T17:07:50+00:00</time>
      </trkpt>
      <trkpt lat="50.2921" lon="5.73614">
        <ele>484</ele>
        <time>2026-09-02T17:07:53+00:00</time>
      </trkpt>
      <trkpt lat="50.29217" lon="5.73635">
        <ele>486</ele>
        <time>2026-09-02T17:07:56+00:00</time>
      </trkpt>
      <trkpt lat="50.29233" lon="5.73672">
        <ele>486</ele>
        <time>2026-09-02T17:07:59+00:00</time>
      </trkpt>
      <trkpt lat="50.29243" lon="5.73701">
        <ele>488</ele>
        <time>2026-09-02T17:08:02+00:00</time>
      </trkpt>
      <trkpt lat="50.29254" lon="5.73731">
        <ele>491</ele>
        <time>2026-09-02T17:08:05+00:00</time>
      </trkpt>
      <trkpt lat="50.29265" lon="5.7377">
        <ele>498</ele>
        <time>2026-09-02T17:08:08+00:00</time>
      </trkpt>
      <trkpt lat="50.29287" lon="5.73796">
        <ele>499</ele>
        <time>2026-09-02T17:08:11+00:00</time>
      </trkpt>
      <trkpt lat="50.29326" lon="5.73843">
        <ele>499</ele>
        <time>2026-09-02T17:08:14+00:00</time>
      </trkpt>
      <trkpt lat="50.29346" lon="5.7387">
        <ele>499</ele>
        <time>2026-09-02T17:08:17+00:00</time>
      </trkpt>
      <trkpt lat="50.29379" lon="5.73915">
        <ele>499</ele>
        <time>2026-09-02T17:08:20+00:00</time>
      </trkpt>
      <trkpt lat="50.29398" lon="5.73946">
        <ele>499</ele>
        <time>2026-09-02T17:08:23+00:00</time>
      </trkpt>
      <trkpt lat="50.2943" lon="5.74001">
        <ele>500</ele>
        <time>2026-09-02T17:08:26+00:00</time>
      </trkpt>
      <trkpt lat="50.29447" lon="5.74036">
        <ele>501</ele>
        <time>2026-09-02T17:08:29+00:00</time>
      </trkpt>
      <trkpt lat="50.29477" lon="5.74099">
        <ele>504</ele>
        <time>2026-09-02T17:08:32+00:00</time>
      </trkpt>
      <trkpt lat="50.29497" lon="5.74152">
        <ele>505</ele>
        <time>2026-09-02T17:08:35+00:00</time>
      </trkpt>
      <trkpt lat="50.29511" lon="5.74195">
        <ele>506</ele>
        <time>2026-09-02T17:08:38+00:00</time>
      </trkpt>
      <trkpt lat="50.29525" lon="5.74239">
        <ele>508</ele>
        <time>2026-09-02T17:08:41+00:00</time>
      </trkpt>
      <trkpt lat="50.29548" lon="5.7431">
        <ele>509</ele>
        <time>2026-09-02T17:08:44+00:00</time>
      </trkpt>
      <trkpt lat="50.29561" lon="5.74354">
        <ele>511</ele>
        <time>2026-09-02T17:08:47+00:00</time>
      </trkpt>
      <trkpt lat="50.29573" lon="5.74397">
        <ele>520</ele>
        <time>2026-09-02T17:08:50+00:00</time>
      </trkpt>
      <trkpt lat="50.29592" lon="5.74462">
        <ele>525</ele>
        <time>2026-09-02T17:08:53+00:00</time>
      </trkpt>
      <trkpt lat="50.29601" lon="5.7451">
        <ele>526</ele>
        <time>2026-09-02T17:08:56+00:00</time>
      </trkpt>
      <trkpt lat="50.2961" lon="5.74549">
        <ele>526</ele>
        <time>2026-09-02T17:08:59+00:00</time>
      </trkpt>
      <trkpt lat="50.29624" lon="5.74611">
        <ele>523</ele>
        <time>2026-09-02T17:09:02+00:00</time>
      </trkpt>
      <trkpt lat="50.2964" lon="5.74646">
        <ele>523</ele>
        <time>2026-09-02T17:09:05+00:00</time>
      </trkpt>
      <trkpt lat="50.29643" lon="5.74662">
        <ele>521</ele>
        <time>2026-09-02T17:09:08+00:00</time>
      </trkpt>
      <trkpt lat="50.29647" lon="5.74696">
        <ele>523</ele>
        <time>2026-09-02T17:09:11+00:00</time>
      </trkpt>
      <trkpt lat="50.29654" lon="5.74749">
        <ele>523</ele>
        <time>2026-09-02T17:09:14+00:00</time>
      </trkpt>
      <trkpt lat="50.29662" lon="5.7478">
        <ele>515</ele>
        <time>2026-09-02T17:09:17+00:00</time>
      </trkpt>
      <trkpt lat="50.29671" lon="5.74812">
        <ele>513</ele>
        <time>2026-09-02T17:09:20+00:00</time>
      </trkpt>
      <trkpt lat="50.29682" lon="5.74847">
        <ele>513</ele>
        <time>2026-09-02T17:09:23+00:00</time>
      </trkpt>
      <trkpt lat="50.29696" lon="5.74894">
        <ele>515</ele>
        <time>2026-09-02T17:09:26+00:00</time>
      </trkpt>
      <trkpt lat="50.29701" lon="5.74927">
        <ele>517</ele>
        <time>2026-09-02T17:09:29+00:00</time>
      </trkpt>
      <trkpt lat="50.29707" lon="5.7496">
        <ele>517</ele>
        <time>2026-09-02T17:09:32+00:00</time>
      </trkpt>
      <trkpt lat="50.29708" lon="5.75018">
        <ele>516</ele>
        <time>2026-09-02T17:09:35+00:00</time>
      </trkpt>
      <trkpt lat="50.29703" lon="5.75058">
        <ele>515</ele>
        <time>2026-09-02T17:09:38+00:00</time>
      </trkpt>
      <trkpt lat="50.29696" lon="5.7512">
        <ele>514</ele>
        <time>2026-09-02T17:09:41+00:00</time>
      </trkpt>
      <trkpt lat="50.29693" lon="5.75175">
        <ele>508</ele>
        <time>2026-09-02T17:09:44+00:00</time>
      </trkpt>
      <trkpt lat="50.29695" lon="5.75223">
        <ele>503</ele>
        <time>2026-09-02T17:09:47+00:00</time>
      </trkpt>
      <trkpt lat="50.29697" lon="5.75271">
        <ele>496</ele>
        <time>2026-09-02T17:09:50+00:00</time>
      </trkpt>
      <trkpt lat="50.29701" lon="5.75344">
        <ele>491</ele>
        <time>2026-09-02T17:09:53+00:00</time>
      </trkpt>
      <trkpt lat="50.297" lon="5.75409">
        <ele>491</ele>
        <time>2026-09-02T17:09:56+00:00</time>
      </trkpt>
      <trkpt lat="50.29697" lon="5.75447">
        <ele>491</ele>
        <time>2026-09-02T17:09:59+00:00</time>
      </trkpt>
      <trkpt lat="50.29694" lon="5.75495">
        <ele>492</ele>
        <time>2026-09-02T17:10:02+00:00</time>
      </trkpt>
      <trkpt lat="50.29689" lon="5.75533">
        <ele>489</ele>
        <time>2026-09-02T17:10:05+00:00</time>
      </trkpt>
      <trkpt lat="50.29683" lon="5.75587">
        <ele>486</ele>
        <time>2026-09-02T17:10:08+00:00</time>
      </trkpt>
      <trkpt lat="50.29677" lon="5.75624">
        <ele>484</ele>
        <time>2026-09-02T17:10:11+00:00</time>
      </trkpt>
      <trkpt lat="50.29665" lon="5.7567">
        <ele>481</ele>
        <time>2026-09-02T17:10:14+00:00</time>
      </trkpt>
      <trkpt lat="50.29666" lon="5.75692">
        <ele>475</ele>
        <time>2026-09-02T17:10:17+00:00</time>
      </trkpt>
      <trkpt lat="50.29656" lon="5.75693">
        <ele>481</ele>
        <time>2026-09-02T17:10:20+00:00</time>
      </trkpt>
      <trkpt lat="50.2964" lon="5.75701">
        <ele>481</ele>
        <time>2026-09-02T17:10:23+00:00</time>
      </trkpt>
      <trkpt lat="50.29621" lon="5.75717">
        <ele>481</ele>
        <time>2026-09-02T17:10:26+00:00</time>
      </trkpt>
      <trkpt lat="50.29601" lon="5.75739">
        <ele>483</ele>
        <time>2026-09-02T17:10:29+00:00</time>
      </trkpt>
      <trkpt lat="50.29601" lon="5.75738">
        <ele>483</ele>
        <time>2026-09-02T17:10:32+00:00</time>
      </trkpt>
      <trkpt lat="50.29567" lon="5.75768">
        <ele>488</ele>
        <time>2026-09-02T17:10:35+00:00</time>
      </trkpt>
      <trkpt lat="50.29542" lon="5.7578">
        <ele>489</ele>
        <time>2026-09-02T17:10:38+00:00</time>
      </trkpt>
      <trkpt lat="50.29518" lon="5.7579">
        <ele>489</ele>
        <time>2026-09-02T17:10:41+00:00</time>
      </trkpt>
      <trkpt lat="50.29486" lon="5.75803">
        <ele>489</ele>
        <time>2026-09-02T17:10:44+00:00</time>
      </trkpt>
      <trkpt lat="50.29462" lon="5.75806">
        <ele>489</ele>
        <time>2026-09-02T17:10:47+00:00</time>
      </trkpt>
      <trkpt lat="50.2947" lon="5.75771">
        <ele>489</ele>
        <time>2026-09-02T17:10:50+00:00</time>
      </trkpt>
      <trkpt lat="50.29479" lon="5.75729">
        <ele>493</ele>
        <time>2026-09-02T17:10:53+00:00</time>
      </trkpt>
      <trkpt lat="50.2949" lon="5.75694">
        <ele>496</ele>
        <time>2026-09-02T17:10:56+00:00</time>
      </trkpt>
      <trkpt lat="50.29505" lon="5.75648">
        <ele>499</ele>
        <time>2026-09-02T17:10:59+00:00</time>
      </trkpt>
      <trkpt lat="50.29509" lon="5.75604">
        <ele>501</ele>
        <time>2026-09-02T17:11:02+00:00</time>
      </trkpt>
      <trkpt lat="50.29517" lon="5.7556">
        <ele>506</ele>
        <time>2026-09-02T17:11:05+00:00</time>
      </trkpt>
      <trkpt lat="50.29521" lon="5.75523">
        <ele>510</ele>
        <time>2026-09-02T17:11:08+00:00</time>
      </trkpt>
      <trkpt lat="50.29522" lon="5.75481">
        <ele>514</ele>
        <time>2026-09-02T17:11:11+00:00</time>
      </trkpt>
      <trkpt lat="50.29524" lon="5.75414">
        <ele>526</ele>
        <time>2026-09-02T17:11:14+00:00</time>
      </trkpt>
      <trkpt lat="50.29515" lon="5.75365">
        <ele>532</ele>
        <time>2026-09-02T17:11:17+00:00</time>
      </trkpt>
      <trkpt lat="50.295" lon="5.75344">
        <ele>539</ele>
        <time>2026-09-02T17:11:20+00:00</time>
      </trkpt>
      <trkpt lat="50.29473" lon="5.75332">
        <ele>543</ele>
        <time>2026-09-02T17:11:23+00:00</time>
      </trkpt>
      <trkpt lat="50.29426" lon="5.7531">
        <ele>544</ele>
        <time>2026-09-02T17:11:26+00:00</time>
      </trkpt>
      <trkpt lat="50.29411" lon="5.75288">
        <ele>550</ele>
        <time>2026-09-02T17:11:29+00:00</time>
      </trkpt>
      <trkpt lat="50.294" lon="5.75268">
        <ele>553</ele>
        <time>2026-09-02T17:11:32+00:00</time>
      </trkpt>
      <trkpt lat="50.29394" lon="5.7524">
        <ele>557</ele>
        <time>2026-09-02T17:11:35+00:00</time>
      </trkpt>
      <trkpt lat="50.29385" lon="5.752">
        <ele>560</ele>
        <time>2026-09-02T17:11:38+00:00</time>
      </trkpt>
      <trkpt lat="50.29371" lon="5.75171">
        <ele>560</ele>
        <time>2026-09-02T17:11:41+00:00</time>
      </trkpt>
      <trkpt lat="50.29356" lon="5.75138">
        <ele>560</ele>
        <time>2026-09-02T17:11:44+00:00</time>
      </trkpt>
      <trkpt lat="50.29342" lon="5.75117">
        <ele>560</ele>
        <time>2026-09-02T17:11:47+00:00</time>
      </trkpt>
      <trkpt lat="50.29315" lon="5.7509">
        <ele>560</ele>
        <time>2026-09-02T17:11:50+00:00</time>
      </trkpt>
      <trkpt lat="50.29288" lon="5.75063">
        <ele>564</ele>
        <time>2026-09-02T17:11:53+00:00</time>
      </trkpt>
      <trkpt lat="50.29236" lon="5.75011">
        <ele>564</ele>
        <time>2026-09-02T17:11:56+00:00</time>
      </trkpt>
      <trkpt lat="50.29215" lon="5.74993">
        <ele>565</ele>
        <time>2026-09-02T17:11:59+00:00</time>
      </trkpt>
      <trkpt lat="50.29189" lon="5.74971">
        <ele>567</ele>
        <time>2026-09-02T17:12:02+00:00</time>
      </trkpt>
      <trkpt lat="50.29176" lon="5.74926">
        <ele>567</ele>
        <time>2026-09-02T17:12:05+00:00</time>
      </trkpt>
      <trkpt lat="50.29162" lon="5.74882">
        <ele>568</ele>
        <time>2026-09-02T17:12:08+00:00</time>
      </trkpt>
      <trkpt lat="50.29139" lon="5.74804">
        <ele>568</ele>
        <time>2026-09-02T17:12:11+00:00</time>
      </trkpt>
      <trkpt lat="50.29123" lon="5.74754">
        <ele>564</ele>
        <time>2026-09-02T17:12:14+00:00</time>
      </trkpt>
      <trkpt lat="50.29108" lon="5.74703">
        <ele>564</ele>
        <time>2026-09-02T17:12:17+00:00</time>
      </trkpt>
      <trkpt lat="50.29092" lon="5.74653">
        <ele>559</ele>
        <time>2026-09-02T17:12:20+00:00</time>
      </trkpt>
      <trkpt lat="50.29076" lon="5.74602">
        <ele>558</ele>
        <time>2026-09-02T17:12:23+00:00</time>
      </trkpt>
      <trkpt lat="50.29046" lon="5.74505">
        <ele>555</ele>
        <time>2026-09-02T17:12:26+00:00</time>
      </trkpt>
      <trkpt lat="50.29012" lon="5.74475">
        <ele>552</ele>
        <time>2026-09-02T17:12:29+00:00</time>
      </trkpt>
      <trkpt lat="50.28993" lon="5.74434">
        <ele>551</ele>
        <time>2026-09-02T17:12:32+00:00</time>
      </trkpt>
      <trkpt lat="50.28973" lon="5.74394">
        <ele>549</ele>
        <time>2026-09-02T17:12:35+00:00</time>
      </trkpt>
      <trkpt lat="50.28954" lon="5.74353">
        <ele>544</ele>
        <time>2026-09-02T17:12:38+00:00</time>
      </trkpt>
      <trkpt lat="50.28934" lon="5.74312">
        <ele>542</ele>
        <time>2026-09-02T17:12:41+00:00</time>
      </trkpt>
      <trkpt lat="50.28916" lon="5.7427">
        <ele>541</ele>
        <time>2026-09-02T17:12:44+00:00</time>
      </trkpt>
      <trkpt lat="50.28898" lon="5.74229">
        <ele>541</ele>
        <time>2026-09-02T17:12:47+00:00</time>
      </trkpt>
      <trkpt lat="50.28864" lon="5.7415">
        <ele>548</ele>
        <time>2026-09-02T17:12:50+00:00</time>
      </trkpt>
      <trkpt lat="50.28847" lon="5.74101">
        <ele>553</ele>
        <time>2026-09-02T17:12:53+00:00</time>
      </trkpt>
      <trkpt lat="50.28829" lon="5.74053">
        <ele>555</ele>
        <time>2026-09-02T17:12:56+00:00</time>
      </trkpt>
      <trkpt lat="50.28812" lon="5.74005">
        <ele>555</ele>
        <time>2026-09-02T17:12:59+00:00</time>
      </trkpt>
      <trkpt lat="50.28794" lon="5.73956">
        <ele>555</ele>
        <time>2026-09-02T17:13:02+00:00</time>
      </trkpt>
      <trkpt lat="50.28764" lon="5.73872">
        <ele>555</ele>
        <time>2026-09-02T17:13:05+00:00</time>
      </trkpt>
      <trkpt lat="50.28742" lon="5.73895">
        <ele>561</ele>
        <time>2026-09-02T17:13:08+00:00</time>
      </trkpt>
      <trkpt lat="50.28709" lon="5.73931">
        <ele>564</ele>
        <time>2026-09-02T17:13:11+00:00</time>
      </trkpt>
      <trkpt lat="50.28687" lon="5.73953">
        <ele>567</ele>
        <time>2026-09-02T17:13:14+00:00</time>
      </trkpt>
      <trkpt lat="50.28652" lon="5.73988">
        <ele>570</ele>
        <time>2026-09-02T17:13:17+00:00</time>
      </trkpt>
      <trkpt lat="50.28658" lon="5.74025">
        <ele>570</ele>
        <time>2026-09-02T17:13:20+00:00</time>
      </trkpt>
      <trkpt lat="50.28661" lon="5.74086">
        <ele>567</ele>
        <time>2026-09-02T17:13:23+00:00</time>
      </trkpt>
      <trkpt lat="50.28665" lon="5.74136">
        <ele>564</ele>
        <time>2026-09-02T17:13:26+00:00</time>
      </trkpt>
      <trkpt lat="50.28669" lon="5.74187">
        <ele>561</ele>
        <time>2026-09-02T17:13:29+00:00</time>
      </trkpt>
      <trkpt lat="50.28673" lon="5.74237">
        <ele>557</ele>
        <time>2026-09-02T17:13:32+00:00</time>
      </trkpt>
      <trkpt lat="50.28677" lon="5.74289">
        <ele>557</ele>
        <time>2026-09-02T17:13:35+00:00</time>
      </trkpt>
      <trkpt lat="50.28686" lon="5.74314">
        <ele>558</ele>
        <time>2026-09-02T17:13:38+00:00</time>
      </trkpt>
      <trkpt lat="50.28695" lon="5.74371">
        <ele>558</ele>
        <time>2026-09-02T17:13:41+00:00</time>
      </trkpt>
      <trkpt lat="50.28698" lon="5.74397">
        <ele>557</ele>
        <time>2026-09-02T17:13:44+00:00</time>
      </trkpt>
      <trkpt lat="50.28705" lon="5.74434">
        <ele>558</ele>
        <time>2026-09-02T17:13:47+00:00</time>
      </trkpt>
      <trkpt lat="50.28713" lon="5.74472">
        <ele>558</ele>
        <time>2026-09-02T17:13:50+00:00</time>
      </trkpt>
      <trkpt lat="50.28723" lon="5.74521">
        <ele>558</ele>
        <time>2026-09-02T17:13:53+00:00</time>
      </trkpt>
      <trkpt lat="50.28723" lon="5.74565">
        <ele>560</ele>
        <time>2026-09-02T17:13:56+00:00</time>
      </trkpt>
      <trkpt lat="50.2873" lon="5.74605">
        <ele>561</ele>
        <time>2026-09-02T17:13:59+00:00</time>
      </trkpt>
      <trkpt lat="50.2873" lon="5.74649">
        <ele>563</ele>
        <time>2026-09-02T17:14:02+00:00</time>
      </trkpt>
      <trkpt lat="50.28739" lon="5.74703">
        <ele>564</ele>
        <time>2026-09-02T17:14:05+00:00</time>
      </trkpt>
      <trkpt lat="50.28745" lon="5.74754">
        <ele>565</ele>
        <time>2026-09-02T17:14:08+00:00</time>
      </trkpt>
      <trkpt lat="50.28756" lon="5.74801">
        <ele>565</ele>
        <time>2026-09-02T17:14:11+00:00</time>
      </trkpt>
      <trkpt lat="50.28766" lon="5.74849">
        <ele>566</ele>
        <time>2026-09-02T17:14:14+00:00</time>
      </trkpt>
      <trkpt lat="50.28787" lon="5.74941">
        <ele>568</ele>
        <time>2026-09-02T17:14:17+00:00</time>
      </trkpt>
      <trkpt lat="50.28793" lon="5.74977">
        <ele>569</ele>
        <time>2026-09-02T17:14:20+00:00</time>
      </trkpt>
      <trkpt lat="50.288" lon="5.75021">
        <ele>572</ele>
        <time>2026-09-02T17:14:23+00:00</time>
      </trkpt>
      <trkpt lat="50.28805" lon="5.75058">
        <ele>572</ele>
        <time>2026-09-02T17:14:26+00:00</time>
      </trkpt>
      <trkpt lat="50.28812" lon="5.75107">
        <ele>570</ele>
        <time>2026-09-02T17:14:29+00:00</time>
      </trkpt>
      <trkpt lat="50.28818" lon="5.75133">
        <ele>570</ele>
        <time>2026-09-02T17:14:32+00:00</time>
      </trkpt>
      <trkpt lat="50.28819" lon="5.7517">
        <ele>569</ele>
        <time>2026-09-02T17:14:35+00:00</time>
      </trkpt>
      <trkpt lat="50.2882" lon="5.75215">
        <ele>568</ele>
        <time>2026-09-02T17:14:38+00:00</time>
      </trkpt>
      <trkpt lat="50.28817" lon="5.7525">
        <ele>568</ele>
        <time>2026-09-02T17:14:41+00:00</time>
      </trkpt>
      <trkpt lat="50.28808" lon="5.75292">
        <ele>568</ele>
        <time>2026-09-02T17:14:44+00:00</time>
      </trkpt>
      <trkpt lat="50.28796" lon="5.75326">
        <ele>566</ele>
        <time>2026-09-02T17:14:47+00:00</time>
      </trkpt>
      <trkpt lat="50.28778" lon="5.75375">
        <ele>565</ele>
        <time>2026-09-02T17:14:50+00:00</time>
      </trkpt>
      <trkpt lat="50.28764" lon="5.75431">
        <ele>558</ele>
        <time>2026-09-02T17:14:53+00:00</time>
      </trkpt>
      <trkpt lat="50.2875" lon="5.75451">
        <ele>556</ele>
        <time>2026-09-02T17:14:56+00:00</time>
      </trkpt>
      <trkpt lat="50.28735" lon="5.75484">
        <ele>552</ele>
        <time>2026-09-02T17:14:59+00:00</time>
      </trkpt>
      <trkpt lat="50.28712" lon="5.75536">
        <ele>548</ele>
        <time>2026-09-02T17:15:02+00:00</time>
      </trkpt>
      <trkpt lat="50.28702" lon="5.75563">
        <ele>545</ele>
        <time>2026-09-02T17:15:05+00:00</time>
      </trkpt>
      <trkpt lat="50.28688" lon="5.75611">
        <ele>540</ele>
        <time>2026-09-02T17:15:08+00:00</time>
      </trkpt>
      <trkpt lat="50.28679" lon="5.75632">
        <ele>539</ele>
        <time>2026-09-02T17:15:11+00:00</time>
      </trkpt>
      <trkpt lat="50.28662" lon="5.75647">
        <ele>538</ele>
        <time>2026-09-02T17:15:14+00:00</time>
      </trkpt>
      <trkpt lat="50.28647" lon="5.75657">
        <ele>537</ele>
        <time>2026-09-02T17:15:17+00:00</time>
      </trkpt>
      <trkpt lat="50.28632" lon="5.75673">
        <ele>536</ele>
        <time>2026-09-02T17:15:20+00:00</time>
      </trkpt>
      <trkpt lat="50.2862" lon="5.75702">
        <ele>529</ele>
        <time>2026-09-02T17:15:23+00:00</time>
      </trkpt>
      <trkpt lat="50.28602" lon="5.75753">
        <ele>522</ele>
        <time>2026-09-02T17:15:26+00:00</time>
      </trkpt>
      <trkpt lat="50.28602" lon="5.75775">
        <ele>521</ele>
        <time>2026-09-02T17:15:29+00:00</time>
      </trkpt>
      <trkpt lat="50.286" lon="5.75795">
        <ele>519</ele>
        <time>2026-09-02T17:15:32+00:00</time>
      </trkpt>
      <trkpt lat="50.28589" lon="5.75804">
        <ele>517</ele>
        <time>2026-09-02T17:15:35+00:00</time>
      </trkpt>
      <trkpt lat="50.28574" lon="5.75803">
        <ele>516</ele>
        <time>2026-09-02T17:15:38+00:00</time>
      </trkpt>
      <trkpt lat="50.28569" lon="5.75811">
        <ele>514</ele>
        <time>2026-09-02T17:15:41+00:00</time>
      </trkpt>
      <trkpt lat="50.2857" lon="5.75823">
        <ele>513</ele>
        <time>2026-09-02T17:15:44+00:00</time>
      </trkpt>
      <trkpt lat="50.28582" lon="5.75848">
        <ele>512</ele>
        <time>2026-09-02T17:15:47+00:00</time>
      </trkpt>
      <trkpt lat="50.28557" lon="5.7582">
        <ele>512</ele>
        <time>2026-09-02T17:15:50+00:00</time>
      </trkpt>
      <trkpt lat="50.28532" lon="5.75793">
        <ele>514</ele>
        <time>2026-09-02T17:15:53+00:00</time>
      </trkpt>
      <trkpt lat="50.28497" lon="5.75754">
        <ele>516</ele>
        <time>2026-09-02T17:15:56+00:00</time>
      </trkpt>
      <trkpt lat="50.28485" lon="5.75736">
        <ele>517</ele>
        <time>2026-09-02T17:15:59+00:00</time>
      </trkpt>
      <trkpt lat="50.28476" lon="5.75717">
        <ele>518</ele>
        <time>2026-09-02T17:16:02+00:00</time>
      </trkpt>
      <trkpt lat="50.28465" lon="5.75694">
        <ele>519</ele>
        <time>2026-09-02T17:16:05+00:00</time>
      </trkpt>
      <trkpt lat="50.28453" lon="5.75685">
        <ele>520</ele>
        <time>2026-09-02T17:16:08+00:00</time>
      </trkpt>
      <trkpt lat="50.28441" lon="5.75669">
        <ele>520</ele>
        <time>2026-09-02T17:16:11+00:00</time>
      </trkpt>
      <trkpt lat="50.28427" lon="5.75651">
        <ele>521</ele>
        <time>2026-09-02T17:16:14+00:00</time>
      </trkpt>
      <trkpt lat="50.28414" lon="5.75641">
        <ele>521</ele>
        <time>2026-09-02T17:16:17+00:00</time>
      </trkpt>
      <trkpt lat="50.28388" lon="5.75637">
        <ele>522</ele>
        <time>2026-09-02T17:16:20+00:00</time>
      </trkpt>
      <trkpt lat="50.28362" lon="5.75633">
        <ele>525</ele>
        <time>2026-09-02T17:16:23+00:00</time>
      </trkpt>
      <trkpt lat="50.28327" lon="5.75628">
        <ele>525</ele>
        <time>2026-09-02T17:16:26+00:00</time>
      </trkpt>
      <trkpt lat="50.28321" lon="5.75631">
        <ele>526</ele>
        <time>2026-09-02T17:16:29+00:00</time>
      </trkpt>
      <trkpt lat="50.28297" lon="5.7564">
        <ele>525</ele>
        <time>2026-09-02T17:16:32+00:00</time>
      </trkpt>
      <trkpt lat="50.28256" lon="5.75656">
        <ele>525</ele>
        <time>2026-09-02T17:16:35+00:00</time>
      </trkpt>
      <trkpt lat="50.28245" lon="5.75665">
        <ele>524</ele>
        <time>2026-09-02T17:16:38+00:00</time>
      </trkpt>
      <trkpt lat="50.28217" lon="5.75682">
        <ele>526</ele>
        <time>2026-09-02T17:16:41+00:00</time>
      </trkpt>
      <trkpt lat="50.28189" lon="5.75691">
        <ele>528</ele>
        <time>2026-09-02T17:16:44+00:00</time>
      </trkpt>
      <trkpt lat="50.28161" lon="5.757">
        <ele>530</ele>
        <time>2026-09-02T17:16:47+00:00</time>
      </trkpt>
      <trkpt lat="50.28132" lon="5.75709">
        <ele>532</ele>
        <time>2026-09-02T17:16:50+00:00</time>
      </trkpt>
      <trkpt lat="50.28092" lon="5.75718">
        <ele>537</ele>
        <time>2026-09-02T17:16:53+00:00</time>
      </trkpt>
      <trkpt lat="50.28072" lon="5.75731">
        <ele>538</ele>
        <time>2026-09-02T17:16:56+00:00</time>
      </trkpt>
      <trkpt lat="50.28061" lon="5.75741">
        <ele>539</ele>
        <time>2026-09-02T17:16:59+00:00</time>
      </trkpt>
      <trkpt lat="50.28045" lon="5.75763">
        <ele>541</ele>
        <time>2026-09-02T17:17:02+00:00</time>
      </trkpt>
      <trkpt lat="50.28021" lon="5.75798">
        <ele>544</ele>
        <time>2026-09-02T17:17:05+00:00</time>
      </trkpt>
      <trkpt lat="50.28006" lon="5.75823">
        <ele>549</ele>
        <time>2026-09-02T17:17:08+00:00</time>
      </trkpt>
      <trkpt lat="50.27991" lon="5.75849">
        <ele>552</ele>
        <time>2026-09-02T17:17:11+00:00</time>
      </trkpt>
      <trkpt lat="50.27969" lon="5.75897">
        <ele>555</ele>
        <time>2026-09-02T17:17:14+00:00</time>
      </trkpt>
      <trkpt lat="50.27984" lon="5.7594">
        <ele>556</ele>
        <time>2026-09-02T17:17:17+00:00</time>
      </trkpt>
      <trkpt lat="50.27999" lon="5.75983">
        <ele>560</ele>
        <time>2026-09-02T17:17:20+00:00</time>
      </trkpt>
      <trkpt lat="50.28024" lon="5.76054">
        <ele>560</ele>
        <time>2026-09-02T17:17:23+00:00</time>
      </trkpt>
      <trkpt lat="50.28036" lon="5.76091">
        <ele>557</ele>
        <time>2026-09-02T17:17:26+00:00</time>
      </trkpt>
      <trkpt lat="50.28056" lon="5.76154">
        <ele>551</ele>
        <time>2026-09-02T17:17:29+00:00</time>
      </trkpt>
      <trkpt lat="50.28063" lon="5.76186">
        <ele>543</ele>
        <time>2026-09-02T17:17:32+00:00</time>
      </trkpt>
      <trkpt lat="50.28071" lon="5.7622">
        <ele>539</ele>
        <time>2026-09-02T17:17:35+00:00</time>
      </trkpt>
      <trkpt lat="50.28072" lon="5.76267">
        <ele>534</ele>
        <time>2026-09-02T17:17:38+00:00</time>
      </trkpt>
      <trkpt lat="50.28067" lon="5.76306">
        <ele>535</ele>
        <time>2026-09-02T17:17:41+00:00</time>
      </trkpt>
      <trkpt lat="50.28067" lon="5.76369">
        <ele>534</ele>
        <time>2026-09-02T17:17:44+00:00</time>
      </trkpt>
      <trkpt lat="50.28072" lon="5.76404">
        <ele>533</ele>
        <time>2026-09-02T17:17:47+00:00</time>
      </trkpt>
      <trkpt lat="50.28078" lon="5.76446">
        <ele>529</ele>
        <time>2026-09-02T17:17:50+00:00</time>
      </trkpt>
      <trkpt lat="50.28086" lon="5.76494">
        <ele>523</ele>
        <time>2026-09-02T17:17:53+00:00</time>
      </trkpt>
      <trkpt lat="50.28094" lon="5.76541">
        <ele>517</ele>
        <time>2026-09-02T17:17:56+00:00</time>
      </trkpt>
      <trkpt lat="50.28109" lon="5.76625">
        <ele>514</ele>
        <time>2026-09-02T17:17:59+00:00</time>
      </trkpt>
      <trkpt lat="50.28127" lon="5.76651">
        <ele>510</ele>
        <time>2026-09-02T17:18:02+00:00</time>
      </trkpt>
      <trkpt lat="50.28149" lon="5.76684">
        <ele>505</ele>
        <time>2026-09-02T17:18:05+00:00</time>
      </trkpt>
      <trkpt lat="50.28159" lon="5.76712">
        <ele>502</ele>
        <time>2026-09-02T17:18:08+00:00</time>
      </trkpt>
      <trkpt lat="50.28168" lon="5.76726">
        <ele>499</ele>
        <time>2026-09-02T17:18:11+00:00</time>
      </trkpt>
      <trkpt lat="50.28167" lon="5.76755">
        <ele>496</ele>
        <time>2026-09-02T17:18:14+00:00</time>
      </trkpt>
      <trkpt lat="50.28165" lon="5.76794">
        <ele>489</ele>
        <time>2026-09-02T17:18:17+00:00</time>
      </trkpt>
      <trkpt lat="50.28172" lon="5.76832">
        <ele>480</ele>
        <time>2026-09-02T17:18:20+00:00</time>
      </trkpt>
      <trkpt lat="50.28181" lon="5.76884">
        <ele>471</ele>
        <time>2026-09-02T17:18:23+00:00</time>
      </trkpt>
      <trkpt lat="50.28181" lon="5.76905">
        <ele>468</ele>
        <time>2026-09-02T17:18:26+00:00</time>
      </trkpt>
      <trkpt lat="50.28173" lon="5.76924">
        <ele>464</ele>
        <time>2026-09-02T17:18:29+00:00</time>
      </trkpt>
      <trkpt lat="50.28162" lon="5.76933">
        <ele>460</ele>
        <time>2026-09-02T17:18:32+00:00</time>
      </trkpt>
      <trkpt lat="50.28141" lon="5.76933">
        <ele>456</ele>
        <time>2026-09-02T17:18:35+00:00</time>
      </trkpt>
      <trkpt lat="50.28113" lon="5.76929">
        <ele>453</ele>
        <time>2026-09-02T17:18:38+00:00</time>
      </trkpt>
      <trkpt lat="50.28089" lon="5.76916">
        <ele>451</ele>
        <time>2026-09-02T17:18:41+00:00</time>
      </trkpt>
      <trkpt lat="50.28069" lon="5.76908">
        <ele>450</ele>
        <time>2026-09-02T17:18:44+00:00</time>
      </trkpt>
      <trkpt lat="50.28047" lon="5.76911">
        <ele>449</ele>
        <time>2026-09-02T17:18:47+00:00</time>
      </trkpt>
      <trkpt lat="50.28025" lon="5.76918">
        <ele>448</ele>
        <time>2026-09-02T17:18:50+00:00</time>
      </trkpt>
      <trkpt lat="50.28011" lon="5.76928">
        <ele>445</ele>
        <time>2026-09-02T17:18:53+00:00</time>
      </trkpt>
      <trkpt lat="50.27994" lon="5.76937">
        <ele>443</ele>
        <time>2026-09-02T17:18:56+00:00</time>
      </trkpt>
      <trkpt lat="50.27972" lon="5.7695">
        <ele>442</ele>
        <time>2026-09-02T17:18:59+00:00</time>
      </trkpt>
      <trkpt lat="50.27963" lon="5.7696">
        <ele>441</ele>
        <time>2026-09-02T17:19:02+00:00</time>
      </trkpt>
      <trkpt lat="50.27961" lon="5.76978">
        <ele>435</ele>
        <time>2026-09-02T17:19:05+00:00</time>
      </trkpt>
      <trkpt lat="50.27964" lon="5.7699">
        <ele>432</ele>
        <time>2026-09-02T17:19:08+00:00</time>
      </trkpt>
      <trkpt lat="50.27982" lon="5.77025">
        <ele>420</ele>
        <time>2026-09-02T17:19:11+00:00</time>
      </trkpt>
      <trkpt lat="50.28002" lon="5.77045">
        <ele>414</ele>
        <time>2026-09-02T17:19:14+00:00</time>
      </trkpt>
      <trkpt lat="50.28026" lon="5.77071">
        <ele>411</ele>
        <time>2026-09-02T17:19:17+00:00</time>
      </trkpt>
      <trkpt lat="50.28032" lon="5.77083">
        <ele>410</ele>
        <time>2026-09-02T17:19:20+00:00</time>
      </trkpt>
      <trkpt lat="50.2803" lon="5.77105">
        <ele>411</ele>
        <time>2026-09-02T17:19:23+00:00</time>
      </trkpt>
      <trkpt lat="50.2805" lon="5.77084">
        <ele>412</ele>
        <time>2026-09-02T17:19:26+00:00</time>
      </trkpt>
      <trkpt lat="50.28063" lon="5.77079">
        <ele>417</ele>
        <time>2026-09-02T17:19:29+00:00</time>
      </trkpt>
      <trkpt lat="50.28083" lon="5.77083">
        <ele>417</ele>
        <time>2026-09-02T17:19:32+00:00</time>
      </trkpt>
      <trkpt lat="50.28112" lon="5.77088">
        <ele>418</ele>
        <time>2026-09-02T17:19:35+00:00</time>
      </trkpt>
      <trkpt lat="50.28145" lon="5.77081">
        <ele>419</ele>
        <time>2026-09-02T17:19:38+00:00</time>
      </trkpt>
      <trkpt lat="50.28155" lon="5.77077">
        <ele>422</ele>
        <time>2026-09-02T17:19:41+00:00</time>
      </trkpt>
      <trkpt lat="50.28171" lon="5.77064">
        <ele>420</ele>
        <time>2026-09-02T17:19:44+00:00</time>
      </trkpt>
      <trkpt lat="50.28191" lon="5.77038">
        <ele>425</ele>
        <time>2026-09-02T17:19:47+00:00</time>
      </trkpt>
      <trkpt lat="50.28223" lon="5.76999">
        <ele>427</ele>
        <time>2026-09-02T17:19:50+00:00</time>
      </trkpt>
      <trkpt lat="50.28241" lon="5.76963">
        <ele>431</ele>
        <time>2026-09-02T17:19:53+00:00</time>
      </trkpt>
      <trkpt lat="50.28253" lon="5.76929">
        <ele>432</ele>
        <time>2026-09-02T17:19:56+00:00</time>
      </trkpt>
      <trkpt lat="50.28271" lon="5.76881">
        <ele>433</ele>
        <time>2026-09-02T17:19:59+00:00</time>
      </trkpt>
      <trkpt lat="50.28273" lon="5.76862">
        <ele>433</ele>
        <time>2026-09-02T17:20:02+00:00</time>
      </trkpt>
      <trkpt lat="50.28272" lon="5.76829">
        <ele>431</ele>
        <time>2026-09-02T17:20:05+00:00</time>
      </trkpt>
      <trkpt lat="50.28282" lon="5.76819">
        <ele>431</ele>
        <time>2026-09-02T17:20:08+00:00</time>
      </trkpt>
      <trkpt lat="50.28297" lon="5.76816">
        <ele>430</ele>
        <time>2026-09-02T17:20:11+00:00</time>
      </trkpt>
      <trkpt lat="50.28308" lon="5.76881">
        <ele>428</ele>
        <time>2026-09-02T17:20:14+00:00</time>
      </trkpt>
      <trkpt lat="50.28316" lon="5.76903">
        <ele>426</ele>
        <time>2026-09-02T17:20:17+00:00</time>
      </trkpt>
      <trkpt lat="50.28331" lon="5.76916">
        <ele>423</ele>
        <time>2026-09-02T17:20:20+00:00</time>
      </trkpt>
      <trkpt lat="50.28351" lon="5.76933">
        <ele>422</ele>
        <time>2026-09-02T17:20:23+00:00</time>
      </trkpt>
      <trkpt lat="50.28368" lon="5.76953">
        <ele>422</ele>
        <time>2026-09-02T17:20:26+00:00</time>
      </trkpt>
      <trkpt lat="50.28391" lon="5.76971">
        <ele>422</ele>
        <time>2026-09-02T17:20:29+00:00</time>
      </trkpt>
      <trkpt lat="50.28428" lon="5.76999">
        <ele>422</ele>
        <time>2026-09-02T17:20:32+00:00</time>
      </trkpt>
      <trkpt lat="50.28431" lon="5.77015">
        <ele>422</ele>
        <time>2026-09-02T17:20:35+00:00</time>
      </trkpt>
      <trkpt lat="50.28442" lon="5.77038">
        <ele>422</ele>
        <time>2026-09-02T17:20:38+00:00</time>
      </trkpt>
      <trkpt lat="50.28454" lon="5.77066">
        <ele>419</ele>
        <time>2026-09-02T17:20:41+00:00</time>
      </trkpt>
      <trkpt lat="50.28466" lon="5.77104">
        <ele>419</ele>
        <time>2026-09-02T17:20:44+00:00</time>
      </trkpt>
      <trkpt lat="50.28486" lon="5.7717">
        <ele>418</ele>
        <time>2026-09-02T17:20:47+00:00</time>
      </trkpt>
      <trkpt lat="50.28495" lon="5.77206">
        <ele>416</ele>
        <time>2026-09-02T17:20:50+00:00</time>
      </trkpt>
      <trkpt lat="50.28518" lon="5.77261">
        <ele>410</ele>
        <time>2026-09-02T17:20:53+00:00</time>
      </trkpt>
      <trkpt lat="50.28518" lon="5.7728">
        <ele>409</ele>
        <time>2026-09-02T17:20:56+00:00</time>
      </trkpt>
      <trkpt lat="50.28515" lon="5.7731">
        <ele>404</ele>
        <time>2026-09-02T17:20:59+00:00</time>
      </trkpt>
      <trkpt lat="50.2851" lon="5.77351">
        <ele>399</ele>
        <time>2026-09-02T17:21:02+00:00</time>
      </trkpt>
      <trkpt lat="50.28516" lon="5.77399">
        <ele>398</ele>
        <time>2026-09-02T17:21:05+00:00</time>
      </trkpt>
      <trkpt lat="50.28517" lon="5.77459">
        <ele>394</ele>
        <time>2026-09-02T17:21:08+00:00</time>
      </trkpt>
      <trkpt lat="50.28509" lon="5.77507">
        <ele>392</ele>
        <time>2026-09-02T17:21:11+00:00</time>
      </trkpt>
      <trkpt lat="50.28495" lon="5.77546">
        <ele>390</ele>
        <time>2026-09-02T17:21:14+00:00</time>
      </trkpt>
      <trkpt lat="50.28491" lon="5.7758">
        <ele>390</ele>
        <time>2026-09-02T17:21:17+00:00</time>
      </trkpt>
      <trkpt lat="50.28491" lon="5.77601">
        <ele>388</ele>
        <time>2026-09-02T17:21:20+00:00</time>
      </trkpt>
      <trkpt lat="50.285" lon="5.77645">
        <ele>390</ele>
        <time>2026-09-02T17:21:23+00:00</time>
      </trkpt>
      <trkpt lat="50.28502" lon="5.77668">
        <ele>390</ele>
        <time>2026-09-02T17:21:26+00:00</time>
      </trkpt>
      <trkpt lat="50.28502" lon="5.77699">
        <ele>390</ele>
        <time>2026-09-02T17:21:29+00:00</time>
      </trkpt>
      <trkpt lat="50.28502" lon="5.77748">
        <ele>390</ele>
        <time>2026-09-02T17:21:32+00:00</time>
      </trkpt>
      <trkpt lat="50.28506" lon="5.77763">
        <ele>390</ele>
        <time>2026-09-02T17:21:35+00:00</time>
      </trkpt>
      <trkpt lat="50.28513" lon="5.7777">
        <ele>391</ele>
        <time>2026-09-02T17:21:38+00:00</time>
      </trkpt>
      <trkpt lat="50.28519" lon="5.7777">
        <ele>391</ele>
        <time>2026-09-02T17:21:41+00:00</time>
      </trkpt>
      <trkpt lat="50.28535" lon="5.77752">
        <ele>393</ele>
        <time>2026-09-02T17:21:44+00:00</time>
      </trkpt>
      <trkpt lat="50.28546" lon="5.77746">
        <ele>393</ele>
        <time>2026-09-02T17:21:47+00:00</time>
      </trkpt>
      <trkpt lat="50.28557" lon="5.77748">
        <ele>394</ele>
        <time>2026-09-02T17:21:50+00:00</time>
      </trkpt>
      <trkpt lat="50.28526" lon="5.77794">
        <ele>395</ele>
        <time>2026-09-02T17:21:53+00:00</time>
      </trkpt>
      <trkpt lat="50.28509" lon="5.7783">
        <ele>398</ele>
        <time>2026-09-02T17:21:56+00:00</time>
      </trkpt>
      <trkpt lat="50.28483" lon="5.77816">
        <ele>401</ele>
        <time>2026-09-02T17:21:59+00:00</time>
      </trkpt>
      <trkpt lat="50.28439" lon="5.77792">
        <ele>408</ele>
        <time>2026-09-02T17:22:02+00:00</time>
      </trkpt>
      <trkpt lat="50.28426" lon="5.77773">
        <ele>408</ele>
        <time>2026-09-02T17:22:05+00:00</time>
      </trkpt>
      <trkpt lat="50.28411" lon="5.77744">
        <ele>407</ele>
        <time>2026-09-02T17:22:08+00:00</time>
      </trkpt>
      <trkpt lat="50.28382" lon="5.77708">
        <ele>407</ele>
        <time>2026-09-02T17:22:11+00:00</time>
      </trkpt>
      <trkpt lat="50.28368" lon="5.77702">
        <ele>409</ele>
        <time>2026-09-02T17:22:14+00:00</time>
      </trkpt>
      <trkpt lat="50.28355" lon="5.77707">
        <ele>411</ele>
        <time>2026-09-02T17:22:17+00:00</time>
      </trkpt>
      <trkpt lat="50.2834" lon="5.77721">
        <ele>420</ele>
        <time>2026-09-02T17:22:20+00:00</time>
      </trkpt>
      <trkpt lat="50.28332" lon="5.77736">
        <ele>421</ele>
        <time>2026-09-02T17:22:23+00:00</time>
      </trkpt>
      <trkpt lat="50.28329" lon="5.77764">
        <ele>425</ele>
        <time>2026-09-02T17:22:26+00:00</time>
      </trkpt>
      <trkpt lat="50.28317" lon="5.77795">
        <ele>428</ele>
        <time>2026-09-02T17:22:29+00:00</time>
      </trkpt>
      <trkpt lat="50.28303" lon="5.7783">
        <ele>430</ele>
        <time>2026-09-02T17:22:32+00:00</time>
      </trkpt>
      <trkpt lat="50.28292" lon="5.77852">
        <ele>433</ele>
        <time>2026-09-02T17:22:35+00:00</time>
      </trkpt>
      <trkpt lat="50.28292" lon="5.77859">
        <ele>433</ele>
        <time>2026-09-02T17:22:38+00:00</time>
      </trkpt>
      <trkpt lat="50.28294" lon="5.779">
        <ele>434</ele>
        <time>2026-09-02T17:22:41+00:00</time>
      </trkpt>
      <trkpt lat="50.28297" lon="5.77973">
        <ele>435</ele>
        <time>2026-09-02T17:22:44+00:00</time>
      </trkpt>
      <trkpt lat="50.28291" lon="5.77953">
        <ele>436</ele>
        <time>2026-09-02T17:22:47+00:00</time>
      </trkpt>
      <trkpt lat="50.28286" lon="5.77923">
        <ele>441</ele>
        <time>2026-09-02T17:22:50+00:00</time>
      </trkpt>
      <trkpt lat="50.2828" lon="5.77881">
        <ele>441</ele>
        <time>2026-09-02T17:22:53+00:00</time>
      </trkpt>
      <trkpt lat="50.28275" lon="5.77839">
        <ele>441</ele>
        <time>2026-09-02T17:22:56+00:00</time>
      </trkpt>
      <trkpt lat="50.28268" lon="5.77804">
        <ele>441</ele>
        <time>2026-09-02T17:22:59+00:00</time>
      </trkpt>
      <trkpt lat="50.28258" lon="5.7777">
        <ele>441</ele>
        <time>2026-09-02T17:23:02+00:00</time>
      </trkpt>
      <trkpt lat="50.2825" lon="5.77779">
        <ele>444</ele>
        <time>2026-09-02T17:23:05+00:00</time>
      </trkpt>
      <trkpt lat="50.28247" lon="5.77787">
        <ele>445</ele>
        <time>2026-09-02T17:23:08+00:00</time>
      </trkpt>
      <trkpt lat="50.28252" lon="5.77825">
        <ele>445</ele>
        <time>2026-09-02T17:23:11+00:00</time>
      </trkpt>
      <trkpt lat="50.28254" lon="5.77865">
        <ele>446</ele>
        <time>2026-09-02T17:23:14+00:00</time>
      </trkpt>
      <trkpt lat="50.28244" lon="5.77844">
        <ele>448</ele>
        <time>2026-09-02T17:23:17+00:00</time>
      </trkpt>
      <trkpt lat="50.28234" lon="5.77835">
        <ele>450</ele>
        <time>2026-09-02T17:23:20+00:00</time>
      </trkpt>
      <trkpt lat="50.28223" lon="5.7783">
        <ele>451</ele>
        <time>2026-09-02T17:23:23+00:00</time>
      </trkpt>
      <trkpt lat="50.2819" lon="5.7782">
        <ele>456</ele>
        <time>2026-09-02T17:23:26+00:00</time>
      </trkpt>
      <trkpt lat="50.28157" lon="5.77809">
        <ele>461</ele>
        <time>2026-09-02T17:23:29+00:00</time>
      </trkpt>
      <trkpt lat="50.28124" lon="5.77799">
        <ele>466</ele>
        <time>2026-09-02T17:23:32+00:00</time>
      </trkpt>
      <trkpt lat="50.28091" lon="5.77789">
        <ele>471</ele>
        <time>2026-09-02T17:23:35+00:00</time>
      </trkpt>
      <trkpt lat="50.2803" lon="5.7777">
        <ele>483</ele>
        <time>2026-09-02T17:23:38+00:00</time>
      </trkpt>
      <trkpt lat="50.28024" lon="5.77773">
        <ele>484</ele>
        <time>2026-09-02T17:23:41+00:00</time>
      </trkpt>
      <trkpt lat="50.28017" lon="5.77781">
        <ele>485</ele>
        <time>2026-09-02T17:23:44+00:00</time>
      </trkpt>
      <trkpt lat="50.28011" lon="5.77794">
        <ele>486</ele>
        <time>2026-09-02T17:23:47+00:00</time>
      </trkpt>
      <trkpt lat="50.27992" lon="5.7782">
        <ele>489</ele>
        <time>2026-09-02T17:23:50+00:00</time>
      </trkpt>
      <trkpt lat="50.27964" lon="5.77858">
        <ele>491</ele>
        <time>2026-09-02T17:23:53+00:00</time>
      </trkpt>
      <trkpt lat="50.2794" lon="5.77892">
        <ele>491</ele>
        <time>2026-09-02T17:23:56+00:00</time>
      </trkpt>
      <trkpt lat="50.27917" lon="5.77927">
        <ele>492</ele>
        <time>2026-09-02T17:23:59+00:00</time>
      </trkpt>
      <trkpt lat="50.27893" lon="5.77962">
        <ele>492</ele>
        <time>2026-09-02T17:24:02+00:00</time>
      </trkpt>
      <trkpt lat="50.27869" lon="5.77997">
        <ele>493</ele>
        <time>2026-09-02T17:24:05+00:00</time>
      </trkpt>
      <trkpt lat="50.27851" lon="5.78033">
        <ele>496</ele>
        <time>2026-09-02T17:24:08+00:00</time>
      </trkpt>
      <trkpt lat="50.27833" lon="5.78077">
        <ele>497</ele>
        <time>2026-09-02T17:24:11+00:00</time>
      </trkpt>
      <trkpt lat="50.27816" lon="5.78122">
        <ele>500</ele>
        <time>2026-09-02T17:24:14+00:00</time>
      </trkpt>
      <trkpt lat="50.27798" lon="5.78166">
        <ele>500</ele>
        <time>2026-09-02T17:24:17+00:00</time>
      </trkpt>
      <trkpt lat="50.27772" lon="5.78233">
        <ele>501</ele>
        <time>2026-09-02T17:24:20+00:00</time>
      </trkpt>
      <trkpt lat="50.27765" lon="5.78243">
        <ele>501</ele>
        <time>2026-09-02T17:24:23+00:00</time>
      </trkpt>
      <trkpt lat="50.27758" lon="5.78245">
        <ele>501</ele>
        <time>2026-09-02T17:24:26+00:00</time>
      </trkpt>
      <trkpt lat="50.27752" lon="5.78244">
        <ele>501</ele>
        <time>2026-09-02T17:24:29+00:00</time>
      </trkpt>
      <trkpt lat="50.2772" lon="5.78227">
        <ele>502</ele>
        <time>2026-09-02T17:24:32+00:00</time>
      </trkpt>
      <trkpt lat="50.27699" lon="5.78214">
        <ele>502</ele>
        <time>2026-09-02T17:24:35+00:00</time>
      </trkpt>
      <trkpt lat="50.27677" lon="5.78201">
        <ele>502</ele>
        <time>2026-09-02T17:24:38+00:00</time>
      </trkpt>
      <trkpt lat="50.27641" lon="5.78175">
        <ele>502</ele>
        <time>2026-09-02T17:24:41+00:00</time>
      </trkpt>
      <trkpt lat="50.27614" lon="5.78152">
        <ele>502</ele>
        <time>2026-09-02T17:24:44+00:00</time>
      </trkpt>
      <trkpt lat="50.27589" lon="5.78125">
        <ele>502</ele>
        <time>2026-09-02T17:24:47+00:00</time>
      </trkpt>
      <trkpt lat="50.27568" lon="5.78097">
        <ele>502</ele>
        <time>2026-09-02T17:24:50+00:00</time>
      </trkpt>
      <trkpt lat="50.27531" lon="5.78049">
        <ele>505</ele>
        <time>2026-09-02T17:24:53+00:00</time>
      </trkpt>
      <trkpt lat="50.27504" lon="5.78015">
        <ele>508</ele>
        <time>2026-09-02T17:24:56+00:00</time>
      </trkpt>
      <trkpt lat="50.27477" lon="5.77981">
        <ele>511</ele>
        <time>2026-09-02T17:24:59+00:00</time>
      </trkpt>
      <trkpt lat="50.27449" lon="5.77948">
        <ele>514</ele>
        <time>2026-09-02T17:25:02+00:00</time>
      </trkpt>
      <trkpt lat="50.27422" lon="5.77914">
        <ele>514</ele>
        <time>2026-09-02T17:25:05+00:00</time>
      </trkpt>
      <trkpt lat="50.2739" lon="5.77874">
        <ele>516</ele>
        <time>2026-09-02T17:25:08+00:00</time>
      </trkpt>
      <trkpt lat="50.27368" lon="5.77851">
        <ele>516</ele>
        <time>2026-09-02T17:25:11+00:00</time>
      </trkpt>
      <trkpt lat="50.27336" lon="5.77817">
        <ele>516</ele>
        <time>2026-09-02T17:25:14+00:00</time>
      </trkpt>
      <trkpt lat="50.27329" lon="5.77806">
        <ele>517</ele>
        <time>2026-09-02T17:25:17+00:00</time>
      </trkpt>
      <trkpt lat="50.27309" lon="5.77784">
        <ele>516</ele>
        <time>2026-09-02T17:25:20+00:00</time>
      </trkpt>
      <trkpt lat="50.27292" lon="5.77777">
        <ele>513</ele>
        <time>2026-09-02T17:25:23+00:00</time>
      </trkpt>
      <trkpt lat="50.27259" lon="5.77779">
        <ele>510</ele>
        <time>2026-09-02T17:25:26+00:00</time>
      </trkpt>
      <trkpt lat="50.27227" lon="5.77779">
        <ele>508</ele>
        <time>2026-09-02T17:25:29+00:00</time>
      </trkpt>
      <trkpt lat="50.27199" lon="5.77775">
        <ele>506</ele>
        <time>2026-09-02T17:25:32+00:00</time>
      </trkpt>
      <trkpt lat="50.27176" lon="5.77769">
        <ele>503</ele>
        <time>2026-09-02T17:25:35+00:00</time>
      </trkpt>
      <trkpt lat="50.27147" lon="5.77761">
        <ele>502</ele>
        <time>2026-09-02T17:25:38+00:00</time>
      </trkpt>
      <trkpt lat="50.27139" lon="5.77762">
        <ele>499</ele>
        <time>2026-09-02T17:25:41+00:00</time>
      </trkpt>
      <trkpt lat="50.27111" lon="5.77761">
        <ele>502</ele>
        <time>2026-09-02T17:25:44+00:00</time>
      </trkpt>
      <trkpt lat="50.27085" lon="5.77765">
        <ele>502</ele>
        <time>2026-09-02T17:25:47+00:00</time>
      </trkpt>
      <trkpt lat="50.27051" lon="5.77784">
        <ele>502</ele>
        <time>2026-09-02T17:25:50+00:00</time>
      </trkpt>
      <trkpt lat="50.27028" lon="5.77794">
        <ele>503</ele>
        <time>2026-09-02T17:25:53+00:00</time>
      </trkpt>
      <trkpt lat="50.26999" lon="5.77807">
        <ele>503</ele>
        <time>2026-09-02T17:25:56+00:00</time>
      </trkpt>
      <trkpt lat="50.26975" lon="5.77827">
        <ele>506</ele>
        <time>2026-09-02T17:25:59+00:00</time>
      </trkpt>
      <trkpt lat="50.26971" lon="5.77833">
        <ele>507</ele>
        <time>2026-09-02T17:26:02+00:00</time>
      </trkpt>
      <trkpt lat="50.26964" lon="5.77849">
        <ele>508</ele>
        <time>2026-09-02T17:26:05+00:00</time>
      </trkpt>
      <trkpt lat="50.26961" lon="5.77863">
        <ele>510</ele>
        <time>2026-09-02T17:26:08+00:00</time>
      </trkpt>
      <trkpt lat="50.2696" lon="5.77891">
        <ele>512</ele>
        <time>2026-09-02T17:26:11+00:00</time>
      </trkpt>
      <trkpt lat="50.2696" lon="5.7792">
        <ele>512</ele>
        <time>2026-09-02T17:26:14+00:00</time>
      </trkpt>
      <trkpt lat="50.26943" lon="5.77909">
        <ele>512</ele>
        <time>2026-09-02T17:26:17+00:00</time>
      </trkpt>
      <trkpt lat="50.2692" lon="5.77888">
        <ele>512</ele>
        <time>2026-09-02T17:26:20+00:00</time>
      </trkpt>
      <trkpt lat="50.26884" lon="5.77856">
        <ele>512</ele>
        <time>2026-09-02T17:26:23+00:00</time>
      </trkpt>
      <trkpt lat="50.26852" lon="5.77832">
        <ele>512</ele>
        <time>2026-09-02T17:26:26+00:00</time>
      </trkpt>
      <trkpt lat="50.26821" lon="5.77814">
        <ele>512</ele>
        <time>2026-09-02T17:26:29+00:00</time>
      </trkpt>
      <trkpt lat="50.26792" lon="5.77791">
        <ele>514</ele>
        <time>2026-09-02T17:26:32+00:00</time>
      </trkpt>
      <trkpt lat="50.26773" lon="5.77758">
        <ele>516</ele>
        <time>2026-09-02T17:26:35+00:00</time>
      </trkpt>
      <trkpt lat="50.26789" lon="5.77733">
        <ele>516</ele>
        <time>2026-09-02T17:26:38+00:00</time>
      </trkpt>
      <trkpt lat="50.268" lon="5.77721">
        <ele>516</ele>
        <time>2026-09-02T17:26:41+00:00</time>
      </trkpt>
      <trkpt lat="50.26815" lon="5.77711">
        <ele>515</ele>
        <time>2026-09-02T17:26:44+00:00</time>
      </trkpt>
      <trkpt lat="50.26832" lon="5.77701">
        <ele>514</ele>
        <time>2026-09-02T17:26:47+00:00</time>
      </trkpt>
      <trkpt lat="50.2686" lon="5.77688">
        <ele>513</ele>
        <time>2026-09-02T17:26:50+00:00</time>
      </trkpt>
      <trkpt lat="50.26887" lon="5.77675">
        <ele>512</ele>
        <time>2026-09-02T17:26:53+00:00</time>
      </trkpt>
      <trkpt lat="50.26916" lon="5.77661">
        <ele>510</ele>
        <time>2026-09-02T17:26:56+00:00</time>
      </trkpt>
      <trkpt lat="50.26947" lon="5.77645">
        <ele>508</ele>
        <time>2026-09-02T17:26:59+00:00</time>
      </trkpt>
      <trkpt lat="50.26977" lon="5.77628">
        <ele>506</ele>
        <time>2026-09-02T17:27:02+00:00</time>
      </trkpt>
      <trkpt lat="50.27038" lon="5.77596">
        <ele>505</ele>
        <time>2026-09-02T17:27:05+00:00</time>
      </trkpt>
      <trkpt lat="50.27062" lon="5.77587">
        <ele>502</ele>
        <time>2026-09-02T17:27:08+00:00</time>
      </trkpt>
      <trkpt lat="50.27093" lon="5.77575">
        <ele>499</ele>
        <time>2026-09-02T17:27:11+00:00</time>
      </trkpt>
      <trkpt lat="50.27114" lon="5.77552">
        <ele>498</ele>
        <time>2026-09-02T17:27:14+00:00</time>
      </trkpt>
      <trkpt lat="50.27147" lon="5.77518">
        <ele>496</ele>
        <time>2026-09-02T17:27:17+00:00</time>
      </trkpt>
      <trkpt lat="50.27166" lon="5.77492">
        <ele>494</ele>
        <time>2026-09-02T17:27:20+00:00</time>
      </trkpt>
      <trkpt lat="50.27193" lon="5.77455">
        <ele>494</ele>
        <time>2026-09-02T17:27:23+00:00</time>
      </trkpt>
      <trkpt lat="50.27213" lon="5.77413">
        <ele>500</ele>
        <time>2026-09-02T17:27:26+00:00</time>
      </trkpt>
      <trkpt lat="50.27233" lon="5.7737">
        <ele>505</ele>
        <time>2026-09-02T17:27:29+00:00</time>
      </trkpt>
      <trkpt lat="50.27253" lon="5.77328">
        <ele>501</ele>
        <time>2026-09-02T17:27:32+00:00</time>
      </trkpt>
      <trkpt lat="50.27286" lon="5.7726">
        <ele>498</ele>
        <time>2026-09-02T17:27:35+00:00</time>
      </trkpt>
      <trkpt lat="50.27309" lon="5.77234">
        <ele>485</ele>
        <time>2026-09-02T17:27:38+00:00</time>
      </trkpt>
      <trkpt lat="50.27338" lon="5.77225">
        <ele>470</ele>
        <time>2026-09-02T17:27:41+00:00</time>
      </trkpt>
      <trkpt lat="50.27368" lon="5.77217">
        <ele>459</ele>
        <time>2026-09-02T17:27:44+00:00</time>
      </trkpt>
      <trkpt lat="50.27406" lon="5.77206">
        <ele>445</ele>
        <time>2026-09-02T17:27:47+00:00</time>
      </trkpt>
      <trkpt lat="50.27419" lon="5.77211">
        <ele>444</ele>
        <time>2026-09-02T17:27:50+00:00</time>
      </trkpt>
      <trkpt lat="50.27447" lon="5.77206">
        <ele>439</ele>
        <time>2026-09-02T17:27:53+00:00</time>
      </trkpt>
      <trkpt lat="50.27479" lon="5.77197">
        <ele>433</ele>
        <time>2026-09-02T17:27:56+00:00</time>
      </trkpt>
      <trkpt lat="50.27512" lon="5.77187">
        <ele>433</ele>
        <time>2026-09-02T17:27:59+00:00</time>
      </trkpt>
      <trkpt lat="50.27544" lon="5.77178">
        <ele>432</ele>
        <time>2026-09-02T17:28:02+00:00</time>
      </trkpt>
      <trkpt lat="50.27586" lon="5.77166">
        <ele>432</ele>
        <time>2026-09-02T17:28:05+00:00</time>
      </trkpt>
      <trkpt lat="50.27618" lon="5.77158">
        <ele>430</ele>
        <time>2026-09-02T17:28:08+00:00</time>
      </trkpt>
      <trkpt lat="50.2765" lon="5.77151">
        <ele>428</ele>
        <time>2026-09-02T17:28:11+00:00</time>
      </trkpt>
      <trkpt lat="50.27713" lon="5.77136">
        <ele>420</ele>
        <time>2026-09-02T17:28:14+00:00</time>
      </trkpt>
      <trkpt lat="50.27734" lon="5.77132">
        <ele>419</ele>
        <time>2026-09-02T17:28:17+00:00</time>
      </trkpt>
      <trkpt lat="50.27756" lon="5.77128">
        <ele>416</ele>
        <time>2026-09-02T17:28:20+00:00</time>
      </trkpt>
      <trkpt lat="50.27778" lon="5.77137">
        <ele>413</ele>
        <time>2026-09-02T17:28:23+00:00</time>
      </trkpt>
      <trkpt lat="50.27804" lon="5.77148">
        <ele>412</ele>
        <time>2026-09-02T17:28:26+00:00</time>
      </trkpt>
      <trkpt lat="50.27835" lon="5.77168">
        <ele>412</ele>
        <time>2026-09-02T17:28:29+00:00</time>
      </trkpt>
      <trkpt lat="50.27871" lon="5.77177">
        <ele>413</ele>
        <time>2026-09-02T17:28:32+00:00</time>
      </trkpt>
      <trkpt lat="50.27894" lon="5.77184">
        <ele>413</ele>
        <time>2026-09-02T17:28:35+00:00</time>
      </trkpt>
      <trkpt lat="50.2792" lon="5.77193">
        <ele>414</ele>
        <time>2026-09-02T17:28:38+00:00</time>
      </trkpt>
      <trkpt lat="50.27961" lon="5.77201">
        <ele>414</ele>
        <time>2026-09-02T17:28:41+00:00</time>
      </trkpt>
      <trkpt lat="50.28" lon="5.77228">
        <ele>414</ele>
        <time>2026-09-02T17:28:44+00:00</time>
      </trkpt>
      <trkpt lat="50.28011" lon="5.7723">
        <ele>412</ele>
        <time>2026-09-02T17:28:47+00:00</time>
      </trkpt>
      <trkpt lat="50.28" lon="5.77213">
        <ele>414</ele>
        <time>2026-09-02T17:28:50+00:00</time>
      </trkpt>
      <trkpt lat="50.27998" lon="5.77202">
        <ele>412</ele>
        <time>2026-09-02T17:28:53+00:00</time>
      </trkpt>
      <trkpt lat="50.28002" lon="5.77178">
        <ele>407</ele>
        <time>2026-09-02T17:28:56+00:00</time>
      </trkpt>
      <trkpt lat="50.2802" lon="5.77141">
        <ele>407</ele>
        <time>2026-09-02T17:28:59+00:00</time>
      </trkpt>
      <trkpt lat="50.28028" lon="5.77118">
        <ele>407</ele>
        <time>2026-09-02T17:29:02+00:00</time>
      </trkpt>
      <trkpt lat="50.2803" lon="5.77105">
        <ele>408</ele>
        <time>2026-09-02T17:29:05+00:00</time>
      </trkpt>
      <trkpt lat="50.28027" lon="5.77091">
        <ele>409</ele>
        <time>2026-09-02T17:29:08+00:00</time>
      </trkpt>
      <trkpt lat="50.28023" lon="5.77082">
        <ele>410</ele>
        <time>2026-09-02T17:29:11+00:00</time>
      </trkpt>
      <trkpt lat="50.28011" lon="5.77066">
        <ele>412</ele>
        <time>2026-09-02T17:29:14+00:00</time>
      </trkpt>
      <trkpt lat="50.27975" lon="5.77053">
        <ele>417</ele>
        <time>2026-09-02T17:29:17+00:00</time>
      </trkpt>
      <trkpt lat="50.2795" lon="5.77046">
        <ele>420</ele>
        <time>2026-09-02T17:29:20+00:00</time>
      </trkpt>
      <trkpt lat="50.27912" lon="5.77037">
        <ele>421</ele>
        <time>2026-09-02T17:29:23+00:00</time>
      </trkpt>
      <trkpt lat="50.27884" lon="5.77014">
        <ele>422</ele>
        <time>2026-09-02T17:29:26+00:00</time>
      </trkpt>
      <trkpt lat="50.27856" lon="5.76991">
        <ele>423</ele>
        <time>2026-09-02T17:29:29+00:00</time>
      </trkpt>
      <trkpt lat="50.27806" lon="5.76951">
        <ele>426</ele>
        <time>2026-09-02T17:29:32+00:00</time>
      </trkpt>
      <trkpt lat="50.27784" lon="5.7693">
        <ele>427</ele>
        <time>2026-09-02T17:29:35+00:00</time>
      </trkpt>
      <trkpt lat="50.27752" lon="5.76899">
        <ele>427</ele>
        <time>2026-09-02T17:29:38+00:00</time>
      </trkpt>
      <trkpt lat="50.27747" lon="5.76892">
        <ele>427</ele>
        <time>2026-09-02T17:29:41+00:00</time>
      </trkpt>
      <trkpt lat="50.27724" lon="5.76855">
        <ele>428</ele>
        <time>2026-09-02T17:29:44+00:00</time>
      </trkpt>
      <trkpt lat="50.27702" lon="5.76819">
        <ele>429</ele>
        <time>2026-09-02T17:29:47+00:00</time>
      </trkpt>
      <trkpt lat="50.27679" lon="5.76782">
        <ele>429</ele>
        <time>2026-09-02T17:29:50+00:00</time>
      </trkpt>
      <trkpt lat="50.2764" lon="5.76719">
        <ele>434</ele>
        <time>2026-09-02T17:29:53+00:00</time>
      </trkpt>
      <trkpt lat="50.2762" lon="5.76705">
        <ele>436</ele>
        <time>2026-09-02T17:29:56+00:00</time>
      </trkpt>
      <trkpt lat="50.276" lon="5.76691">
        <ele>437</ele>
        <time>2026-09-02T17:29:59+00:00</time>
      </trkpt>
      <trkpt lat="50.27579" lon="5.76673">
        <ele>438</ele>
        <time>2026-09-02T17:30:02+00:00</time>
      </trkpt>
      <trkpt lat="50.27559" lon="5.7665">
        <ele>443</ele>
        <time>2026-09-02T17:30:05+00:00</time>
      </trkpt>
      <trkpt lat="50.27534" lon="5.7662">
        <ele>446</ele>
        <time>2026-09-02T17:30:08+00:00</time>
      </trkpt>
      <trkpt lat="50.27504" lon="5.76591">
        <ele>446</ele>
        <time>2026-09-02T17:30:11+00:00</time>
      </trkpt>
      <trkpt lat="50.27484" lon="5.76564">
        <ele>448</ele>
        <time>2026-09-02T17:30:14+00:00</time>
      </trkpt>
      <trkpt lat="50.27451" lon="5.76521">
        <ele>448</ele>
        <time>2026-09-02T17:30:17+00:00</time>
      </trkpt>
      <trkpt lat="50.27423" lon="5.76498">
        <ele>450</ele>
        <time>2026-09-02T17:30:20+00:00</time>
      </trkpt>
      <trkpt lat="50.27395" lon="5.76474">
        <ele>452</ele>
        <time>2026-09-02T17:30:23+00:00</time>
      </trkpt>
      <trkpt lat="50.27342" lon="5.76431">
        <ele>456</ele>
        <time>2026-09-02T17:30:26+00:00</time>
      </trkpt>
      <trkpt lat="50.27322" lon="5.76413">
        <ele>454</ele>
        <time>2026-09-02T17:30:29+00:00</time>
      </trkpt>
      <trkpt lat="50.27301" lon="5.76393">
        <ele>452</ele>
        <time>2026-09-02T17:30:32+00:00</time>
      </trkpt>
      <trkpt lat="50.27272" lon="5.76361">
        <ele>453</ele>
        <time>2026-09-02T17:30:35+00:00</time>
      </trkpt>
      <trkpt lat="50.27255" lon="5.76349">
        <ele>455</ele>
        <time>2026-09-02T17:30:38+00:00</time>
      </trkpt>
      <trkpt lat="50.27231" lon="5.76305">
        <ele>456</ele>
        <time>2026-09-02T17:30:41+00:00</time>
      </trkpt>
      <trkpt lat="50.27214" lon="5.76277">
        <ele>457</ele>
        <time>2026-09-02T17:30:44+00:00</time>
      </trkpt>
      <trkpt lat="50.2719" lon="5.7624">
        <ele>457</ele>
        <time>2026-09-02T17:30:47+00:00</time>
      </trkpt>
      <trkpt lat="50.27172" lon="5.76215">
        <ele>457</ele>
        <time>2026-09-02T17:30:50+00:00</time>
      </trkpt>
      <trkpt lat="50.27149" lon="5.76182">
        <ele>457</ele>
        <time>2026-09-02T17:30:53+00:00</time>
      </trkpt>
      <trkpt lat="50.27134" lon="5.76165">
        <ele>457</ele>
        <time>2026-09-02T17:30:56+00:00</time>
      </trkpt>
      <trkpt lat="50.27117" lon="5.7614">
        <ele>457</ele>
        <time>2026-09-02T17:30:59+00:00</time>
      </trkpt>
      <trkpt lat="50.27099" lon="5.76113">
        <ele>459</ele>
        <time>2026-09-02T17:31:02+00:00</time>
      </trkpt>
      <trkpt lat="50.27089" lon="5.76086">
        <ele>459</ele>
        <time>2026-09-02T17:31:05+00:00</time>
      </trkpt>
      <trkpt lat="50.2707" lon="5.76057">
        <ele>465</ele>
        <time>2026-09-02T17:31:08+00:00</time>
      </trkpt>
      <trkpt lat="50.2704" lon="5.76037">
        <ele>465</ele>
        <time>2026-09-02T17:31:11+00:00</time>
      </trkpt>
      <trkpt lat="50.2701" lon="5.76017">
        <ele>465</ele>
        <time>2026-09-02T17:31:14+00:00</time>
      </trkpt>
      <trkpt lat="50.2698" lon="5.75996">
        <ele>462</ele>
        <time>2026-09-02T17:31:17+00:00</time>
      </trkpt>
      <trkpt lat="50.26947" lon="5.75974">
        <ele>462</ele>
        <time>2026-09-02T17:31:20+00:00</time>
      </trkpt>
      <trkpt lat="50.26925" lon="5.75964">
        <ele>468</ele>
        <time>2026-09-02T17:31:23+00:00</time>
      </trkpt>
      <trkpt lat="50.26899" lon="5.75952">
        <ele>475</ele>
        <time>2026-09-02T17:31:26+00:00</time>
      </trkpt>
      <trkpt lat="50.2688" lon="5.75932">
        <ele>476</ele>
        <time>2026-09-02T17:31:29+00:00</time>
      </trkpt>
      <trkpt lat="50.26858" lon="5.7591">
        <ele>479</ele>
        <time>2026-09-02T17:31:32+00:00</time>
      </trkpt>
      <trkpt lat="50.26824" lon="5.75882">
        <ele>480</ele>
        <time>2026-09-02T17:31:35+00:00</time>
      </trkpt>
      <trkpt lat="50.2681" lon="5.75875">
        <ele>477</ele>
        <time>2026-09-02T17:31:38+00:00</time>
      </trkpt>
      <trkpt lat="50.26801" lon="5.75856">
        <ele>482</ele>
        <time>2026-09-02T17:31:41+00:00</time>
      </trkpt>
      <trkpt lat="50.26792" lon="5.75835">
        <ele>482</ele>
        <time>2026-09-02T17:31:44+00:00</time>
      </trkpt>
      <trkpt lat="50.26777" lon="5.75808">
        <ele>478</ele>
        <time>2026-09-02T17:31:47+00:00</time>
      </trkpt>
      <trkpt lat="50.26762" lon="5.7578">
        <ele>476</ele>
        <time>2026-09-02T17:31:50+00:00</time>
      </trkpt>
      <trkpt lat="50.26752" lon="5.75746">
        <ele>479</ele>
        <time>2026-09-02T17:31:53+00:00</time>
      </trkpt>
      <trkpt lat="50.2674" lon="5.75704">
        <ele>482</ele>
        <time>2026-09-02T17:31:56+00:00</time>
      </trkpt>
      <trkpt lat="50.2673" lon="5.75642">
        <ele>494</ele>
        <time>2026-09-02T17:31:59+00:00</time>
      </trkpt>
      <trkpt lat="50.26729" lon="5.75612">
        <ele>495</ele>
        <time>2026-09-02T17:32:02+00:00</time>
      </trkpt>
      <trkpt lat="50.26734" lon="5.75579">
        <ele>498</ele>
        <time>2026-09-02T17:32:05+00:00</time>
      </trkpt>
      <trkpt lat="50.26739" lon="5.75544">
        <ele>498</ele>
        <time>2026-09-02T17:32:08+00:00</time>
      </trkpt>
      <trkpt lat="50.26739" lon="5.75533">
        <ele>498</ele>
        <time>2026-09-02T17:32:11+00:00</time>
      </trkpt>
      <trkpt lat="50.26727" lon="5.75497">
        <ele>495</ele>
        <time>2026-09-02T17:32:14+00:00</time>
      </trkpt>
      <trkpt lat="50.26705" lon="5.75427">
        <ele>492</ele>
        <time>2026-09-02T17:32:17+00:00</time>
      </trkpt>
      <trkpt lat="50.26697" lon="5.75392">
        <ele>491</ele>
        <time>2026-09-02T17:32:20+00:00</time>
      </trkpt>
      <trkpt lat="50.26686" lon="5.75347">
        <ele>489</ele>
        <time>2026-09-02T17:32:23+00:00</time>
      </trkpt>
      <trkpt lat="50.26675" lon="5.75317">
        <ele>486</ele>
        <time>2026-09-02T17:32:26+00:00</time>
      </trkpt>
      <trkpt lat="50.26663" lon="5.75287">
        <ele>484</ele>
        <time>2026-09-02T17:32:29+00:00</time>
      </trkpt>
      <trkpt lat="50.26659" lon="5.75264">
        <ele>480</ele>
        <time>2026-09-02T17:32:32+00:00</time>
      </trkpt>
      <trkpt lat="50.2665" lon="5.75244">
        <ele>483</ele>
        <time>2026-09-02T17:32:35+00:00</time>
      </trkpt>
      <trkpt lat="50.26641" lon="5.75222">
        <ele>483</ele>
        <time>2026-09-02T17:32:38+00:00</time>
      </trkpt>
      <trkpt lat="50.2663" lon="5.75199">
        <ele>484</ele>
        <time>2026-09-02T17:32:41+00:00</time>
      </trkpt>
      <trkpt lat="50.26616" lon="5.75164">
        <ele>486</ele>
        <time>2026-09-02T17:32:44+00:00</time>
      </trkpt>
      <trkpt lat="50.26607" lon="5.75129">
        <ele>485</ele>
        <time>2026-09-02T17:32:47+00:00</time>
      </trkpt>
      <trkpt lat="50.26599" lon="5.7508">
        <ele>484</ele>
        <time>2026-09-02T17:32:50+00:00</time>
      </trkpt>
      <trkpt lat="50.26593" lon="5.75063">
        <ele>482</ele>
        <time>2026-09-02T17:32:53+00:00</time>
      </trkpt>
      <trkpt lat="50.26581" lon="5.75041">
        <ele>486</ele>
        <time>2026-09-02T17:32:56+00:00</time>
      </trkpt>
      <trkpt lat="50.26555" lon="5.75008">
        <ele>489</ele>
        <time>2026-09-02T17:32:59+00:00</time>
      </trkpt>
      <trkpt lat="50.26528" lon="5.74968">
        <ele>489</ele>
        <time>2026-09-02T17:33:02+00:00</time>
      </trkpt>
      <trkpt lat="50.26512" lon="5.74949">
        <ele>491</ele>
        <time>2026-09-02T17:33:05+00:00</time>
      </trkpt>
      <trkpt lat="50.26482" lon="5.74927">
        <ele>491</ele>
        <time>2026-09-02T17:33:08+00:00</time>
      </trkpt>
      <trkpt lat="50.26464" lon="5.74902">
        <ele>490</ele>
        <time>2026-09-02T17:33:11+00:00</time>
      </trkpt>
      <trkpt lat="50.2644" lon="5.74871">
        <ele>490</ele>
        <time>2026-09-02T17:33:14+00:00</time>
      </trkpt>
      <trkpt lat="50.26421" lon="5.74863">
        <ele>490</ele>
        <time>2026-09-02T17:33:17+00:00</time>
      </trkpt>
      <trkpt lat="50.26407" lon="5.74861">
        <ele>492</ele>
        <time>2026-09-02T17:33:20+00:00</time>
      </trkpt>
      <trkpt lat="50.26398" lon="5.74862">
        <ele>493</ele>
        <time>2026-09-02T17:33:23+00:00</time>
      </trkpt>
      <trkpt lat="50.26389" lon="5.74868">
        <ele>493</ele>
        <time>2026-09-02T17:33:26+00:00</time>
      </trkpt>
      <trkpt lat="50.2637" lon="5.74861">
        <ele>494</ele>
        <time>2026-09-02T17:33:29+00:00</time>
      </trkpt>
      <trkpt lat="50.26356" lon="5.74851">
        <ele>495</ele>
        <time>2026-09-02T17:33:32+00:00</time>
      </trkpt>
      <trkpt lat="50.26348" lon="5.74841">
        <ele>495</ele>
        <time>2026-09-02T17:33:35+00:00</time>
      </trkpt>
      <trkpt lat="50.26327" lon="5.74828">
        <ele>497</ele>
        <time>2026-09-02T17:33:38+00:00</time>
      </trkpt>
      <trkpt lat="50.26309" lon="5.74824">
        <ele>497</ele>
        <time>2026-09-02T17:33:41+00:00</time>
      </trkpt>
      <trkpt lat="50.26292" lon="5.74825">
        <ele>497</ele>
        <time>2026-09-02T17:33:44+00:00</time>
      </trkpt>
      <trkpt lat="50.26278" lon="5.74821">
        <ele>497</ele>
        <time>2026-09-02T17:33:47+00:00</time>
      </trkpt>
      <trkpt lat="50.26264" lon="5.74816">
        <ele>497</ele>
        <time>2026-09-02T17:33:50+00:00</time>
      </trkpt>
      <trkpt lat="50.26241" lon="5.74802">
        <ele>498</ele>
        <time>2026-09-02T17:33:53+00:00</time>
      </trkpt>
      <trkpt lat="50.26226" lon="5.74795">
        <ele>499</ele>
        <time>2026-09-02T17:33:56+00:00</time>
      </trkpt>
      <trkpt lat="50.26209" lon="5.74783">
        <ele>499</ele>
        <time>2026-09-02T17:33:59+00:00</time>
      </trkpt>
      <trkpt lat="50.26185" lon="5.74766">
        <ele>498</ele>
        <time>2026-09-02T17:34:02+00:00</time>
      </trkpt>
      <trkpt lat="50.2616" lon="5.74773">
        <ele>498</ele>
        <time>2026-09-02T17:34:05+00:00</time>
      </trkpt>
      <trkpt lat="50.26157" lon="5.74765">
        <ele>498</ele>
        <time>2026-09-02T17:34:08+00:00</time>
      </trkpt>
      <trkpt lat="50.26157" lon="5.74748">
        <ele>500</ele>
        <time>2026-09-02T17:34:11+00:00</time>
      </trkpt>
      <trkpt lat="50.26153" lon="5.74723">
        <ele>501</ele>
        <time>2026-09-02T17:34:14+00:00</time>
      </trkpt>
      <trkpt lat="50.26148" lon="5.74693">
        <ele>503</ele>
        <time>2026-09-02T17:34:17+00:00</time>
      </trkpt>
      <trkpt lat="50.26148" lon="5.74634">
        <ele>511</ele>
        <time>2026-09-02T17:34:20+00:00</time>
      </trkpt>
      <trkpt lat="50.26164" lon="5.74577">
        <ele>519</ele>
        <time>2026-09-02T17:34:23+00:00</time>
      </trkpt>
      <trkpt lat="50.2618" lon="5.74546">
        <ele>523</ele>
        <time>2026-09-02T17:34:26+00:00</time>
      </trkpt>
      <trkpt lat="50.26192" lon="5.74531">
        <ele>524</ele>
        <time>2026-09-02T17:34:29+00:00</time>
      </trkpt>
      <trkpt lat="50.26201" lon="5.74507">
        <ele>527</ele>
        <time>2026-09-02T17:34:32+00:00</time>
      </trkpt>
      <trkpt lat="50.26207" lon="5.74462">
        <ele>529</ele>
        <time>2026-09-02T17:34:35+00:00</time>
      </trkpt>
      <trkpt lat="50.26213" lon="5.74417">
        <ele>533</ele>
        <time>2026-09-02T17:34:38+00:00</time>
      </trkpt>
      <trkpt lat="50.26219" lon="5.74368">
        <ele>536</ele>
        <time>2026-09-02T17:34:41+00:00</time>
      </trkpt>
      <trkpt lat="50.26225" lon="5.74331">
        <ele>538</ele>
        <time>2026-09-02T17:34:44+00:00</time>
      </trkpt>
      <trkpt lat="50.26234" lon="5.74283">
        <ele>542</ele>
        <time>2026-09-02T17:34:47+00:00</time>
      </trkpt>
      <trkpt lat="50.26244" lon="5.74246">
        <ele>546</ele>
        <time>2026-09-02T17:34:50+00:00</time>
      </trkpt>
      <trkpt lat="50.26238" lon="5.74241">
        <ele>545</ele>
        <time>2026-09-02T17:34:53+00:00</time>
      </trkpt>
      <trkpt lat="50.26221" lon="5.74216">
        <ele>546</ele>
        <time>2026-09-02T17:34:56+00:00</time>
      </trkpt>
      <trkpt lat="50.26196" lon="5.7418">
        <ele>546</ele>
        <time>2026-09-02T17:34:59+00:00</time>
      </trkpt>
      <trkpt lat="50.26185" lon="5.74168">
        <ele>548</ele>
        <time>2026-09-02T17:35:02+00:00</time>
      </trkpt>
      <trkpt lat="50.26162" lon="5.74162">
        <ele>545</ele>
        <time>2026-09-02T17:35:05+00:00</time>
      </trkpt>
      <trkpt lat="50.26142" lon="5.74148">
        <ele>545</ele>
        <time>2026-09-02T17:35:08+00:00</time>
      </trkpt>
      <trkpt lat="50.26122" lon="5.74134">
        <ele>545</ele>
        <time>2026-09-02T17:35:11+00:00</time>
      </trkpt>
      <trkpt lat="50.26105" lon="5.74111">
        <ele>543</ele>
        <time>2026-09-02T17:35:14+00:00</time>
      </trkpt>
      <trkpt lat="50.26087" lon="5.74086">
        <ele>544</ele>
        <time>2026-09-02T17:35:17+00:00</time>
      </trkpt>
      <trkpt lat="50.26054" lon="5.74066">
        <ele>543</ele>
        <time>2026-09-02T17:35:20+00:00</time>
      </trkpt>
      <trkpt lat="50.26024" lon="5.74082">
        <ele>543</ele>
        <time>2026-09-02T17:35:23+00:00</time>
      </trkpt>
      <trkpt lat="50.2599" lon="5.74107">
        <ele>543</ele>
        <time>2026-09-02T17:35:26+00:00</time>
      </trkpt>
      <trkpt lat="50.25966" lon="5.7413">
        <ele>542</ele>
        <time>2026-09-02T17:35:29+00:00</time>
      </trkpt>
      <trkpt lat="50.25922" lon="5.74174">
        <ele>539</ele>
        <time>2026-09-02T17:35:32+00:00</time>
      </trkpt>
      <trkpt lat="50.25899" lon="5.74199">
        <ele>539</ele>
        <time>2026-09-02T17:35:35+00:00</time>
      </trkpt>
      <trkpt lat="50.25858" lon="5.74244">
        <ele>539</ele>
        <time>2026-09-02T17:35:38+00:00</time>
      </trkpt>
      <trkpt lat="50.25842" lon="5.74267">
        <ele>539</ele>
        <time>2026-09-02T17:35:41+00:00</time>
      </trkpt>
      <trkpt lat="50.25827" lon="5.74291">
        <ele>539</ele>
        <time>2026-09-02T17:35:44+00:00</time>
      </trkpt>
      <trkpt lat="50.25814" lon="5.74316">
        <ele>540</ele>
        <time>2026-09-02T17:35:47+00:00</time>
      </trkpt>
      <trkpt lat="50.25781" lon="5.74352">
        <ele>540</ele>
        <time>2026-09-02T17:35:50+00:00</time>
      </trkpt>
      <trkpt lat="50.25762" lon="5.74367">
        <ele>541</ele>
        <time>2026-09-02T17:35:53+00:00</time>
      </trkpt>
      <trkpt lat="50.25742" lon="5.74382">
        <ele>541</ele>
        <time>2026-09-02T17:35:56+00:00</time>
      </trkpt>
      <trkpt lat="50.25708" lon="5.74416">
        <ele>542</ele>
        <time>2026-09-02T17:35:59+00:00</time>
      </trkpt>
      <trkpt lat="50.2569" lon="5.74437">
        <ele>543</ele>
        <time>2026-09-02T17:36:02+00:00</time>
      </trkpt>
      <trkpt lat="50.2567" lon="5.74459">
        <ele>543</ele>
        <time>2026-09-02T17:36:05+00:00</time>
      </trkpt>
      <trkpt lat="50.25663" lon="5.74472">
        <ele>543</ele>
        <time>2026-09-02T17:36:08+00:00</time>
      </trkpt>
      <trkpt lat="50.25639" lon="5.74438">
        <ele>548</ele>
        <time>2026-09-02T17:36:11+00:00</time>
      </trkpt>
      <trkpt lat="50.25616" lon="5.74404">
        <ele>550</ele>
        <time>2026-09-02T17:36:14+00:00</time>
      </trkpt>
      <trkpt lat="50.25593" lon="5.7437">
        <ele>552</ele>
        <time>2026-09-02T17:36:17+00:00</time>
      </trkpt>
      <trkpt lat="50.25548" lon="5.74305">
        <ele>560</ele>
        <time>2026-09-02T17:36:20+00:00</time>
      </trkpt>
      <trkpt lat="50.25537" lon="5.74246">
        <ele>561</ele>
        <time>2026-09-02T17:36:23+00:00</time>
      </trkpt>
      <trkpt lat="50.25525" lon="5.74186">
        <ele>566</ele>
        <time>2026-09-02T17:36:26+00:00</time>
      </trkpt>
      <trkpt lat="50.25514" lon="5.74127">
        <ele>572</ele>
        <time>2026-09-02T17:36:29+00:00</time>
      </trkpt>
      <trkpt lat="50.25502" lon="5.74068">
        <ele>579</ele>
        <time>2026-09-02T17:36:32+00:00</time>
      </trkpt>
      <trkpt lat="50.25491" lon="5.74008">
        <ele>584</ele>
        <time>2026-09-02T17:36:35+00:00</time>
      </trkpt>
      <trkpt lat="50.25479" lon="5.73949">
        <ele>593</ele>
        <time>2026-09-02T17:36:38+00:00</time>
      </trkpt>
      <trkpt lat="50.25468" lon="5.7389">
        <ele>598</ele>
        <time>2026-09-02T17:36:41+00:00</time>
      </trkpt>
      <trkpt lat="50.25457" lon="5.7383">
        <ele>603</ele>
        <time>2026-09-02T17:36:44+00:00</time>
      </trkpt>
      <trkpt lat="50.25445" lon="5.73771">
        <ele>608</ele>
        <time>2026-09-02T17:36:47+00:00</time>
      </trkpt>
      <trkpt lat="50.25434" lon="5.73712">
        <ele>612</ele>
        <time>2026-09-02T17:36:50+00:00</time>
      </trkpt>
      <trkpt lat="50.25422" lon="5.73652">
        <ele>617</ele>
        <time>2026-09-02T17:36:53+00:00</time>
      </trkpt>
      <trkpt lat="50.25406" lon="5.73568">
        <ele>620</ele>
        <time>2026-09-02T17:36:56+00:00</time>
      </trkpt>
      <trkpt lat="50.25433" lon="5.73563">
        <ele>620</ele>
        <time>2026-09-02T17:36:59+00:00</time>
      </trkpt>
      <trkpt lat="50.25477" lon="5.73554">
        <ele>618</ele>
        <time>2026-09-02T17:37:02+00:00</time>
      </trkpt>
      <trkpt lat="50.25485" lon="5.73588">
        <ele>617</ele>
        <time>2026-09-02T17:37:05+00:00</time>
      </trkpt>
      <trkpt lat="50.25494" lon="5.73629">
        <ele>613</ele>
        <time>2026-09-02T17:37:08+00:00</time>
      </trkpt>
      <trkpt lat="50.25495" lon="5.73629">
        <ele>613</ele>
        <time>2026-09-02T17:37:11+00:00</time>
      </trkpt>
      <trkpt lat="50.25495" lon="5.73658">
        <ele>611</ele>
        <time>2026-09-02T17:37:14+00:00</time>
      </trkpt>
      <trkpt lat="50.25504" lon="5.73703">
        <ele>607</ele>
        <time>2026-09-02T17:37:17+00:00</time>
      </trkpt>
      <trkpt lat="50.25514" lon="5.73748">
        <ele>604</ele>
        <time>2026-09-02T17:37:20+00:00</time>
      </trkpt>
      <trkpt lat="50.25527" lon="5.73811">
        <ele>604</ele>
        <time>2026-09-02T17:37:23+00:00</time>
      </trkpt>
      <trkpt lat="50.25562" lon="5.73797">
        <ele>604</ele>
        <time>2026-09-02T17:37:26+00:00</time>
      </trkpt>
      <trkpt lat="50.25597" lon="5.73784">
        <ele>600</ele>
        <time>2026-09-02T17:37:29+00:00</time>
      </trkpt>
      <trkpt lat="50.25631" lon="5.73771">
        <ele>599</ele>
        <time>2026-09-02T17:37:32+00:00</time>
      </trkpt>
      <trkpt lat="50.25666" lon="5.73757">
        <ele>599</ele>
        <time>2026-09-02T17:37:35+00:00</time>
      </trkpt>
      <trkpt lat="50.25734" lon="5.73731">
        <ele>594</ele>
        <time>2026-09-02T17:37:38+00:00</time>
      </trkpt>
      <trkpt lat="50.2574" lon="5.73696">
        <ele>592</ele>
        <time>2026-09-02T17:37:41+00:00</time>
      </trkpt>
      <trkpt lat="50.25746" lon="5.73656">
        <ele>591</ele>
        <time>2026-09-02T17:37:44+00:00</time>
      </trkpt>
      <trkpt lat="50.25757" lon="5.73625">
        <ele>591</ele>
        <time>2026-09-02T17:37:47+00:00</time>
      </trkpt>
      <trkpt lat="50.2577" lon="5.7359">
        <ele>591</ele>
        <time>2026-09-02T17:37:50+00:00</time>
      </trkpt>
      <trkpt lat="50.25785" lon="5.73561">
        <ele>591</ele>
        <time>2026-09-02T17:37:53+00:00</time>
      </trkpt>
      <trkpt lat="50.25804" lon="5.73526">
        <ele>590</ele>
        <time>2026-09-02T17:37:56+00:00</time>
      </trkpt>
      <trkpt lat="50.25821" lon="5.73492">
        <ele>590</ele>
        <time>2026-09-02T17:37:59+00:00</time>
      </trkpt>
      <trkpt lat="50.25851" lon="5.7343">
        <ele>594</ele>
        <time>2026-09-02T17:38:02+00:00</time>
      </trkpt>
      <trkpt lat="50.25866" lon="5.73403">
        <ele>592</ele>
        <time>2026-09-02T17:38:05+00:00</time>
      </trkpt>
      <trkpt lat="50.25883" lon="5.73372">
        <ele>596</ele>
        <time>2026-09-02T17:38:08+00:00</time>
      </trkpt>
      <trkpt lat="50.25869" lon="5.73371">
        <ele>599</ele>
        <time>2026-09-02T17:38:11+00:00</time>
      </trkpt>
      <trkpt lat="50.25849" lon="5.73377">
        <ele>601</ele>
        <time>2026-09-02T17:38:14+00:00</time>
      </trkpt>
      <trkpt lat="50.25817" lon="5.73387">
        <ele>599</ele>
        <time>2026-09-02T17:38:17+00:00</time>
      </trkpt>
      <trkpt lat="50.25779" lon="5.73401">
        <ele>600</ele>
        <time>2026-09-02T17:38:20+00:00</time>
      </trkpt>
      <trkpt lat="50.25741" lon="5.73395">
        <ele>602</ele>
        <time>2026-09-02T17:38:23+00:00</time>
      </trkpt>
      <trkpt lat="50.2572" lon="5.73383">
        <ele>607</ele>
        <time>2026-09-02T17:38:26+00:00</time>
      </trkpt>
      <trkpt lat="50.25699" lon="5.7337">
        <ele>610</ele>
        <time>2026-09-02T17:38:29+00:00</time>
      </trkpt>
      <trkpt lat="50.25682" lon="5.73346">
        <ele>612</ele>
        <time>2026-09-02T17:38:32+00:00</time>
      </trkpt>
      <trkpt lat="50.25668" lon="5.73316">
        <ele>615</ele>
        <time>2026-09-02T17:38:35+00:00</time>
      </trkpt>
      <trkpt lat="50.25651" lon="5.73279">
        <ele>618</ele>
        <time>2026-09-02T17:38:38+00:00</time>
      </trkpt>
      <trkpt lat="50.25649" lon="5.73264">
        <ele>619</ele>
        <time>2026-09-02T17:38:41+00:00</time>
      </trkpt>
      <trkpt lat="50.25636" lon="5.73254">
        <ele>620</ele>
        <time>2026-09-02T17:38:44+00:00</time>
      </trkpt>
      <trkpt lat="50.25631" lon="5.73242">
        <ele>621</ele>
        <time>2026-09-02T17:38:47+00:00</time>
      </trkpt>
      <trkpt lat="50.2563" lon="5.73227">
        <ele>623</ele>
        <time>2026-09-02T17:38:50+00:00</time>
      </trkpt>
      <trkpt lat="50.25641" lon="5.73193">
        <ele>623</ele>
        <time>2026-09-02T17:38:53+00:00</time>
      </trkpt>
      <trkpt lat="50.25651" lon="5.73155">
        <ele>624</ele>
        <time>2026-09-02T17:38:56+00:00</time>
      </trkpt>
      <trkpt lat="50.25666" lon="5.73094">
        <ele>628</ele>
        <time>2026-09-02T17:38:59+00:00</time>
      </trkpt>
      <trkpt lat="50.25665" lon="5.73076">
        <ele>631</ele>
        <time>2026-09-02T17:39:02+00:00</time>
      </trkpt>
      <trkpt lat="50.25638" lon="5.73087">
        <ele>634</ele>
        <time>2026-09-02T17:39:05+00:00</time>
      </trkpt>
      <trkpt lat="50.2561" lon="5.73097">
        <ele>634</ele>
        <time>2026-09-02T17:39:08+00:00</time>
      </trkpt>
      <trkpt lat="50.25565" lon="5.73115">
        <ele>639</ele>
        <time>2026-09-02T17:39:11+00:00</time>
      </trkpt>
      <trkpt lat="50.25533" lon="5.73132">
        <ele>639</ele>
        <time>2026-09-02T17:39:14+00:00</time>
      </trkpt>
      <trkpt lat="50.25501" lon="5.73148">
        <ele>640</ele>
        <time>2026-09-02T17:39:17+00:00</time>
      </trkpt>
      <trkpt lat="50.25468" lon="5.73165">
        <ele>639</ele>
        <time>2026-09-02T17:39:20+00:00</time>
      </trkpt>
      <trkpt lat="50.25414" lon="5.73193">
        <ele>638</ele>
        <time>2026-09-02T17:39:23+00:00</time>
      </trkpt>
      <trkpt lat="50.25421" lon="5.73245">
        <ele>636</ele>
        <time>2026-09-02T17:39:26+00:00</time>
      </trkpt>
      <trkpt lat="50.25428" lon="5.73298">
        <ele>636</ele>
        <time>2026-09-02T17:39:29+00:00</time>
      </trkpt>
      <trkpt lat="50.25435" lon="5.7335">
        <ele>635</ele>
        <time>2026-09-02T17:39:32+00:00</time>
      </trkpt>
      <trkpt lat="50.25448" lon="5.73447">
        <ele>625</ele>
        <time>2026-09-02T17:39:35+00:00</time>
      </trkpt>
      <trkpt lat="50.25445" lon="5.73466">
        <ele>625</ele>
        <time>2026-09-02T17:39:38+00:00</time>
      </trkpt>
      <trkpt lat="50.25432" lon="5.73452">
        <ele>626</ele>
        <time>2026-09-02T17:39:41+00:00</time>
      </trkpt>
    </trkseg>
  </trk>
</gpx>
